<?xml version="1.0" encoding="UTF-8" standalone="no" ?>
<gpx xmlns="http://www.topografix.com/GPX/1/1" xmlns:xsi="http://www.w3.org/2001/XMLSchema-instance" xsi:schemaLocation="http://www.topografix.com/GPX/1/1 http://www.topografix.com/GPX/1/1/gpx.xsd" version="1.1" creator="VisuGPX - https://www.visugpx.com">
  <metadata>
    <name>Sortie estivants</name>
    <desc><![CDATA[13 Août 2014]]></desc>
  </metadata>
  <wpt lat="48.43903" lon="-3.88611">
    <ele>322.6</ele>
    <name><![CDATA[13/08/2014 14:01 (départ)]]></name>
  </wpt>
  <wpt lat="48.43921" lon="-3.88637">
    <ele>296.7</ele>
    <name><![CDATA[13/08/2014 14:01 (fin)]]></name>
    <desc><![CDATA[Créé par Google Mes parcours sur Android  Nom : 13/08/2014 14:01 Type d'activité : - Description : - Distance totale : 22,50 km (14,0 mi) Durée totale : 2:47:23 Durée du déplacement : 2:19:56 Vitesse moyenne : 8,06 km/h (5,0 mi/h) Vitesse moyenne de déplacement : 9,65 km/h (6,0 mi/h) Vitesse max. : 27,44 km/h (17,1 mi/h) Vitesse moyenne : 7:26 min/km (11:58 min/mi) Allure moyenne : 6:13 min/km (10:01 min/mi) Vitesse maximale : 2:11 min/km (3:31 min/mi) Élévation max. : 416 m (1365 pi) Élévation min. : 241 m (791 pi) Dénivelé : 727 m (2385 pi) Inclinaison max. : 13 % Inclinaison min. : -41 % Date d'enregistrement : 13/08/2014 14:01]]></desc>
  </wpt>
  <trk>
    <name><![CDATA[13/08/2014 14:01]]></name>
    <trkseg>
      <trkpt lat="48.43903" lon="-3.88611">
        <ele>322.61416626</ele>
        <time>2014-08-13T12:02:06.336Z</time>
      </trkpt>
      <trkpt lat="48.43902" lon="-3.88612">
        <ele>296.099060059</ele>
        <time>2014-08-13T12:06:08.321Z</time>
      </trkpt>
      <trkpt lat="48.43909" lon="-3.88623">
        <ele>296.104858398</ele>
        <time>2014-08-13T12:06:09.333Z</time>
      </trkpt>
      <trkpt lat="48.43915" lon="-3.88629">
        <ele>296.4972229</ele>
        <time>2014-08-13T12:07:14.322Z</time>
      </trkpt>
      <trkpt lat="48.43916" lon="-3.88632">
        <ele>296.485687256</ele>
        <time>2014-08-13T12:07:15.325Z</time>
      </trkpt>
      <trkpt lat="48.43919" lon="-3.88644">
        <ele>296.51739502</ele>
        <time>2014-08-13T12:07:20.337Z</time>
      </trkpt>
      <trkpt lat="48.43919" lon="-3.88646">
        <ele>296.52923584</ele>
        <time>2014-08-13T12:07:21.327Z</time>
      </trkpt>
      <trkpt lat="48.43923" lon="-3.88656">
        <ele>296.457550049</ele>
        <time>2014-08-13T12:07:26.297Z</time>
      </trkpt>
      <trkpt lat="48.43924" lon="-3.88658">
        <ele>296.447296143</ele>
        <time>2014-08-13T12:07:27.337Z</time>
      </trkpt>
      <trkpt lat="48.43923" lon="-3.8867">
        <ele>296.691131592</ele>
        <time>2014-08-13T12:07:34.307Z</time>
      </trkpt>
      <trkpt lat="48.43923" lon="-3.88672">
        <ele>296.747894287</ele>
        <time>2014-08-13T12:07:35.346Z</time>
      </trkpt>
      <trkpt lat="48.43917" lon="-3.88681">
        <ele>297.274871826</ele>
        <time>2014-08-13T12:07:41.341Z</time>
      </trkpt>
      <trkpt lat="48.43916" lon="-3.88681">
        <ele>297.319915771</ele>
        <time>2014-08-13T12:07:42.333Z</time>
      </trkpt>
      <trkpt lat="48.43908" lon="-3.88675">
        <ele>297.307739258</ele>
        <time>2014-08-13T12:07:47.356Z</time>
      </trkpt>
      <trkpt lat="48.43907" lon="-3.88673">
        <ele>297.323303223</ele>
        <time>2014-08-13T12:07:48.344Z</time>
      </trkpt>
      <trkpt lat="48.43899" lon="-3.88668">
        <ele>297.375946045</ele>
        <time>2014-08-13T12:07:54.306Z</time>
      </trkpt>
      <trkpt lat="48.43897" lon="-3.88666">
        <ele>297.369262695</ele>
        <time>2014-08-13T12:07:55.341Z</time>
      </trkpt>
      <trkpt lat="48.43894" lon="-3.88655">
        <ele>297.500518799</ele>
        <time>2014-08-13T12:07:59.353Z</time>
      </trkpt>
      <trkpt lat="48.43893" lon="-3.88651">
        <ele>297.532653809</ele>
        <time>2014-08-13T12:08:00.303Z</time>
      </trkpt>
      <trkpt lat="48.43888" lon="-3.88645">
        <ele>297.520599365</ele>
        <time>2014-08-13T12:08:02.311Z</time>
      </trkpt>
      <trkpt lat="48.43885" lon="-3.88642">
        <ele>297.529968262</ele>
        <time>2014-08-13T12:08:03.356Z</time>
      </trkpt>
      <trkpt lat="48.43877" lon="-3.88638">
        <ele>297.878265381</ele>
        <time>2014-08-13T12:08:05.315Z</time>
      </trkpt>
      <trkpt lat="48.43873" lon="-3.88636">
        <ele>297.9190979</ele>
        <time>2014-08-13T12:08:06.348Z</time>
      </trkpt>
      <trkpt lat="48.43866" lon="-3.88632">
        <ele>298.035552979</ele>
        <time>2014-08-13T12:08:08.341Z</time>
      </trkpt>
      <trkpt lat="48.43863" lon="-3.8863">
        <ele>298.084197998</ele>
        <time>2014-08-13T12:08:09.312Z</time>
      </trkpt>
      <trkpt lat="48.43854" lon="-3.88626">
        <ele>297.172271729</ele>
        <time>2014-08-13T12:08:11.305Z</time>
      </trkpt>
      <trkpt lat="48.43849" lon="-3.88625">
        <ele>296.311187744</ele>
        <time>2014-08-13T12:08:12.307Z</time>
      </trkpt>
      <trkpt lat="48.43843" lon="-3.88626">
        <ele>295.530517578</ele>
        <time>2014-08-13T12:08:13.345Z</time>
      </trkpt>
      <trkpt lat="48.43836" lon="-3.88627">
        <ele>294.334197998</ele>
        <time>2014-08-13T12:08:14.351Z</time>
      </trkpt>
      <trkpt lat="48.43829" lon="-3.88628">
        <ele>293.379852295</ele>
        <time>2014-08-13T12:08:15.311Z</time>
      </trkpt>
      <trkpt lat="48.43822" lon="-3.88628">
        <ele>292.547393799</ele>
        <time>2014-08-13T12:08:16.345Z</time>
      </trkpt>
      <trkpt lat="48.43817" lon="-3.88629">
        <ele>291.357208252</ele>
        <time>2014-08-13T12:08:17.354Z</time>
      </trkpt>
      <trkpt lat="48.43812" lon="-3.88629">
        <ele>290.51953125</ele>
        <time>2014-08-13T12:08:18.348Z</time>
      </trkpt>
      <trkpt lat="48.43806" lon="-3.88629">
        <ele>290.148468018</ele>
        <time>2014-08-13T12:08:19.358Z</time>
      </trkpt>
      <trkpt lat="48.43801" lon="-3.88629">
        <ele>290.050994873</ele>
        <time>2014-08-13T12:08:20.323Z</time>
      </trkpt>
      <trkpt lat="48.43793" lon="-3.88632">
        <ele>289.468505859</ele>
        <time>2014-08-13T12:08:22.316Z</time>
      </trkpt>
      <trkpt lat="48.43788" lon="-3.88635">
        <ele>289.161224365</ele>
        <time>2014-08-13T12:08:23.352Z</time>
      </trkpt>
      <trkpt lat="48.43783" lon="-3.88637">
        <ele>288.768859863</ele>
        <time>2014-08-13T12:08:24.346Z</time>
      </trkpt>
      <trkpt lat="48.43778" lon="-3.8864">
        <ele>288.511230469</ele>
        <time>2014-08-13T12:08:25.343Z</time>
      </trkpt>
      <trkpt lat="48.4377" lon="-3.88643">
        <ele>288.82598877</ele>
        <time>2014-08-13T12:08:27.345Z</time>
      </trkpt>
      <trkpt lat="48.43767" lon="-3.88644">
        <ele>288.890167236</ele>
        <time>2014-08-13T12:08:28.345Z</time>
      </trkpt>
      <trkpt lat="48.43759" lon="-3.8865">
        <ele>289.066772461</ele>
        <time>2014-08-13T12:08:36.346Z</time>
      </trkpt>
      <trkpt lat="48.43758" lon="-3.8865">
        <ele>289.081970215</ele>
        <time>2014-08-13T12:08:37.344Z</time>
      </trkpt>
      <trkpt lat="48.43752" lon="-3.88659">
        <ele>290.120330811</ele>
        <time>2014-08-13T12:08:47.341Z</time>
      </trkpt>
      <trkpt lat="48.4375" lon="-3.88661">
        <ele>290.173370361</ele>
        <time>2014-08-13T12:08:48.368Z</time>
      </trkpt>
      <trkpt lat="48.43744" lon="-3.88667">
        <ele>290.290283203</ele>
        <time>2014-08-13T12:08:51.354Z</time>
      </trkpt>
      <trkpt lat="48.43742" lon="-3.88669">
        <ele>290.338409424</ele>
        <time>2014-08-13T12:08:52.349Z</time>
      </trkpt>
      <trkpt lat="48.43736" lon="-3.88679">
        <ele>290.378692627</ele>
        <time>2014-08-13T12:08:55.352Z</time>
      </trkpt>
      <trkpt lat="48.43734" lon="-3.88682">
        <ele>290.405456543</ele>
        <time>2014-08-13T12:08:56.356Z</time>
      </trkpt>
      <trkpt lat="48.43729" lon="-3.88689">
        <ele>290.40914917</ele>
        <time>2014-08-13T12:08:58.353Z</time>
      </trkpt>
      <trkpt lat="48.43726" lon="-3.88692">
        <ele>290.412567139</ele>
        <time>2014-08-13T12:08:59.352Z</time>
      </trkpt>
      <trkpt lat="48.43721" lon="-3.88697">
        <ele>290.434814453</ele>
        <time>2014-08-13T12:09:01.343Z</time>
      </trkpt>
      <trkpt lat="48.43718" lon="-3.887">
        <ele>290.458374023</ele>
        <time>2014-08-13T12:09:02.349Z</time>
      </trkpt>
      <trkpt lat="48.43713" lon="-3.88705">
        <ele>290.419830322</ele>
        <time>2014-08-13T12:09:04.343Z</time>
      </trkpt>
      <trkpt lat="48.43711" lon="-3.88709">
        <ele>290.441253662</ele>
        <time>2014-08-13T12:09:05.34Z</time>
      </trkpt>
      <trkpt lat="48.43704" lon="-3.88714">
        <ele>290.486938477</ele>
        <time>2014-08-13T12:09:07.348Z</time>
      </trkpt>
      <trkpt lat="48.43701" lon="-3.88716">
        <ele>290.53125</ele>
        <time>2014-08-13T12:09:08.35Z</time>
      </trkpt>
      <trkpt lat="48.43695" lon="-3.88719">
        <ele>290.622955322</ele>
        <time>2014-08-13T12:09:10.345Z</time>
      </trkpt>
      <trkpt lat="48.43691" lon="-3.88716">
        <ele>290.613220215</ele>
        <time>2014-08-13T12:09:11.343Z</time>
      </trkpt>
      <trkpt lat="48.43686" lon="-3.88707">
        <ele>290.977844238</ele>
        <time>2014-08-13T12:09:13.341Z</time>
      </trkpt>
      <trkpt lat="48.43684" lon="-3.88703">
        <ele>290.711486816</ele>
        <time>2014-08-13T12:09:14.334Z</time>
      </trkpt>
      <trkpt lat="48.43676" lon="-3.88699">
        <ele>290.454925537</ele>
        <time>2014-08-13T12:09:17.341Z</time>
      </trkpt>
      <trkpt lat="48.43674" lon="-3.88701">
        <ele>290.389343262</ele>
        <time>2014-08-13T12:09:18.348Z</time>
      </trkpt>
      <trkpt lat="48.4367" lon="-3.88705">
        <ele>290.358642578</ele>
        <time>2014-08-13T12:09:19.345Z</time>
      </trkpt>
      <trkpt lat="48.43665" lon="-3.88709">
        <ele>289.697174072</ele>
        <time>2014-08-13T12:09:20.355Z</time>
      </trkpt>
      <trkpt lat="48.4366" lon="-3.88713">
        <ele>288.992736816</ele>
        <time>2014-08-13T12:09:21.347Z</time>
      </trkpt>
      <trkpt lat="48.43656" lon="-3.88717">
        <ele>288.406494141</ele>
        <time>2014-08-13T12:09:22.399Z</time>
      </trkpt>
      <trkpt lat="48.43649" lon="-3.88726">
        <ele>286.261077881</ele>
        <time>2014-08-13T12:09:24.347Z</time>
      </trkpt>
      <trkpt lat="48.43645" lon="-3.88729">
        <ele>285.778015137</ele>
        <time>2014-08-13T12:09:25.343Z</time>
      </trkpt>
      <trkpt lat="48.43639" lon="-3.88729">
        <ele>285.824951172</ele>
        <time>2014-08-13T12:09:27.346Z</time>
      </trkpt>
      <trkpt lat="48.43635" lon="-3.88727">
        <ele>285.834381104</ele>
        <time>2014-08-13T12:09:28.347Z</time>
      </trkpt>
      <trkpt lat="48.43631" lon="-3.88725">
        <ele>285.817077637</ele>
        <time>2014-08-13T12:09:29.344Z</time>
      </trkpt>
      <trkpt lat="48.43625" lon="-3.88722">
        <ele>285.069030762</ele>
        <time>2014-08-13T12:09:30.354Z</time>
      </trkpt>
      <trkpt lat="48.43618" lon="-3.88714">
        <ele>285.09463501</ele>
        <time>2014-08-13T12:09:33.333Z</time>
      </trkpt>
      <trkpt lat="48.43617" lon="-3.88711">
        <ele>285.125793457</ele>
        <time>2014-08-13T12:09:34.348Z</time>
      </trkpt>
      <trkpt lat="48.43612" lon="-3.88705">
        <ele>285.216003418</ele>
        <time>2014-08-13T12:09:37.339Z</time>
      </trkpt>
      <trkpt lat="48.43608" lon="-3.88701">
        <ele>285.210693359</ele>
        <time>2014-08-13T12:09:38.346Z</time>
      </trkpt>
      <trkpt lat="48.43603" lon="-3.88698">
        <ele>285.187652588</ele>
        <time>2014-08-13T12:09:39.352Z</time>
      </trkpt>
      <trkpt lat="48.43598" lon="-3.88698">
        <ele>285.147857666</ele>
        <time>2014-08-13T12:09:40.351Z</time>
      </trkpt>
      <trkpt lat="48.43591" lon="-3.88694">
        <ele>284.976318359</ele>
        <time>2014-08-13T12:09:43.342Z</time>
      </trkpt>
      <trkpt lat="48.43588" lon="-3.88692">
        <ele>284.87210083</ele>
        <time>2014-08-13T12:09:44.345Z</time>
      </trkpt>
      <trkpt lat="48.43581" lon="-3.88687">
        <ele>284.281219482</ele>
        <time>2014-08-13T12:09:48.347Z</time>
      </trkpt>
      <trkpt lat="48.43579" lon="-3.88686">
        <ele>284.169494629</ele>
        <time>2014-08-13T12:09:49.345Z</time>
      </trkpt>
      <trkpt lat="48.43572" lon="-3.88679">
        <ele>283.76171875</ele>
        <time>2014-08-13T12:09:52.35Z</time>
      </trkpt>
      <trkpt lat="48.43569" lon="-3.88677">
        <ele>283.580596924</ele>
        <time>2014-08-13T12:09:53.344Z</time>
      </trkpt>
      <trkpt lat="48.43563" lon="-3.88675">
        <ele>283.244567871</ele>
        <time>2014-08-13T12:09:55.352Z</time>
      </trkpt>
      <trkpt lat="48.43559" lon="-3.88678">
        <ele>283.178222656</ele>
        <time>2014-08-13T12:09:56.34Z</time>
      </trkpt>
      <trkpt lat="48.43553" lon="-3.88687">
        <ele>282.836242676</ele>
        <time>2014-08-13T12:09:59.344Z</time>
      </trkpt>
      <trkpt lat="48.43551" lon="-3.88692">
        <ele>282.716003418</ele>
        <time>2014-08-13T12:10:00.328Z</time>
      </trkpt>
      <trkpt lat="48.43546" lon="-3.88701">
        <ele>282.373657227</ele>
        <time>2014-08-13T12:10:03.339Z</time>
      </trkpt>
      <trkpt lat="48.43544" lon="-3.88701">
        <ele>282.294342041</ele>
        <time>2014-08-13T12:10:04.344Z</time>
      </trkpt>
      <trkpt lat="48.43537" lon="-3.887">
        <ele>281.817687988</ele>
        <time>2014-08-13T12:10:08.338Z</time>
      </trkpt>
      <trkpt lat="48.43534" lon="-3.887">
        <ele>281.657226562</ele>
        <time>2014-08-13T12:10:09.345Z</time>
      </trkpt>
      <trkpt lat="48.43529" lon="-3.88699">
        <ele>281.515777588</ele>
        <time>2014-08-13T12:10:11.35Z</time>
      </trkpt>
      <trkpt lat="48.43525" lon="-3.88698">
        <ele>281.42098999</ele>
        <time>2014-08-13T12:10:12.343Z</time>
      </trkpt>
      <trkpt lat="48.43517" lon="-3.88702">
        <ele>281.20602417</ele>
        <time>2014-08-13T12:10:14.345Z</time>
      </trkpt>
      <trkpt lat="48.43513" lon="-3.88706">
        <ele>281.124237061</ele>
        <time>2014-08-13T12:10:15.35Z</time>
      </trkpt>
      <trkpt lat="48.43505" lon="-3.88711">
        <ele>280.309997559</ele>
        <time>2014-08-13T12:10:17.339Z</time>
      </trkpt>
      <trkpt lat="48.43501" lon="-3.88712">
        <ele>280.358428955</ele>
        <time>2014-08-13T12:10:18.34Z</time>
      </trkpt>
      <trkpt lat="48.43493" lon="-3.88712">
        <ele>280.548522949</ele>
        <time>2014-08-13T12:10:20.337Z</time>
      </trkpt>
      <trkpt lat="48.4349" lon="-3.88714">
        <ele>280.574188232</ele>
        <time>2014-08-13T12:10:21.344Z</time>
      </trkpt>
      <trkpt lat="48.43485" lon="-3.88719">
        <ele>280.574035645</ele>
        <time>2014-08-13T12:10:23.35Z</time>
      </trkpt>
      <trkpt lat="48.43482" lon="-3.88722">
        <ele>280.567443848</ele>
        <time>2014-08-13T12:10:24.351Z</time>
      </trkpt>
      <trkpt lat="48.43481" lon="-3.88732">
        <ele>280.555603027</ele>
        <time>2014-08-13T12:10:26.345Z</time>
      </trkpt>
      <trkpt lat="48.43481" lon="-3.88737">
        <ele>280.496246338</ele>
        <time>2014-08-13T12:10:27.355Z</time>
      </trkpt>
      <trkpt lat="48.43482" lon="-3.8875">
        <ele>280.238922119</ele>
        <time>2014-08-13T12:10:31.343Z</time>
      </trkpt>
      <trkpt lat="48.43482" lon="-3.88752">
        <ele>280.191375732</ele>
        <time>2014-08-13T12:10:32.341Z</time>
      </trkpt>
      <trkpt lat="48.4348" lon="-3.88765">
        <ele>280.138916016</ele>
        <time>2014-08-13T12:10:36.348Z</time>
      </trkpt>
      <trkpt lat="48.43479" lon="-3.88767">
        <ele>280.125793457</ele>
        <time>2014-08-13T12:10:37.345Z</time>
      </trkpt>
      <trkpt lat="48.43472" lon="-3.88769">
        <ele>280.076782227</ele>
        <time>2014-08-13T12:10:41.345Z</time>
      </trkpt>
      <trkpt lat="48.4347" lon="-3.8877">
        <ele>280.063140869</ele>
        <time>2014-08-13T12:10:42.379Z</time>
      </trkpt>
      <trkpt lat="48.43466" lon="-3.88779">
        <ele>280.007385254</ele>
        <time>2014-08-13T12:10:45.341Z</time>
      </trkpt>
      <trkpt lat="48.43466" lon="-3.88783">
        <ele>280.018920898</ele>
        <time>2014-08-13T12:10:46.34Z</time>
      </trkpt>
      <trkpt lat="48.43463" lon="-3.88794">
        <ele>280.084075928</ele>
        <time>2014-08-13T12:10:49.346Z</time>
      </trkpt>
      <trkpt lat="48.43463" lon="-3.88798">
        <ele>280.061584473</ele>
        <time>2014-08-13T12:10:50.35Z</time>
      </trkpt>
      <trkpt lat="48.43462" lon="-3.8881">
        <ele>279.805755615</ele>
        <time>2014-08-13T12:10:53.343Z</time>
      </trkpt>
      <trkpt lat="48.43463" lon="-3.88815">
        <ele>279.720581055</ele>
        <time>2014-08-13T12:10:54.345Z</time>
      </trkpt>
      <trkpt lat="48.43463" lon="-3.88828">
        <ele>279.011688232</ele>
        <time>2014-08-13T12:11:03.347Z</time>
      </trkpt>
      <trkpt lat="48.43461" lon="-3.88828">
        <ele>278.983764648</ele>
        <time>2014-08-13T12:11:04.349Z</time>
      </trkpt>
      <trkpt lat="48.43452" lon="-3.88829">
        <ele>278.985046387</ele>
        <time>2014-08-13T12:11:07.34Z</time>
      </trkpt>
      <trkpt lat="48.43449" lon="-3.88829">
        <ele>279.019165039</ele>
        <time>2014-08-13T12:11:08.342Z</time>
      </trkpt>
      <trkpt lat="48.43441" lon="-3.88828">
        <ele>279.363311768</ele>
        <time>2014-08-13T12:11:11.341Z</time>
      </trkpt>
      <trkpt lat="48.43439" lon="-3.88828">
        <ele>279.496032715</ele>
        <time>2014-08-13T12:11:12.343Z</time>
      </trkpt>
      <trkpt lat="48.4343" lon="-3.88825">
        <ele>279.70135498</ele>
        <time>2014-08-13T12:11:15.356Z</time>
      </trkpt>
      <trkpt lat="48.43427" lon="-3.88824">
        <ele>279.718109131</ele>
        <time>2014-08-13T12:11:16.356Z</time>
      </trkpt>
      <trkpt lat="48.43421" lon="-3.88821">
        <ele>279.85949707</ele>
        <time>2014-08-13T12:11:18.346Z</time>
      </trkpt>
      <trkpt lat="48.43419" lon="-3.88819">
        <ele>279.925415039</ele>
        <time>2014-08-13T12:11:19.349Z</time>
      </trkpt>
      <trkpt lat="48.43411" lon="-3.88814">
        <ele>280.152862549</ele>
        <time>2014-08-13T12:11:22.351Z</time>
      </trkpt>
      <trkpt lat="48.43409" lon="-3.88812">
        <ele>280.234588623</ele>
        <time>2014-08-13T12:11:23.409Z</time>
      </trkpt>
      <trkpt lat="48.43401" lon="-3.88805">
        <ele>280.697937012</ele>
        <time>2014-08-13T12:11:26.347Z</time>
      </trkpt>
      <trkpt lat="48.43399" lon="-3.88803">
        <ele>280.887664795</ele>
        <time>2014-08-13T12:11:27.338Z</time>
      </trkpt>
      <trkpt lat="48.43392" lon="-3.88795">
        <ele>281.395263672</ele>
        <time>2014-08-13T12:11:30.351Z</time>
      </trkpt>
      <trkpt lat="48.43389" lon="-3.88792">
        <ele>281.564056396</ele>
        <time>2014-08-13T12:11:31.344Z</time>
      </trkpt>
      <trkpt lat="48.43383" lon="-3.88785">
        <ele>282.078918457</ele>
        <time>2014-08-13T12:11:34.346Z</time>
      </trkpt>
      <trkpt lat="48.4338" lon="-3.88782">
        <ele>282.314666748</ele>
        <time>2014-08-13T12:11:35.345Z</time>
      </trkpt>
      <trkpt lat="48.43374" lon="-3.88772">
        <ele>282.709075928</ele>
        <time>2014-08-13T12:11:38.332Z</time>
      </trkpt>
      <trkpt lat="48.43372" lon="-3.88769">
        <ele>282.807983398</ele>
        <time>2014-08-13T12:11:39.346Z</time>
      </trkpt>
      <trkpt lat="48.43367" lon="-3.88762">
        <ele>283.008575439</ele>
        <time>2014-08-13T12:11:41.339Z</time>
      </trkpt>
      <trkpt lat="48.43364" lon="-3.88758">
        <ele>283.075012207</ele>
        <time>2014-08-13T12:11:42.351Z</time>
      </trkpt>
      <trkpt lat="48.43359" lon="-3.88751">
        <ele>283.258361816</ele>
        <time>2014-08-13T12:11:44.331Z</time>
      </trkpt>
      <trkpt lat="48.43357" lon="-3.88748">
        <ele>283.343902588</ele>
        <time>2014-08-13T12:11:45.345Z</time>
      </trkpt>
      <trkpt lat="48.43352" lon="-3.88742">
        <ele>283.465942383</ele>
        <time>2014-08-13T12:11:47.348Z</time>
      </trkpt>
      <trkpt lat="48.4335" lon="-3.88739">
        <ele>283.487335205</ele>
        <time>2014-08-13T12:11:48.339Z</time>
      </trkpt>
      <trkpt lat="48.43344" lon="-3.88732">
        <ele>283.568908691</ele>
        <time>2014-08-13T12:11:50.35Z</time>
      </trkpt>
      <trkpt lat="48.43342" lon="-3.88729">
        <ele>283.641601562</ele>
        <time>2014-08-13T12:11:51.346Z</time>
      </trkpt>
      <trkpt lat="48.43336" lon="-3.8872">
        <ele>283.658660889</ele>
        <time>2014-08-13T12:11:54.343Z</time>
      </trkpt>
      <trkpt lat="48.43334" lon="-3.88717">
        <ele>283.64163208</ele>
        <time>2014-08-13T12:11:55.337Z</time>
      </trkpt>
      <trkpt lat="48.43329" lon="-3.88711">
        <ele>283.623779297</ele>
        <time>2014-08-13T12:11:57.344Z</time>
      </trkpt>
      <trkpt lat="48.43326" lon="-3.88708">
        <ele>283.620910645</ele>
        <time>2014-08-13T12:11:58.342Z</time>
      </trkpt>
      <trkpt lat="48.43321" lon="-3.88701">
        <ele>283.519256592</ele>
        <time>2014-08-13T12:12:01.347Z</time>
      </trkpt>
      <trkpt lat="48.43319" lon="-3.88698">
        <ele>283.45022583</ele>
        <time>2014-08-13T12:12:02.336Z</time>
      </trkpt>
      <trkpt lat="48.43313" lon="-3.88692">
        <ele>283.431640625</ele>
        <time>2014-08-13T12:12:04.35Z</time>
      </trkpt>
      <trkpt lat="48.4331" lon="-3.88689">
        <ele>283.439300537</ele>
        <time>2014-08-13T12:12:05.345Z</time>
      </trkpt>
      <trkpt lat="48.43305" lon="-3.88683">
        <ele>283.46572876</ele>
        <time>2014-08-13T12:12:07.346Z</time>
      </trkpt>
      <trkpt lat="48.43302" lon="-3.8868">
        <ele>283.496032715</ele>
        <time>2014-08-13T12:12:08.344Z</time>
      </trkpt>
      <trkpt lat="48.43296" lon="-3.88673">
        <ele>283.52545166</ele>
        <time>2014-08-13T12:12:10.351Z</time>
      </trkpt>
      <trkpt lat="48.43294" lon="-3.88671">
        <ele>283.547515869</ele>
        <time>2014-08-13T12:12:11.35Z</time>
      </trkpt>
      <trkpt lat="48.43287" lon="-3.88663">
        <ele>283.608886719</ele>
        <time>2014-08-13T12:12:14.341Z</time>
      </trkpt>
      <trkpt lat="48.43284" lon="-3.88661">
        <ele>283.664154053</ele>
        <time>2014-08-13T12:12:15.341Z</time>
      </trkpt>
      <trkpt lat="48.43277" lon="-3.88652">
        <ele>283.850128174</ele>
        <time>2014-08-13T12:12:18.346Z</time>
      </trkpt>
      <trkpt lat="48.43275" lon="-3.8865">
        <ele>283.949829102</ele>
        <time>2014-08-13T12:12:19.351Z</time>
      </trkpt>
      <trkpt lat="48.43268" lon="-3.88642">
        <ele>284.262939453</ele>
        <time>2014-08-13T12:12:22.342Z</time>
      </trkpt>
      <trkpt lat="48.43265" lon="-3.88639">
        <ele>284.393371582</ele>
        <time>2014-08-13T12:12:23.34Z</time>
      </trkpt>
      <trkpt lat="48.43257" lon="-3.88633">
        <ele>284.814117432</ele>
        <time>2014-08-13T12:12:26.344Z</time>
      </trkpt>
      <trkpt lat="48.43254" lon="-3.88631">
        <ele>284.955932617</ele>
        <time>2014-08-13T12:12:27.337Z</time>
      </trkpt>
      <trkpt lat="48.43247" lon="-3.88625">
        <ele>285.538604736</ele>
        <time>2014-08-13T12:12:30.362Z</time>
      </trkpt>
      <trkpt lat="48.43244" lon="-3.88623">
        <ele>285.766479492</ele>
        <time>2014-08-13T12:12:31.35Z</time>
      </trkpt>
      <trkpt lat="48.43236" lon="-3.88617">
        <ele>286.410827637</ele>
        <time>2014-08-13T12:12:34.353Z</time>
      </trkpt>
      <trkpt lat="48.43234" lon="-3.88616">
        <ele>286.614562988</ele>
        <time>2014-08-13T12:12:35.36Z</time>
      </trkpt>
      <trkpt lat="48.43226" lon="-3.8861">
        <ele>287.003662109</ele>
        <time>2014-08-13T12:12:38.35Z</time>
      </trkpt>
      <trkpt lat="48.43223" lon="-3.88608">
        <ele>287.081237793</ele>
        <time>2014-08-13T12:12:39.348Z</time>
      </trkpt>
      <trkpt lat="48.43218" lon="-3.88604">
        <ele>287.16015625</ele>
        <time>2014-08-13T12:12:41.347Z</time>
      </trkpt>
      <trkpt lat="48.43215" lon="-3.88603">
        <ele>287.183319092</ele>
        <time>2014-08-13T12:12:42.351Z</time>
      </trkpt>
      <trkpt lat="48.43208" lon="-3.886">
        <ele>287.267150879</ele>
        <time>2014-08-13T12:12:44.342Z</time>
      </trkpt>
      <trkpt lat="48.43206" lon="-3.88599">
        <ele>287.329162598</ele>
        <time>2014-08-13T12:12:45.347Z</time>
      </trkpt>
      <trkpt lat="48.43198" lon="-3.88596">
        <ele>287.41506958</ele>
        <time>2014-08-13T12:12:48.37Z</time>
      </trkpt>
      <trkpt lat="48.43195" lon="-3.88596">
        <ele>287.423126221</ele>
        <time>2014-08-13T12:12:49.348Z</time>
      </trkpt>
      <trkpt lat="48.43186" lon="-3.88593">
        <ele>287.53717041</ele>
        <time>2014-08-13T12:12:52.349Z</time>
      </trkpt>
      <trkpt lat="48.43183" lon="-3.88593">
        <ele>287.601623535</ele>
        <time>2014-08-13T12:12:53.341Z</time>
      </trkpt>
      <trkpt lat="48.43174" lon="-3.88591">
        <ele>287.763153076</ele>
        <time>2014-08-13T12:12:56.343Z</time>
      </trkpt>
      <trkpt lat="48.43171" lon="-3.8859">
        <ele>287.806762695</ele>
        <time>2014-08-13T12:12:57.347Z</time>
      </trkpt>
      <trkpt lat="48.43165" lon="-3.88588">
        <ele>287.91104126</ele>
        <time>2014-08-13T12:12:59.347Z</time>
      </trkpt>
      <trkpt lat="48.43163" lon="-3.88588">
        <ele>287.967773438</ele>
        <time>2014-08-13T12:13:00.321Z</time>
      </trkpt>
      <trkpt lat="48.43154" lon="-3.88586">
        <ele>288.103271484</ele>
        <time>2014-08-13T12:13:03.371Z</time>
      </trkpt>
      <trkpt lat="48.43151" lon="-3.88586">
        <ele>288.143859863</ele>
        <time>2014-08-13T12:13:04.312Z</time>
      </trkpt>
      <trkpt lat="48.43145" lon="-3.88584">
        <ele>288.256500244</ele>
        <time>2014-08-13T12:13:06.311Z</time>
      </trkpt>
      <trkpt lat="48.43142" lon="-3.88583">
        <ele>288.311798096</ele>
        <time>2014-08-13T12:13:07.358Z</time>
      </trkpt>
      <trkpt lat="48.43134" lon="-3.8858">
        <ele>288.513397217</ele>
        <time>2014-08-13T12:13:10.311Z</time>
      </trkpt>
      <trkpt lat="48.43132" lon="-3.88579">
        <ele>288.585693359</ele>
        <time>2014-08-13T12:13:11.35Z</time>
      </trkpt>
      <trkpt lat="48.43123" lon="-3.88578">
        <ele>288.981201172</ele>
        <time>2014-08-13T12:13:15.355Z</time>
      </trkpt>
      <trkpt lat="48.4312" lon="-3.88578">
        <ele>289.058349609</ele>
        <time>2014-08-13T12:13:16.349Z</time>
      </trkpt>
      <trkpt lat="48.43113" lon="-3.88576">
        <ele>289.295593262</ele>
        <time>2014-08-13T12:13:19.338Z</time>
      </trkpt>
      <trkpt lat="48.43111" lon="-3.88576">
        <ele>289.381103516</ele>
        <time>2014-08-13T12:13:20.32Z</time>
      </trkpt>
      <trkpt lat="48.43102" lon="-3.88576">
        <ele>289.710968018</ele>
        <time>2014-08-13T12:13:24.317Z</time>
      </trkpt>
      <trkpt lat="48.431" lon="-3.88575">
        <ele>289.77835083</ele>
        <time>2014-08-13T12:13:25.345Z</time>
      </trkpt>
      <trkpt lat="48.43093" lon="-3.88575">
        <ele>289.987976074</ele>
        <time>2014-08-13T12:13:28.307Z</time>
      </trkpt>
      <trkpt lat="48.4309" lon="-3.88574">
        <ele>290.069061279</ele>
        <time>2014-08-13T12:13:29.349Z</time>
      </trkpt>
      <trkpt lat="48.43083" lon="-3.88573">
        <ele>290.261749268</ele>
        <time>2014-08-13T12:13:32.342Z</time>
      </trkpt>
      <trkpt lat="48.43081" lon="-3.88573">
        <ele>290.311950684</ele>
        <time>2014-08-13T12:13:33.311Z</time>
      </trkpt>
      <trkpt lat="48.43073" lon="-3.88574">
        <ele>290.477416992</ele>
        <time>2014-08-13T12:13:36.33Z</time>
      </trkpt>
      <trkpt lat="48.43071" lon="-3.88574">
        <ele>290.551452637</ele>
        <time>2014-08-13T12:13:37.307Z</time>
      </trkpt>
      <trkpt lat="48.43064" lon="-3.88577">
        <ele>290.745391846</ele>
        <time>2014-08-13T12:13:40.356Z</time>
      </trkpt>
      <trkpt lat="48.43061" lon="-3.88577">
        <ele>290.806182861</ele>
        <time>2014-08-13T12:13:41.314Z</time>
      </trkpt>
      <trkpt lat="48.43054" lon="-3.88578">
        <ele>291.006072998</ele>
        <time>2014-08-13T12:13:44.349Z</time>
      </trkpt>
      <trkpt lat="48.43052" lon="-3.88578">
        <ele>291.083587646</ele>
        <time>2014-08-13T12:13:45.314Z</time>
      </trkpt>
      <trkpt lat="48.43045" lon="-3.88579">
        <ele>291.350524902</ele>
        <time>2014-08-13T12:13:48.307Z</time>
      </trkpt>
      <trkpt lat="48.43042" lon="-3.88579">
        <ele>291.447784424</ele>
        <time>2014-08-13T12:13:49.346Z</time>
      </trkpt>
      <trkpt lat="48.43035" lon="-3.88584">
        <ele>291.700286865</ele>
        <time>2014-08-13T12:13:52.312Z</time>
      </trkpt>
      <trkpt lat="48.43032" lon="-3.88585">
        <ele>291.781463623</ele>
        <time>2014-08-13T12:13:53.348Z</time>
      </trkpt>
      <trkpt lat="48.43025" lon="-3.88584">
        <ele>292.5496521</ele>
        <time>2014-08-13T12:13:55.37Z</time>
      </trkpt>
      <trkpt lat="48.43021" lon="-3.88583">
        <ele>292.974121094</ele>
        <time>2014-08-13T12:13:56.348Z</time>
      </trkpt>
      <trkpt lat="48.43016" lon="-3.8858">
        <ele>293.159423828</ele>
        <time>2014-08-13T12:13:57.312Z</time>
      </trkpt>
      <trkpt lat="48.43011" lon="-3.88578">
        <ele>293.622558594</ele>
        <time>2014-08-13T12:13:58.345Z</time>
      </trkpt>
      <trkpt lat="48.43006" lon="-3.88577">
        <ele>294.050964355</ele>
        <time>2014-08-13T12:13:59.308Z</time>
      </trkpt>
      <trkpt lat="48.43002" lon="-3.88574">
        <ele>294.163848877</ele>
        <time>2014-08-13T12:14:00.346Z</time>
      </trkpt>
      <trkpt lat="48.42997" lon="-3.88565">
        <ele>295.145843506</ele>
        <time>2014-08-13T12:14:02.317Z</time>
      </trkpt>
      <trkpt lat="48.42996" lon="-3.8856">
        <ele>295.184051514</ele>
        <time>2014-08-13T12:14:03.345Z</time>
      </trkpt>
      <trkpt lat="48.42995" lon="-3.88549">
        <ele>295.794799805</ele>
        <time>2014-08-13T12:14:05.409Z</time>
      </trkpt>
      <trkpt lat="48.42995" lon="-3.88542">
        <ele>296.304229736</ele>
        <time>2014-08-13T12:14:06.358Z</time>
      </trkpt>
      <trkpt lat="48.42993" lon="-3.88531">
        <ele>296.25012207</ele>
        <time>2014-08-13T12:14:08.35Z</time>
      </trkpt>
      <trkpt lat="48.42992" lon="-3.88527">
        <ele>296.244293213</ele>
        <time>2014-08-13T12:14:09.382Z</time>
      </trkpt>
      <trkpt lat="48.42991" lon="-3.88518">
        <ele>296.198883057</ele>
        <time>2014-08-13T12:14:11.363Z</time>
      </trkpt>
      <trkpt lat="48.4299" lon="-3.88513">
        <ele>296.150360107</ele>
        <time>2014-08-13T12:14:12.352Z</time>
      </trkpt>
      <trkpt lat="48.42989" lon="-3.88503">
        <ele>295.907104492</ele>
        <time>2014-08-13T12:14:14.351Z</time>
      </trkpt>
      <trkpt lat="48.42989" lon="-3.88497">
        <ele>295.628143311</ele>
        <time>2014-08-13T12:14:15.363Z</time>
      </trkpt>
      <trkpt lat="48.4299" lon="-3.88484">
        <ele>297.644897461</ele>
        <time>2014-08-13T12:14:22.348Z</time>
      </trkpt>
      <trkpt lat="48.42991" lon="-3.88482">
        <ele>297.89730835</ele>
        <time>2014-08-13T12:14:23.352Z</time>
      </trkpt>
      <trkpt lat="48.42984" lon="-3.88489">
        <ele>299.429260254</ele>
        <time>2014-08-13T12:14:30.358Z</time>
      </trkpt>
      <trkpt lat="48.42981" lon="-3.88488">
        <ele>299.535186768</ele>
        <time>2014-08-13T12:14:31.347Z</time>
      </trkpt>
      <trkpt lat="48.42974" lon="-3.88489">
        <ele>299.738891602</ele>
        <time>2014-08-13T12:14:33.347Z</time>
      </trkpt>
      <trkpt lat="48.4297" lon="-3.8849">
        <ele>299.868347168</ele>
        <time>2014-08-13T12:14:34.353Z</time>
      </trkpt>
      <trkpt lat="48.42963" lon="-3.88492">
        <ele>300.2918396</ele>
        <time>2014-08-13T12:14:37.356Z</time>
      </trkpt>
      <trkpt lat="48.42961" lon="-3.88493">
        <ele>300.478088379</ele>
        <time>2014-08-13T12:14:38.347Z</time>
      </trkpt>
      <trkpt lat="48.42955" lon="-3.88496">
        <ele>300.969177246</ele>
        <time>2014-08-13T12:14:41.353Z</time>
      </trkpt>
      <trkpt lat="48.42952" lon="-3.88497">
        <ele>301.128051758</ele>
        <time>2014-08-13T12:14:42.346Z</time>
      </trkpt>
      <trkpt lat="48.42944" lon="-3.885">
        <ele>301.777801514</ele>
        <time>2014-08-13T12:14:46.386Z</time>
      </trkpt>
      <trkpt lat="48.42942" lon="-3.885">
        <ele>301.866760254</ele>
        <time>2014-08-13T12:14:47.351Z</time>
      </trkpt>
      <trkpt lat="48.42934" lon="-3.885">
        <ele>302.24420166</ele>
        <time>2014-08-13T12:14:52.342Z</time>
      </trkpt>
      <trkpt lat="48.42932" lon="-3.885">
        <ele>302.312011719</ele>
        <time>2014-08-13T12:14:53.348Z</time>
      </trkpt>
      <trkpt lat="48.42925" lon="-3.88496">
        <ele>302.505004883</ele>
        <time>2014-08-13T12:15:00.335Z</time>
      </trkpt>
      <trkpt lat="48.42923" lon="-3.88496">
        <ele>302.58416748</ele>
        <time>2014-08-13T12:15:01.347Z</time>
      </trkpt>
      <trkpt lat="48.42915" lon="-3.88493">
        <ele>302.965087891</ele>
        <time>2014-08-13T12:15:06.351Z</time>
      </trkpt>
      <trkpt lat="48.42913" lon="-3.88492">
        <ele>303.058227539</ele>
        <time>2014-08-13T12:15:07.352Z</time>
      </trkpt>
      <trkpt lat="48.42905" lon="-3.88487">
        <ele>303.656738281</ele>
        <time>2014-08-13T12:15:11.35Z</time>
      </trkpt>
      <trkpt lat="48.42904" lon="-3.88486">
        <ele>303.826782227</ele>
        <time>2014-08-13T12:15:12.353Z</time>
      </trkpt>
      <trkpt lat="48.42896" lon="-3.88481">
        <ele>304.727722168</ele>
        <time>2014-08-13T12:15:19.351Z</time>
      </trkpt>
      <trkpt lat="48.42895" lon="-3.8848">
        <ele>304.861602783</ele>
        <time>2014-08-13T12:15:20.36Z</time>
      </trkpt>
      <trkpt lat="48.42888" lon="-3.88473">
        <ele>305.874023438</ele>
        <time>2014-08-13T12:15:27.345Z</time>
      </trkpt>
      <trkpt lat="48.42887" lon="-3.88472">
        <ele>306.038238525</ele>
        <time>2014-08-13T12:15:28.345Z</time>
      </trkpt>
      <trkpt lat="48.4288" lon="-3.88466">
        <ele>306.38494873</ele>
        <time>2014-08-13T12:15:32.355Z</time>
      </trkpt>
      <trkpt lat="48.42879" lon="-3.88465">
        <ele>306.446746826</ele>
        <time>2014-08-13T12:15:33.35Z</time>
      </trkpt>
      <trkpt lat="48.42872" lon="-3.88463">
        <ele>306.657653809</ele>
        <time>2014-08-13T12:15:36.356Z</time>
      </trkpt>
      <trkpt lat="48.4287" lon="-3.88463">
        <ele>306.792755127</ele>
        <time>2014-08-13T12:15:37.346Z</time>
      </trkpt>
      <trkpt lat="48.42862" lon="-3.88462">
        <ele>307.225494385</ele>
        <time>2014-08-13T12:15:41.352Z</time>
      </trkpt>
      <trkpt lat="48.4286" lon="-3.88462">
        <ele>307.341156006</ele>
        <time>2014-08-13T12:15:42.356Z</time>
      </trkpt>
      <trkpt lat="48.42852" lon="-3.88455">
        <ele>307.513702393</ele>
        <time>2014-08-13T12:15:47.363Z</time>
      </trkpt>
      <trkpt lat="48.42851" lon="-3.88454">
        <ele>307.491699219</ele>
        <time>2014-08-13T12:15:48.343Z</time>
      </trkpt>
      <trkpt lat="48.42843" lon="-3.88451">
        <ele>307.56451416</ele>
        <time>2014-08-13T12:15:52.355Z</time>
      </trkpt>
      <trkpt lat="48.42841" lon="-3.8845">
        <ele>307.648040771</ele>
        <time>2014-08-13T12:15:53.348Z</time>
      </trkpt>
      <trkpt lat="48.42833" lon="-3.88444">
        <ele>308.643737793</ele>
        <time>2014-08-13T12:16:01.354Z</time>
      </trkpt>
      <trkpt lat="48.42831" lon="-3.88442">
        <ele>308.853729248</ele>
        <time>2014-08-13T12:16:02.35Z</time>
      </trkpt>
      <trkpt lat="48.42825" lon="-3.88433">
        <ele>309.699523926</ele>
        <time>2014-08-13T12:16:06.49Z</time>
      </trkpt>
      <trkpt lat="48.42823" lon="-3.88431">
        <ele>309.92288208</ele>
        <time>2014-08-13T12:16:07.349Z</time>
      </trkpt>
      <trkpt lat="48.42817" lon="-3.88422">
        <ele>310.586303711</ele>
        <time>2014-08-13T12:16:11.351Z</time>
      </trkpt>
      <trkpt lat="48.42815" lon="-3.8842">
        <ele>310.750701904</ele>
        <time>2014-08-13T12:16:12.355Z</time>
      </trkpt>
      <trkpt lat="48.42811" lon="-3.88409">
        <ele>311.641601562</ele>
        <time>2014-08-13T12:16:17.367Z</time>
      </trkpt>
      <trkpt lat="48.42809" lon="-3.88407">
        <ele>311.815887451</ele>
        <time>2014-08-13T12:16:18.345Z</time>
      </trkpt>
      <trkpt lat="48.42804" lon="-3.884">
        <ele>312.674987793</ele>
        <time>2014-08-13T12:16:22.357Z</time>
      </trkpt>
      <trkpt lat="48.42802" lon="-3.88398">
        <ele>312.896850586</ele>
        <time>2014-08-13T12:16:23.352Z</time>
      </trkpt>
      <trkpt lat="48.42794" lon="-3.88393">
        <ele>313.656494141</ele>
        <time>2014-08-13T12:16:28.346Z</time>
      </trkpt>
      <trkpt lat="48.42793" lon="-3.88393">
        <ele>313.892913818</ele>
        <time>2014-08-13T12:16:29.347Z</time>
      </trkpt>
      <trkpt lat="48.42785" lon="-3.88392">
        <ele>314.54901123</ele>
        <time>2014-08-13T12:16:33.35Z</time>
      </trkpt>
      <trkpt lat="48.42784" lon="-3.88391">
        <ele>314.686798096</ele>
        <time>2014-08-13T12:16:34.35Z</time>
      </trkpt>
      <trkpt lat="48.42779" lon="-3.88384">
        <ele>315.336608887</ele>
        <time>2014-08-13T12:16:38.361Z</time>
      </trkpt>
      <trkpt lat="48.42777" lon="-3.88382">
        <ele>315.485992432</ele>
        <time>2014-08-13T12:16:39.364Z</time>
      </trkpt>
      <trkpt lat="48.42772" lon="-3.88374">
        <ele>316.080535889</ele>
        <time>2014-08-13T12:16:43.355Z</time>
      </trkpt>
      <trkpt lat="48.4277" lon="-3.88372">
        <ele>316.221343994</ele>
        <time>2014-08-13T12:16:44.364Z</time>
      </trkpt>
      <trkpt lat="48.42763" lon="-3.88364">
        <ele>316.575592041</ele>
        <time>2014-08-13T12:16:49.353Z</time>
      </trkpt>
      <trkpt lat="48.42762" lon="-3.88362">
        <ele>316.674102783</ele>
        <time>2014-08-13T12:16:50.351Z</time>
      </trkpt>
      <trkpt lat="48.42754" lon="-3.88359">
        <ele>317.428222656</ele>
        <time>2014-08-13T12:16:55.355Z</time>
      </trkpt>
      <trkpt lat="48.42752" lon="-3.88357">
        <ele>317.520202637</ele>
        <time>2014-08-13T12:16:56.355Z</time>
      </trkpt>
      <trkpt lat="48.42744" lon="-3.88355">
        <ele>318.032897949</ele>
        <time>2014-08-13T12:17:00.331Z</time>
      </trkpt>
      <trkpt lat="48.42742" lon="-3.88355">
        <ele>318.102081299</ele>
        <time>2014-08-13T12:17:01.344Z</time>
      </trkpt>
      <trkpt lat="48.42734" lon="-3.88354">
        <ele>318.417419434</ele>
        <time>2014-08-13T12:17:06.354Z</time>
      </trkpt>
      <trkpt lat="48.42733" lon="-3.88355">
        <ele>318.470855713</ele>
        <time>2014-08-13T12:17:07.349Z</time>
      </trkpt>
      <trkpt lat="48.42725" lon="-3.88352">
        <ele>318.969421387</ele>
        <time>2014-08-13T12:17:11.353Z</time>
      </trkpt>
      <trkpt lat="48.42724" lon="-3.88351">
        <ele>319.138671875</ele>
        <time>2014-08-13T12:17:12.36Z</time>
      </trkpt>
      <trkpt lat="48.42716" lon="-3.88345">
        <ele>320.425048828</ele>
        <time>2014-08-13T12:17:19.353Z</time>
      </trkpt>
      <trkpt lat="48.42715" lon="-3.88344">
        <ele>320.614746094</ele>
        <time>2014-08-13T12:17:20.351Z</time>
      </trkpt>
      <trkpt lat="48.42708" lon="-3.88337">
        <ele>321.561737061</ele>
        <time>2014-08-13T12:17:26.356Z</time>
      </trkpt>
      <trkpt lat="48.42707" lon="-3.88335">
        <ele>321.69317627</ele>
        <time>2014-08-13T12:17:27.377Z</time>
      </trkpt>
      <trkpt lat="48.42699" lon="-3.8833">
        <ele>322.560180664</ele>
        <time>2014-08-13T12:17:33.345Z</time>
      </trkpt>
      <trkpt lat="48.42697" lon="-3.88329">
        <ele>322.701385498</ele>
        <time>2014-08-13T12:17:34.353Z</time>
      </trkpt>
      <trkpt lat="48.4269" lon="-3.88321">
        <ele>323.41607666</ele>
        <time>2014-08-13T12:17:39.371Z</time>
      </trkpt>
      <trkpt lat="48.42689" lon="-3.88321">
        <ele>323.535858154</ele>
        <time>2014-08-13T12:17:40.357Z</time>
      </trkpt>
      <trkpt lat="48.42681" lon="-3.88316">
        <ele>324.132568359</ele>
        <time>2014-08-13T12:17:45.365Z</time>
      </trkpt>
      <trkpt lat="48.4268" lon="-3.88314">
        <ele>324.273834229</ele>
        <time>2014-08-13T12:17:46.374Z</time>
      </trkpt>
      <trkpt lat="48.42673" lon="-3.88308">
        <ele>324.735137939</ele>
        <time>2014-08-13T12:17:50.353Z</time>
      </trkpt>
      <trkpt lat="48.42672" lon="-3.88306">
        <ele>324.837310791</ele>
        <time>2014-08-13T12:17:51.353Z</time>
      </trkpt>
      <trkpt lat="48.42664" lon="-3.88301">
        <ele>325.119384766</ele>
        <time>2014-08-13T12:17:56.347Z</time>
      </trkpt>
      <trkpt lat="48.42663" lon="-3.883">
        <ele>325.148986816</ele>
        <time>2014-08-13T12:17:57.375Z</time>
      </trkpt>
      <trkpt lat="48.42655" lon="-3.88293">
        <ele>325.507324219</ele>
        <time>2014-08-13T12:18:02.347Z</time>
      </trkpt>
      <trkpt lat="48.42654" lon="-3.88292">
        <ele>325.593292236</ele>
        <time>2014-08-13T12:18:03.344Z</time>
      </trkpt>
      <trkpt lat="48.42647" lon="-3.88285">
        <ele>326.375</ele>
        <time>2014-08-13T12:18:11.364Z</time>
      </trkpt>
      <trkpt lat="48.42646" lon="-3.88283">
        <ele>326.475097656</ele>
        <time>2014-08-13T12:18:12.359Z</time>
      </trkpt>
      <trkpt lat="48.42638" lon="-3.88277">
        <ele>327.019836426</ele>
        <time>2014-08-13T12:18:18.34Z</time>
      </trkpt>
      <trkpt lat="48.42636" lon="-3.88276">
        <ele>327.179260254</ele>
        <time>2014-08-13T12:18:19.346Z</time>
      </trkpt>
      <trkpt lat="48.42629" lon="-3.8827">
        <ele>327.57611084</ele>
        <time>2014-08-13T12:18:24.35Z</time>
      </trkpt>
      <trkpt lat="48.42627" lon="-3.88268">
        <ele>327.597351074</ele>
        <time>2014-08-13T12:18:25.348Z</time>
      </trkpt>
      <trkpt lat="48.4262" lon="-3.88262">
        <ele>327.696929932</ele>
        <time>2014-08-13T12:18:30.354Z</time>
      </trkpt>
      <trkpt lat="48.42619" lon="-3.8826">
        <ele>327.730041504</ele>
        <time>2014-08-13T12:18:31.346Z</time>
      </trkpt>
      <trkpt lat="48.42611" lon="-3.88255">
        <ele>327.822784424</ele>
        <time>2014-08-13T12:18:35.337Z</time>
      </trkpt>
      <trkpt lat="48.42609" lon="-3.88253">
        <ele>327.832977295</ele>
        <time>2014-08-13T12:18:36.345Z</time>
      </trkpt>
      <trkpt lat="48.42602" lon="-3.88247">
        <ele>327.904815674</ele>
        <time>2014-08-13T12:18:40.36Z</time>
      </trkpt>
      <trkpt lat="48.426" lon="-3.88246">
        <ele>327.935913086</ele>
        <time>2014-08-13T12:18:41.351Z</time>
      </trkpt>
      <trkpt lat="48.42593" lon="-3.88241">
        <ele>328.0390625</ele>
        <time>2014-08-13T12:18:45.351Z</time>
      </trkpt>
      <trkpt lat="48.42591" lon="-3.8824">
        <ele>328.064910889</ele>
        <time>2014-08-13T12:18:46.349Z</time>
      </trkpt>
      <trkpt lat="48.42583" lon="-3.88233">
        <ele>328.322357178</ele>
        <time>2014-08-13T12:18:51.351Z</time>
      </trkpt>
      <trkpt lat="48.42582" lon="-3.88232">
        <ele>328.381744385</ele>
        <time>2014-08-13T12:18:52.356Z</time>
      </trkpt>
      <trkpt lat="48.42575" lon="-3.88225">
        <ele>328.747528076</ele>
        <time>2014-08-13T12:18:57.356Z</time>
      </trkpt>
      <trkpt lat="48.42573" lon="-3.88224">
        <ele>328.832336426</ele>
        <time>2014-08-13T12:18:58.348Z</time>
      </trkpt>
      <trkpt lat="48.42567" lon="-3.88217">
        <ele>329.133605957</ele>
        <time>2014-08-13T12:19:03.346Z</time>
      </trkpt>
      <trkpt lat="48.42566" lon="-3.88215">
        <ele>329.192138672</ele>
        <time>2014-08-13T12:19:04.343Z</time>
      </trkpt>
      <trkpt lat="48.42559" lon="-3.88207">
        <ele>329.731292725</ele>
        <time>2014-08-13T12:19:10.367Z</time>
      </trkpt>
      <trkpt lat="48.42558" lon="-3.88205">
        <ele>329.831878662</ele>
        <time>2014-08-13T12:19:11.352Z</time>
      </trkpt>
      <trkpt lat="48.42551" lon="-3.88198">
        <ele>330.237823486</ele>
        <time>2014-08-13T12:19:16.357Z</time>
      </trkpt>
      <trkpt lat="48.4255" lon="-3.88197">
        <ele>330.304290771</ele>
        <time>2014-08-13T12:19:17.349Z</time>
      </trkpt>
      <trkpt lat="48.42544" lon="-3.88189">
        <ele>330.665618896</ele>
        <time>2014-08-13T12:19:23.364Z</time>
      </trkpt>
      <trkpt lat="48.42543" lon="-3.88187">
        <ele>330.746948242</ele>
        <time>2014-08-13T12:19:24.363Z</time>
      </trkpt>
      <trkpt lat="48.42537" lon="-3.8818">
        <ele>331.285339355</ele>
        <time>2014-08-13T12:19:30.355Z</time>
      </trkpt>
      <trkpt lat="48.42536" lon="-3.88178">
        <ele>331.384796143</ele>
        <time>2014-08-13T12:19:31.366Z</time>
      </trkpt>
      <trkpt lat="48.42531" lon="-3.88169">
        <ele>331.699676514</ele>
        <time>2014-08-13T12:19:36.37Z</time>
      </trkpt>
      <trkpt lat="48.42529" lon="-3.88167">
        <ele>331.823394775</ele>
        <time>2014-08-13T12:19:37.353Z</time>
      </trkpt>
      <trkpt lat="48.42523" lon="-3.88157">
        <ele>332.183654785</ele>
        <time>2014-08-13T12:19:43.356Z</time>
      </trkpt>
      <trkpt lat="48.42522" lon="-3.88156">
        <ele>332.259033203</ele>
        <time>2014-08-13T12:19:44.361Z</time>
      </trkpt>
      <trkpt lat="48.42517" lon="-3.88147">
        <ele>332.658660889</ele>
        <time>2014-08-13T12:19:49.363Z</time>
      </trkpt>
      <trkpt lat="48.42516" lon="-3.88145">
        <ele>332.755737305</ele>
        <time>2014-08-13T12:19:50.362Z</time>
      </trkpt>
      <trkpt lat="48.42509" lon="-3.88136">
        <ele>333.190765381</ele>
        <time>2014-08-13T12:19:55.348Z</time>
      </trkpt>
      <trkpt lat="48.42508" lon="-3.88134">
        <ele>333.273468018</ele>
        <time>2014-08-13T12:19:56.354Z</time>
      </trkpt>
      <trkpt lat="48.42502" lon="-3.88127">
        <ele>333.665405273</ele>
        <time>2014-08-13T12:20:01.354Z</time>
      </trkpt>
      <trkpt lat="48.42501" lon="-3.88125">
        <ele>333.750061035</ele>
        <time>2014-08-13T12:20:02.354Z</time>
      </trkpt>
      <trkpt lat="48.42494" lon="-3.88117">
        <ele>334.201324463</ele>
        <time>2014-08-13T12:20:07.365Z</time>
      </trkpt>
      <trkpt lat="48.42493" lon="-3.88116">
        <ele>334.255432129</ele>
        <time>2014-08-13T12:20:08.357Z</time>
      </trkpt>
      <trkpt lat="48.42486" lon="-3.88108">
        <ele>334.727752686</ele>
        <time>2014-08-13T12:20:13.35Z</time>
      </trkpt>
      <trkpt lat="48.42485" lon="-3.88106">
        <ele>334.869842529</ele>
        <time>2014-08-13T12:20:14.355Z</time>
      </trkpt>
      <trkpt lat="48.42478" lon="-3.88098">
        <ele>335.509063721</ele>
        <time>2014-08-13T12:20:19.361Z</time>
      </trkpt>
      <trkpt lat="48.42477" lon="-3.88097">
        <ele>335.661193848</ele>
        <time>2014-08-13T12:20:20.358Z</time>
      </trkpt>
      <trkpt lat="48.4247" lon="-3.8809">
        <ele>336.181976318</ele>
        <time>2014-08-13T12:20:25.353Z</time>
      </trkpt>
      <trkpt lat="48.42469" lon="-3.88088">
        <ele>336.270446777</ele>
        <time>2014-08-13T12:20:26.358Z</time>
      </trkpt>
      <trkpt lat="48.42462" lon="-3.8808">
        <ele>336.814331055</ele>
        <time>2014-08-13T12:20:32.356Z</time>
      </trkpt>
      <trkpt lat="48.42461" lon="-3.88078">
        <ele>336.922515869</ele>
        <time>2014-08-13T12:20:33.361Z</time>
      </trkpt>
      <trkpt lat="48.42454" lon="-3.8807">
        <ele>337.531707764</ele>
        <time>2014-08-13T12:20:39.359Z</time>
      </trkpt>
      <trkpt lat="48.42453" lon="-3.88068">
        <ele>337.626464844</ele>
        <time>2014-08-13T12:20:40.36Z</time>
      </trkpt>
      <trkpt lat="48.42446" lon="-3.8806">
        <ele>338.100799561</ele>
        <time>2014-08-13T12:20:45.362Z</time>
      </trkpt>
      <trkpt lat="48.42445" lon="-3.88057">
        <ele>338.195098877</ele>
        <time>2014-08-13T12:20:46.353Z</time>
      </trkpt>
      <trkpt lat="48.4244" lon="-3.88046">
        <ele>338.818511963</ele>
        <time>2014-08-13T12:20:51.363Z</time>
      </trkpt>
      <trkpt lat="48.4244" lon="-3.88044">
        <ele>338.9503479</ele>
        <time>2014-08-13T12:20:52.354Z</time>
      </trkpt>
      <trkpt lat="48.42435" lon="-3.88033">
        <ele>339.363189697</ele>
        <time>2014-08-13T12:20:57.359Z</time>
      </trkpt>
      <trkpt lat="48.42434" lon="-3.88031">
        <ele>339.418365479</ele>
        <time>2014-08-13T12:20:58.348Z</time>
      </trkpt>
      <trkpt lat="48.42428" lon="-3.88021">
        <ele>339.875183105</ele>
        <time>2014-08-13T12:21:03.363Z</time>
      </trkpt>
      <trkpt lat="48.42426" lon="-3.88019">
        <ele>339.981140137</ele>
        <time>2014-08-13T12:21:04.351Z</time>
      </trkpt>
      <trkpt lat="48.42421" lon="-3.8801">
        <ele>340.366607666</ele>
        <time>2014-08-13T12:21:08.36Z</time>
      </trkpt>
      <trkpt lat="48.42419" lon="-3.88008">
        <ele>340.474761963</ele>
        <time>2014-08-13T12:21:09.365Z</time>
      </trkpt>
      <trkpt lat="48.42412" lon="-3.88">
        <ele>341.012634277</ele>
        <time>2014-08-13T12:21:14.35Z</time>
      </trkpt>
      <trkpt lat="48.4241" lon="-3.87998">
        <ele>341.133758545</ele>
        <time>2014-08-13T12:21:15.355Z</time>
      </trkpt>
      <trkpt lat="48.42404" lon="-3.87989">
        <ele>341.450653076</ele>
        <time>2014-08-13T12:21:19.357Z</time>
      </trkpt>
      <trkpt lat="48.42402" lon="-3.87987">
        <ele>341.527099609</ele>
        <time>2014-08-13T12:21:20.361Z</time>
      </trkpt>
      <trkpt lat="48.42396" lon="-3.87981">
        <ele>341.755126953</ele>
        <time>2014-08-13T12:21:23.367Z</time>
      </trkpt>
      <trkpt lat="48.42394" lon="-3.87978">
        <ele>341.843475342</ele>
        <time>2014-08-13T12:21:24.363Z</time>
      </trkpt>
      <trkpt lat="48.42387" lon="-3.8797">
        <ele>342.104125977</ele>
        <time>2014-08-13T12:21:28.36Z</time>
      </trkpt>
      <trkpt lat="48.42385" lon="-3.87968">
        <ele>342.183044434</ele>
        <time>2014-08-13T12:21:29.357Z</time>
      </trkpt>
      <trkpt lat="48.4238" lon="-3.8796">
        <ele>342.442199707</ele>
        <time>2014-08-13T12:21:32.351Z</time>
      </trkpt>
      <trkpt lat="48.42379" lon="-3.87958">
        <ele>342.560943604</ele>
        <time>2014-08-13T12:21:33.359Z</time>
      </trkpt>
      <trkpt lat="48.42372" lon="-3.87949">
        <ele>342.966430664</ele>
        <time>2014-08-13T12:21:37.362Z</time>
      </trkpt>
      <trkpt lat="48.4237" lon="-3.87947">
        <ele>343.072723389</ele>
        <time>2014-08-13T12:21:38.352Z</time>
      </trkpt>
      <trkpt lat="48.42365" lon="-3.8794">
        <ele>343.320678711</ele>
        <time>2014-08-13T12:21:41.362Z</time>
      </trkpt>
      <trkpt lat="48.42363" lon="-3.87938">
        <ele>343.390045166</ele>
        <time>2014-08-13T12:21:42.365Z</time>
      </trkpt>
      <trkpt lat="48.42357" lon="-3.8793">
        <ele>343.648162842</ele>
        <time>2014-08-13T12:21:45.365Z</time>
      </trkpt>
      <trkpt lat="48.42355" lon="-3.87927">
        <ele>343.756408691</ele>
        <time>2014-08-13T12:21:46.359Z</time>
      </trkpt>
      <trkpt lat="48.42348" lon="-3.8792">
        <ele>344.089263916</ele>
        <time>2014-08-13T12:21:50.358Z</time>
      </trkpt>
      <trkpt lat="48.42347" lon="-3.87917">
        <ele>344.166351318</ele>
        <time>2014-08-13T12:21:51.362Z</time>
      </trkpt>
      <trkpt lat="48.42341" lon="-3.87908">
        <ele>344.510742188</ele>
        <time>2014-08-13T12:21:55.368Z</time>
      </trkpt>
      <trkpt lat="48.42339" lon="-3.87906">
        <ele>344.615264893</ele>
        <time>2014-08-13T12:21:56.356Z</time>
      </trkpt>
      <trkpt lat="48.42333" lon="-3.87897">
        <ele>344.980804443</ele>
        <time>2014-08-13T12:22:00.371Z</time>
      </trkpt>
      <trkpt lat="48.42332" lon="-3.87895">
        <ele>345.163116455</ele>
        <time>2014-08-13T12:22:01.356Z</time>
      </trkpt>
      <trkpt lat="48.42326" lon="-3.87887">
        <ele>345.64831543</ele>
        <time>2014-08-13T12:22:05.358Z</time>
      </trkpt>
      <trkpt lat="48.42324" lon="-3.87884">
        <ele>345.785858154</ele>
        <time>2014-08-13T12:22:06.352Z</time>
      </trkpt>
      <trkpt lat="48.42318" lon="-3.87874">
        <ele>346.13973999</ele>
        <time>2014-08-13T12:22:10.356Z</time>
      </trkpt>
      <trkpt lat="48.42317" lon="-3.87872">
        <ele>346.284545898</ele>
        <time>2014-08-13T12:22:11.361Z</time>
      </trkpt>
      <trkpt lat="48.42312" lon="-3.87864">
        <ele>346.647918701</ele>
        <time>2014-08-13T12:22:15.357Z</time>
      </trkpt>
      <trkpt lat="48.42311" lon="-3.87862">
        <ele>346.693634033</ele>
        <time>2014-08-13T12:22:16.352Z</time>
      </trkpt>
      <trkpt lat="48.42304" lon="-3.87854">
        <ele>347.318603516</ele>
        <time>2014-08-13T12:22:20.365Z</time>
      </trkpt>
      <trkpt lat="48.42302" lon="-3.87851">
        <ele>347.458435059</ele>
        <time>2014-08-13T12:22:21.368Z</time>
      </trkpt>
      <trkpt lat="48.42297" lon="-3.87844">
        <ele>347.875976562</ele>
        <time>2014-08-13T12:22:24.364Z</time>
      </trkpt>
      <trkpt lat="48.42295" lon="-3.87841">
        <ele>347.937347412</ele>
        <time>2014-08-13T12:22:25.373Z</time>
      </trkpt>
      <trkpt lat="48.42289" lon="-3.87832">
        <ele>348.379425049</ele>
        <time>2014-08-13T12:22:30.367Z</time>
      </trkpt>
      <trkpt lat="48.42287" lon="-3.8783">
        <ele>348.490631104</ele>
        <time>2014-08-13T12:22:31.354Z</time>
      </trkpt>
      <trkpt lat="48.4228" lon="-3.87823">
        <ele>348.795837402</ele>
        <time>2014-08-13T12:22:35.372Z</time>
      </trkpt>
      <trkpt lat="48.42279" lon="-3.87821">
        <ele>348.865661621</ele>
        <time>2014-08-13T12:22:36.37Z</time>
      </trkpt>
      <trkpt lat="48.42272" lon="-3.87814">
        <ele>349.218658447</ele>
        <time>2014-08-13T12:22:40.364Z</time>
      </trkpt>
      <trkpt lat="48.4227" lon="-3.87812">
        <ele>349.277252197</ele>
        <time>2014-08-13T12:22:41.366Z</time>
      </trkpt>
      <trkpt lat="48.42263" lon="-3.87804">
        <ele>349.756500244</ele>
        <time>2014-08-13T12:22:46.357Z</time>
      </trkpt>
      <trkpt lat="48.42262" lon="-3.87802">
        <ele>349.837890625</ele>
        <time>2014-08-13T12:22:47.363Z</time>
      </trkpt>
      <trkpt lat="48.42257" lon="-3.87794">
        <ele>350.015014648</ele>
        <time>2014-08-13T12:22:51.356Z</time>
      </trkpt>
      <trkpt lat="48.42256" lon="-3.87792">
        <ele>350.090942383</ele>
        <time>2014-08-13T12:22:52.347Z</time>
      </trkpt>
      <trkpt lat="48.4225" lon="-3.87783">
        <ele>350.471466064</ele>
        <time>2014-08-13T12:22:57.355Z</time>
      </trkpt>
      <trkpt lat="48.42249" lon="-3.87782">
        <ele>350.539520264</ele>
        <time>2014-08-13T12:22:58.352Z</time>
      </trkpt>
      <trkpt lat="48.42243" lon="-3.87775">
        <ele>350.86529541</ele>
        <time>2014-08-13T12:23:02.363Z</time>
      </trkpt>
      <trkpt lat="48.42241" lon="-3.87772">
        <ele>350.978515625</ele>
        <time>2014-08-13T12:23:03.372Z</time>
      </trkpt>
      <trkpt lat="48.42235" lon="-3.87765">
        <ele>351.381896973</ele>
        <time>2014-08-13T12:23:07.366Z</time>
      </trkpt>
      <trkpt lat="48.42233" lon="-3.87763">
        <ele>351.494506836</ele>
        <time>2014-08-13T12:23:08.345Z</time>
      </trkpt>
      <trkpt lat="48.42229" lon="-3.87753">
        <ele>351.815795898</ele>
        <time>2014-08-13T12:23:12.355Z</time>
      </trkpt>
      <trkpt lat="48.42227" lon="-3.87751">
        <ele>351.914916992</ele>
        <time>2014-08-13T12:23:13.365Z</time>
      </trkpt>
      <trkpt lat="48.42221" lon="-3.87742">
        <ele>352.472900391</ele>
        <time>2014-08-13T12:23:17.366Z</time>
      </trkpt>
      <trkpt lat="48.42219" lon="-3.8774">
        <ele>352.620941162</ele>
        <time>2014-08-13T12:23:18.356Z</time>
      </trkpt>
      <trkpt lat="48.42214" lon="-3.87731">
        <ele>352.892547607</ele>
        <time>2014-08-13T12:23:21.359Z</time>
      </trkpt>
      <trkpt lat="48.42213" lon="-3.87729">
        <ele>352.949035645</ele>
        <time>2014-08-13T12:23:22.364Z</time>
      </trkpt>
      <trkpt lat="48.42207" lon="-3.8772">
        <ele>353.524017334</ele>
        <time>2014-08-13T12:23:27.373Z</time>
      </trkpt>
      <trkpt lat="48.42206" lon="-3.87717">
        <ele>353.600463867</ele>
        <time>2014-08-13T12:23:28.366Z</time>
      </trkpt>
      <trkpt lat="48.42202" lon="-3.87706">
        <ele>354.117919922</ele>
        <time>2014-08-13T12:23:33.36Z</time>
      </trkpt>
      <trkpt lat="48.42202" lon="-3.87705">
        <ele>354.285675049</ele>
        <time>2014-08-13T12:23:34.36Z</time>
      </trkpt>
      <trkpt lat="48.42196" lon="-3.87699">
        <ele>354.83984375</ele>
        <time>2014-08-13T12:23:37.362Z</time>
      </trkpt>
      <trkpt lat="48.42195" lon="-3.87697">
        <ele>355.058044434</ele>
        <time>2014-08-13T12:23:38.357Z</time>
      </trkpt>
      <trkpt lat="48.42189" lon="-3.87689">
        <ele>355.59362793</ele>
        <time>2014-08-13T12:23:41.368Z</time>
      </trkpt>
      <trkpt lat="48.42187" lon="-3.87686">
        <ele>355.739959717</ele>
        <time>2014-08-13T12:23:42.365Z</time>
      </trkpt>
      <trkpt lat="48.42182" lon="-3.87676">
        <ele>356.663696289</ele>
        <time>2014-08-13T12:23:46.365Z</time>
      </trkpt>
      <trkpt lat="48.42181" lon="-3.87672">
        <ele>356.917053223</ele>
        <time>2014-08-13T12:23:47.367Z</time>
      </trkpt>
      <trkpt lat="48.42177" lon="-3.87662">
        <ele>358.026672363</ele>
        <time>2014-08-13T12:23:51.373Z</time>
      </trkpt>
      <trkpt lat="48.42175" lon="-3.87657">
        <ele>358.295043945</ele>
        <time>2014-08-13T12:23:52.369Z</time>
      </trkpt>
      <trkpt lat="48.42172" lon="-3.87649">
        <ele>359.007995605</ele>
        <time>2014-08-13T12:23:55.374Z</time>
      </trkpt>
      <trkpt lat="48.4217" lon="-3.87646">
        <ele>359.191101074</ele>
        <time>2014-08-13T12:23:56.364Z</time>
      </trkpt>
      <trkpt lat="48.42164" lon="-3.87639">
        <ele>359.612426758</ele>
        <time>2014-08-13T12:23:59.36Z</time>
      </trkpt>
      <trkpt lat="48.42163" lon="-3.87637">
        <ele>359.704162598</ele>
        <time>2014-08-13T12:24:00.366Z</time>
      </trkpt>
      <trkpt lat="48.42156" lon="-3.87629">
        <ele>360.234741211</ele>
        <time>2014-08-13T12:24:05.362Z</time>
      </trkpt>
      <trkpt lat="48.42155" lon="-3.87628">
        <ele>360.400787354</ele>
        <time>2014-08-13T12:24:06.354Z</time>
      </trkpt>
      <trkpt lat="48.42149" lon="-3.87621">
        <ele>360.854370117</ele>
        <time>2014-08-13T12:24:09.362Z</time>
      </trkpt>
      <trkpt lat="48.42146" lon="-3.87618">
        <ele>360.994018555</ele>
        <time>2014-08-13T12:24:10.36Z</time>
      </trkpt>
      <trkpt lat="48.4214" lon="-3.87612">
        <ele>361.359588623</ele>
        <time>2014-08-13T12:24:13.362Z</time>
      </trkpt>
      <trkpt lat="48.42138" lon="-3.8761">
        <ele>361.51348877</ele>
        <time>2014-08-13T12:24:14.356Z</time>
      </trkpt>
      <trkpt lat="48.42131" lon="-3.87605">
        <ele>361.938262939</ele>
        <time>2014-08-13T12:24:19.4Z</time>
      </trkpt>
      <trkpt lat="48.4213" lon="-3.87603">
        <ele>362.045959473</ele>
        <time>2014-08-13T12:24:20.368Z</time>
      </trkpt>
      <trkpt lat="48.42123" lon="-3.87596">
        <ele>362.445037842</ele>
        <time>2014-08-13T12:24:25.362Z</time>
      </trkpt>
      <trkpt lat="48.42122" lon="-3.87595">
        <ele>362.547424316</ele>
        <time>2014-08-13T12:24:26.356Z</time>
      </trkpt>
      <trkpt lat="48.42116" lon="-3.87586">
        <ele>363.345489502</ele>
        <time>2014-08-13T12:24:31.356Z</time>
      </trkpt>
      <trkpt lat="48.42115" lon="-3.87585">
        <ele>363.524932861</ele>
        <time>2014-08-13T12:24:32.357Z</time>
      </trkpt>
      <trkpt lat="48.42109" lon="-3.87577">
        <ele>364.450439453</ele>
        <time>2014-08-13T12:24:37.368Z</time>
      </trkpt>
      <trkpt lat="48.42107" lon="-3.87576">
        <ele>364.600341797</ele>
        <time>2014-08-13T12:24:38.363Z</time>
      </trkpt>
      <trkpt lat="48.42099" lon="-3.87569">
        <ele>364.750671387</ele>
        <time>2014-08-13T12:24:41.361Z</time>
      </trkpt>
      <trkpt lat="48.42098" lon="-3.87568">
        <ele>364.797454834</ele>
        <time>2014-08-13T12:24:42.36Z</time>
      </trkpt>
      <trkpt lat="48.42092" lon="-3.8756">
        <ele>365.193237305</ele>
        <time>2014-08-13T12:24:47.36Z</time>
      </trkpt>
      <trkpt lat="48.42091" lon="-3.87559">
        <ele>365.292541504</ele>
        <time>2014-08-13T12:24:48.356Z</time>
      </trkpt>
      <trkpt lat="48.42085" lon="-3.8755">
        <ele>366.10836792</ele>
        <time>2014-08-13T12:24:54.364Z</time>
      </trkpt>
      <trkpt lat="48.42084" lon="-3.87549">
        <ele>366.254821777</ele>
        <time>2014-08-13T12:24:55.366Z</time>
      </trkpt>
      <trkpt lat="48.42077" lon="-3.87541">
        <ele>366.853302002</ele>
        <time>2014-08-13T12:25:01.362Z</time>
      </trkpt>
      <trkpt lat="48.42075" lon="-3.8754">
        <ele>366.913879395</ele>
        <time>2014-08-13T12:25:02.355Z</time>
      </trkpt>
      <trkpt lat="48.42068" lon="-3.87534">
        <ele>367.296936035</ele>
        <time>2014-08-13T12:25:08.364Z</time>
      </trkpt>
      <trkpt lat="48.42066" lon="-3.87533">
        <ele>367.417053223</ele>
        <time>2014-08-13T12:25:09.366Z</time>
      </trkpt>
      <trkpt lat="48.42058" lon="-3.87529">
        <ele>368.068054199</ele>
        <time>2014-08-13T12:25:15.355Z</time>
      </trkpt>
      <trkpt lat="48.42057" lon="-3.87527">
        <ele>368.15625</ele>
        <time>2014-08-13T12:25:16.362Z</time>
      </trkpt>
      <trkpt lat="48.4205" lon="-3.87522">
        <ele>368.732543945</ele>
        <time>2014-08-13T12:25:23.366Z</time>
      </trkpt>
      <trkpt lat="48.42049" lon="-3.87521">
        <ele>368.811920166</ele>
        <time>2014-08-13T12:25:24.363Z</time>
      </trkpt>
      <trkpt lat="48.42042" lon="-3.87514">
        <ele>369.596221924</ele>
        <time>2014-08-13T12:25:32.348Z</time>
      </trkpt>
      <trkpt lat="48.42041" lon="-3.87512">
        <ele>369.739562988</ele>
        <time>2014-08-13T12:25:33.359Z</time>
      </trkpt>
      <trkpt lat="48.42036" lon="-3.87503">
        <ele>371.213867188</ele>
        <time>2014-08-13T12:25:41.364Z</time>
      </trkpt>
      <trkpt lat="48.42035" lon="-3.875">
        <ele>371.464294434</ele>
        <time>2014-08-13T12:25:42.37Z</time>
      </trkpt>
      <trkpt lat="48.42034" lon="-3.87489">
        <ele>372.392913818</ele>
        <time>2014-08-13T12:25:47.366Z</time>
      </trkpt>
      <trkpt lat="48.42034" lon="-3.87486">
        <ele>372.544891357</ele>
        <time>2014-08-13T12:25:48.355Z</time>
      </trkpt>
      <trkpt lat="48.42033" lon="-3.87475">
        <ele>373.507659912</ele>
        <time>2014-08-13T12:25:54.36Z</time>
      </trkpt>
      <trkpt lat="48.42033" lon="-3.87471">
        <ele>373.672912598</ele>
        <time>2014-08-13T12:25:55.369Z</time>
      </trkpt>
      <trkpt lat="48.42033" lon="-3.8746">
        <ele>374.076629639</ele>
        <time>2014-08-13T12:25:59.366Z</time>
      </trkpt>
      <trkpt lat="48.42032" lon="-3.87457">
        <ele>374.138916016</ele>
        <time>2014-08-13T12:26:00.344Z</time>
      </trkpt>
      <trkpt lat="48.42032" lon="-3.87444">
        <ele>374.172607422</ele>
        <time>2014-08-13T12:26:05.365Z</time>
      </trkpt>
      <trkpt lat="48.42032" lon="-3.87442">
        <ele>374.189483643</ele>
        <time>2014-08-13T12:26:06.361Z</time>
      </trkpt>
      <trkpt lat="48.42031" lon="-3.87431">
        <ele>374.493225098</ele>
        <time>2014-08-13T12:26:10.362Z</time>
      </trkpt>
      <trkpt lat="48.42031" lon="-3.87428">
        <ele>374.53704834</ele>
        <time>2014-08-13T12:26:11.364Z</time>
      </trkpt>
      <trkpt lat="48.42027" lon="-3.87415">
        <ele>374.817199707</ele>
        <time>2014-08-13T12:26:16.358Z</time>
      </trkpt>
      <trkpt lat="48.42027" lon="-3.87413">
        <ele>374.903686523</ele>
        <time>2014-08-13T12:26:17.361Z</time>
      </trkpt>
      <trkpt lat="48.42023" lon="-3.87402">
        <ele>375.215911865</ele>
        <time>2014-08-13T12:26:23.35Z</time>
      </trkpt>
      <trkpt lat="48.42022" lon="-3.874">
        <ele>375.239685059</ele>
        <time>2014-08-13T12:26:24.347Z</time>
      </trkpt>
      <trkpt lat="48.42018" lon="-3.8739">
        <ele>375.655548096</ele>
        <time>2014-08-13T12:26:28.377Z</time>
      </trkpt>
      <trkpt lat="48.42018" lon="-3.87387">
        <ele>375.764709473</ele>
        <time>2014-08-13T12:26:29.386Z</time>
      </trkpt>
      <trkpt lat="48.42016" lon="-3.87374">
        <ele>376.685699463</ele>
        <time>2014-08-13T12:26:35.352Z</time>
      </trkpt>
      <trkpt lat="48.42015" lon="-3.87372">
        <ele>376.82989502</ele>
        <time>2014-08-13T12:26:36.445Z</time>
      </trkpt>
      <trkpt lat="48.42014" lon="-3.8736">
        <ele>377.551239014</ele>
        <time>2014-08-13T12:26:41.362Z</time>
      </trkpt>
      <trkpt lat="48.42014" lon="-3.87357">
        <ele>377.642059326</ele>
        <time>2014-08-13T12:26:42.364Z</time>
      </trkpt>
      <trkpt lat="48.42013" lon="-3.87345">
        <ele>378.055725098</ele>
        <time>2014-08-13T12:26:47.358Z</time>
      </trkpt>
      <trkpt lat="48.42012" lon="-3.87342">
        <ele>378.123504639</ele>
        <time>2014-08-13T12:26:48.374Z</time>
      </trkpt>
      <trkpt lat="48.42009" lon="-3.8733">
        <ele>378.660583496</ele>
        <time>2014-08-13T12:26:55.363Z</time>
      </trkpt>
      <trkpt lat="48.42009" lon="-3.87328">
        <ele>378.758148193</ele>
        <time>2014-08-13T12:26:56.36Z</time>
      </trkpt>
      <trkpt lat="48.42006" lon="-3.87317">
        <ele>379.410766602</ele>
        <time>2014-08-13T12:27:00.349Z</time>
      </trkpt>
      <trkpt lat="48.42005" lon="-3.87315">
        <ele>379.6300354</ele>
        <time>2014-08-13T12:27:01.361Z</time>
      </trkpt>
      <trkpt lat="48.41999" lon="-3.87306">
        <ele>381.564544678</ele>
        <time>2014-08-13T12:28:28.339Z</time>
      </trkpt>
      <trkpt lat="48.41999" lon="-3.87305">
        <ele>381.635192871</ele>
        <time>2014-08-13T12:28:29.417Z</time>
      </trkpt>
      <trkpt lat="48.41997" lon="-3.87293">
        <ele>382.849578857</ele>
        <time>2014-08-13T12:28:48.417Z</time>
      </trkpt>
      <trkpt lat="48.41997" lon="-3.8729">
        <ele>382.955322266</ele>
        <time>2014-08-13T12:28:49.417Z</time>
      </trkpt>
      <trkpt lat="48.41996" lon="-3.87278">
        <ele>383.476409912</ele>
        <time>2014-08-13T12:28:54.412Z</time>
      </trkpt>
      <trkpt lat="48.41996" lon="-3.87275">
        <ele>383.562194824</ele>
        <time>2014-08-13T12:28:55.4Z</time>
      </trkpt>
      <trkpt lat="48.41996" lon="-3.87263">
        <ele>384.016845703</ele>
        <time>2014-08-13T12:29:00.402Z</time>
      </trkpt>
      <trkpt lat="48.41996" lon="-3.87261">
        <ele>384.150238037</ele>
        <time>2014-08-13T12:29:01.408Z</time>
      </trkpt>
      <trkpt lat="48.41997" lon="-3.87249">
        <ele>384.728637695</ele>
        <time>2014-08-13T12:29:06.451Z</time>
      </trkpt>
      <trkpt lat="48.41997" lon="-3.87246">
        <ele>384.85043335</ele>
        <time>2014-08-13T12:29:07.416Z</time>
      </trkpt>
      <trkpt lat="48.41997" lon="-3.87235">
        <ele>385.575561523</ele>
        <time>2014-08-13T12:29:12.412Z</time>
      </trkpt>
      <trkpt lat="48.41998" lon="-3.87232">
        <ele>385.723937988</ele>
        <time>2014-08-13T12:29:13.408Z</time>
      </trkpt>
      <trkpt lat="48.41999" lon="-3.87219">
        <ele>386.325286865</ele>
        <time>2014-08-13T12:29:18.41Z</time>
      </trkpt>
      <trkpt lat="48.41999" lon="-3.87216">
        <ele>386.422302246</ele>
        <time>2014-08-13T12:29:19.407Z</time>
      </trkpt>
      <trkpt lat="48.42" lon="-3.87204">
        <ele>386.959686279</ele>
        <time>2014-08-13T12:29:24.412Z</time>
      </trkpt>
      <trkpt lat="48.42" lon="-3.87202">
        <ele>387.06262207</ele>
        <time>2014-08-13T12:29:25.407Z</time>
      </trkpt>
      <trkpt lat="48.42" lon="-3.8719">
        <ele>387.5390625</ele>
        <time>2014-08-13T12:29:29.416Z</time>
      </trkpt>
      <trkpt lat="48.42" lon="-3.87187">
        <ele>387.657775879</ele>
        <time>2014-08-13T12:29:30.405Z</time>
      </trkpt>
      <trkpt lat="48.42" lon="-3.87174">
        <ele>388.084899902</ele>
        <time>2014-08-13T12:29:34.413Z</time>
      </trkpt>
      <trkpt lat="48.42" lon="-3.87171">
        <ele>388.206176758</ele>
        <time>2014-08-13T12:29:35.414Z</time>
      </trkpt>
      <trkpt lat="48.41999" lon="-3.87158">
        <ele>388.76940918</ele>
        <time>2014-08-13T12:29:39.49Z</time>
      </trkpt>
      <trkpt lat="48.41999" lon="-3.87154">
        <ele>388.907531738</ele>
        <time>2014-08-13T12:29:40.447Z</time>
      </trkpt>
      <trkpt lat="48.41998" lon="-3.87143">
        <ele>389.252624512</ele>
        <time>2014-08-13T12:29:43.831Z</time>
      </trkpt>
      <trkpt lat="48.41998" lon="-3.8714">
        <ele>389.424041748</ele>
        <time>2014-08-13T12:29:44.486Z</time>
      </trkpt>
      <trkpt lat="48.41997" lon="-3.87127">
        <ele>389.818603516</ele>
        <time>2014-08-13T12:29:47.444Z</time>
      </trkpt>
      <trkpt lat="48.41997" lon="-3.87122">
        <ele>389.909881592</ele>
        <time>2014-08-13T12:29:48.419Z</time>
      </trkpt>
      <trkpt lat="48.41995" lon="-3.87111">
        <ele>390.208831787</ele>
        <time>2014-08-13T12:29:51.457Z</time>
      </trkpt>
      <trkpt lat="48.41994" lon="-3.87106">
        <ele>390.313140869</ele>
        <time>2014-08-13T12:29:52.403Z</time>
      </trkpt>
      <trkpt lat="48.41992" lon="-3.87093">
        <ele>390.678771973</ele>
        <time>2014-08-13T12:29:55.41Z</time>
      </trkpt>
      <trkpt lat="48.41991" lon="-3.87089">
        <ele>390.854156494</ele>
        <time>2014-08-13T12:29:56.408Z</time>
      </trkpt>
      <trkpt lat="48.41989" lon="-3.8708">
        <ele>391.250915527</ele>
        <time>2014-08-13T12:29:58.411Z</time>
      </trkpt>
      <trkpt lat="48.41988" lon="-3.87076">
        <ele>391.464813232</ele>
        <time>2014-08-13T12:29:59.41Z</time>
      </trkpt>
      <trkpt lat="48.41986" lon="-3.87067">
        <ele>391.919494629</ele>
        <time>2014-08-13T12:30:01.412Z</time>
      </trkpt>
      <trkpt lat="48.41985" lon="-3.87061">
        <ele>392.09677124</ele>
        <time>2014-08-13T12:30:02.413Z</time>
      </trkpt>
      <trkpt lat="48.41982" lon="-3.87052">
        <ele>392.389465332</ele>
        <time>2014-08-13T12:30:04.411Z</time>
      </trkpt>
      <trkpt lat="48.4198" lon="-3.87047">
        <ele>392.509429932</ele>
        <time>2014-08-13T12:30:05.414Z</time>
      </trkpt>
      <trkpt lat="48.41977" lon="-3.87038">
        <ele>392.647918701</ele>
        <time>2014-08-13T12:30:07.406Z</time>
      </trkpt>
      <trkpt lat="48.41976" lon="-3.87033">
        <ele>392.698730469</ele>
        <time>2014-08-13T12:30:08.407Z</time>
      </trkpt>
      <trkpt lat="48.41972" lon="-3.87024">
        <ele>392.825378418</ele>
        <time>2014-08-13T12:30:10.431Z</time>
      </trkpt>
      <trkpt lat="48.41971" lon="-3.8702">
        <ele>392.861022949</ele>
        <time>2014-08-13T12:30:11.414Z</time>
      </trkpt>
      <trkpt lat="48.41967" lon="-3.87011">
        <ele>392.926361084</ele>
        <time>2014-08-13T12:30:13.406Z</time>
      </trkpt>
      <trkpt lat="48.41965" lon="-3.87006">
        <ele>392.971160889</ele>
        <time>2014-08-13T12:30:14.413Z</time>
      </trkpt>
      <trkpt lat="48.41962" lon="-3.86997">
        <ele>393.060119629</ele>
        <time>2014-08-13T12:30:16.414Z</time>
      </trkpt>
      <trkpt lat="48.4196" lon="-3.86992">
        <ele>393.103820801</ele>
        <time>2014-08-13T12:30:17.413Z</time>
      </trkpt>
      <trkpt lat="48.41957" lon="-3.86984">
        <ele>393.193389893</ele>
        <time>2014-08-13T12:30:19.414Z</time>
      </trkpt>
      <trkpt lat="48.41955" lon="-3.86979">
        <ele>393.234619141</ele>
        <time>2014-08-13T12:30:20.403Z</time>
      </trkpt>
      <trkpt lat="48.41952" lon="-3.8697">
        <ele>393.31942749</ele>
        <time>2014-08-13T12:30:22.401Z</time>
      </trkpt>
      <trkpt lat="48.41951" lon="-3.86966">
        <ele>393.369110107</ele>
        <time>2014-08-13T12:30:23.407Z</time>
      </trkpt>
      <trkpt lat="48.41948" lon="-3.86957">
        <ele>393.472564697</ele>
        <time>2014-08-13T12:30:25.405Z</time>
      </trkpt>
      <trkpt lat="48.41946" lon="-3.86952">
        <ele>393.518951416</ele>
        <time>2014-08-13T12:30:26.416Z</time>
      </trkpt>
      <trkpt lat="48.41943" lon="-3.86944">
        <ele>393.635772705</ele>
        <time>2014-08-13T12:30:28.41Z</time>
      </trkpt>
      <trkpt lat="48.41942" lon="-3.8694">
        <ele>393.6953125</ele>
        <time>2014-08-13T12:30:29.439Z</time>
      </trkpt>
      <trkpt lat="48.41938" lon="-3.86931">
        <ele>393.824676514</ele>
        <time>2014-08-13T12:30:31.408Z</time>
      </trkpt>
      <trkpt lat="48.41937" lon="-3.86927">
        <ele>393.896453857</ele>
        <time>2014-08-13T12:30:32.452Z</time>
      </trkpt>
      <trkpt lat="48.41933" lon="-3.86915">
        <ele>394.101013184</ele>
        <time>2014-08-13T12:30:35.413Z</time>
      </trkpt>
      <trkpt lat="48.41931" lon="-3.86911">
        <ele>394.17010498</ele>
        <time>2014-08-13T12:30:36.418Z</time>
      </trkpt>
      <trkpt lat="48.41929" lon="-3.86903">
        <ele>394.315887451</ele>
        <time>2014-08-13T12:30:38.416Z</time>
      </trkpt>
      <trkpt lat="48.41927" lon="-3.86899">
        <ele>394.389373779</ele>
        <time>2014-08-13T12:30:39.416Z</time>
      </trkpt>
      <trkpt lat="48.41923" lon="-3.86887">
        <ele>394.640258789</ele>
        <time>2014-08-13T12:30:42.421Z</time>
      </trkpt>
      <trkpt lat="48.41921" lon="-3.86883">
        <ele>394.724365234</ele>
        <time>2014-08-13T12:30:43.412Z</time>
      </trkpt>
      <trkpt lat="48.41919" lon="-3.86875">
        <ele>394.881744385</ele>
        <time>2014-08-13T12:30:45.414Z</time>
      </trkpt>
      <trkpt lat="48.41917" lon="-3.86871">
        <ele>394.969696045</ele>
        <time>2014-08-13T12:30:46.409Z</time>
      </trkpt>
      <trkpt lat="48.41914" lon="-3.86862">
        <ele>395.07800293</ele>
        <time>2014-08-13T12:30:48.409Z</time>
      </trkpt>
      <trkpt lat="48.41912" lon="-3.86858">
        <ele>395.138946533</ele>
        <time>2014-08-13T12:30:49.407Z</time>
      </trkpt>
      <trkpt lat="48.41909" lon="-3.86847">
        <ele>395.502807617</ele>
        <time>2014-08-13T12:30:52.409Z</time>
      </trkpt>
      <trkpt lat="48.41907" lon="-3.86844">
        <ele>395.658782959</ele>
        <time>2014-08-13T12:30:53.409Z</time>
      </trkpt>
      <trkpt lat="48.41904" lon="-3.86832">
        <ele>396.083526611</ele>
        <time>2014-08-13T12:30:56.402Z</time>
      </trkpt>
      <trkpt lat="48.41902" lon="-3.86829">
        <ele>396.225799561</ele>
        <time>2014-08-13T12:30:57.413Z</time>
      </trkpt>
      <trkpt lat="48.41899" lon="-3.86821">
        <ele>396.526763916</ele>
        <time>2014-08-13T12:30:59.424Z</time>
      </trkpt>
      <trkpt lat="48.41898" lon="-3.86816">
        <ele>396.637237549</ele>
        <time>2014-08-13T12:31:00.381Z</time>
      </trkpt>
      <trkpt lat="48.41895" lon="-3.86808">
        <ele>396.800689697</ele>
        <time>2014-08-13T12:31:02.414Z</time>
      </trkpt>
      <trkpt lat="48.41893" lon="-3.86804">
        <ele>396.879882812</ele>
        <time>2014-08-13T12:31:03.416Z</time>
      </trkpt>
      <trkpt lat="48.41889" lon="-3.86793">
        <ele>397.127288818</ele>
        <time>2014-08-13T12:31:06.407Z</time>
      </trkpt>
      <trkpt lat="48.41887" lon="-3.86789">
        <ele>397.216918945</ele>
        <time>2014-08-13T12:31:07.407Z</time>
      </trkpt>
      <trkpt lat="48.41882" lon="-3.86779">
        <ele>397.531188965</ele>
        <time>2014-08-13T12:31:10.41Z</time>
      </trkpt>
      <trkpt lat="48.41881" lon="-3.86775">
        <ele>397.624053955</ele>
        <time>2014-08-13T12:31:11.408Z</time>
      </trkpt>
      <trkpt lat="48.41876" lon="-3.86765">
        <ele>397.846588135</ele>
        <time>2014-08-13T12:31:14.42Z</time>
      </trkpt>
      <trkpt lat="48.41874" lon="-3.86762">
        <ele>397.908081055</ele>
        <time>2014-08-13T12:31:15.415Z</time>
      </trkpt>
      <trkpt lat="48.4187" lon="-3.86753">
        <ele>398.281646729</ele>
        <time>2014-08-13T12:31:18.414Z</time>
      </trkpt>
      <trkpt lat="48.41868" lon="-3.86749">
        <ele>398.389678955</ele>
        <time>2014-08-13T12:31:19.413Z</time>
      </trkpt>
      <trkpt lat="48.41863" lon="-3.86739">
        <ele>398.652954102</ele>
        <time>2014-08-13T12:31:22.412Z</time>
      </trkpt>
      <trkpt lat="48.41862" lon="-3.86737">
        <ele>398.770050049</ele>
        <time>2014-08-13T12:31:23.378Z</time>
      </trkpt>
      <trkpt lat="48.41857" lon="-3.86728">
        <ele>399.149902344</ele>
        <time>2014-08-13T12:31:26.405Z</time>
      </trkpt>
      <trkpt lat="48.41855" lon="-3.86724">
        <ele>399.289520264</ele>
        <time>2014-08-13T12:31:27.41Z</time>
      </trkpt>
      <trkpt lat="48.4185" lon="-3.86714">
        <ele>399.695739746</ele>
        <time>2014-08-13T12:31:30.414Z</time>
      </trkpt>
      <trkpt lat="48.41849" lon="-3.86711">
        <ele>399.826324463</ele>
        <time>2014-08-13T12:31:31.429Z</time>
      </trkpt>
      <trkpt lat="48.41844" lon="-3.86702">
        <ele>400.228027344</ele>
        <time>2014-08-13T12:31:34.415Z</time>
      </trkpt>
      <trkpt lat="48.41842" lon="-3.86699">
        <ele>400.373077393</ele>
        <time>2014-08-13T12:31:35.409Z</time>
      </trkpt>
      <trkpt lat="48.41836" lon="-3.8669">
        <ele>400.791412354</ele>
        <time>2014-08-13T12:31:38.415Z</time>
      </trkpt>
      <trkpt lat="48.41835" lon="-3.86687">
        <ele>400.944000244</ele>
        <time>2014-08-13T12:31:39.416Z</time>
      </trkpt>
      <trkpt lat="48.41829" lon="-3.86678">
        <ele>401.451751709</ele>
        <time>2014-08-13T12:31:42.412Z</time>
      </trkpt>
      <trkpt lat="48.41827" lon="-3.86675">
        <ele>401.601928711</ele>
        <time>2014-08-13T12:31:43.406Z</time>
      </trkpt>
      <trkpt lat="48.4182" lon="-3.86666">
        <ele>402.002807617</ele>
        <time>2014-08-13T12:31:46.424Z</time>
      </trkpt>
      <trkpt lat="48.41818" lon="-3.86663">
        <ele>402.129455566</ele>
        <time>2014-08-13T12:31:47.4Z</time>
      </trkpt>
      <trkpt lat="48.41812" lon="-3.86654">
        <ele>402.498321533</ele>
        <time>2014-08-13T12:31:50.413Z</time>
      </trkpt>
      <trkpt lat="48.4181" lon="-3.86651">
        <ele>402.63659668</ele>
        <time>2014-08-13T12:31:51.415Z</time>
      </trkpt>
      <trkpt lat="48.41804" lon="-3.86642">
        <ele>403.069519043</ele>
        <time>2014-08-13T12:31:54.415Z</time>
      </trkpt>
      <trkpt lat="48.41802" lon="-3.86639">
        <ele>403.216308594</ele>
        <time>2014-08-13T12:31:55.409Z</time>
      </trkpt>
      <trkpt lat="48.41796" lon="-3.8663">
        <ele>403.68182373</ele>
        <time>2014-08-13T12:31:58.415Z</time>
      </trkpt>
      <trkpt lat="48.41794" lon="-3.86627">
        <ele>403.827575684</ele>
        <time>2014-08-13T12:31:59.427Z</time>
      </trkpt>
      <trkpt lat="48.41789" lon="-3.8662">
        <ele>404.298278809</ele>
        <time>2014-08-13T12:32:02.423Z</time>
      </trkpt>
      <trkpt lat="48.41787" lon="-3.86618">
        <ele>404.485076904</ele>
        <time>2014-08-13T12:32:03.425Z</time>
      </trkpt>
      <trkpt lat="48.4178" lon="-3.8661">
        <ele>405.032592773</ele>
        <time>2014-08-13T12:32:06.42Z</time>
      </trkpt>
      <trkpt lat="48.41779" lon="-3.86608">
        <ele>405.175323486</ele>
        <time>2014-08-13T12:32:07.461Z</time>
      </trkpt>
      <trkpt lat="48.41771" lon="-3.86602">
        <ele>405.528564453</ele>
        <time>2014-08-13T12:32:10.404Z</time>
      </trkpt>
      <trkpt lat="48.41769" lon="-3.866">
        <ele>405.659240723</ele>
        <time>2014-08-13T12:32:11.404Z</time>
      </trkpt>
      <trkpt lat="48.41761" lon="-3.86595">
        <ele>406.035064697</ele>
        <time>2014-08-13T12:32:14.411Z</time>
      </trkpt>
      <trkpt lat="48.41758" lon="-3.86593">
        <ele>406.135894775</ele>
        <time>2014-08-13T12:32:15.417Z</time>
      </trkpt>
      <trkpt lat="48.4175" lon="-3.8659">
        <ele>406.461914062</ele>
        <time>2014-08-13T12:32:18.42Z</time>
      </trkpt>
      <trkpt lat="48.41748" lon="-3.86589">
        <ele>406.595855713</ele>
        <time>2014-08-13T12:32:19.416Z</time>
      </trkpt>
      <trkpt lat="48.41739" lon="-3.86587">
        <ele>407.053771973</ele>
        <time>2014-08-13T12:32:23.412Z</time>
      </trkpt>
      <trkpt lat="48.41737" lon="-3.86587">
        <ele>407.133514404</ele>
        <time>2014-08-13T12:32:24.414Z</time>
      </trkpt>
      <trkpt lat="48.41733" lon="-3.86577">
        <ele>407.579559326</ele>
        <time>2014-08-13T12:32:31.421Z</time>
      </trkpt>
      <trkpt lat="48.41732" lon="-3.86574">
        <ele>407.624237061</ele>
        <time>2014-08-13T12:32:32.424Z</time>
      </trkpt>
      <trkpt lat="48.41726" lon="-3.86564">
        <ele>408.329162598</ele>
        <time>2014-08-13T12:34:09.356Z</time>
      </trkpt>
      <trkpt lat="48.41726" lon="-3.86564">
        <ele>408.339477539</ele>
        <time>2014-08-13T12:34:10.353Z</time>
      </trkpt>
      <trkpt lat="48.41729" lon="-3.86553">
        <ele>410.865997314</ele>
        <time>2014-08-13T12:36:04.41Z</time>
      </trkpt>
      <trkpt lat="48.4173" lon="-3.86551">
        <ele>410.980163574</ele>
        <time>2014-08-13T12:36:05.41Z</time>
      </trkpt>
      <trkpt lat="48.41732" lon="-3.86539">
        <ele>411.273834229</ele>
        <time>2014-08-13T12:36:08.416Z</time>
      </trkpt>
      <trkpt lat="48.41732" lon="-3.86536">
        <ele>411.348144531</ele>
        <time>2014-08-13T12:36:09.416Z</time>
      </trkpt>
      <trkpt lat="48.41729" lon="-3.86526">
        <ele>411.575256348</ele>
        <time>2014-08-13T12:36:12.406Z</time>
      </trkpt>
      <trkpt lat="48.41728" lon="-3.86522">
        <ele>411.63470459</ele>
        <time>2014-08-13T12:36:13.412Z</time>
      </trkpt>
      <trkpt lat="48.4173" lon="-3.86511">
        <ele>411.846405029</ele>
        <time>2014-08-13T12:36:16.414Z</time>
      </trkpt>
      <trkpt lat="48.41731" lon="-3.86507">
        <ele>411.911804199</ele>
        <time>2014-08-13T12:36:17.417Z</time>
      </trkpt>
      <trkpt lat="48.41733" lon="-3.86498">
        <ele>411.998596191</ele>
        <time>2014-08-13T12:36:19.416Z</time>
      </trkpt>
      <trkpt lat="48.41734" lon="-3.86494">
        <ele>412.039825439</ele>
        <time>2014-08-13T12:36:20.412Z</time>
      </trkpt>
      <trkpt lat="48.41735" lon="-3.86484">
        <ele>412.133605957</ele>
        <time>2014-08-13T12:36:22.415Z</time>
      </trkpt>
      <trkpt lat="48.41735" lon="-3.86479">
        <ele>412.154937744</ele>
        <time>2014-08-13T12:36:23.416Z</time>
      </trkpt>
      <trkpt lat="48.41738" lon="-3.86466">
        <ele>412.210296631</ele>
        <time>2014-08-13T12:36:26.415Z</time>
      </trkpt>
      <trkpt lat="48.41739" lon="-3.86462">
        <ele>412.222229004</ele>
        <time>2014-08-13T12:36:27.418Z</time>
      </trkpt>
      <trkpt lat="48.41743" lon="-3.86454">
        <ele>412.312469482</ele>
        <time>2014-08-13T12:36:29.423Z</time>
      </trkpt>
      <trkpt lat="48.41745" lon="-3.86451">
        <ele>412.321929932</ele>
        <time>2014-08-13T12:36:30.407Z</time>
      </trkpt>
      <trkpt lat="48.41749" lon="-3.86444">
        <ele>412.345825195</ele>
        <time>2014-08-13T12:36:32.409Z</time>
      </trkpt>
      <trkpt lat="48.4175" lon="-3.86439">
        <ele>412.369628906</ele>
        <time>2014-08-13T12:36:33.406Z</time>
      </trkpt>
      <trkpt lat="48.41752" lon="-3.8643">
        <ele>412.420593262</ele>
        <time>2014-08-13T12:36:35.404Z</time>
      </trkpt>
      <trkpt lat="48.41753" lon="-3.86425">
        <ele>412.454650879</ele>
        <time>2014-08-13T12:36:36.408Z</time>
      </trkpt>
      <trkpt lat="48.41754" lon="-3.86414">
        <ele>412.477935791</ele>
        <time>2014-08-13T12:36:38.372Z</time>
      </trkpt>
      <trkpt lat="48.41755" lon="-3.8641">
        <ele>412.502502441</ele>
        <time>2014-08-13T12:36:39.417Z</time>
      </trkpt>
      <trkpt lat="48.41756" lon="-3.86399">
        <ele>412.591796875</ele>
        <time>2014-08-13T12:36:41.417Z</time>
      </trkpt>
      <trkpt lat="48.41757" lon="-3.86394">
        <ele>412.652008057</ele>
        <time>2014-08-13T12:36:42.408Z</time>
      </trkpt>
      <trkpt lat="48.4176" lon="-3.86386">
        <ele>412.756256104</ele>
        <time>2014-08-13T12:36:44.41Z</time>
      </trkpt>
      <trkpt lat="48.41761" lon="-3.86381">
        <ele>412.80078125</ele>
        <time>2014-08-13T12:36:45.448Z</time>
      </trkpt>
      <trkpt lat="48.41763" lon="-3.86372">
        <ele>412.872375488</ele>
        <time>2014-08-13T12:36:47.415Z</time>
      </trkpt>
      <trkpt lat="48.41764" lon="-3.86368">
        <ele>412.902923584</ele>
        <time>2014-08-13T12:36:48.411Z</time>
      </trkpt>
      <trkpt lat="48.41767" lon="-3.86356">
        <ele>413.019134521</ele>
        <time>2014-08-13T12:36:51.42Z</time>
      </trkpt>
      <trkpt lat="48.41768" lon="-3.86352">
        <ele>413.044952393</ele>
        <time>2014-08-13T12:36:52.416Z</time>
      </trkpt>
      <trkpt lat="48.41771" lon="-3.86339">
        <ele>413.180114746</ele>
        <time>2014-08-13T12:36:55.407Z</time>
      </trkpt>
      <trkpt lat="48.41772" lon="-3.86335">
        <ele>413.24407959</ele>
        <time>2014-08-13T12:36:56.409Z</time>
      </trkpt>
      <trkpt lat="48.41774" lon="-3.86327">
        <ele>413.348571777</ele>
        <time>2014-08-13T12:36:58.408Z</time>
      </trkpt>
      <trkpt lat="48.41776" lon="-3.86322">
        <ele>413.412902832</ele>
        <time>2014-08-13T12:36:59.414Z</time>
      </trkpt>
      <trkpt lat="48.41779" lon="-3.86314">
        <ele>413.550628662</ele>
        <time>2014-08-13T12:37:01.409Z</time>
      </trkpt>
      <trkpt lat="48.4178" lon="-3.8631">
        <ele>413.622192383</ele>
        <time>2014-08-13T12:37:02.407Z</time>
      </trkpt>
      <trkpt lat="48.41784" lon="-3.86301">
        <ele>413.777435303</ele>
        <time>2014-08-13T12:37:04.541Z</time>
      </trkpt>
      <trkpt lat="48.41786" lon="-3.86296">
        <ele>413.854827881</ele>
        <time>2014-08-13T12:37:05.495Z</time>
      </trkpt>
      <trkpt lat="48.41789" lon="-3.86288">
        <ele>413.953948975</ele>
        <time>2014-08-13T12:37:07.508Z</time>
      </trkpt>
      <trkpt lat="48.41792" lon="-3.86284">
        <ele>413.986022949</ele>
        <time>2014-08-13T12:37:08.409Z</time>
      </trkpt>
      <trkpt lat="48.41796" lon="-3.86276">
        <ele>414.070007324</ele>
        <time>2014-08-13T12:37:10.413Z</time>
      </trkpt>
      <trkpt lat="48.41798" lon="-3.86273">
        <ele>414.121856689</ele>
        <time>2014-08-13T12:37:11.407Z</time>
      </trkpt>
      <trkpt lat="48.41801" lon="-3.86268">
        <ele>414.223724365</ele>
        <time>2014-08-13T12:37:12.538Z</time>
      </trkpt>
      <trkpt lat="48.41805" lon="-3.86262">
        <ele>415.398773193</ele>
        <time>2014-08-13T12:37:13.489Z</time>
      </trkpt>
      <trkpt lat="48.4181" lon="-3.86252">
        <ele>416.449066162</ele>
        <time>2014-08-13T12:37:15.411Z</time>
      </trkpt>
      <trkpt lat="48.41813" lon="-3.86248">
        <ele>416.5809021</ele>
        <time>2014-08-13T12:37:16.407Z</time>
      </trkpt>
      <trkpt lat="48.41817" lon="-3.86238">
        <ele>416.696258545</ele>
        <time>2014-08-13T12:37:18.407Z</time>
      </trkpt>
      <trkpt lat="48.41817" lon="-3.86235">
        <ele>416.72366333</ele>
        <time>2014-08-13T12:37:19.416Z</time>
      </trkpt>
      <trkpt lat="48.41815" lon="-3.86223">
        <ele>416.323150635</ele>
        <time>2014-08-13T12:37:33.343Z</time>
      </trkpt>
      <trkpt lat="48.41816" lon="-3.8622">
        <ele>416.228546143</ele>
        <time>2014-08-13T12:37:34.417Z</time>
      </trkpt>
      <trkpt lat="48.41818" lon="-3.86212">
        <ele>415.972351074</ele>
        <time>2014-08-13T12:37:36.427Z</time>
      </trkpt>
      <trkpt lat="48.41818" lon="-3.86206">
        <ele>415.853942871</ele>
        <time>2014-08-13T12:37:37.407Z</time>
      </trkpt>
      <trkpt lat="48.4182" lon="-3.86199">
        <ele>415.786132812</ele>
        <time>2014-08-13T12:37:38.418Z</time>
      </trkpt>
      <trkpt lat="48.41821" lon="-3.86193">
        <ele>415.276031494</ele>
        <time>2014-08-13T12:37:39.42Z</time>
      </trkpt>
      <trkpt lat="48.41824" lon="-3.86181">
        <ele>414.649383545</ele>
        <time>2014-08-13T12:37:41.404Z</time>
      </trkpt>
      <trkpt lat="48.41825" lon="-3.86175">
        <ele>414.726165771</ele>
        <time>2014-08-13T12:37:42.416Z</time>
      </trkpt>
      <trkpt lat="48.41826" lon="-3.86164">
        <ele>414.759735107</ele>
        <time>2014-08-13T12:37:44.429Z</time>
      </trkpt>
      <trkpt lat="48.41827" lon="-3.8616">
        <ele>414.781982422</ele>
        <time>2014-08-13T12:37:45.416Z</time>
      </trkpt>
      <trkpt lat="48.41829" lon="-3.86151">
        <ele>415.846618652</ele>
        <time>2014-08-13T12:37:47.422Z</time>
      </trkpt>
      <trkpt lat="48.4183" lon="-3.86146">
        <ele>416.180969238</ele>
        <time>2014-08-13T12:37:48.421Z</time>
      </trkpt>
      <trkpt lat="48.41833" lon="-3.86134">
        <ele>416.23538208</ele>
        <time>2014-08-13T12:37:50.41Z</time>
      </trkpt>
      <trkpt lat="48.41833" lon="-3.8613">
        <ele>416.247283936</ele>
        <time>2014-08-13T12:37:51.416Z</time>
      </trkpt>
      <trkpt lat="48.41835" lon="-3.86119">
        <ele>416.239196777</ele>
        <time>2014-08-13T12:37:53.412Z</time>
      </trkpt>
      <trkpt lat="48.41836" lon="-3.86114">
        <ele>416.075622559</ele>
        <time>2014-08-13T12:37:54.416Z</time>
      </trkpt>
      <trkpt lat="48.41838" lon="-3.86101">
        <ele>415.994018555</ele>
        <time>2014-08-13T12:37:56.405Z</time>
      </trkpt>
      <trkpt lat="48.41839" lon="-3.86095">
        <ele>416.164215088</ele>
        <time>2014-08-13T12:37:57.407Z</time>
      </trkpt>
      <trkpt lat="48.41842" lon="-3.86083">
        <ele>416.33770752</ele>
        <time>2014-08-13T12:37:59.412Z</time>
      </trkpt>
      <trkpt lat="48.41843" lon="-3.86078">
        <ele>415.956756592</ele>
        <time>2014-08-13T12:38:00.416Z</time>
      </trkpt>
      <trkpt lat="48.41845" lon="-3.86072">
        <ele>415.516052246</ele>
        <time>2014-08-13T12:38:01.414Z</time>
      </trkpt>
      <trkpt lat="48.41847" lon="-3.86065">
        <ele>415.085144043</ele>
        <time>2014-08-13T12:38:02.423Z</time>
      </trkpt>
      <trkpt lat="48.41849" lon="-3.86056">
        <ele>414.999298096</ele>
        <time>2014-08-13T12:38:03.412Z</time>
      </trkpt>
      <trkpt lat="48.4185" lon="-3.86048">
        <ele>414.554718018</ele>
        <time>2014-08-13T12:38:04.408Z</time>
      </trkpt>
      <trkpt lat="48.41851" lon="-3.8604">
        <ele>414.082061768</ele>
        <time>2014-08-13T12:38:05.413Z</time>
      </trkpt>
      <trkpt lat="48.41852" lon="-3.86032">
        <ele>413.647583008</ele>
        <time>2014-08-13T12:38:06.405Z</time>
      </trkpt>
      <trkpt lat="48.41852" lon="-3.86019">
        <ele>413.358093262</ele>
        <time>2014-08-13T12:38:08.433Z</time>
      </trkpt>
      <trkpt lat="48.41851" lon="-3.86014">
        <ele>413.378479004</ele>
        <time>2014-08-13T12:38:09.42Z</time>
      </trkpt>
      <trkpt lat="48.4185" lon="-3.86003">
        <ele>413.350158691</ele>
        <time>2014-08-13T12:38:12.413Z</time>
      </trkpt>
      <trkpt lat="48.41849" lon="-3.85999">
        <ele>413.327697754</ele>
        <time>2014-08-13T12:38:13.416Z</time>
      </trkpt>
      <trkpt lat="48.41848" lon="-3.85988">
        <ele>413.273468018</ele>
        <time>2014-08-13T12:38:15.416Z</time>
      </trkpt>
      <trkpt lat="48.41848" lon="-3.85982">
        <ele>413.153503418</ele>
        <time>2014-08-13T12:38:16.412Z</time>
      </trkpt>
      <trkpt lat="48.41848" lon="-3.85969">
        <ele>413.168731689</ele>
        <time>2014-08-13T12:38:18.405Z</time>
      </trkpt>
      <trkpt lat="48.41848" lon="-3.85963">
        <ele>413.398712158</ele>
        <time>2014-08-13T12:38:19.415Z</time>
      </trkpt>
      <trkpt lat="48.41848" lon="-3.85952">
        <ele>413.288238525</ele>
        <time>2014-08-13T12:38:21.418Z</time>
      </trkpt>
      <trkpt lat="48.41848" lon="-3.85947">
        <ele>413.219390869</ele>
        <time>2014-08-13T12:38:22.412Z</time>
      </trkpt>
      <trkpt lat="48.41848" lon="-3.85934">
        <ele>412.817718506</ele>
        <time>2014-08-13T12:38:24.405Z</time>
      </trkpt>
      <trkpt lat="48.41847" lon="-3.85929">
        <ele>412.636688232</ele>
        <time>2014-08-13T12:38:25.408Z</time>
      </trkpt>
      <trkpt lat="48.41847" lon="-3.85917">
        <ele>412.467895508</ele>
        <time>2014-08-13T12:38:27.411Z</time>
      </trkpt>
      <trkpt lat="48.41846" lon="-3.85911">
        <ele>412.396575928</ele>
        <time>2014-08-13T12:38:28.41Z</time>
      </trkpt>
      <trkpt lat="48.41844" lon="-3.85899">
        <ele>412.915496826</ele>
        <time>2014-08-13T12:38:30.461Z</time>
      </trkpt>
      <trkpt lat="48.41843" lon="-3.85893">
        <ele>413.206207275</ele>
        <time>2014-08-13T12:38:31.413Z</time>
      </trkpt>
      <trkpt lat="48.41841" lon="-3.85882">
        <ele>412.688201904</ele>
        <time>2014-08-13T12:38:33.415Z</time>
      </trkpt>
      <trkpt lat="48.41839" lon="-3.85876">
        <ele>412.600006104</ele>
        <time>2014-08-13T12:38:34.423Z</time>
      </trkpt>
      <trkpt lat="48.41837" lon="-3.85865">
        <ele>412.643035889</ele>
        <time>2014-08-13T12:38:36.412Z</time>
      </trkpt>
      <trkpt lat="48.41837" lon="-3.85859">
        <ele>412.859008789</ele>
        <time>2014-08-13T12:38:37.413Z</time>
      </trkpt>
      <trkpt lat="48.41836" lon="-3.85848">
        <ele>412.775817871</ele>
        <time>2014-08-13T12:38:39.416Z</time>
      </trkpt>
      <trkpt lat="48.41837" lon="-3.85843">
        <ele>412.968658447</ele>
        <time>2014-08-13T12:38:40.41Z</time>
      </trkpt>
      <trkpt lat="48.41838" lon="-3.85831">
        <ele>413.747375488</ele>
        <time>2014-08-13T12:38:42.421Z</time>
      </trkpt>
      <trkpt lat="48.41838" lon="-3.85825">
        <ele>414.124145508</ele>
        <time>2014-08-13T12:38:43.416Z</time>
      </trkpt>
      <trkpt lat="48.41838" lon="-3.85812">
        <ele>414.257202148</ele>
        <time>2014-08-13T12:38:45.415Z</time>
      </trkpt>
      <trkpt lat="48.41838" lon="-3.85805">
        <ele>413.991210938</ele>
        <time>2014-08-13T12:38:46.412Z</time>
      </trkpt>
      <trkpt lat="48.41837" lon="-3.85798">
        <ele>414.195831299</ele>
        <time>2014-08-13T12:38:47.408Z</time>
      </trkpt>
      <trkpt lat="48.41837" lon="-3.85791">
        <ele>414.415496826</ele>
        <time>2014-08-13T12:38:48.405Z</time>
      </trkpt>
      <trkpt lat="48.41837" lon="-3.85781">
        <ele>413.937194824</ele>
        <time>2014-08-13T12:38:50.411Z</time>
      </trkpt>
      <trkpt lat="48.41836" lon="-3.85775">
        <ele>413.625183105</ele>
        <time>2014-08-13T12:38:51.414Z</time>
      </trkpt>
      <trkpt lat="48.41836" lon="-3.85764">
        <ele>413.608764648</ele>
        <time>2014-08-13T12:38:53.412Z</time>
      </trkpt>
      <trkpt lat="48.41836" lon="-3.85758">
        <ele>413.612060547</ele>
        <time>2014-08-13T12:38:54.412Z</time>
      </trkpt>
      <trkpt lat="48.41837" lon="-3.85748">
        <ele>413.593200684</ele>
        <time>2014-08-13T12:38:56.414Z</time>
      </trkpt>
      <trkpt lat="48.41837" lon="-3.85744">
        <ele>413.567565918</ele>
        <time>2014-08-13T12:38:57.41Z</time>
      </trkpt>
      <trkpt lat="48.41837" lon="-3.85735">
        <ele>413.489105225</ele>
        <time>2014-08-13T12:38:59.42Z</time>
      </trkpt>
      <trkpt lat="48.41837" lon="-3.85731">
        <ele>413.460662842</ele>
        <time>2014-08-13T12:39:00.422Z</time>
      </trkpt>
      <trkpt lat="48.41838" lon="-3.8572">
        <ele>413.519439697</ele>
        <time>2014-08-13T12:39:03.411Z</time>
      </trkpt>
      <trkpt lat="48.41838" lon="-3.85717">
        <ele>413.580627441</ele>
        <time>2014-08-13T12:39:04.419Z</time>
      </trkpt>
      <trkpt lat="48.4184" lon="-3.85704">
        <ele>413.669464111</ele>
        <time>2014-08-13T12:39:07.435Z</time>
      </trkpt>
      <trkpt lat="48.41841" lon="-3.85699">
        <ele>413.71661377</ele>
        <time>2014-08-13T12:39:08.412Z</time>
      </trkpt>
      <trkpt lat="48.41844" lon="-3.85686">
        <ele>413.789367676</ele>
        <time>2014-08-13T12:39:11.412Z</time>
      </trkpt>
      <trkpt lat="48.41844" lon="-3.85681">
        <ele>413.848510742</ele>
        <time>2014-08-13T12:39:12.406Z</time>
      </trkpt>
      <trkpt lat="48.41844" lon="-3.8567">
        <ele>413.950408936</ele>
        <time>2014-08-13T12:39:15.407Z</time>
      </trkpt>
      <trkpt lat="48.41844" lon="-3.85666">
        <ele>413.967559814</ele>
        <time>2014-08-13T12:39:16.404Z</time>
      </trkpt>
      <trkpt lat="48.41845" lon="-3.85655">
        <ele>413.969177246</ele>
        <time>2014-08-13T12:39:20.408Z</time>
      </trkpt>
      <trkpt lat="48.41845" lon="-3.85652">
        <ele>413.971008301</ele>
        <time>2014-08-13T12:39:21.415Z</time>
      </trkpt>
      <trkpt lat="48.41844" lon="-3.85641">
        <ele>413.988708496</ele>
        <time>2014-08-13T12:39:24.408Z</time>
      </trkpt>
      <trkpt lat="48.41843" lon="-3.85638">
        <ele>413.97467041</ele>
        <time>2014-08-13T12:39:25.417Z</time>
      </trkpt>
      <trkpt lat="48.41843" lon="-3.85627">
        <ele>413.872467041</ele>
        <time>2014-08-13T12:39:28.408Z</time>
      </trkpt>
      <trkpt lat="48.41843" lon="-3.85622">
        <ele>413.843353271</ele>
        <time>2014-08-13T12:39:29.416Z</time>
      </trkpt>
      <trkpt lat="48.41844" lon="-3.85612">
        <ele>413.7706604</ele>
        <time>2014-08-13T12:39:31.414Z</time>
      </trkpt>
      <trkpt lat="48.41845" lon="-3.85607">
        <ele>413.300415039</ele>
        <time>2014-08-13T12:39:32.418Z</time>
      </trkpt>
      <trkpt lat="48.41848" lon="-3.85596">
        <ele>412.816070557</ele>
        <time>2014-08-13T12:39:34.44Z</time>
      </trkpt>
      <trkpt lat="48.41849" lon="-3.85589">
        <ele>412.701599121</ele>
        <time>2014-08-13T12:39:35.417Z</time>
      </trkpt>
      <trkpt lat="48.4185" lon="-3.85576">
        <ele>412.965484619</ele>
        <time>2014-08-13T12:39:37.416Z</time>
      </trkpt>
      <trkpt lat="48.41851" lon="-3.85571">
        <ele>413.097381592</ele>
        <time>2014-08-13T12:39:38.416Z</time>
      </trkpt>
      <trkpt lat="48.41853" lon="-3.85561">
        <ele>412.856292725</ele>
        <time>2014-08-13T12:39:40.419Z</time>
      </trkpt>
      <trkpt lat="48.41854" lon="-3.85555">
        <ele>412.7996521</ele>
        <time>2014-08-13T12:39:41.418Z</time>
      </trkpt>
      <trkpt lat="48.41858" lon="-3.85544">
        <ele>412.976531982</ele>
        <time>2014-08-13T12:39:43.415Z</time>
      </trkpt>
      <trkpt lat="48.4186" lon="-3.85539">
        <ele>413.02166748</ele>
        <time>2014-08-13T12:39:44.407Z</time>
      </trkpt>
      <trkpt lat="48.41862" lon="-3.8553">
        <ele>413.130859375</ele>
        <time>2014-08-13T12:39:46.414Z</time>
      </trkpt>
      <trkpt lat="48.41863" lon="-3.85525">
        <ele>413.160980225</ele>
        <time>2014-08-13T12:39:47.413Z</time>
      </trkpt>
      <trkpt lat="48.41866" lon="-3.85514">
        <ele>413.202209473</ele>
        <time>2014-08-13T12:39:49.416Z</time>
      </trkpt>
      <trkpt lat="48.41867" lon="-3.85509">
        <ele>413.358734131</ele>
        <time>2014-08-13T12:39:50.411Z</time>
      </trkpt>
      <trkpt lat="48.41869" lon="-3.85498">
        <ele>413.186767578</ele>
        <time>2014-08-13T12:39:52.413Z</time>
      </trkpt>
      <trkpt lat="48.4187" lon="-3.85492">
        <ele>413.117889404</ele>
        <time>2014-08-13T12:39:53.411Z</time>
      </trkpt>
      <trkpt lat="48.41872" lon="-3.85481">
        <ele>413.352661133</ele>
        <time>2014-08-13T12:39:55.408Z</time>
      </trkpt>
      <trkpt lat="48.41872" lon="-3.85476">
        <ele>413.375701904</ele>
        <time>2014-08-13T12:39:56.411Z</time>
      </trkpt>
      <trkpt lat="48.41874" lon="-3.85463">
        <ele>413.534393311</ele>
        <time>2014-08-13T12:39:59.411Z</time>
      </trkpt>
      <trkpt lat="48.41874" lon="-3.8546">
        <ele>413.598937988</ele>
        <time>2014-08-13T12:40:00.412Z</time>
      </trkpt>
      <trkpt lat="48.41876" lon="-3.85447">
        <ele>413.883789062</ele>
        <time>2014-08-13T12:40:04.418Z</time>
      </trkpt>
      <trkpt lat="48.41877" lon="-3.85443">
        <ele>413.953613281</ele>
        <time>2014-08-13T12:40:05.412Z</time>
      </trkpt>
      <trkpt lat="48.41879" lon="-3.85431">
        <ele>414.23727417</ele>
        <time>2014-08-13T12:40:09.413Z</time>
      </trkpt>
      <trkpt lat="48.41879" lon="-3.85428">
        <ele>414.284484863</ele>
        <time>2014-08-13T12:40:10.405Z</time>
      </trkpt>
      <trkpt lat="48.41881" lon="-3.85416">
        <ele>414.510192871</ele>
        <time>2014-08-13T12:40:13.439Z</time>
      </trkpt>
      <trkpt lat="48.41881" lon="-3.85412">
        <ele>414.56451416</ele>
        <time>2014-08-13T12:40:14.414Z</time>
      </trkpt>
      <trkpt lat="48.41883" lon="-3.854">
        <ele>414.70223999</ele>
        <time>2014-08-13T12:40:17.418Z</time>
      </trkpt>
      <trkpt lat="48.41885" lon="-3.85396">
        <ele>414.746948242</ele>
        <time>2014-08-13T12:40:18.422Z</time>
      </trkpt>
      <trkpt lat="48.41889" lon="-3.85385">
        <ele>414.883453369</ele>
        <time>2014-08-13T12:40:21.412Z</time>
      </trkpt>
      <trkpt lat="48.4189" lon="-3.85382">
        <ele>414.9296875</ele>
        <time>2014-08-13T12:40:22.415Z</time>
      </trkpt>
      <trkpt lat="48.41896" lon="-3.85373">
        <ele>415.058197021</ele>
        <time>2014-08-13T12:40:25.418Z</time>
      </trkpt>
      <trkpt lat="48.41898" lon="-3.8537">
        <ele>415.06161499</ele>
        <time>2014-08-13T12:40:26.472Z</time>
      </trkpt>
      <trkpt lat="48.41903" lon="-3.85361">
        <ele>415.094818115</ele>
        <time>2014-08-13T12:40:28.416Z</time>
      </trkpt>
      <trkpt lat="48.41906" lon="-3.85357">
        <ele>415.145782471</ele>
        <time>2014-08-13T12:40:29.425Z</time>
      </trkpt>
      <trkpt lat="48.4191" lon="-3.85349">
        <ele>415.172790527</ele>
        <time>2014-08-13T12:40:31.414Z</time>
      </trkpt>
      <trkpt lat="48.41912" lon="-3.85344">
        <ele>415.201568604</ele>
        <time>2014-08-13T12:40:32.412Z</time>
      </trkpt>
      <trkpt lat="48.41916" lon="-3.85336">
        <ele>415.376708984</ele>
        <time>2014-08-13T12:40:34.424Z</time>
      </trkpt>
      <trkpt lat="48.41918" lon="-3.8533">
        <ele>415.285400391</ele>
        <time>2014-08-13T12:40:35.404Z</time>
      </trkpt>
      <trkpt lat="48.41921" lon="-3.85318">
        <ele>415.319915771</ele>
        <time>2014-08-13T12:40:37.415Z</time>
      </trkpt>
      <trkpt lat="48.41922" lon="-3.85312">
        <ele>415.288085938</ele>
        <time>2014-08-13T12:40:38.408Z</time>
      </trkpt>
      <trkpt lat="48.41925" lon="-3.85305">
        <ele>415.261993408</ele>
        <time>2014-08-13T12:40:39.419Z</time>
      </trkpt>
      <trkpt lat="48.41928" lon="-3.853">
        <ele>415.205169678</ele>
        <time>2014-08-13T12:40:40.412Z</time>
      </trkpt>
      <trkpt lat="48.41934" lon="-3.85291">
        <ele>415.079956055</ele>
        <time>2014-08-13T12:40:42.41Z</time>
      </trkpt>
      <trkpt lat="48.41937" lon="-3.85287">
        <ele>415.151397705</ele>
        <time>2014-08-13T12:40:43.415Z</time>
      </trkpt>
      <trkpt lat="48.41943" lon="-3.8528">
        <ele>414.703765869</ele>
        <time>2014-08-13T12:40:45.416Z</time>
      </trkpt>
      <trkpt lat="48.41946" lon="-3.85276">
        <ele>414.57220459</ele>
        <time>2014-08-13T12:40:46.414Z</time>
      </trkpt>
      <trkpt lat="48.4195" lon="-3.85268">
        <ele>414.572784424</ele>
        <time>2014-08-13T12:40:48.412Z</time>
      </trkpt>
      <trkpt lat="48.41952" lon="-3.85263">
        <ele>414.577270508</ele>
        <time>2014-08-13T12:40:49.417Z</time>
      </trkpt>
      <trkpt lat="48.41957" lon="-3.85256">
        <ele>414.544647217</ele>
        <time>2014-08-13T12:40:51.415Z</time>
      </trkpt>
      <trkpt lat="48.41959" lon="-3.85252">
        <ele>414.526275635</ele>
        <time>2014-08-13T12:40:52.411Z</time>
      </trkpt>
      <trkpt lat="48.41964" lon="-3.85241">
        <ele>414.445159912</ele>
        <time>2014-08-13T12:40:54.401Z</time>
      </trkpt>
      <trkpt lat="48.41965" lon="-3.85237">
        <ele>413.998168945</ele>
        <time>2014-08-13T12:40:55.412Z</time>
      </trkpt>
      <trkpt lat="48.4197" lon="-3.85227">
        <ele>413.657440186</ele>
        <time>2014-08-13T12:40:57.413Z</time>
      </trkpt>
      <trkpt lat="48.41973" lon="-3.85222">
        <ele>413.755401611</ele>
        <time>2014-08-13T12:40:58.412Z</time>
      </trkpt>
      <trkpt lat="48.41977" lon="-3.85213">
        <ele>413.946563721</ele>
        <time>2014-08-13T12:41:00.403Z</time>
      </trkpt>
      <trkpt lat="48.41979" lon="-3.85208">
        <ele>413.966949463</ele>
        <time>2014-08-13T12:41:01.415Z</time>
      </trkpt>
      <trkpt lat="48.41984" lon="-3.85199">
        <ele>413.661712646</ele>
        <time>2014-08-13T12:41:03.406Z</time>
      </trkpt>
      <trkpt lat="48.41985" lon="-3.85195">
        <ele>413.645935059</ele>
        <time>2014-08-13T12:41:04.413Z</time>
      </trkpt>
      <trkpt lat="48.41989" lon="-3.85186">
        <ele>413.62588501</ele>
        <time>2014-08-13T12:41:06.42Z</time>
      </trkpt>
      <trkpt lat="48.41991" lon="-3.85181">
        <ele>413.625030518</ele>
        <time>2014-08-13T12:41:07.414Z</time>
      </trkpt>
      <trkpt lat="48.41994" lon="-3.85169">
        <ele>413.607299805</ele>
        <time>2014-08-13T12:41:09.414Z</time>
      </trkpt>
      <trkpt lat="48.41994" lon="-3.85165">
        <ele>413.608764648</ele>
        <time>2014-08-13T12:41:10.416Z</time>
      </trkpt>
      <trkpt lat="48.41997" lon="-3.85155">
        <ele>413.452087402</ele>
        <time>2014-08-13T12:41:12.417Z</time>
      </trkpt>
      <trkpt lat="48.41998" lon="-3.8515">
        <ele>413.592987061</ele>
        <time>2014-08-13T12:41:13.41Z</time>
      </trkpt>
      <trkpt lat="48.42" lon="-3.85138">
        <ele>413.919219971</ele>
        <time>2014-08-13T12:41:15.412Z</time>
      </trkpt>
      <trkpt lat="48.42002" lon="-3.85131">
        <ele>413.740509033</ele>
        <time>2014-08-13T12:41:16.407Z</time>
      </trkpt>
      <trkpt lat="48.42004" lon="-3.85119">
        <ele>413.621765137</ele>
        <time>2014-08-13T12:41:18.411Z</time>
      </trkpt>
      <trkpt lat="48.42005" lon="-3.85112">
        <ele>413.663024902</ele>
        <time>2014-08-13T12:41:19.415Z</time>
      </trkpt>
      <trkpt lat="48.42007" lon="-3.85101">
        <ele>413.291137695</ele>
        <time>2014-08-13T12:41:21.415Z</time>
      </trkpt>
      <trkpt lat="48.42008" lon="-3.85094">
        <ele>412.790985107</ele>
        <time>2014-08-13T12:41:22.421Z</time>
      </trkpt>
      <trkpt lat="48.42011" lon="-3.85083">
        <ele>411.96685791</ele>
        <time>2014-08-13T12:41:24.439Z</time>
      </trkpt>
      <trkpt lat="48.42013" lon="-3.85076">
        <ele>411.556274414</ele>
        <time>2014-08-13T12:41:25.41Z</time>
      </trkpt>
      <trkpt lat="48.42015" lon="-3.85069">
        <ele>411.277923584</ele>
        <time>2014-08-13T12:41:26.417Z</time>
      </trkpt>
      <trkpt lat="48.42016" lon="-3.85062">
        <ele>411.060546875</ele>
        <time>2014-08-13T12:41:27.414Z</time>
      </trkpt>
      <trkpt lat="48.42019" lon="-3.85055">
        <ele>410.965393066</ele>
        <time>2014-08-13T12:41:28.407Z</time>
      </trkpt>
      <trkpt lat="48.4202" lon="-3.85048">
        <ele>411.096038818</ele>
        <time>2014-08-13T12:41:29.412Z</time>
      </trkpt>
      <trkpt lat="48.42023" lon="-3.85038">
        <ele>411.078155518</ele>
        <time>2014-08-13T12:41:31.411Z</time>
      </trkpt>
      <trkpt lat="48.42024" lon="-3.85032">
        <ele>411.112548828</ele>
        <time>2014-08-13T12:41:32.432Z</time>
      </trkpt>
      <trkpt lat="48.42027" lon="-3.8502">
        <ele>411.213562012</ele>
        <time>2014-08-13T12:41:36.41Z</time>
      </trkpt>
      <trkpt lat="48.42027" lon="-3.85017">
        <ele>411.215606689</ele>
        <time>2014-08-13T12:41:37.407Z</time>
      </trkpt>
      <trkpt lat="48.42028" lon="-3.85006">
        <ele>411.214111328</ele>
        <time>2014-08-13T12:41:40.415Z</time>
      </trkpt>
      <trkpt lat="48.4203" lon="-3.85002">
        <ele>411.193908691</ele>
        <time>2014-08-13T12:41:41.414Z</time>
      </trkpt>
      <trkpt lat="48.42033" lon="-3.84991">
        <ele>411.099578857</ele>
        <time>2014-08-13T12:41:44.416Z</time>
      </trkpt>
      <trkpt lat="48.42034" lon="-3.84987">
        <ele>411.06930542</ele>
        <time>2014-08-13T12:41:45.411Z</time>
      </trkpt>
      <trkpt lat="48.42038" lon="-3.84975">
        <ele>411.031921387</ele>
        <time>2014-08-13T12:41:48.412Z</time>
      </trkpt>
      <trkpt lat="48.4204" lon="-3.84971">
        <ele>411.034332275</ele>
        <time>2014-08-13T12:41:49.417Z</time>
      </trkpt>
      <trkpt lat="48.42041" lon="-3.8496">
        <ele>411.001586914</ele>
        <time>2014-08-13T12:41:51.411Z</time>
      </trkpt>
      <trkpt lat="48.42041" lon="-3.84956">
        <ele>410.962341309</ele>
        <time>2014-08-13T12:41:52.408Z</time>
      </trkpt>
      <trkpt lat="48.4204" lon="-3.84945">
        <ele>410.897918701</ele>
        <time>2014-08-13T12:41:54.415Z</time>
      </trkpt>
      <trkpt lat="48.4204" lon="-3.8494">
        <ele>410.87298584</ele>
        <time>2014-08-13T12:41:55.411Z</time>
      </trkpt>
      <trkpt lat="48.4204" lon="-3.84928">
        <ele>410.705352783</ele>
        <time>2014-08-13T12:41:58.412Z</time>
      </trkpt>
      <trkpt lat="48.42041" lon="-3.84921">
        <ele>410.673583984</ele>
        <time>2014-08-13T12:41:59.41Z</time>
      </trkpt>
      <trkpt lat="48.42043" lon="-3.84911">
        <ele>410.563049316</ele>
        <time>2014-08-13T12:42:01.415Z</time>
      </trkpt>
      <trkpt lat="48.42045" lon="-3.84905">
        <ele>410.056304932</ele>
        <time>2014-08-13T12:42:02.412Z</time>
      </trkpt>
      <trkpt lat="48.42047" lon="-3.84894">
        <ele>409.264953613</ele>
        <time>2014-08-13T12:42:04.447Z</time>
      </trkpt>
      <trkpt lat="48.42048" lon="-3.84889">
        <ele>409.224822998</ele>
        <time>2014-08-13T12:42:05.414Z</time>
      </trkpt>
      <trkpt lat="48.4205" lon="-3.8488">
        <ele>409.156097412</ele>
        <time>2014-08-13T12:42:07.393Z</time>
      </trkpt>
      <trkpt lat="48.42051" lon="-3.84875">
        <ele>409.132965088</ele>
        <time>2014-08-13T12:42:08.413Z</time>
      </trkpt>
      <trkpt lat="48.42053" lon="-3.84863">
        <ele>409.027008057</ele>
        <time>2014-08-13T12:42:11.416Z</time>
      </trkpt>
      <trkpt lat="48.42053" lon="-3.84859">
        <ele>408.97567749</ele>
        <time>2014-08-13T12:42:12.41Z</time>
      </trkpt>
      <trkpt lat="48.42054" lon="-3.84848">
        <ele>408.842834473</ele>
        <time>2014-08-13T12:42:14.415Z</time>
      </trkpt>
      <trkpt lat="48.42054" lon="-3.84842">
        <ele>408.771789551</ele>
        <time>2014-08-13T12:42:15.415Z</time>
      </trkpt>
      <trkpt lat="48.42053" lon="-3.84829">
        <ele>407.296417236</ele>
        <time>2014-08-13T12:42:17.412Z</time>
      </trkpt>
      <trkpt lat="48.42053" lon="-3.84823">
        <ele>406.836456299</ele>
        <time>2014-08-13T12:42:18.415Z</time>
      </trkpt>
      <trkpt lat="48.42053" lon="-3.84811">
        <ele>406.089996338</ele>
        <time>2014-08-13T12:42:20.416Z</time>
      </trkpt>
      <trkpt lat="48.42053" lon="-3.84805">
        <ele>405.799346924</ele>
        <time>2014-08-13T12:42:21.418Z</time>
      </trkpt>
      <trkpt lat="48.42053" lon="-3.84794">
        <ele>404.849029541</ele>
        <time>2014-08-13T12:42:23.414Z</time>
      </trkpt>
      <trkpt lat="48.42054" lon="-3.84789">
        <ele>404.801086426</ele>
        <time>2014-08-13T12:42:24.405Z</time>
      </trkpt>
      <trkpt lat="48.42056" lon="-3.84778">
        <ele>404.722747803</ele>
        <time>2014-08-13T12:42:26.421Z</time>
      </trkpt>
      <trkpt lat="48.42057" lon="-3.84774">
        <ele>404.702148438</ele>
        <time>2014-08-13T12:42:27.412Z</time>
      </trkpt>
      <trkpt lat="48.42061" lon="-3.84766">
        <ele>404.677886963</ele>
        <time>2014-08-13T12:42:29.419Z</time>
      </trkpt>
      <trkpt lat="48.42062" lon="-3.84763">
        <ele>404.677886963</ele>
        <time>2014-08-13T12:42:30.408Z</time>
      </trkpt>
      <trkpt lat="48.42068" lon="-3.84755">
        <ele>404.776977539</ele>
        <time>2014-08-13T12:42:33.415Z</time>
      </trkpt>
      <trkpt lat="48.4207" lon="-3.84752">
        <ele>404.809570312</ele>
        <time>2014-08-13T12:42:34.413Z</time>
      </trkpt>
      <trkpt lat="48.42076" lon="-3.84744">
        <ele>404.859130859</ele>
        <time>2014-08-13T12:42:37.413Z</time>
      </trkpt>
      <trkpt lat="48.42078" lon="-3.84743">
        <ele>404.884765625</ele>
        <time>2014-08-13T12:42:38.414Z</time>
      </trkpt>
      <trkpt lat="48.42084" lon="-3.84736">
        <ele>404.982177734</ele>
        <time>2014-08-13T12:42:41.421Z</time>
      </trkpt>
      <trkpt lat="48.42085" lon="-3.84734">
        <ele>404.990905762</ele>
        <time>2014-08-13T12:42:42.434Z</time>
      </trkpt>
      <trkpt lat="48.42092" lon="-3.84727">
        <ele>405.121826172</ele>
        <time>2014-08-13T12:42:54.417Z</time>
      </trkpt>
      <trkpt lat="48.42095" lon="-3.84725">
        <ele>405.165496826</ele>
        <time>2014-08-13T12:42:55.411Z</time>
      </trkpt>
      <trkpt lat="48.42101" lon="-3.84718">
        <ele>405.335784912</ele>
        <time>2014-08-13T12:42:58.42Z</time>
      </trkpt>
      <trkpt lat="48.42103" lon="-3.84716">
        <ele>405.402099609</ele>
        <time>2014-08-13T12:42:59.419Z</time>
      </trkpt>
      <trkpt lat="48.42109" lon="-3.84711">
        <ele>405.574157715</ele>
        <time>2014-08-13T12:43:02.413Z</time>
      </trkpt>
      <trkpt lat="48.42111" lon="-3.84708">
        <ele>405.601989746</ele>
        <time>2014-08-13T12:43:03.441Z</time>
      </trkpt>
      <trkpt lat="48.42117" lon="-3.84703">
        <ele>405.709381104</ele>
        <time>2014-08-13T12:43:05.413Z</time>
      </trkpt>
      <trkpt lat="48.42119" lon="-3.847">
        <ele>405.748382568</ele>
        <time>2014-08-13T12:43:06.412Z</time>
      </trkpt>
      <trkpt lat="48.42124" lon="-3.84694">
        <ele>405.842071533</ele>
        <time>2014-08-13T12:43:08.411Z</time>
      </trkpt>
      <trkpt lat="48.42127" lon="-3.84691">
        <ele>405.878997803</ele>
        <time>2014-08-13T12:43:09.423Z</time>
      </trkpt>
      <trkpt lat="48.42132" lon="-3.84683">
        <ele>406.48223877</ele>
        <time>2014-08-13T12:43:11.413Z</time>
      </trkpt>
      <trkpt lat="48.42135" lon="-3.84679">
        <ele>406.623718262</ele>
        <time>2014-08-13T12:43:12.412Z</time>
      </trkpt>
      <trkpt lat="48.42142" lon="-3.84673">
        <ele>406.808258057</ele>
        <time>2014-08-13T12:43:14.424Z</time>
      </trkpt>
      <trkpt lat="48.42144" lon="-3.84669">
        <ele>406.829162598</ele>
        <time>2014-08-13T12:43:15.412Z</time>
      </trkpt>
      <trkpt lat="48.42149" lon="-3.84663">
        <ele>406.83392334</ele>
        <time>2014-08-13T12:43:17.415Z</time>
      </trkpt>
      <trkpt lat="48.42151" lon="-3.8466">
        <ele>406.83404541</ele>
        <time>2014-08-13T12:43:18.417Z</time>
      </trkpt>
      <trkpt lat="48.42156" lon="-3.84654">
        <ele>406.833251953</ele>
        <time>2014-08-13T12:43:20.413Z</time>
      </trkpt>
      <trkpt lat="48.42158" lon="-3.84651">
        <ele>406.84173584</ele>
        <time>2014-08-13T12:43:21.406Z</time>
      </trkpt>
      <trkpt lat="48.42162" lon="-3.84644">
        <ele>406.862121582</ele>
        <time>2014-08-13T12:43:23.412Z</time>
      </trkpt>
      <trkpt lat="48.42164" lon="-3.84639">
        <ele>406.883270264</ele>
        <time>2014-08-13T12:43:24.416Z</time>
      </trkpt>
      <trkpt lat="48.42169" lon="-3.84632">
        <ele>406.854888916</ele>
        <time>2014-08-13T12:43:26.418Z</time>
      </trkpt>
      <trkpt lat="48.42172" lon="-3.84631">
        <ele>406.866851807</ele>
        <time>2014-08-13T12:43:27.415Z</time>
      </trkpt>
      <trkpt lat="48.42179" lon="-3.8463">
        <ele>406.830627441</ele>
        <time>2014-08-13T12:43:29.421Z</time>
      </trkpt>
      <trkpt lat="48.42182" lon="-3.84629">
        <ele>406.809539795</ele>
        <time>2014-08-13T12:43:30.43Z</time>
      </trkpt>
      <trkpt lat="48.42189" lon="-3.84622">
        <ele>406.674468994</ele>
        <time>2014-08-13T12:43:33.416Z</time>
      </trkpt>
      <trkpt lat="48.42192" lon="-3.8462">
        <ele>406.62689209</ele>
        <time>2014-08-13T12:43:34.418Z</time>
      </trkpt>
      <trkpt lat="48.42198" lon="-3.84613">
        <ele>406.351989746</ele>
        <time>2014-08-13T12:43:37.398Z</time>
      </trkpt>
      <trkpt lat="48.42201" lon="-3.8461">
        <ele>406.283569336</ele>
        <time>2014-08-13T12:43:38.41Z</time>
      </trkpt>
      <trkpt lat="48.42206" lon="-3.84602">
        <ele>406.1378479</ele>
        <time>2014-08-13T12:43:40.41Z</time>
      </trkpt>
      <trkpt lat="48.42208" lon="-3.84599">
        <ele>406.049346924</ele>
        <time>2014-08-13T12:43:41.403Z</time>
      </trkpt>
      <trkpt lat="48.42213" lon="-3.84591">
        <ele>405.911560059</ele>
        <time>2014-08-13T12:43:43.405Z</time>
      </trkpt>
      <trkpt lat="48.42215" lon="-3.84587">
        <ele>405.856109619</ele>
        <time>2014-08-13T12:43:44.404Z</time>
      </trkpt>
      <trkpt lat="48.42221" lon="-3.84579">
        <ele>405.693389893</ele>
        <time>2014-08-13T12:43:47.418Z</time>
      </trkpt>
      <trkpt lat="48.42222" lon="-3.84576">
        <ele>405.64831543</ele>
        <time>2014-08-13T12:43:48.414Z</time>
      </trkpt>
      <trkpt lat="48.42228" lon="-3.84566">
        <ele>405.335296631</ele>
        <time>2014-08-13T12:43:52.404Z</time>
      </trkpt>
      <trkpt lat="48.42229" lon="-3.84564">
        <ele>405.253936768</ele>
        <time>2014-08-13T12:43:53.398Z</time>
      </trkpt>
      <trkpt lat="48.42235" lon="-3.84556">
        <ele>404.893096924</ele>
        <time>2014-08-13T12:43:57.417Z</time>
      </trkpt>
      <trkpt lat="48.42237" lon="-3.84554">
        <ele>404.791931152</ele>
        <time>2014-08-13T12:43:58.44Z</time>
      </trkpt>
      <trkpt lat="48.42243" lon="-3.84548">
        <ele>404.435333252</ele>
        <time>2014-08-13T12:44:01.398Z</time>
      </trkpt>
      <trkpt lat="48.42246" lon="-3.84545">
        <ele>404.363800049</ele>
        <time>2014-08-13T12:44:02.446Z</time>
      </trkpt>
      <trkpt lat="48.42252" lon="-3.84537">
        <ele>404.135009766</ele>
        <time>2014-08-13T12:44:05.412Z</time>
      </trkpt>
      <trkpt lat="48.42254" lon="-3.84535">
        <ele>404.018341064</ele>
        <time>2014-08-13T12:44:06.41Z</time>
      </trkpt>
      <trkpt lat="48.42261" lon="-3.84529">
        <ele>403.749481201</ele>
        <time>2014-08-13T12:44:09.422Z</time>
      </trkpt>
      <trkpt lat="48.42264" lon="-3.84526">
        <ele>403.676574707</ele>
        <time>2014-08-13T12:44:10.41Z</time>
      </trkpt>
      <trkpt lat="48.4227" lon="-3.84518">
        <ele>402.762054443</ele>
        <time>2014-08-13T12:44:12.425Z</time>
      </trkpt>
      <trkpt lat="48.42273" lon="-3.84514">
        <ele>402.676483154</ele>
        <time>2014-08-13T12:44:13.414Z</time>
      </trkpt>
      <trkpt lat="48.42278" lon="-3.84507">
        <ele>402.507415771</ele>
        <time>2014-08-13T12:44:15.412Z</time>
      </trkpt>
      <trkpt lat="48.4228" lon="-3.84503">
        <ele>402.437561035</ele>
        <time>2014-08-13T12:44:16.415Z</time>
      </trkpt>
      <trkpt lat="48.42285" lon="-3.84496">
        <ele>402.28704834</ele>
        <time>2014-08-13T12:44:18.423Z</time>
      </trkpt>
      <trkpt lat="48.42287" lon="-3.84493">
        <ele>402.229248047</ele>
        <time>2014-08-13T12:44:19.408Z</time>
      </trkpt>
      <trkpt lat="48.42292" lon="-3.84485">
        <ele>402.094665527</ele>
        <time>2014-08-13T12:44:21.471Z</time>
      </trkpt>
      <trkpt lat="48.42295" lon="-3.84482">
        <ele>401.992279053</ele>
        <time>2014-08-13T12:44:22.414Z</time>
      </trkpt>
      <trkpt lat="48.42299" lon="-3.84474">
        <ele>401.762329102</ele>
        <time>2014-08-13T12:44:24.411Z</time>
      </trkpt>
      <trkpt lat="48.42301" lon="-3.8447">
        <ele>401.644348145</ele>
        <time>2014-08-13T12:44:25.416Z</time>
      </trkpt>
      <trkpt lat="48.42305" lon="-3.84461">
        <ele>401.442382812</ele>
        <time>2014-08-13T12:44:27.418Z</time>
      </trkpt>
      <trkpt lat="48.42308" lon="-3.84457">
        <ele>401.342224121</ele>
        <time>2014-08-13T12:44:28.414Z</time>
      </trkpt>
      <trkpt lat="48.42311" lon="-3.84449">
        <ele>401.153015137</ele>
        <time>2014-08-13T12:44:30.409Z</time>
      </trkpt>
      <trkpt lat="48.42313" lon="-3.84445">
        <ele>401.071533203</ele>
        <time>2014-08-13T12:44:31.405Z</time>
      </trkpt>
      <trkpt lat="48.42319" lon="-3.84437">
        <ele>400.780639648</ele>
        <time>2014-08-13T12:44:34.42Z</time>
      </trkpt>
      <trkpt lat="48.42321" lon="-3.84434">
        <ele>400.699432373</ele>
        <time>2014-08-13T12:44:35.421Z</time>
      </trkpt>
      <trkpt lat="48.42326" lon="-3.84427">
        <ele>400.409362793</ele>
        <time>2014-08-13T12:44:38.413Z</time>
      </trkpt>
      <trkpt lat="48.42328" lon="-3.84425">
        <ele>400.322631836</ele>
        <time>2014-08-13T12:44:39.414Z</time>
      </trkpt>
      <trkpt lat="48.42334" lon="-3.84415">
        <ele>399.93850708</ele>
        <time>2014-08-13T12:44:43.413Z</time>
      </trkpt>
      <trkpt lat="48.42335" lon="-3.84412">
        <ele>399.904327393</ele>
        <time>2014-08-13T12:44:44.412Z</time>
      </trkpt>
      <trkpt lat="48.42339" lon="-3.844">
        <ele>399.752349854</ele>
        <time>2014-08-13T12:44:48.407Z</time>
      </trkpt>
      <trkpt lat="48.42339" lon="-3.84397">
        <ele>399.719543457</ele>
        <time>2014-08-13T12:44:49.413Z</time>
      </trkpt>
      <trkpt lat="48.42344" lon="-3.84387">
        <ele>399.447113037</ele>
        <time>2014-08-13T12:44:53.41Z</time>
      </trkpt>
      <trkpt lat="48.42344" lon="-3.84385">
        <ele>399.3465271</ele>
        <time>2014-08-13T12:44:54.416Z</time>
      </trkpt>
      <trkpt lat="48.42351" lon="-3.84378">
        <ele>398.947357178</ele>
        <time>2014-08-13T12:44:59.414Z</time>
      </trkpt>
      <trkpt lat="48.42352" lon="-3.84377">
        <ele>398.871276855</ele>
        <time>2014-08-13T12:45:00.405Z</time>
      </trkpt>
      <trkpt lat="48.42359" lon="-3.84368">
        <ele>397.983032227</ele>
        <time>2014-08-13T12:45:22.422Z</time>
      </trkpt>
      <trkpt lat="48.4236" lon="-3.84368">
        <ele>397.949371338</ele>
        <time>2014-08-13T12:45:23.412Z</time>
      </trkpt>
      <trkpt lat="48.42369" lon="-3.84365">
        <ele>397.108459473</ele>
        <time>2014-08-13T12:45:41.412Z</time>
      </trkpt>
      <trkpt lat="48.4237" lon="-3.84362">
        <ele>397.018096924</ele>
        <time>2014-08-13T12:45:42.416Z</time>
      </trkpt>
      <trkpt lat="48.42376" lon="-3.84353">
        <ele>396.94342041</ele>
        <time>2014-08-13T12:45:45.407Z</time>
      </trkpt>
      <trkpt lat="48.42377" lon="-3.8435">
        <ele>396.931915283</ele>
        <time>2014-08-13T12:45:46.411Z</time>
      </trkpt>
      <trkpt lat="48.42383" lon="-3.8434">
        <ele>396.8671875</ele>
        <time>2014-08-13T12:45:49.412Z</time>
      </trkpt>
      <trkpt lat="48.42384" lon="-3.84338">
        <ele>396.845947266</ele>
        <time>2014-08-13T12:45:50.408Z</time>
      </trkpt>
      <trkpt lat="48.42392" lon="-3.84332">
        <ele>396.678344727</ele>
        <time>2014-08-13T12:45:56.45Z</time>
      </trkpt>
      <trkpt lat="48.42392" lon="-3.84332">
        <ele>396.6300354</ele>
        <time>2014-08-13T12:45:57.413Z</time>
      </trkpt>
      <trkpt lat="48.42399" lon="-3.84327">
        <ele>396.370758057</ele>
        <time>2014-08-13T12:46:10.418Z</time>
      </trkpt>
      <trkpt lat="48.424" lon="-3.84325">
        <ele>396.35168457</ele>
        <time>2014-08-13T12:46:11.406Z</time>
      </trkpt>
      <trkpt lat="48.42406" lon="-3.84319">
        <ele>396.275756836</ele>
        <time>2014-08-13T12:46:14.42Z</time>
      </trkpt>
      <trkpt lat="48.42408" lon="-3.84316">
        <ele>396.240325928</ele>
        <time>2014-08-13T12:46:15.417Z</time>
      </trkpt>
      <trkpt lat="48.42415" lon="-3.84308">
        <ele>396.077484131</ele>
        <time>2014-08-13T12:46:18.413Z</time>
      </trkpt>
      <trkpt lat="48.42418" lon="-3.84306">
        <ele>396.022277832</ele>
        <time>2014-08-13T12:46:19.418Z</time>
      </trkpt>
      <trkpt lat="48.42426" lon="-3.84301">
        <ele>395.865997314</ele>
        <time>2014-08-13T12:46:22.415Z</time>
      </trkpt>
      <trkpt lat="48.42428" lon="-3.84299">
        <ele>395.847320557</ele>
        <time>2014-08-13T12:46:23.413Z</time>
      </trkpt>
      <trkpt lat="48.42434" lon="-3.84293">
        <ele>395.86920166</ele>
        <time>2014-08-13T12:46:26.438Z</time>
      </trkpt>
      <trkpt lat="48.42435" lon="-3.8429">
        <ele>395.875854492</ele>
        <time>2014-08-13T12:46:27.424Z</time>
      </trkpt>
      <trkpt lat="48.4244" lon="-3.84279">
        <ele>395.809265137</ele>
        <time>2014-08-13T12:46:30.413Z</time>
      </trkpt>
      <trkpt lat="48.42442" lon="-3.84277">
        <ele>395.797302246</ele>
        <time>2014-08-13T12:46:31.406Z</time>
      </trkpt>
      <trkpt lat="48.42448" lon="-3.8427">
        <ele>395.731445312</ele>
        <time>2014-08-13T12:46:34.41Z</time>
      </trkpt>
      <trkpt lat="48.4245" lon="-3.84267">
        <ele>395.735534668</ele>
        <time>2014-08-13T12:46:35.415Z</time>
      </trkpt>
      <trkpt lat="48.42455" lon="-3.8426">
        <ele>395.73638916</ele>
        <time>2014-08-13T12:46:37.424Z</time>
      </trkpt>
      <trkpt lat="48.42457" lon="-3.84256">
        <ele>395.721893311</ele>
        <time>2014-08-13T12:46:38.408Z</time>
      </trkpt>
      <trkpt lat="48.42461" lon="-3.84249">
        <ele>395.700134277</ele>
        <time>2014-08-13T12:46:40.408Z</time>
      </trkpt>
      <trkpt lat="48.42463" lon="-3.84245">
        <ele>395.67755127</ele>
        <time>2014-08-13T12:46:41.408Z</time>
      </trkpt>
      <trkpt lat="48.42468" lon="-3.84236">
        <ele>395.558197021</ele>
        <time>2014-08-13T12:46:44.412Z</time>
      </trkpt>
      <trkpt lat="48.4247" lon="-3.84233">
        <ele>395.49911499</ele>
        <time>2014-08-13T12:46:45.412Z</time>
      </trkpt>
      <trkpt lat="48.42475" lon="-3.84225">
        <ele>395.366607666</ele>
        <time>2014-08-13T12:46:48.414Z</time>
      </trkpt>
      <trkpt lat="48.42477" lon="-3.84222">
        <ele>395.299468994</ele>
        <time>2014-08-13T12:46:49.418Z</time>
      </trkpt>
      <trkpt lat="48.42481" lon="-3.84213">
        <ele>395.124237061</ele>
        <time>2014-08-13T12:46:52.416Z</time>
      </trkpt>
      <trkpt lat="48.42483" lon="-3.8421">
        <ele>395.063476562</ele>
        <time>2014-08-13T12:46:53.416Z</time>
      </trkpt>
      <trkpt lat="48.42487" lon="-3.84202">
        <ele>395.015441895</ele>
        <time>2014-08-13T12:46:56.532Z</time>
      </trkpt>
      <trkpt lat="48.42488" lon="-3.84199">
        <ele>395.007202148</ele>
        <time>2014-08-13T12:46:57.405Z</time>
      </trkpt>
      <trkpt lat="48.42494" lon="-3.84192">
        <ele>394.900054932</ele>
        <time>2014-08-13T12:47:00.769Z</time>
      </trkpt>
      <trkpt lat="48.42495" lon="-3.84189">
        <ele>394.876342773</ele>
        <time>2014-08-13T12:47:01.766Z</time>
      </trkpt>
      <trkpt lat="48.42502" lon="-3.84182">
        <ele>394.380981445</ele>
        <time>2014-08-13T12:47:05.652Z</time>
      </trkpt>
      <trkpt lat="48.42504" lon="-3.8418">
        <ele>394.279724121</ele>
        <time>2014-08-13T12:47:06.654Z</time>
      </trkpt>
      <trkpt lat="48.42511" lon="-3.84173">
        <ele>394.043457031</ele>
        <time>2014-08-13T12:47:10.656Z</time>
      </trkpt>
      <trkpt lat="48.42512" lon="-3.84172">
        <ele>394.007598877</ele>
        <time>2014-08-13T12:47:11.654Z</time>
      </trkpt>
      <trkpt lat="48.42521" lon="-3.84167">
        <ele>393.47869873</ele>
        <time>2014-08-13T12:47:22.112Z</time>
      </trkpt>
      <trkpt lat="48.42521" lon="-3.84167">
        <ele>393.547821045</ele>
        <time>2014-08-13T12:47:23.112Z</time>
      </trkpt>
      <trkpt lat="48.42528" lon="-3.84159">
        <ele>394.173217773</ele>
        <time>2014-08-13T12:47:29.101Z</time>
      </trkpt>
      <trkpt lat="48.42529" lon="-3.84157">
        <ele>394.310821533</ele>
        <time>2014-08-13T12:47:30.104Z</time>
      </trkpt>
      <trkpt lat="48.42533" lon="-3.84147">
        <ele>394.92175293</ele>
        <time>2014-08-13T12:47:35.102Z</time>
      </trkpt>
      <trkpt lat="48.42534" lon="-3.84145">
        <ele>395.066131592</ele>
        <time>2014-08-13T12:47:36.111Z</time>
      </trkpt>
      <trkpt lat="48.42538" lon="-3.84134">
        <ele>395.736572266</ele>
        <time>2014-08-13T12:47:42.112Z</time>
      </trkpt>
      <trkpt lat="48.42539" lon="-3.84132">
        <ele>395.813110352</ele>
        <time>2014-08-13T12:47:43.107Z</time>
      </trkpt>
      <trkpt lat="48.42544" lon="-3.84122">
        <ele>396.369445801</ele>
        <time>2014-08-13T12:47:49.097Z</time>
      </trkpt>
      <trkpt lat="48.42545" lon="-3.8412">
        <ele>396.464385986</ele>
        <time>2014-08-13T12:47:50.113Z</time>
      </trkpt>
      <trkpt lat="48.4255" lon="-3.84109">
        <ele>396.954040527</ele>
        <time>2014-08-13T12:47:55.104Z</time>
      </trkpt>
      <trkpt lat="48.42551" lon="-3.84107">
        <ele>397.02935791</ele>
        <time>2014-08-13T12:47:56.096Z</time>
      </trkpt>
      <trkpt lat="48.42556" lon="-3.841">
        <ele>397.608306885</ele>
        <time>2014-08-13T12:48:01.124Z</time>
      </trkpt>
      <trkpt lat="48.42557" lon="-3.84098">
        <ele>397.741424561</ele>
        <time>2014-08-13T12:48:02.1Z</time>
      </trkpt>
      <trkpt lat="48.42563" lon="-3.84089">
        <ele>399.341674805</ele>
        <time>2014-08-13T12:48:31.113Z</time>
      </trkpt>
      <trkpt lat="48.42565" lon="-3.84087">
        <ele>399.431243896</ele>
        <time>2014-08-13T12:48:32.105Z</time>
      </trkpt>
      <trkpt lat="48.42571" lon="-3.8408">
        <ele>399.874847412</ele>
        <time>2014-08-13T12:48:35.36Z</time>
      </trkpt>
      <trkpt lat="48.42573" lon="-3.84078">
        <ele>399.952392578</ele>
        <time>2014-08-13T12:48:36.363Z</time>
      </trkpt>
      <trkpt lat="48.42578" lon="-3.84072">
        <ele>400.152923584</ele>
        <time>2014-08-13T12:48:39.528Z</time>
      </trkpt>
      <trkpt lat="48.4258" lon="-3.84069">
        <ele>400.222564697</ele>
        <time>2014-08-13T12:48:40.389Z</time>
      </trkpt>
      <trkpt lat="48.42585" lon="-3.84061">
        <ele>400.389434814</ele>
        <time>2014-08-13T12:48:43.39Z</time>
      </trkpt>
      <trkpt lat="48.42588" lon="-3.84059">
        <ele>400.439086914</ele>
        <time>2014-08-13T12:48:44.399Z</time>
      </trkpt>
      <trkpt lat="48.42595" lon="-3.84056">
        <ele>400.560455322</ele>
        <time>2014-08-13T12:48:47.384Z</time>
      </trkpt>
      <trkpt lat="48.42597" lon="-3.84053">
        <ele>400.608978271</ele>
        <time>2014-08-13T12:48:48.392Z</time>
      </trkpt>
      <trkpt lat="48.42602" lon="-3.84047">
        <ele>400.713226318</ele>
        <time>2014-08-13T12:48:50.39Z</time>
      </trkpt>
      <trkpt lat="48.42605" lon="-3.84043">
        <ele>400.76965332</ele>
        <time>2014-08-13T12:48:51.39Z</time>
      </trkpt>
      <trkpt lat="48.42611" lon="-3.84035">
        <ele>401.370056152</ele>
        <time>2014-08-13T12:48:53.402Z</time>
      </trkpt>
      <trkpt lat="48.42614" lon="-3.84031">
        <ele>401.589538574</ele>
        <time>2014-08-13T12:48:54.392Z</time>
      </trkpt>
      <trkpt lat="48.42617" lon="-3.84026">
        <ele>401.846740723</ele>
        <time>2014-08-13T12:48:55.386Z</time>
      </trkpt>
      <trkpt lat="48.42621" lon="-3.84022">
        <ele>401.937438965</ele>
        <time>2014-08-13T12:48:56.433Z</time>
      </trkpt>
      <trkpt lat="48.42624" lon="-3.84017">
        <ele>401.745422363</ele>
        <time>2014-08-13T12:48:57.396Z</time>
      </trkpt>
      <trkpt lat="48.42627" lon="-3.84012">
        <ele>401.614440918</ele>
        <time>2014-08-13T12:48:58.392Z</time>
      </trkpt>
      <trkpt lat="48.4263" lon="-3.84006">
        <ele>401.511810303</ele>
        <time>2014-08-13T12:48:59.399Z</time>
      </trkpt>
      <trkpt lat="48.42634" lon="-3.84001">
        <ele>401.250549316</ele>
        <time>2014-08-13T12:49:00.381Z</time>
      </trkpt>
      <trkpt lat="48.4264" lon="-3.83992">
        <ele>400.243103027</ele>
        <time>2014-08-13T12:49:02.396Z</time>
      </trkpt>
      <trkpt lat="48.42643" lon="-3.83987">
        <ele>399.720611572</ele>
        <time>2014-08-13T12:49:03.396Z</time>
      </trkpt>
      <trkpt lat="48.42646" lon="-3.83982">
        <ele>399.245452881</ele>
        <time>2014-08-13T12:49:04.392Z</time>
      </trkpt>
      <trkpt lat="48.42649" lon="-3.83977">
        <ele>399.05657959</ele>
        <time>2014-08-13T12:49:05.396Z</time>
      </trkpt>
      <trkpt lat="48.42652" lon="-3.83972">
        <ele>398.770599365</ele>
        <time>2014-08-13T12:49:06.405Z</time>
      </trkpt>
      <trkpt lat="48.42655" lon="-3.83967">
        <ele>398.595245361</ele>
        <time>2014-08-13T12:49:07.397Z</time>
      </trkpt>
      <trkpt lat="48.42661" lon="-3.83958">
        <ele>398.14151001</ele>
        <time>2014-08-13T12:49:09.402Z</time>
      </trkpt>
      <trkpt lat="48.42664" lon="-3.83953">
        <ele>397.855804443</ele>
        <time>2014-08-13T12:49:10.388Z</time>
      </trkpt>
      <trkpt lat="48.4267" lon="-3.83943">
        <ele>397.642486572</ele>
        <time>2014-08-13T12:49:12.384Z</time>
      </trkpt>
      <trkpt lat="48.42673" lon="-3.83938">
        <ele>397.355682373</ele>
        <time>2014-08-13T12:49:13.397Z</time>
      </trkpt>
      <trkpt lat="48.42679" lon="-3.83929">
        <ele>396.861175537</ele>
        <time>2014-08-13T12:49:15.387Z</time>
      </trkpt>
      <trkpt lat="48.42682" lon="-3.83924">
        <ele>396.628814697</ele>
        <time>2014-08-13T12:49:16.385Z</time>
      </trkpt>
      <trkpt lat="48.42685" lon="-3.83919">
        <ele>396.205535889</ele>
        <time>2014-08-13T12:49:17.395Z</time>
      </trkpt>
      <trkpt lat="48.42689" lon="-3.83914">
        <ele>396.079711914</ele>
        <time>2014-08-13T12:49:18.397Z</time>
      </trkpt>
      <trkpt lat="48.42692" lon="-3.83908">
        <ele>396.139373779</ele>
        <time>2014-08-13T12:49:19.392Z</time>
      </trkpt>
      <trkpt lat="48.42696" lon="-3.83902">
        <ele>396.322967529</ele>
        <time>2014-08-13T12:49:20.382Z</time>
      </trkpt>
      <trkpt lat="48.42699" lon="-3.83896">
        <ele>396.428283691</ele>
        <time>2014-08-13T12:49:21.388Z</time>
      </trkpt>
      <trkpt lat="48.42703" lon="-3.8389">
        <ele>396.471496582</ele>
        <time>2014-08-13T12:49:22.4Z</time>
      </trkpt>
      <trkpt lat="48.42706" lon="-3.83885">
        <ele>396.413787842</ele>
        <time>2014-08-13T12:49:23.392Z</time>
      </trkpt>
      <trkpt lat="48.4271" lon="-3.8388">
        <ele>396.274536133</ele>
        <time>2014-08-13T12:49:24.391Z</time>
      </trkpt>
      <trkpt lat="48.42714" lon="-3.83875">
        <ele>396.135803223</ele>
        <time>2014-08-13T12:49:25.416Z</time>
      </trkpt>
      <trkpt lat="48.42717" lon="-3.8387">
        <ele>396.06060791</ele>
        <time>2014-08-13T12:49:26.387Z</time>
      </trkpt>
      <trkpt lat="48.42721" lon="-3.83866">
        <ele>395.878143311</ele>
        <time>2014-08-13T12:49:27.392Z</time>
      </trkpt>
      <trkpt lat="48.42725" lon="-3.83861">
        <ele>395.67956543</ele>
        <time>2014-08-13T12:49:28.393Z</time>
      </trkpt>
      <trkpt lat="48.42728" lon="-3.83856">
        <ele>395.684417725</ele>
        <time>2014-08-13T12:49:29.397Z</time>
      </trkpt>
      <trkpt lat="48.42732" lon="-3.83851">
        <ele>395.430145264</ele>
        <time>2014-08-13T12:49:30.394Z</time>
      </trkpt>
      <trkpt lat="48.42735" lon="-3.83846">
        <ele>395.130554199</ele>
        <time>2014-08-13T12:49:31.396Z</time>
      </trkpt>
      <trkpt lat="48.42739" lon="-3.83842">
        <ele>394.992431641</ele>
        <time>2014-08-13T12:49:32.388Z</time>
      </trkpt>
      <trkpt lat="48.42742" lon="-3.83837">
        <ele>395.031768799</ele>
        <time>2014-08-13T12:49:33.392Z</time>
      </trkpt>
      <trkpt lat="48.42745" lon="-3.83831">
        <ele>394.914520264</ele>
        <time>2014-08-13T12:49:34.391Z</time>
      </trkpt>
      <trkpt lat="48.42748" lon="-3.83826">
        <ele>394.617523193</ele>
        <time>2014-08-13T12:49:35.391Z</time>
      </trkpt>
      <trkpt lat="48.42751" lon="-3.83821">
        <ele>394.539459229</ele>
        <time>2014-08-13T12:49:36.39Z</time>
      </trkpt>
      <trkpt lat="48.42757" lon="-3.83811">
        <ele>394.271148682</ele>
        <time>2014-08-13T12:49:38.99Z</time>
      </trkpt>
      <trkpt lat="48.4276" lon="-3.83807">
        <ele>394.213500977</ele>
        <time>2014-08-13T12:49:40.03Z</time>
      </trkpt>
      <trkpt lat="48.42765" lon="-3.83798">
        <ele>394.574859619</ele>
        <time>2014-08-13T12:49:42.029Z</time>
      </trkpt>
      <trkpt lat="48.42767" lon="-3.83792">
        <ele>394.678100586</ele>
        <time>2014-08-13T12:49:43.021Z</time>
      </trkpt>
      <trkpt lat="48.42771" lon="-3.83782">
        <ele>394.880371094</ele>
        <time>2014-08-13T12:49:45.024Z</time>
      </trkpt>
      <trkpt lat="48.42773" lon="-3.83777">
        <ele>394.885864258</ele>
        <time>2014-08-13T12:49:46.021Z</time>
      </trkpt>
      <trkpt lat="48.42776" lon="-3.83767">
        <ele>394.966339111</ele>
        <time>2014-08-13T12:49:48.02Z</time>
      </trkpt>
      <trkpt lat="48.42778" lon="-3.83761">
        <ele>394.954498291</ele>
        <time>2014-08-13T12:49:49.019Z</time>
      </trkpt>
      <trkpt lat="48.42781" lon="-3.83752">
        <ele>394.927947998</ele>
        <time>2014-08-13T12:49:51.234Z</time>
      </trkpt>
      <trkpt lat="48.42782" lon="-3.83748">
        <ele>394.917053223</ele>
        <time>2014-08-13T12:49:52.245Z</time>
      </trkpt>
      <trkpt lat="48.42784" lon="-3.83738">
        <ele>394.921173096</ele>
        <time>2014-08-13T12:49:54.238Z</time>
      </trkpt>
      <trkpt lat="48.42785" lon="-3.83733">
        <ele>394.944854736</ele>
        <time>2014-08-13T12:49:55.243Z</time>
      </trkpt>
      <trkpt lat="48.42788" lon="-3.83722">
        <ele>394.97164917</ele>
        <time>2014-08-13T12:49:57.229Z</time>
      </trkpt>
      <trkpt lat="48.42789" lon="-3.83716">
        <ele>394.986114502</ele>
        <time>2014-08-13T12:49:58.238Z</time>
      </trkpt>
      <trkpt lat="48.42791" lon="-3.83707">
        <ele>394.998199463</ele>
        <time>2014-08-13T12:50:00.232Z</time>
      </trkpt>
      <trkpt lat="48.42791" lon="-3.83701">
        <ele>395.005218506</ele>
        <time>2014-08-13T12:50:01.233Z</time>
      </trkpt>
      <trkpt lat="48.42791" lon="-3.83692">
        <ele>394.976501465</ele>
        <time>2014-08-13T12:50:03.242Z</time>
      </trkpt>
      <trkpt lat="48.42791" lon="-3.83687">
        <ele>394.953918457</ele>
        <time>2014-08-13T12:50:04.245Z</time>
      </trkpt>
      <trkpt lat="48.42791" lon="-3.83675">
        <ele>394.463989258</ele>
        <time>2014-08-13T12:50:06.236Z</time>
      </trkpt>
      <trkpt lat="48.42791" lon="-3.8367">
        <ele>393.998199463</ele>
        <time>2014-08-13T12:50:06.638Z</time>
      </trkpt>
      <trkpt lat="48.42792" lon="-3.83659">
        <ele>393.902313232</ele>
        <time>2014-08-13T12:50:08.558Z</time>
      </trkpt>
      <trkpt lat="48.42793" lon="-3.83654">
        <ele>393.850097656</ele>
        <time>2014-08-13T12:50:09.569Z</time>
      </trkpt>
      <trkpt lat="48.42792" lon="-3.83643">
        <ele>393.285247803</ele>
        <time>2014-08-13T12:50:11.561Z</time>
      </trkpt>
      <trkpt lat="48.42792" lon="-3.83637">
        <ele>393.245483398</ele>
        <time>2014-08-13T12:50:12.561Z</time>
      </trkpt>
      <trkpt lat="48.42789" lon="-3.83625">
        <ele>393.140167236</ele>
        <time>2014-08-13T12:50:15.578Z</time>
      </trkpt>
      <trkpt lat="48.42789" lon="-3.83622">
        <ele>393.104156494</ele>
        <time>2014-08-13T12:50:16.558Z</time>
      </trkpt>
      <trkpt lat="48.42786" lon="-3.8361">
        <ele>391.842254639</ele>
        <time>2014-08-13T12:51:34.566Z</time>
      </trkpt>
      <trkpt lat="48.42785" lon="-3.83609">
        <ele>391.766601562</ele>
        <time>2014-08-13T12:51:35.561Z</time>
      </trkpt>
      <trkpt lat="48.42783" lon="-3.83596">
        <ele>390.638946533</ele>
        <time>2014-08-13T12:54:07.76Z</time>
      </trkpt>
      <trkpt lat="48.42783" lon="-3.83595">
        <ele>390.656524658</ele>
        <time>2014-08-13T12:54:08.834Z</time>
      </trkpt>
      <trkpt lat="48.42789" lon="-3.83606">
        <ele>390.381469727</ele>
        <time>2014-08-13T12:55:10.476Z</time>
      </trkpt>
      <trkpt lat="48.42789" lon="-3.83606">
        <ele>390.370697021</ele>
        <time>2014-08-13T12:55:11.46Z</time>
      </trkpt>
      <trkpt lat="48.42787" lon="-3.83595">
        <ele>389.661651611</ele>
        <time>2014-08-13T12:56:12.528Z</time>
      </trkpt>
      <trkpt lat="48.42786" lon="-3.8359">
        <ele>389.734283447</ele>
        <time>2014-08-13T12:56:13.532Z</time>
      </trkpt>
      <trkpt lat="48.42784" lon="-3.83581">
        <ele>389.700469971</ele>
        <time>2014-08-13T12:56:15.539Z</time>
      </trkpt>
      <trkpt lat="48.42783" lon="-3.83574">
        <ele>389.687072754</ele>
        <time>2014-08-13T12:56:16.527Z</time>
      </trkpt>
      <trkpt lat="48.42781" lon="-3.83568">
        <ele>389.325653076</ele>
        <time>2014-08-13T12:56:17.531Z</time>
      </trkpt>
      <trkpt lat="48.4278" lon="-3.83561">
        <ele>388.951751709</ele>
        <time>2014-08-13T12:56:18.539Z</time>
      </trkpt>
      <trkpt lat="48.42778" lon="-3.83555">
        <ele>388.611480713</ele>
        <time>2014-08-13T12:56:19.542Z</time>
      </trkpt>
      <trkpt lat="48.42776" lon="-3.83548">
        <ele>388.567962646</ele>
        <time>2014-08-13T12:56:20.54Z</time>
      </trkpt>
      <trkpt lat="48.42774" lon="-3.83542">
        <ele>388.424530029</ele>
        <time>2014-08-13T12:56:21.523Z</time>
      </trkpt>
      <trkpt lat="48.42772" lon="-3.83535">
        <ele>388.221801758</ele>
        <time>2014-08-13T12:56:22.537Z</time>
      </trkpt>
      <trkpt lat="48.4277" lon="-3.83528">
        <ele>387.845397949</ele>
        <time>2014-08-13T12:56:23.532Z</time>
      </trkpt>
      <trkpt lat="48.42768" lon="-3.83521">
        <ele>387.420837402</ele>
        <time>2014-08-13T12:56:24.546Z</time>
      </trkpt>
      <trkpt lat="48.42766" lon="-3.83514">
        <ele>386.708953857</ele>
        <time>2014-08-13T12:56:25.523Z</time>
      </trkpt>
      <trkpt lat="48.42764" lon="-3.83506">
        <ele>386.445404053</ele>
        <time>2014-08-13T12:56:26.538Z</time>
      </trkpt>
      <trkpt lat="48.42761" lon="-3.83494">
        <ele>385.898986816</ele>
        <time>2014-08-13T12:56:28.533Z</time>
      </trkpt>
      <trkpt lat="48.4276" lon="-3.83488">
        <ele>385.727050781</ele>
        <time>2014-08-13T12:56:29.54Z</time>
      </trkpt>
      <trkpt lat="48.42759" lon="-3.8348">
        <ele>385.651824951</ele>
        <time>2014-08-13T12:56:30.549Z</time>
      </trkpt>
      <trkpt lat="48.42757" lon="-3.83474">
        <ele>385.564575195</ele>
        <time>2014-08-13T12:56:31.531Z</time>
      </trkpt>
      <trkpt lat="48.42755" lon="-3.83468">
        <ele>385.52166748</ele>
        <time>2014-08-13T12:56:32.531Z</time>
      </trkpt>
      <trkpt lat="48.42753" lon="-3.83461">
        <ele>385.616149902</ele>
        <time>2014-08-13T12:56:33.534Z</time>
      </trkpt>
      <trkpt lat="48.42751" lon="-3.83455">
        <ele>385.495391846</ele>
        <time>2014-08-13T12:56:34.533Z</time>
      </trkpt>
      <trkpt lat="48.42749" lon="-3.83447">
        <ele>385.357208252</ele>
        <time>2014-08-13T12:56:35.536Z</time>
      </trkpt>
      <trkpt lat="48.42747" lon="-3.8344">
        <ele>385.229034424</ele>
        <time>2014-08-13T12:56:36.53Z</time>
      </trkpt>
      <trkpt lat="48.42744" lon="-3.83432">
        <ele>384.947631836</ele>
        <time>2014-08-13T12:56:37.528Z</time>
      </trkpt>
      <trkpt lat="48.42742" lon="-3.83425">
        <ele>384.71295166</ele>
        <time>2014-08-13T12:56:38.548Z</time>
      </trkpt>
      <trkpt lat="48.42738" lon="-3.83417">
        <ele>385.120635986</ele>
        <time>2014-08-13T12:56:39.902Z</time>
      </trkpt>
      <trkpt lat="48.42735" lon="-3.8341">
        <ele>385.276062012</ele>
        <time>2014-08-13T12:56:40.93Z</time>
      </trkpt>
      <trkpt lat="48.42732" lon="-3.83401">
        <ele>385.09475708</ele>
        <time>2014-08-13T12:56:41.914Z</time>
      </trkpt>
      <trkpt lat="48.42728" lon="-3.83392">
        <ele>384.976837158</ele>
        <time>2014-08-13T12:56:42.919Z</time>
      </trkpt>
      <trkpt lat="48.42725" lon="-3.83384">
        <ele>384.561157227</ele>
        <time>2014-08-13T12:56:43.93Z</time>
      </trkpt>
      <trkpt lat="48.42723" lon="-3.83377">
        <ele>384.041687012</ele>
        <time>2014-08-13T12:56:44.927Z</time>
      </trkpt>
      <trkpt lat="48.4272" lon="-3.83371">
        <ele>383.568359375</ele>
        <time>2014-08-13T12:56:45.921Z</time>
      </trkpt>
      <trkpt lat="48.42715" lon="-3.8336">
        <ele>382.101348877</ele>
        <time>2014-08-13T12:56:47.945Z</time>
      </trkpt>
      <trkpt lat="48.42712" lon="-3.83353">
        <ele>382.019805908</ele>
        <time>2014-08-13T12:56:48.921Z</time>
      </trkpt>
      <trkpt lat="48.42709" lon="-3.83345">
        <ele>381.624786377</ele>
        <time>2014-08-13T12:56:49.919Z</time>
      </trkpt>
      <trkpt lat="48.42707" lon="-3.83338">
        <ele>381.173919678</ele>
        <time>2014-08-13T12:56:50.922Z</time>
      </trkpt>
      <trkpt lat="48.42704" lon="-3.83331">
        <ele>380.73840332</ele>
        <time>2014-08-13T12:56:51.914Z</time>
      </trkpt>
      <trkpt lat="48.42701" lon="-3.83323">
        <ele>380.179992676</ele>
        <time>2014-08-13T12:56:52.918Z</time>
      </trkpt>
      <trkpt lat="48.42698" lon="-3.83315">
        <ele>379.624359131</ele>
        <time>2014-08-13T12:56:53.914Z</time>
      </trkpt>
      <trkpt lat="48.42696" lon="-3.83307">
        <ele>378.587341309</ele>
        <time>2014-08-13T12:56:54.921Z</time>
      </trkpt>
      <trkpt lat="48.42694" lon="-3.83301">
        <ele>377.866943359</ele>
        <time>2014-08-13T12:56:55.917Z</time>
      </trkpt>
      <trkpt lat="48.42692" lon="-3.83295">
        <ele>377.879608154</ele>
        <time>2014-08-13T12:56:56.919Z</time>
      </trkpt>
      <trkpt lat="48.42689" lon="-3.83289">
        <ele>377.36541748</ele>
        <time>2014-08-13T12:56:57.92Z</time>
      </trkpt>
      <trkpt lat="48.42686" lon="-3.83282">
        <ele>376.880218506</ele>
        <time>2014-08-13T12:56:58.94Z</time>
      </trkpt>
      <trkpt lat="48.42684" lon="-3.83275">
        <ele>376.993713379</ele>
        <time>2014-08-13T12:56:59.921Z</time>
      </trkpt>
      <trkpt lat="48.42681" lon="-3.83269">
        <ele>377.004547119</ele>
        <time>2014-08-13T12:57:00.922Z</time>
      </trkpt>
      <trkpt lat="48.42678" lon="-3.83262">
        <ele>377.773223877</ele>
        <time>2014-08-13T12:57:01.919Z</time>
      </trkpt>
      <trkpt lat="48.42675" lon="-3.83254">
        <ele>378.561523438</ele>
        <time>2014-08-13T12:57:02.926Z</time>
      </trkpt>
      <trkpt lat="48.42672" lon="-3.83246">
        <ele>378.875671387</ele>
        <time>2014-08-13T12:57:03.928Z</time>
      </trkpt>
      <trkpt lat="48.42669" lon="-3.83237">
        <ele>378.874603271</ele>
        <time>2014-08-13T12:57:04.927Z</time>
      </trkpt>
      <trkpt lat="48.42666" lon="-3.83229">
        <ele>378.105194092</ele>
        <time>2014-08-13T12:57:05.933Z</time>
      </trkpt>
      <trkpt lat="48.42663" lon="-3.83222">
        <ele>377.603424072</ele>
        <time>2014-08-13T12:57:06.937Z</time>
      </trkpt>
      <trkpt lat="48.42658" lon="-3.83216">
        <ele>377.617614746</ele>
        <time>2014-08-13T12:57:07.935Z</time>
      </trkpt>
      <trkpt lat="48.42655" lon="-3.83209">
        <ele>377.295318604</ele>
        <time>2014-08-13T12:57:08.933Z</time>
      </trkpt>
      <trkpt lat="48.4265" lon="-3.83203">
        <ele>377.296936035</ele>
        <time>2014-08-13T12:57:09.982Z</time>
      </trkpt>
      <trkpt lat="48.42647" lon="-3.83196">
        <ele>376.994415283</ele>
        <time>2014-08-13T12:57:10.924Z</time>
      </trkpt>
      <trkpt lat="48.42643" lon="-3.83189">
        <ele>376.947113037</ele>
        <time>2014-08-13T12:57:11.917Z</time>
      </trkpt>
      <trkpt lat="48.42639" lon="-3.83181">
        <ele>376.48538208</ele>
        <time>2014-08-13T12:57:12.919Z</time>
      </trkpt>
      <trkpt lat="48.42635" lon="-3.83174">
        <ele>376.382141113</ele>
        <time>2014-08-13T12:57:13.914Z</time>
      </trkpt>
      <trkpt lat="48.42632" lon="-3.83167">
        <ele>376.228912354</ele>
        <time>2014-08-13T12:57:14.919Z</time>
      </trkpt>
      <trkpt lat="48.42629" lon="-3.8316">
        <ele>376.167602539</ele>
        <time>2014-08-13T12:57:15.925Z</time>
      </trkpt>
      <trkpt lat="48.42626" lon="-3.83153">
        <ele>376.584838867</ele>
        <time>2014-08-13T12:57:16.925Z</time>
      </trkpt>
      <trkpt lat="48.42624" lon="-3.83144">
        <ele>376.792663574</ele>
        <time>2014-08-13T12:57:17.923Z</time>
      </trkpt>
      <trkpt lat="48.42622" lon="-3.83137">
        <ele>377.143981934</ele>
        <time>2014-08-13T12:57:18.928Z</time>
      </trkpt>
      <trkpt lat="48.42619" lon="-3.83129">
        <ele>377.01776123</ele>
        <time>2014-08-13T12:57:19.958Z</time>
      </trkpt>
      <trkpt lat="48.42615" lon="-3.83121">
        <ele>376.397003174</ele>
        <time>2014-08-13T12:57:20.919Z</time>
      </trkpt>
      <trkpt lat="48.42612" lon="-3.83114">
        <ele>374.999145508</ele>
        <time>2014-08-13T12:57:21.92Z</time>
      </trkpt>
      <trkpt lat="48.4261" lon="-3.83109">
        <ele>373.968688965</ele>
        <time>2014-08-13T12:57:22.927Z</time>
      </trkpt>
      <trkpt lat="48.42607" lon="-3.83103">
        <ele>373.64364624</ele>
        <time>2014-08-13T12:57:23.925Z</time>
      </trkpt>
      <trkpt lat="48.42604" lon="-3.83097">
        <ele>373.035888672</ele>
        <time>2014-08-13T12:57:24.932Z</time>
      </trkpt>
      <trkpt lat="48.42601" lon="-3.8309">
        <ele>372.569793701</ele>
        <time>2014-08-13T12:57:25.924Z</time>
      </trkpt>
      <trkpt lat="48.42597" lon="-3.83082">
        <ele>373.031707764</ele>
        <time>2014-08-13T12:57:26.926Z</time>
      </trkpt>
      <trkpt lat="48.42593" lon="-3.83074">
        <ele>372.673553467</ele>
        <time>2014-08-13T12:57:27.918Z</time>
      </trkpt>
      <trkpt lat="48.42589" lon="-3.83066">
        <ele>372.482696533</ele>
        <time>2014-08-13T12:57:28.924Z</time>
      </trkpt>
      <trkpt lat="48.42586" lon="-3.83059">
        <ele>372.302642822</ele>
        <time>2014-08-13T12:57:29.919Z</time>
      </trkpt>
      <trkpt lat="48.42582" lon="-3.83052">
        <ele>372.287811279</ele>
        <time>2014-08-13T12:57:30.92Z</time>
      </trkpt>
      <trkpt lat="48.42579" lon="-3.83045">
        <ele>372.174835205</ele>
        <time>2014-08-13T12:57:31.916Z</time>
      </trkpt>
      <trkpt lat="48.42576" lon="-3.83039">
        <ele>371.581878662</ele>
        <time>2014-08-13T12:57:32.921Z</time>
      </trkpt>
      <trkpt lat="48.42573" lon="-3.83033">
        <ele>370.989715576</ele>
        <time>2014-08-13T12:57:33.915Z</time>
      </trkpt>
      <trkpt lat="48.42569" lon="-3.83027">
        <ele>369.898132324</ele>
        <time>2014-08-13T12:57:34.922Z</time>
      </trkpt>
      <trkpt lat="48.42564" lon="-3.83022">
        <ele>368.647369385</ele>
        <time>2014-08-13T12:57:35.92Z</time>
      </trkpt>
      <trkpt lat="48.4256" lon="-3.83016">
        <ele>368.144042969</ele>
        <time>2014-08-13T12:57:36.924Z</time>
      </trkpt>
      <trkpt lat="48.42554" lon="-3.8301">
        <ele>367.612579346</ele>
        <time>2014-08-13T12:57:37.922Z</time>
      </trkpt>
      <trkpt lat="48.42549" lon="-3.83003">
        <ele>367.258178711</ele>
        <time>2014-08-13T12:57:38.93Z</time>
      </trkpt>
      <trkpt lat="48.42544" lon="-3.82996">
        <ele>366.616455078</ele>
        <time>2014-08-13T12:57:39.935Z</time>
      </trkpt>
      <trkpt lat="48.42539" lon="-3.82988">
        <ele>365.902893066</ele>
        <time>2014-08-13T12:57:40.904Z</time>
      </trkpt>
      <trkpt lat="48.42533" lon="-3.8298">
        <ele>365.738220215</ele>
        <time>2014-08-13T12:57:41.909Z</time>
      </trkpt>
      <trkpt lat="48.42528" lon="-3.82974">
        <ele>365.015014648</ele>
        <time>2014-08-13T12:57:42.902Z</time>
      </trkpt>
      <trkpt lat="48.42523" lon="-3.82967">
        <ele>364.023742676</ele>
        <time>2014-08-13T12:57:43.918Z</time>
      </trkpt>
      <trkpt lat="48.42518" lon="-3.82961">
        <ele>363.008605957</ele>
        <time>2014-08-13T12:57:44.913Z</time>
      </trkpt>
      <trkpt lat="48.42513" lon="-3.82955">
        <ele>362.564971924</ele>
        <time>2014-08-13T12:57:45.919Z</time>
      </trkpt>
      <trkpt lat="48.42509" lon="-3.82951">
        <ele>362.621612549</ele>
        <time>2014-08-13T12:57:46.939Z</time>
      </trkpt>
      <trkpt lat="48.42505" lon="-3.82946">
        <ele>362.999725342</ele>
        <time>2014-08-13T12:57:47.924Z</time>
      </trkpt>
      <trkpt lat="48.42502" lon="-3.82942">
        <ele>362.967163086</ele>
        <time>2014-08-13T12:57:48.92Z</time>
      </trkpt>
      <trkpt lat="48.42495" lon="-3.82935">
        <ele>362.136566162</ele>
        <time>2014-08-13T12:57:58.917Z</time>
      </trkpt>
      <trkpt lat="48.42492" lon="-3.82932">
        <ele>360.493652344</ele>
        <time>2014-08-13T12:57:59.923Z</time>
      </trkpt>
      <trkpt lat="48.42485" lon="-3.82926">
        <ele>359.600952148</ele>
        <time>2014-08-13T12:58:01.918Z</time>
      </trkpt>
      <trkpt lat="48.42482" lon="-3.82922">
        <ele>359.167602539</ele>
        <time>2014-08-13T12:58:02.913Z</time>
      </trkpt>
      <trkpt lat="48.42477" lon="-3.82918">
        <ele>358.714324951</ele>
        <time>2014-08-13T12:58:03.919Z</time>
      </trkpt>
      <trkpt lat="48.42472" lon="-3.82913">
        <ele>358.355316162</ele>
        <time>2014-08-13T12:58:04.917Z</time>
      </trkpt>
      <trkpt lat="48.42467" lon="-3.82909">
        <ele>358.312713623</ele>
        <time>2014-08-13T12:58:05.92Z</time>
      </trkpt>
      <trkpt lat="48.42463" lon="-3.82904">
        <ele>357.789886475</ele>
        <time>2014-08-13T12:58:06.913Z</time>
      </trkpt>
      <trkpt lat="48.42458" lon="-3.829">
        <ele>357.321350098</ele>
        <time>2014-08-13T12:58:07.918Z</time>
      </trkpt>
      <trkpt lat="48.42454" lon="-3.82895">
        <ele>357.208068848</ele>
        <time>2014-08-13T12:58:08.911Z</time>
      </trkpt>
      <trkpt lat="48.4245" lon="-3.82892">
        <ele>357.216949463</ele>
        <time>2014-08-13T12:58:09.925Z</time>
      </trkpt>
      <trkpt lat="48.42445" lon="-3.82887">
        <ele>357.166290283</ele>
        <time>2014-08-13T12:58:10.927Z</time>
      </trkpt>
      <trkpt lat="48.4244" lon="-3.82882">
        <ele>356.642547607</ele>
        <time>2014-08-13T12:58:11.929Z</time>
      </trkpt>
      <trkpt lat="48.42435" lon="-3.82879">
        <ele>355.850891113</ele>
        <time>2014-08-13T12:58:12.915Z</time>
      </trkpt>
      <trkpt lat="48.4243" lon="-3.82877">
        <ele>355.369140625</ele>
        <time>2014-08-13T12:58:13.917Z</time>
      </trkpt>
      <trkpt lat="48.42425" lon="-3.82875">
        <ele>354.645263672</ele>
        <time>2014-08-13T12:58:14.917Z</time>
      </trkpt>
      <trkpt lat="48.42418" lon="-3.82872">
        <ele>354.568084717</ele>
        <time>2014-08-13T12:58:16.917Z</time>
      </trkpt>
      <trkpt lat="48.42415" lon="-3.8287">
        <ele>354.511138916</ele>
        <time>2014-08-13T12:58:17.92Z</time>
      </trkpt>
      <trkpt lat="48.42408" lon="-3.82867">
        <ele>354.47857666</ele>
        <time>2014-08-13T12:58:19.933Z</time>
      </trkpt>
      <trkpt lat="48.42407" lon="-3.82865">
        <ele>354.419036865</ele>
        <time>2014-08-13T12:58:20.921Z</time>
      </trkpt>
      <trkpt lat="48.42409" lon="-3.82852">
        <ele>354.180084229</ele>
        <time>2014-08-13T12:58:25.925Z</time>
      </trkpt>
      <trkpt lat="48.42412" lon="-3.82851">
        <ele>354.045623779</ele>
        <time>2014-08-13T12:58:26.918Z</time>
      </trkpt>
      <trkpt lat="48.42419" lon="-3.82846">
        <ele>351.850982666</ele>
        <time>2014-08-13T12:58:28.921Z</time>
      </trkpt>
      <trkpt lat="48.42422" lon="-3.82844">
        <ele>350.984344482</ele>
        <time>2014-08-13T12:58:29.921Z</time>
      </trkpt>
      <trkpt lat="48.42427" lon="-3.8284">
        <ele>350.900878906</ele>
        <time>2014-08-13T12:58:31.916Z</time>
      </trkpt>
      <trkpt lat="48.4243" lon="-3.82838">
        <ele>350.846466064</ele>
        <time>2014-08-13T12:58:32.925Z</time>
      </trkpt>
      <trkpt lat="48.42437" lon="-3.82831">
        <ele>350.793243408</ele>
        <time>2014-08-13T12:58:35.924Z</time>
      </trkpt>
      <trkpt lat="48.42439" lon="-3.82828">
        <ele>350.7734375</ele>
        <time>2014-08-13T12:58:36.927Z</time>
      </trkpt>
      <trkpt lat="48.42444" lon="-3.82823">
        <ele>350.761077881</ele>
        <time>2014-08-13T12:58:38.918Z</time>
      </trkpt>
      <trkpt lat="48.42447" lon="-3.8282">
        <ele>350.770568848</ele>
        <time>2014-08-13T12:58:39.924Z</time>
      </trkpt>
      <trkpt lat="48.42453" lon="-3.82813">
        <ele>350.690582275</ele>
        <time>2014-08-13T12:58:42.927Z</time>
      </trkpt>
      <trkpt lat="48.42455" lon="-3.82811">
        <ele>350.679229736</ele>
        <time>2014-08-13T12:58:43.918Z</time>
      </trkpt>
      <trkpt lat="48.42462" lon="-3.82804">
        <ele>350.590881348</ele>
        <time>2014-08-13T12:58:46.923Z</time>
      </trkpt>
      <trkpt lat="48.42464" lon="-3.82801">
        <ele>350.563140869</ele>
        <time>2014-08-13T12:58:47.917Z</time>
      </trkpt>
      <trkpt lat="48.4247" lon="-3.82794">
        <ele>350.519989014</ele>
        <time>2014-08-13T12:58:50.924Z</time>
      </trkpt>
      <trkpt lat="48.42472" lon="-3.82791">
        <ele>350.538818359</ele>
        <time>2014-08-13T12:58:51.924Z</time>
      </trkpt>
      <trkpt lat="48.42478" lon="-3.82786">
        <ele>350.606750488</ele>
        <time>2014-08-13T12:58:53.92Z</time>
      </trkpt>
      <trkpt lat="48.42481" lon="-3.82784">
        <ele>350.628326416</ele>
        <time>2014-08-13T12:58:54.926Z</time>
      </trkpt>
      <trkpt lat="48.42487" lon="-3.82781">
        <ele>350.655151367</ele>
        <time>2014-08-13T12:58:56.927Z</time>
      </trkpt>
      <trkpt lat="48.42491" lon="-3.82779">
        <ele>350.647796631</ele>
        <time>2014-08-13T12:58:57.911Z</time>
      </trkpt>
      <trkpt lat="48.42499" lon="-3.82775">
        <ele>350.637115479</ele>
        <time>2014-08-13T12:58:59.935Z</time>
      </trkpt>
      <trkpt lat="48.42503" lon="-3.82774">
        <ele>350.620574951</ele>
        <time>2014-08-13T12:59:00.907Z</time>
      </trkpt>
      <trkpt lat="48.42511" lon="-3.82771">
        <ele>349.890441895</ele>
        <time>2014-08-13T12:59:02.921Z</time>
      </trkpt>
      <trkpt lat="48.42516" lon="-3.8277">
        <ele>349.053771973</ele>
        <time>2014-08-13T12:59:03.926Z</time>
      </trkpt>
      <trkpt lat="48.42524" lon="-3.82767">
        <ele>347.703460693</ele>
        <time>2014-08-13T12:59:05.933Z</time>
      </trkpt>
      <trkpt lat="48.42528" lon="-3.82766">
        <ele>347.261199951</ele>
        <time>2014-08-13T12:59:06.926Z</time>
      </trkpt>
      <trkpt lat="48.42535" lon="-3.82764">
        <ele>347.033905029</ele>
        <time>2014-08-13T12:59:08.924Z</time>
      </trkpt>
      <trkpt lat="48.42539" lon="-3.82762">
        <ele>347.517913818</ele>
        <time>2014-08-13T12:59:09.932Z</time>
      </trkpt>
      <trkpt lat="48.42543" lon="-3.82761">
        <ele>347.755523682</ele>
        <time>2014-08-13T12:59:10.92Z</time>
      </trkpt>
      <trkpt lat="48.42548" lon="-3.82759">
        <ele>348.314208984</ele>
        <time>2014-08-13T12:59:11.923Z</time>
      </trkpt>
      <trkpt lat="48.42553" lon="-3.82757">
        <ele>348.88192749</ele>
        <time>2014-08-13T12:59:12.929Z</time>
      </trkpt>
      <trkpt lat="48.42558" lon="-3.82755">
        <ele>349.487609863</ele>
        <time>2014-08-13T12:59:13.929Z</time>
      </trkpt>
      <trkpt lat="48.42566" lon="-3.82752">
        <ele>350.386199951</ele>
        <time>2014-08-13T12:59:15.937Z</time>
      </trkpt>
      <trkpt lat="48.4257" lon="-3.82751">
        <ele>350.447296143</ele>
        <time>2014-08-13T12:59:16.929Z</time>
      </trkpt>
      <trkpt lat="48.42578" lon="-3.82748">
        <ele>350.993774414</ele>
        <time>2014-08-13T12:59:18.935Z</time>
      </trkpt>
      <trkpt lat="48.42583" lon="-3.82747">
        <ele>351.576019287</ele>
        <time>2014-08-13T12:59:19.938Z</time>
      </trkpt>
      <trkpt lat="48.4259" lon="-3.82744">
        <ele>351.58291626</ele>
        <time>2014-08-13T12:59:21.931Z</time>
      </trkpt>
      <trkpt lat="48.42595" lon="-3.82743">
        <ele>351.631591797</ele>
        <time>2014-08-13T12:59:22.934Z</time>
      </trkpt>
      <trkpt lat="48.42603" lon="-3.8274">
        <ele>351.798034668</ele>
        <time>2014-08-13T12:59:24.935Z</time>
      </trkpt>
      <trkpt lat="48.42605" lon="-3.82739">
        <ele>351.764221191</ele>
        <time>2014-08-13T12:59:25.934Z</time>
      </trkpt>
      <trkpt lat="48.42612" lon="-3.82735">
        <ele>351.040588379</ele>
        <time>2014-08-13T12:59:27.924Z</time>
      </trkpt>
      <trkpt lat="48.42615" lon="-3.82733">
        <ele>350.108612061</ele>
        <time>2014-08-13T12:59:28.92Z</time>
      </trkpt>
      <trkpt lat="48.42622" lon="-3.82733">
        <ele>350.123504639</ele>
        <time>2014-08-13T12:59:30.933Z</time>
      </trkpt>
      <trkpt lat="48.42625" lon="-3.82733">
        <ele>350.119506836</ele>
        <time>2014-08-13T12:59:31.928Z</time>
      </trkpt>
      <trkpt lat="48.42631" lon="-3.82733">
        <ele>350.081756592</ele>
        <time>2014-08-13T12:59:33.962Z</time>
      </trkpt>
      <trkpt lat="48.42635" lon="-3.82733">
        <ele>350.087524414</ele>
        <time>2014-08-13T12:59:34.924Z</time>
      </trkpt>
      <trkpt lat="48.42642" lon="-3.82732">
        <ele>350.207702637</ele>
        <time>2014-08-13T12:59:36.925Z</time>
      </trkpt>
      <trkpt lat="48.42645" lon="-3.82731">
        <ele>350.340240479</ele>
        <time>2014-08-13T12:59:37.93Z</time>
      </trkpt>
      <trkpt lat="48.42652" lon="-3.82728">
        <ele>350.762969971</ele>
        <time>2014-08-13T12:59:40.946Z</time>
      </trkpt>
      <trkpt lat="48.42655" lon="-3.82727">
        <ele>350.944946289</ele>
        <time>2014-08-13T12:59:41.933Z</time>
      </trkpt>
      <trkpt lat="48.42661" lon="-3.82723">
        <ele>351.280395508</ele>
        <time>2014-08-13T12:59:43.922Z</time>
      </trkpt>
      <trkpt lat="48.42663" lon="-3.82722">
        <ele>351.472106934</ele>
        <time>2014-08-13T12:59:44.92Z</time>
      </trkpt>
      <trkpt lat="48.42671" lon="-3.82719">
        <ele>352.496490479</ele>
        <time>2014-08-13T12:59:49.935Z</time>
      </trkpt>
      <trkpt lat="48.42673" lon="-3.82717">
        <ele>352.65802002</ele>
        <time>2014-08-13T12:59:50.916Z</time>
      </trkpt>
      <trkpt lat="48.4268" lon="-3.82716">
        <ele>353.159210205</ele>
        <time>2014-08-13T12:59:53.918Z</time>
      </trkpt>
      <trkpt lat="48.42683" lon="-3.82716">
        <ele>353.297912598</ele>
        <time>2014-08-13T12:59:54.913Z</time>
      </trkpt>
      <trkpt lat="48.42691" lon="-3.82713">
        <ele>353.646362305</ele>
        <time>2014-08-13T12:59:57.922Z</time>
      </trkpt>
      <trkpt lat="48.42694" lon="-3.82712">
        <ele>353.757385254</ele>
        <time>2014-08-13T12:59:58.916Z</time>
      </trkpt>
      <trkpt lat="48.42703" lon="-3.82711">
        <ele>354.232788086</ele>
        <time>2014-08-13T13:00:01.923Z</time>
      </trkpt>
      <trkpt lat="48.42705" lon="-3.82711">
        <ele>354.4815979</ele>
        <time>2014-08-13T13:00:02.914Z</time>
      </trkpt>
      <trkpt lat="48.42714" lon="-3.82708">
        <ele>355.203125</ele>
        <time>2014-08-13T13:00:05.925Z</time>
      </trkpt>
      <trkpt lat="48.42716" lon="-3.82708">
        <ele>355.517272949</ele>
        <time>2014-08-13T13:00:06.918Z</time>
      </trkpt>
      <trkpt lat="48.42725" lon="-3.82707">
        <ele>356.594116211</ele>
        <time>2014-08-13T13:00:10.92Z</time>
      </trkpt>
      <trkpt lat="48.42727" lon="-3.82707">
        <ele>356.831329346</ele>
        <time>2014-08-13T13:00:11.924Z</time>
      </trkpt>
      <trkpt lat="48.42735" lon="-3.82706">
        <ele>357.411529541</ele>
        <time>2014-08-13T13:00:14.929Z</time>
      </trkpt>
      <trkpt lat="48.42738" lon="-3.82706">
        <ele>357.588745117</ele>
        <time>2014-08-13T13:00:15.924Z</time>
      </trkpt>
      <trkpt lat="48.42746" lon="-3.82703">
        <ele>358.182647705</ele>
        <time>2014-08-13T13:00:18.929Z</time>
      </trkpt>
      <trkpt lat="48.42749" lon="-3.82702">
        <ele>358.389221191</ele>
        <time>2014-08-13T13:00:19.921Z</time>
      </trkpt>
      <trkpt lat="48.42756" lon="-3.82702">
        <ele>358.89755249</ele>
        <time>2014-08-13T13:00:21.924Z</time>
      </trkpt>
      <trkpt lat="48.42759" lon="-3.82703">
        <ele>359.118896484</ele>
        <time>2014-08-13T13:00:22.951Z</time>
      </trkpt>
      <trkpt lat="48.42765" lon="-3.82703">
        <ele>359.68862915</ele>
        <time>2014-08-13T13:00:24.922Z</time>
      </trkpt>
      <trkpt lat="48.42768" lon="-3.82703">
        <ele>359.937072754</ele>
        <time>2014-08-13T13:00:25.943Z</time>
      </trkpt>
      <trkpt lat="48.42776" lon="-3.82705">
        <ele>360.526092529</ele>
        <time>2014-08-13T13:00:28.919Z</time>
      </trkpt>
      <trkpt lat="48.42778" lon="-3.82706">
        <ele>360.695739746</ele>
        <time>2014-08-13T13:00:29.926Z</time>
      </trkpt>
      <trkpt lat="48.42785" lon="-3.82708">
        <ele>361.056732178</ele>
        <time>2014-08-13T13:00:32.917Z</time>
      </trkpt>
      <trkpt lat="48.42787" lon="-3.82709">
        <ele>361.156188965</ele>
        <time>2014-08-13T13:00:33.916Z</time>
      </trkpt>
      <trkpt lat="48.42794" lon="-3.82711">
        <ele>361.535858154</ele>
        <time>2014-08-13T13:00:36.916Z</time>
      </trkpt>
      <trkpt lat="48.42797" lon="-3.82712">
        <ele>361.628570557</ele>
        <time>2014-08-13T13:00:37.92Z</time>
      </trkpt>
      <trkpt lat="48.42804" lon="-3.82714">
        <ele>361.817230225</ele>
        <time>2014-08-13T13:00:40.919Z</time>
      </trkpt>
      <trkpt lat="48.42807" lon="-3.82714">
        <ele>361.874969482</ele>
        <time>2014-08-13T13:00:41.917Z</time>
      </trkpt>
      <trkpt lat="48.42814" lon="-3.82716">
        <ele>361.89364624</ele>
        <time>2014-08-13T13:00:44.918Z</time>
      </trkpt>
      <trkpt lat="48.42817" lon="-3.82717">
        <ele>361.979431152</ele>
        <time>2014-08-13T13:00:45.918Z</time>
      </trkpt>
      <trkpt lat="48.42826" lon="-3.8272">
        <ele>362.071685791</ele>
        <time>2014-08-13T13:00:48.928Z</time>
      </trkpt>
      <trkpt lat="48.42829" lon="-3.82721">
        <ele>362.192321777</ele>
        <time>2014-08-13T13:00:49.933Z</time>
      </trkpt>
      <trkpt lat="48.42837" lon="-3.82726">
        <ele>362.536529541</ele>
        <time>2014-08-13T13:00:52.914Z</time>
      </trkpt>
      <trkpt lat="48.4284" lon="-3.82728">
        <ele>362.527069092</ele>
        <time>2014-08-13T13:00:53.916Z</time>
      </trkpt>
      <trkpt lat="48.42847" lon="-3.8273">
        <ele>362.554168701</ele>
        <time>2014-08-13T13:00:55.916Z</time>
      </trkpt>
      <trkpt lat="48.4285" lon="-3.82731">
        <ele>362.660186768</ele>
        <time>2014-08-13T13:00:56.914Z</time>
      </trkpt>
      <trkpt lat="48.42857" lon="-3.82733">
        <ele>362.675170898</ele>
        <time>2014-08-13T13:00:58.917Z</time>
      </trkpt>
      <trkpt lat="48.4286" lon="-3.82734">
        <ele>362.727600098</ele>
        <time>2014-08-13T13:00:59.917Z</time>
      </trkpt>
      <trkpt lat="48.42869" lon="-3.82737">
        <ele>362.522338867</ele>
        <time>2014-08-13T13:01:01.919Z</time>
      </trkpt>
      <trkpt lat="48.42873" lon="-3.82738">
        <ele>363.23135376</ele>
        <time>2014-08-13T13:01:02.919Z</time>
      </trkpt>
      <trkpt lat="48.42878" lon="-3.82739">
        <ele>363.620941162</ele>
        <time>2014-08-13T13:01:03.925Z</time>
      </trkpt>
      <trkpt lat="48.42882" lon="-3.8274">
        <ele>364.288604736</ele>
        <time>2014-08-13T13:01:04.922Z</time>
      </trkpt>
      <trkpt lat="48.42887" lon="-3.82741">
        <ele>364.754638672</ele>
        <time>2014-08-13T13:01:05.916Z</time>
      </trkpt>
      <trkpt lat="48.42892" lon="-3.82743">
        <ele>364.338928223</ele>
        <time>2014-08-13T13:01:06.925Z</time>
      </trkpt>
      <trkpt lat="48.42897" lon="-3.82746">
        <ele>364.521575928</ele>
        <time>2014-08-13T13:01:07.925Z</time>
      </trkpt>
      <trkpt lat="48.42902" lon="-3.82749">
        <ele>364.59588623</ele>
        <time>2014-08-13T13:01:08.923Z</time>
      </trkpt>
      <trkpt lat="48.42906" lon="-3.82752">
        <ele>364.833526611</ele>
        <time>2014-08-13T13:01:09.923Z</time>
      </trkpt>
      <trkpt lat="48.42911" lon="-3.82755">
        <ele>364.105255127</ele>
        <time>2014-08-13T13:01:10.922Z</time>
      </trkpt>
      <trkpt lat="48.42915" lon="-3.82758">
        <ele>364.021942139</ele>
        <time>2014-08-13T13:01:11.928Z</time>
      </trkpt>
      <trkpt lat="48.4292" lon="-3.82763">
        <ele>363.600524902</ele>
        <time>2014-08-13T13:01:12.926Z</time>
      </trkpt>
      <trkpt lat="48.42925" lon="-3.82767">
        <ele>362.822387695</ele>
        <time>2014-08-13T13:01:13.925Z</time>
      </trkpt>
      <trkpt lat="48.42931" lon="-3.8277">
        <ele>361.269287109</ele>
        <time>2014-08-13T13:01:14.927Z</time>
      </trkpt>
      <trkpt lat="48.42936" lon="-3.82774">
        <ele>360.173919678</ele>
        <time>2014-08-13T13:01:15.954Z</time>
      </trkpt>
      <trkpt lat="48.42942" lon="-3.82778">
        <ele>358.734863281</ele>
        <time>2014-08-13T13:01:16.921Z</time>
      </trkpt>
      <trkpt lat="48.42947" lon="-3.82782">
        <ele>356.822692871</ele>
        <time>2014-08-13T13:01:17.962Z</time>
      </trkpt>
      <trkpt lat="48.42953" lon="-3.82786">
        <ele>356.040344238</ele>
        <time>2014-08-13T13:01:18.93Z</time>
      </trkpt>
      <trkpt lat="48.42957" lon="-3.82789">
        <ele>355.373779297</ele>
        <time>2014-08-13T13:01:19.933Z</time>
      </trkpt>
      <trkpt lat="48.42963" lon="-3.82793">
        <ele>355.08605957</ele>
        <time>2014-08-13T13:01:20.923Z</time>
      </trkpt>
      <trkpt lat="48.42968" lon="-3.82796">
        <ele>355.449645996</ele>
        <time>2014-08-13T13:01:21.921Z</time>
      </trkpt>
      <trkpt lat="48.42973" lon="-3.82799">
        <ele>356.203491211</ele>
        <time>2014-08-13T13:01:22.927Z</time>
      </trkpt>
      <trkpt lat="48.42977" lon="-3.82802">
        <ele>356.468261719</ele>
        <time>2014-08-13T13:01:23.923Z</time>
      </trkpt>
      <trkpt lat="48.42982" lon="-3.82804">
        <ele>357.022369385</ele>
        <time>2014-08-13T13:01:24.929Z</time>
      </trkpt>
      <trkpt lat="48.42987" lon="-3.82806">
        <ele>356.498535156</ele>
        <time>2014-08-13T13:01:25.924Z</time>
      </trkpt>
      <trkpt lat="48.42992" lon="-3.82808">
        <ele>355.357818604</ele>
        <time>2014-08-13T13:01:26.925Z</time>
      </trkpt>
      <trkpt lat="48.42997" lon="-3.8281">
        <ele>354.438415527</ele>
        <time>2014-08-13T13:01:27.919Z</time>
      </trkpt>
      <trkpt lat="48.43002" lon="-3.82812">
        <ele>353.715087891</ele>
        <time>2014-08-13T13:01:28.923Z</time>
      </trkpt>
      <trkpt lat="48.43007" lon="-3.82814">
        <ele>353.543426514</ele>
        <time>2014-08-13T13:01:29.934Z</time>
      </trkpt>
      <trkpt lat="48.43011" lon="-3.82816">
        <ele>353.562408447</ele>
        <time>2014-08-13T13:01:30.928Z</time>
      </trkpt>
      <trkpt lat="48.43015" lon="-3.82817">
        <ele>353.647796631</ele>
        <time>2014-08-13T13:01:31.917Z</time>
      </trkpt>
      <trkpt lat="48.4302" lon="-3.82818">
        <ele>353.830200195</ele>
        <time>2014-08-13T13:01:32.928Z</time>
      </trkpt>
      <trkpt lat="48.43028" lon="-3.82819">
        <ele>354.139404297</ele>
        <time>2014-08-13T13:01:34.94Z</time>
      </trkpt>
      <trkpt lat="48.43032" lon="-3.82819">
        <ele>353.680358887</ele>
        <time>2014-08-13T13:01:35.926Z</time>
      </trkpt>
      <trkpt lat="48.43038" lon="-3.8282">
        <ele>353.563781738</ele>
        <time>2014-08-13T13:01:36.927Z</time>
      </trkpt>
      <trkpt lat="48.43043" lon="-3.8282">
        <ele>352.711730957</ele>
        <time>2014-08-13T13:01:37.925Z</time>
      </trkpt>
      <trkpt lat="48.43048" lon="-3.82821">
        <ele>352.095092773</ele>
        <time>2014-08-13T13:01:38.965Z</time>
      </trkpt>
      <trkpt lat="48.43054" lon="-3.82821">
        <ele>351.58404541</ele>
        <time>2014-08-13T13:01:39.924Z</time>
      </trkpt>
      <trkpt lat="48.4306" lon="-3.82822">
        <ele>350.596893311</ele>
        <time>2014-08-13T13:01:40.927Z</time>
      </trkpt>
      <trkpt lat="48.43066" lon="-3.82822">
        <ele>349.381774902</ele>
        <time>2014-08-13T13:01:41.923Z</time>
      </trkpt>
      <trkpt lat="48.43073" lon="-3.82827">
        <ele>348.349212646</ele>
        <time>2014-08-13T13:01:43.919Z</time>
      </trkpt>
      <trkpt lat="48.43078" lon="-3.8283">
        <ele>347.955078125</ele>
        <time>2014-08-13T13:01:44.925Z</time>
      </trkpt>
      <trkpt lat="48.43086" lon="-3.82834">
        <ele>348.063232422</ele>
        <time>2014-08-13T13:01:46.93Z</time>
      </trkpt>
      <trkpt lat="48.43088" lon="-3.82835">
        <ele>348.128173828</ele>
        <time>2014-08-13T13:01:47.92Z</time>
      </trkpt>
      <trkpt lat="48.43096" lon="-3.82839">
        <ele>348.054992676</ele>
        <time>2014-08-13T13:01:51.917Z</time>
      </trkpt>
      <trkpt lat="48.43097" lon="-3.8284">
        <ele>347.963806152</ele>
        <time>2014-08-13T13:01:52.924Z</time>
      </trkpt>
      <trkpt lat="48.43095" lon="-3.82849">
        <ele>347.476715088</ele>
        <time>2014-08-13T13:01:57.919Z</time>
      </trkpt>
      <trkpt lat="48.43095" lon="-3.82853">
        <ele>347.401489258</ele>
        <time>2014-08-13T13:01:58.918Z</time>
      </trkpt>
      <trkpt lat="48.4309" lon="-3.82864">
        <ele>347.14453125</ele>
        <time>2014-08-13T13:02:02.918Z</time>
      </trkpt>
      <trkpt lat="48.43089" lon="-3.82867">
        <ele>347.132232666</ele>
        <time>2014-08-13T13:02:03.918Z</time>
      </trkpt>
      <trkpt lat="48.43085" lon="-3.82877">
        <ele>347.307006836</ele>
        <time>2014-08-13T13:02:07.91Z</time>
      </trkpt>
      <trkpt lat="48.43084" lon="-3.82879">
        <ele>347.396209717</ele>
        <time>2014-08-13T13:02:08.921Z</time>
      </trkpt>
      <trkpt lat="48.43081" lon="-3.82888">
        <ele>347.535858154</ele>
        <time>2014-08-13T13:02:12.919Z</time>
      </trkpt>
      <trkpt lat="48.4308" lon="-3.82891">
        <ele>347.63192749</ele>
        <time>2014-08-13T13:02:13.919Z</time>
      </trkpt>
      <trkpt lat="48.43077" lon="-3.82902">
        <ele>347.934448242</ele>
        <time>2014-08-13T13:02:18.965Z</time>
      </trkpt>
      <trkpt lat="48.43077" lon="-3.82906">
        <ele>348.033905029</ele>
        <time>2014-08-13T13:02:19.928Z</time>
      </trkpt>
      <trkpt lat="48.43077" lon="-3.82918">
        <ele>348.133483887</ele>
        <time>2014-08-13T13:02:23.923Z</time>
      </trkpt>
      <trkpt lat="48.43077" lon="-3.8292">
        <ele>348.114715576</ele>
        <time>2014-08-13T13:02:24.919Z</time>
      </trkpt>
      <trkpt lat="48.43081" lon="-3.82932">
        <ele>348.295501709</ele>
        <time>2014-08-13T13:02:29.926Z</time>
      </trkpt>
      <trkpt lat="48.43082" lon="-3.82934">
        <ele>348.271911621</ele>
        <time>2014-08-13T13:02:30.92Z</time>
      </trkpt>
      <trkpt lat="48.43083" lon="-3.82947">
        <ele>348.49911499</ele>
        <time>2014-08-13T13:02:35.933Z</time>
      </trkpt>
      <trkpt lat="48.43083" lon="-3.8295">
        <ele>348.629577637</ele>
        <time>2014-08-13T13:02:36.922Z</time>
      </trkpt>
      <trkpt lat="48.43083" lon="-3.82962">
        <ele>349.284423828</ele>
        <time>2014-08-13T13:02:42.952Z</time>
      </trkpt>
      <trkpt lat="48.43083" lon="-3.82964">
        <ele>349.356689453</ele>
        <time>2014-08-13T13:02:43.92Z</time>
      </trkpt>
      <trkpt lat="48.43082" lon="-3.82977">
        <ele>349.660308838</ele>
        <time>2014-08-13T13:02:49.915Z</time>
      </trkpt>
      <trkpt lat="48.43081" lon="-3.82979">
        <ele>349.691497803</ele>
        <time>2014-08-13T13:02:50.915Z</time>
      </trkpt>
      <trkpt lat="48.43079" lon="-3.8299">
        <ele>350.026092529</ele>
        <time>2014-08-13T13:02:54.917Z</time>
      </trkpt>
      <trkpt lat="48.43078" lon="-3.82993">
        <ele>350.127838135</ele>
        <time>2014-08-13T13:02:55.913Z</time>
      </trkpt>
      <trkpt lat="48.43076" lon="-3.83003">
        <ele>350.382080078</ele>
        <time>2014-08-13T13:02:59.943Z</time>
      </trkpt>
      <trkpt lat="48.43075" lon="-3.83005">
        <ele>350.437011719</ele>
        <time>2014-08-13T13:03:00.923Z</time>
      </trkpt>
      <trkpt lat="48.43073" lon="-3.83018">
        <ele>351.256408691</ele>
        <time>2014-08-13T13:03:06.924Z</time>
      </trkpt>
      <trkpt lat="48.43072" lon="-3.83022">
        <ele>351.339172363</ele>
        <time>2014-08-13T13:03:07.923Z</time>
      </trkpt>
      <trkpt lat="48.4307" lon="-3.83034">
        <ele>351.781768799</ele>
        <time>2014-08-13T13:03:12.933Z</time>
      </trkpt>
      <trkpt lat="48.4307" lon="-3.83037">
        <ele>351.878936768</ele>
        <time>2014-08-13T13:03:13.944Z</time>
      </trkpt>
      <trkpt lat="48.43068" lon="-3.8305">
        <ele>352.496520996</ele>
        <time>2014-08-13T13:03:19.924Z</time>
      </trkpt>
      <trkpt lat="48.43067" lon="-3.83051">
        <ele>352.610321045</ele>
        <time>2014-08-13T13:03:20.924Z</time>
      </trkpt>
      <trkpt lat="48.43066" lon="-3.83063">
        <ele>353.236907959</ele>
        <time>2014-08-13T13:03:25.926Z</time>
      </trkpt>
      <trkpt lat="48.43066" lon="-3.83066">
        <ele>353.349182129</ele>
        <time>2014-08-13T13:03:26.927Z</time>
      </trkpt>
      <trkpt lat="48.43066" lon="-3.83078">
        <ele>353.878112793</ele>
        <time>2014-08-13T13:03:30.931Z</time>
      </trkpt>
      <trkpt lat="48.43066" lon="-3.83081">
        <ele>353.972351074</ele>
        <time>2014-08-13T13:03:31.923Z</time>
      </trkpt>
      <trkpt lat="48.43066" lon="-3.83093">
        <ele>354.702392578</ele>
        <time>2014-08-13T13:03:36.92Z</time>
      </trkpt>
      <trkpt lat="48.43066" lon="-3.83095">
        <ele>354.900482178</ele>
        <time>2014-08-13T13:03:37.917Z</time>
      </trkpt>
      <trkpt lat="48.43069" lon="-3.83106">
        <ele>355.802124023</ele>
        <time>2014-08-13T13:03:42.196Z</time>
      </trkpt>
      <trkpt lat="48.43069" lon="-3.83107">
        <ele>356.005187988</ele>
        <time>2014-08-13T13:03:43.186Z</time>
      </trkpt>
      <trkpt lat="48.43071" lon="-3.83119">
        <ele>356.958862305</ele>
        <time>2014-08-13T13:03:48.257Z</time>
      </trkpt>
      <trkpt lat="48.43071" lon="-3.83121">
        <ele>357.16305542</ele>
        <time>2014-08-13T13:03:49.199Z</time>
      </trkpt>
      <trkpt lat="48.4307" lon="-3.83134">
        <ele>358.123931885</ele>
        <time>2014-08-13T13:03:54.184Z</time>
      </trkpt>
      <trkpt lat="48.4307" lon="-3.83136">
        <ele>358.35369873</ele>
        <time>2014-08-13T13:03:55.188Z</time>
      </trkpt>
      <trkpt lat="48.43069" lon="-3.83148">
        <ele>359.183959961</ele>
        <time>2014-08-13T13:04:01.195Z</time>
      </trkpt>
      <trkpt lat="48.43069" lon="-3.8315">
        <ele>359.285858154</ele>
        <time>2014-08-13T13:04:02.199Z</time>
      </trkpt>
      <trkpt lat="48.43068" lon="-3.83161">
        <ele>360.032012939</ele>
        <time>2014-08-13T13:04:07.193Z</time>
      </trkpt>
      <trkpt lat="48.43068" lon="-3.83163">
        <ele>360.233673096</ele>
        <time>2014-08-13T13:04:08.195Z</time>
      </trkpt>
      <trkpt lat="48.43066" lon="-3.83174">
        <ele>360.846008301</ele>
        <time>2014-08-13T13:04:12.184Z</time>
      </trkpt>
      <trkpt lat="48.43066" lon="-3.83177">
        <ele>360.965362549</ele>
        <time>2014-08-13T13:04:13.205Z</time>
      </trkpt>
      <trkpt lat="48.43065" lon="-3.83188">
        <ele>361.220031738</ele>
        <time>2014-08-13T13:04:17.192Z</time>
      </trkpt>
      <trkpt lat="48.43065" lon="-3.83191">
        <ele>361.331726074</ele>
        <time>2014-08-13T13:04:18.203Z</time>
      </trkpt>
      <trkpt lat="48.43063" lon="-3.83204">
        <ele>361.930358887</ele>
        <time>2014-08-13T13:04:22.19Z</time>
      </trkpt>
      <trkpt lat="48.43062" lon="-3.83207">
        <ele>362.096496582</ele>
        <time>2014-08-13T13:04:23.195Z</time>
      </trkpt>
      <trkpt lat="48.43058" lon="-3.83218">
        <ele>362.317749023</ele>
        <time>2014-08-13T13:04:27.196Z</time>
      </trkpt>
      <trkpt lat="48.43057" lon="-3.8322">
        <ele>362.35144043</ele>
        <time>2014-08-13T13:04:28.183Z</time>
      </trkpt>
      <trkpt lat="48.43057" lon="-3.83231">
        <ele>362.463867188</ele>
        <time>2014-08-13T13:04:32.19Z</time>
      </trkpt>
      <trkpt lat="48.43058" lon="-3.83235">
        <ele>362.559783936</ele>
        <time>2014-08-13T13:04:33.17Z</time>
      </trkpt>
      <trkpt lat="48.4306" lon="-3.83245">
        <ele>362.817779541</ele>
        <time>2014-08-13T13:04:37.195Z</time>
      </trkpt>
      <trkpt lat="48.43061" lon="-3.83248">
        <ele>362.90512085</ele>
        <time>2014-08-13T13:04:38.189Z</time>
      </trkpt>
      <trkpt lat="48.43059" lon="-3.8326">
        <ele>363.412872314</ele>
        <time>2014-08-13T13:04:42.186Z</time>
      </trkpt>
      <trkpt lat="48.43057" lon="-3.83263">
        <ele>363.505126953</ele>
        <time>2014-08-13T13:04:43.189Z</time>
      </trkpt>
      <trkpt lat="48.43051" lon="-3.83271">
        <ele>363.922210693</ele>
        <time>2014-08-13T13:04:47.195Z</time>
      </trkpt>
      <trkpt lat="48.43049" lon="-3.83272">
        <ele>364.025604248</ele>
        <time>2014-08-13T13:04:48.189Z</time>
      </trkpt>
      <trkpt lat="48.43042" lon="-3.83277">
        <ele>364.463806152</ele>
        <time>2014-08-13T13:04:52.192Z</time>
      </trkpt>
      <trkpt lat="48.4304" lon="-3.83278">
        <ele>364.542175293</ele>
        <time>2014-08-13T13:04:53.191Z</time>
      </trkpt>
      <trkpt lat="48.43031" lon="-3.83282">
        <ele>364.815307617</ele>
        <time>2014-08-13T13:04:57.203Z</time>
      </trkpt>
      <trkpt lat="48.43029" lon="-3.83283">
        <ele>364.924835205</ele>
        <time>2014-08-13T13:04:58.199Z</time>
      </trkpt>
      <trkpt lat="48.43022" lon="-3.8329">
        <ele>365.542114258</ele>
        <time>2014-08-13T13:05:02.2Z</time>
      </trkpt>
      <trkpt lat="48.4302" lon="-3.83292">
        <ele>365.648834229</ele>
        <time>2014-08-13T13:05:03.204Z</time>
      </trkpt>
      <trkpt lat="48.43015" lon="-3.833">
        <ele>366.052337646</ele>
        <time>2014-08-13T13:05:07.196Z</time>
      </trkpt>
      <trkpt lat="48.43014" lon="-3.83303">
        <ele>366.165252686</ele>
        <time>2014-08-13T13:05:08.197Z</time>
      </trkpt>
      <trkpt lat="48.43011" lon="-3.83314">
        <ele>366.607208252</ele>
        <time>2014-08-13T13:05:12.201Z</time>
      </trkpt>
      <trkpt lat="48.43011" lon="-3.83318">
        <ele>366.729156494</ele>
        <time>2014-08-13T13:05:13.264Z</time>
      </trkpt>
      <trkpt lat="48.4301" lon="-3.83329">
        <ele>367.165527344</ele>
        <time>2014-08-13T13:05:16.193Z</time>
      </trkpt>
      <trkpt lat="48.4301" lon="-3.83333">
        <ele>367.317626953</ele>
        <time>2014-08-13T13:05:17.197Z</time>
      </trkpt>
      <trkpt lat="48.43008" lon="-3.83344">
        <ele>367.940460205</ele>
        <time>2014-08-13T13:05:21.203Z</time>
      </trkpt>
      <trkpt lat="48.43008" lon="-3.83347">
        <ele>368.109069824</ele>
        <time>2014-08-13T13:05:22.2Z</time>
      </trkpt>
      <trkpt lat="48.43005" lon="-3.83358">
        <ele>368.850738525</ele>
        <time>2014-08-13T13:05:26.189Z</time>
      </trkpt>
      <trkpt lat="48.43004" lon="-3.83361">
        <ele>369.002044678</ele>
        <time>2014-08-13T13:05:27.193Z</time>
      </trkpt>
      <trkpt lat="48.43" lon="-3.83372">
        <ele>369.493865967</ele>
        <time>2014-08-13T13:05:31.196Z</time>
      </trkpt>
      <trkpt lat="48.43" lon="-3.83374">
        <ele>369.578979492</ele>
        <time>2014-08-13T13:05:32.189Z</time>
      </trkpt>
      <trkpt lat="48.42997" lon="-3.83384">
        <ele>370.172851562</ele>
        <time>2014-08-13T13:05:36.2Z</time>
      </trkpt>
      <trkpt lat="48.42996" lon="-3.83386">
        <ele>370.401367188</ele>
        <time>2014-08-13T13:05:37.203Z</time>
      </trkpt>
      <trkpt lat="48.42994" lon="-3.83396">
        <ele>370.736206055</ele>
        <time>2014-08-13T13:05:40.202Z</time>
      </trkpt>
      <trkpt lat="48.42994" lon="-3.834">
        <ele>370.768951416</ele>
        <time>2014-08-13T13:05:41.206Z</time>
      </trkpt>
      <trkpt lat="48.42991" lon="-3.83411">
        <ele>371.059112549</ele>
        <time>2014-08-13T13:05:45.199Z</time>
      </trkpt>
      <trkpt lat="48.42991" lon="-3.83414">
        <ele>371.126037598</ele>
        <time>2014-08-13T13:05:46.22Z</time>
      </trkpt>
      <trkpt lat="48.42991" lon="-3.83425">
        <ele>371.547271729</ele>
        <time>2014-08-13T13:05:50.219Z</time>
      </trkpt>
      <trkpt lat="48.42991" lon="-3.83428">
        <ele>371.612213135</ele>
        <time>2014-08-13T13:05:51.194Z</time>
      </trkpt>
      <trkpt lat="48.42994" lon="-3.8344">
        <ele>372.163299561</ele>
        <time>2014-08-13T13:05:56.2Z</time>
      </trkpt>
      <trkpt lat="48.42995" lon="-3.83442">
        <ele>372.30255127</ele>
        <time>2014-08-13T13:05:57.195Z</time>
      </trkpt>
      <trkpt lat="48.42996" lon="-3.83455">
        <ele>372.710968018</ele>
        <time>2014-08-13T13:06:01.186Z</time>
      </trkpt>
      <trkpt lat="48.42996" lon="-3.83458">
        <ele>372.868774414</ele>
        <time>2014-08-13T13:06:02.191Z</time>
      </trkpt>
      <trkpt lat="48.42994" lon="-3.83471">
        <ele>373.530487061</ele>
        <time>2014-08-13T13:06:07.183Z</time>
      </trkpt>
      <trkpt lat="48.42994" lon="-3.83473">
        <ele>373.622894287</ele>
        <time>2014-08-13T13:06:08.196Z</time>
      </trkpt>
      <trkpt lat="48.4299" lon="-3.83484">
        <ele>374.014099121</ele>
        <time>2014-08-13T13:06:12.193Z</time>
      </trkpt>
      <trkpt lat="48.42989" lon="-3.83488">
        <ele>374.157806396</ele>
        <time>2014-08-13T13:06:13.194Z</time>
      </trkpt>
      <trkpt lat="48.42984" lon="-3.83498">
        <ele>374.666259766</ele>
        <time>2014-08-13T13:06:16.203Z</time>
      </trkpt>
      <trkpt lat="48.42983" lon="-3.83501">
        <ele>374.81741333</ele>
        <time>2014-08-13T13:06:17.193Z</time>
      </trkpt>
      <trkpt lat="48.42979" lon="-3.83511">
        <ele>375.378631592</ele>
        <time>2014-08-13T13:06:21.193Z</time>
      </trkpt>
      <trkpt lat="48.42977" lon="-3.83514">
        <ele>375.555938721</ele>
        <time>2014-08-13T13:06:22.201Z</time>
      </trkpt>
      <trkpt lat="48.42972" lon="-3.83524">
        <ele>376.122955322</ele>
        <time>2014-08-13T13:06:26.193Z</time>
      </trkpt>
      <trkpt lat="48.42971" lon="-3.83526">
        <ele>376.240570068</ele>
        <time>2014-08-13T13:06:27.21Z</time>
      </trkpt>
      <trkpt lat="48.42964" lon="-3.83532">
        <ele>376.738800049</ele>
        <time>2014-08-13T13:06:31.203Z</time>
      </trkpt>
      <trkpt lat="48.42963" lon="-3.83534">
        <ele>376.895904541</ele>
        <time>2014-08-13T13:06:32.191Z</time>
      </trkpt>
      <trkpt lat="48.42956" lon="-3.83542">
        <ele>377.346740723</ele>
        <time>2014-08-13T13:06:35.195Z</time>
      </trkpt>
      <trkpt lat="48.42953" lon="-3.83545">
        <ele>377.560913086</ele>
        <time>2014-08-13T13:06:36.2Z</time>
      </trkpt>
      <trkpt lat="48.42947" lon="-3.83553">
        <ele>378.23236084</ele>
        <time>2014-08-13T13:06:39.2Z</time>
      </trkpt>
      <trkpt lat="48.42945" lon="-3.83555">
        <ele>378.437103271</ele>
        <time>2014-08-13T13:06:40.2Z</time>
      </trkpt>
      <trkpt lat="48.4294" lon="-3.83563">
        <ele>378.89175415</ele>
        <time>2014-08-13T13:06:43.194Z</time>
      </trkpt>
      <trkpt lat="48.42939" lon="-3.83566">
        <ele>379.068572998</ele>
        <time>2014-08-13T13:06:44.197Z</time>
      </trkpt>
      <trkpt lat="48.42934" lon="-3.83576">
        <ele>379.825164795</ele>
        <time>2014-08-13T13:06:48.197Z</time>
      </trkpt>
      <trkpt lat="48.42933" lon="-3.83579">
        <ele>379.906280518</ele>
        <time>2014-08-13T13:06:49.217Z</time>
      </trkpt>
      <trkpt lat="48.42929" lon="-3.83588">
        <ele>380.195709229</ele>
        <time>2014-08-13T13:06:52.202Z</time>
      </trkpt>
      <trkpt lat="48.42927" lon="-3.83591">
        <ele>380.280395508</ele>
        <time>2014-08-13T13:06:53.193Z</time>
      </trkpt>
      <trkpt lat="48.42921" lon="-3.83598">
        <ele>380.760559082</ele>
        <time>2014-08-13T13:06:56.198Z</time>
      </trkpt>
      <trkpt lat="48.42919" lon="-3.836">
        <ele>380.890350342</ele>
        <time>2014-08-13T13:06:57.196Z</time>
      </trkpt>
      <trkpt lat="48.42911" lon="-3.83606">
        <ele>381.230957031</ele>
        <time>2014-08-13T13:07:00.213Z</time>
      </trkpt>
      <trkpt lat="48.42909" lon="-3.8361">
        <ele>381.341644287</ele>
        <time>2014-08-13T13:07:01.194Z</time>
      </trkpt>
      <trkpt lat="48.42902" lon="-3.83618">
        <ele>381.701049805</ele>
        <time>2014-08-13T13:07:04.193Z</time>
      </trkpt>
      <trkpt lat="48.429" lon="-3.83622">
        <ele>381.772491455</ele>
        <time>2014-08-13T13:07:05.189Z</time>
      </trkpt>
      <trkpt lat="48.42892" lon="-3.83626">
        <ele>382.137878418</ele>
        <time>2014-08-13T13:07:08.199Z</time>
      </trkpt>
      <trkpt lat="48.42889" lon="-3.83625">
        <ele>382.269348145</ele>
        <time>2014-08-13T13:07:09.195Z</time>
      </trkpt>
      <trkpt lat="48.42882" lon="-3.83624">
        <ele>382.655670166</ele>
        <time>2014-08-13T13:07:11.194Z</time>
      </trkpt>
      <trkpt lat="48.42879" lon="-3.83624">
        <ele>382.826568604</ele>
        <time>2014-08-13T13:07:12.197Z</time>
      </trkpt>
      <trkpt lat="48.42873" lon="-3.83623">
        <ele>383.105804443</ele>
        <time>2014-08-13T13:07:14.205Z</time>
      </trkpt>
      <trkpt lat="48.42869" lon="-3.83623">
        <ele>383.284057617</ele>
        <time>2014-08-13T13:07:15.194Z</time>
      </trkpt>
      <trkpt lat="48.42862" lon="-3.83623">
        <ele>383.542541504</ele>
        <time>2014-08-13T13:07:17.193Z</time>
      </trkpt>
      <trkpt lat="48.42858" lon="-3.83624">
        <ele>383.668121338</ele>
        <time>2014-08-13T13:07:18.201Z</time>
      </trkpt>
      <trkpt lat="48.42851" lon="-3.83624">
        <ele>383.83303833</ele>
        <time>2014-08-13T13:07:20.194Z</time>
      </trkpt>
      <trkpt lat="48.42847" lon="-3.83623">
        <ele>383.900909424</ele>
        <time>2014-08-13T13:07:21.218Z</time>
      </trkpt>
      <trkpt lat="48.42841" lon="-3.83622">
        <ele>384.01953125</ele>
        <time>2014-08-13T13:07:23.199Z</time>
      </trkpt>
      <trkpt lat="48.42837" lon="-3.83621">
        <ele>384.129577637</ele>
        <time>2014-08-13T13:07:24.223Z</time>
      </trkpt>
      <trkpt lat="48.4283" lon="-3.83618">
        <ele>384.360015869</ele>
        <time>2014-08-13T13:07:26.199Z</time>
      </trkpt>
      <trkpt lat="48.42827" lon="-3.83616">
        <ele>384.484405518</ele>
        <time>2014-08-13T13:07:27.202Z</time>
      </trkpt>
      <trkpt lat="48.4282" lon="-3.83614">
        <ele>384.745452881</ele>
        <time>2014-08-13T13:07:29.204Z</time>
      </trkpt>
      <trkpt lat="48.42817" lon="-3.83612">
        <ele>384.850494385</ele>
        <time>2014-08-13T13:07:30.203Z</time>
      </trkpt>
      <trkpt lat="48.42809" lon="-3.8361">
        <ele>384.993835449</ele>
        <time>2014-08-13T13:07:33.199Z</time>
      </trkpt>
      <trkpt lat="48.42807" lon="-3.83611">
        <ele>385.072998047</ele>
        <time>2014-08-13T13:07:34.193Z</time>
      </trkpt>
      <trkpt lat="48.42799" lon="-3.83614">
        <ele>385.030548096</ele>
        <time>2014-08-13T13:07:38.185Z</time>
      </trkpt>
      <trkpt lat="48.42798" lon="-3.83615">
        <ele>384.946502686</ele>
        <time>2014-08-13T13:07:39.195Z</time>
      </trkpt>
      <trkpt lat="48.42791" lon="-3.8362">
        <ele>384.826721191</ele>
        <time>2014-08-13T13:07:42.198Z</time>
      </trkpt>
      <trkpt lat="48.4279" lon="-3.83623">
        <ele>384.845184326</ele>
        <time>2014-08-13T13:07:43.195Z</time>
      </trkpt>
      <trkpt lat="48.42792" lon="-3.83635">
        <ele>384.789764404</ele>
        <time>2014-08-13T13:07:46.195Z</time>
      </trkpt>
      <trkpt lat="48.42792" lon="-3.83639">
        <ele>384.862030029</ele>
        <time>2014-08-13T13:07:47.189Z</time>
      </trkpt>
      <trkpt lat="48.42793" lon="-3.83647">
        <ele>384.987030029</ele>
        <time>2014-08-13T13:07:49.196Z</time>
      </trkpt>
      <trkpt lat="48.42793" lon="-3.83652">
        <ele>384.965484619</ele>
        <time>2014-08-13T13:07:50.199Z</time>
      </trkpt>
      <trkpt lat="48.42792" lon="-3.83662">
        <ele>384.906494141</ele>
        <time>2014-08-13T13:07:52.194Z</time>
      </trkpt>
      <trkpt lat="48.42792" lon="-3.83667">
        <ele>384.89163208</ele>
        <time>2014-08-13T13:07:53.189Z</time>
      </trkpt>
      <trkpt lat="48.42791" lon="-3.8368">
        <ele>384.999328613</ele>
        <time>2014-08-13T13:07:56.185Z</time>
      </trkpt>
      <trkpt lat="48.42791" lon="-3.83683">
        <ele>385.02355957</ele>
        <time>2014-08-13T13:07:57.179Z</time>
      </trkpt>
      <trkpt lat="48.42791" lon="-3.83696">
        <ele>385.059539795</ele>
        <time>2014-08-13T13:08:00.214Z</time>
      </trkpt>
      <trkpt lat="48.42791" lon="-3.837">
        <ele>385.095703125</ele>
        <time>2014-08-13T13:08:01.19Z</time>
      </trkpt>
      <trkpt lat="48.42791" lon="-3.83711">
        <ele>385.327667236</ele>
        <time>2014-08-13T13:08:04.186Z</time>
      </trkpt>
      <trkpt lat="48.4279" lon="-3.83716">
        <ele>385.406860352</ele>
        <time>2014-08-13T13:08:05.191Z</time>
      </trkpt>
      <trkpt lat="48.4279" lon="-3.83727">
        <ele>385.676300049</ele>
        <time>2014-08-13T13:08:08.193Z</time>
      </trkpt>
      <trkpt lat="48.4279" lon="-3.83731">
        <ele>385.692993164</ele>
        <time>2014-08-13T13:08:09.192Z</time>
      </trkpt>
      <trkpt lat="48.4279" lon="-3.83741">
        <ele>385.855438232</ele>
        <time>2014-08-13T13:08:11.184Z</time>
      </trkpt>
      <trkpt lat="48.42789" lon="-3.83745">
        <ele>385.934020996</ele>
        <time>2014-08-13T13:08:12.191Z</time>
      </trkpt>
      <trkpt lat="48.42789" lon="-3.83755">
        <ele>386.357330322</ele>
        <time>2014-08-13T13:08:15.191Z</time>
      </trkpt>
      <trkpt lat="48.42788" lon="-3.83759">
        <ele>386.450500488</ele>
        <time>2014-08-13T13:08:16.185Z</time>
      </trkpt>
      <trkpt lat="48.42787" lon="-3.83769">
        <ele>386.628387451</ele>
        <time>2014-08-13T13:08:18.196Z</time>
      </trkpt>
      <trkpt lat="48.42785" lon="-3.83775">
        <ele>386.678253174</ele>
        <time>2014-08-13T13:08:19.193Z</time>
      </trkpt>
      <trkpt lat="48.42784" lon="-3.83788">
        <ele>386.706787109</ele>
        <time>2014-08-13T13:08:21.196Z</time>
      </trkpt>
      <trkpt lat="48.42783" lon="-3.83793">
        <ele>386.742004395</ele>
        <time>2014-08-13T13:08:22.193Z</time>
      </trkpt>
      <trkpt lat="48.4278" lon="-3.83804">
        <ele>386.856719971</ele>
        <time>2014-08-13T13:08:24.186Z</time>
      </trkpt>
      <trkpt lat="48.42779" lon="-3.8381">
        <ele>386.941131592</ele>
        <time>2014-08-13T13:08:25.185Z</time>
      </trkpt>
      <trkpt lat="48.42777" lon="-3.8382">
        <ele>387.09942627</ele>
        <time>2014-08-13T13:08:27.185Z</time>
      </trkpt>
      <trkpt lat="48.42776" lon="-3.83825">
        <ele>387.206115723</ele>
        <time>2014-08-13T13:08:28.187Z</time>
      </trkpt>
      <trkpt lat="48.42773" lon="-3.83834">
        <ele>387.373931885</ele>
        <time>2014-08-13T13:08:30.182Z</time>
      </trkpt>
      <trkpt lat="48.42771" lon="-3.83839">
        <ele>388.736724854</ele>
        <time>2014-08-13T13:08:31.184Z</time>
      </trkpt>
      <trkpt lat="48.42768" lon="-3.83851">
        <ele>389.913574219</ele>
        <time>2014-08-13T13:08:33.192Z</time>
      </trkpt>
      <trkpt lat="48.42766" lon="-3.83858">
        <ele>390.052642822</ele>
        <time>2014-08-13T13:08:34.192Z</time>
      </trkpt>
      <trkpt lat="48.42764" lon="-3.8387">
        <ele>389.558929443</ele>
        <time>2014-08-13T13:08:36.196Z</time>
      </trkpt>
      <trkpt lat="48.42763" lon="-3.83878">
        <ele>388.572357178</ele>
        <time>2014-08-13T13:08:37.185Z</time>
      </trkpt>
      <trkpt lat="48.42762" lon="-3.83886">
        <ele>387.191589355</ele>
        <time>2014-08-13T13:08:38.21Z</time>
      </trkpt>
      <trkpt lat="48.42762" lon="-3.83892">
        <ele>386.17956543</ele>
        <time>2014-08-13T13:08:39.192Z</time>
      </trkpt>
      <trkpt lat="48.42761" lon="-3.83901">
        <ele>386.528900146</ele>
        <time>2014-08-13T13:08:40.19Z</time>
      </trkpt>
      <trkpt lat="48.4276" lon="-3.83909">
        <ele>386.769104004</ele>
        <time>2014-08-13T13:08:41.185Z</time>
      </trkpt>
      <trkpt lat="48.42759" lon="-3.83917">
        <ele>387.362457275</ele>
        <time>2014-08-13T13:08:42.185Z</time>
      </trkpt>
      <trkpt lat="48.42758" lon="-3.83925">
        <ele>387.119628906</ele>
        <time>2014-08-13T13:08:43.185Z</time>
      </trkpt>
      <trkpt lat="48.42757" lon="-3.83933">
        <ele>386.694702148</ele>
        <time>2014-08-13T13:08:44.189Z</time>
      </trkpt>
      <trkpt lat="48.42757" lon="-3.8394">
        <ele>386.664337158</ele>
        <time>2014-08-13T13:08:45.196Z</time>
      </trkpt>
      <trkpt lat="48.42756" lon="-3.83947">
        <ele>386.484558105</ele>
        <time>2014-08-13T13:08:46.188Z</time>
      </trkpt>
      <trkpt lat="48.42755" lon="-3.83955">
        <ele>386.009460449</ele>
        <time>2014-08-13T13:08:47.217Z</time>
      </trkpt>
      <trkpt lat="48.42754" lon="-3.83962">
        <ele>385.663635254</ele>
        <time>2014-08-13T13:08:48.192Z</time>
      </trkpt>
      <trkpt lat="48.42753" lon="-3.83968">
        <ele>386.266174316</ele>
        <time>2014-08-13T13:08:49.169Z</time>
      </trkpt>
      <trkpt lat="48.42751" lon="-3.8398">
        <ele>386.915740967</ele>
        <time>2014-08-13T13:08:51.195Z</time>
      </trkpt>
      <trkpt lat="48.42749" lon="-3.83986">
        <ele>386.666229248</ele>
        <time>2014-08-13T13:08:52.31Z</time>
      </trkpt>
      <trkpt lat="48.42747" lon="-3.83993">
        <ele>386.348083496</ele>
        <time>2014-08-13T13:08:53.193Z</time>
      </trkpt>
      <trkpt lat="48.42744" lon="-3.83999">
        <ele>385.541442871</ele>
        <time>2014-08-13T13:08:54.176Z</time>
      </trkpt>
      <trkpt lat="48.42742" lon="-3.84006">
        <ele>384.316436768</ele>
        <time>2014-08-13T13:08:55.174Z</time>
      </trkpt>
      <trkpt lat="48.4274" lon="-3.84013">
        <ele>383.123962402</ele>
        <time>2014-08-13T13:08:56.168Z</time>
      </trkpt>
      <trkpt lat="48.42738" lon="-3.84025">
        <ele>382.087310791</ele>
        <time>2014-08-13T13:08:58.49Z</time>
      </trkpt>
      <trkpt lat="48.42736" lon="-3.84033">
        <ele>382.436187744</ele>
        <time>2014-08-13T13:08:59.5Z</time>
      </trkpt>
      <trkpt lat="48.42734" lon="-3.84042">
        <ele>382.130828857</ele>
        <time>2014-08-13T13:09:00.495Z</time>
      </trkpt>
      <trkpt lat="48.42732" lon="-3.84051">
        <ele>382.488616943</ele>
        <time>2014-08-13T13:09:01.495Z</time>
      </trkpt>
      <trkpt lat="48.42731" lon="-3.84059">
        <ele>383.23236084</ele>
        <time>2014-08-13T13:09:02.494Z</time>
      </trkpt>
      <trkpt lat="48.4273" lon="-3.84065">
        <ele>383.597717285</ele>
        <time>2014-08-13T13:09:03.494Z</time>
      </trkpt>
      <trkpt lat="48.42728" lon="-3.84078">
        <ele>383.798797607</ele>
        <time>2014-08-13T13:09:05.501Z</time>
      </trkpt>
      <trkpt lat="48.42726" lon="-3.84085">
        <ele>383.94317627</ele>
        <time>2014-08-13T13:09:06.502Z</time>
      </trkpt>
      <trkpt lat="48.42725" lon="-3.84091">
        <ele>384.00869751</ele>
        <time>2014-08-13T13:09:07.505Z</time>
      </trkpt>
      <trkpt lat="48.42723" lon="-3.84099">
        <ele>383.838378906</ele>
        <time>2014-08-13T13:09:08.495Z</time>
      </trkpt>
      <trkpt lat="48.42722" lon="-3.84107">
        <ele>383.692718506</ele>
        <time>2014-08-13T13:09:09.5Z</time>
      </trkpt>
      <trkpt lat="48.42721" lon="-3.84115">
        <ele>384.093933105</ele>
        <time>2014-08-13T13:09:10.484Z</time>
      </trkpt>
      <trkpt lat="48.42721" lon="-3.84123">
        <ele>383.556640625</ele>
        <time>2014-08-13T13:09:11.495Z</time>
      </trkpt>
      <trkpt lat="48.4272" lon="-3.84131">
        <ele>383.520385742</ele>
        <time>2014-08-13T13:09:12.493Z</time>
      </trkpt>
      <trkpt lat="48.4272" lon="-3.84144">
        <ele>384.029937744</ele>
        <time>2014-08-13T13:09:14.496Z</time>
      </trkpt>
      <trkpt lat="48.4272" lon="-3.84151">
        <ele>384.046600342</ele>
        <time>2014-08-13T13:09:15.501Z</time>
      </trkpt>
      <trkpt lat="48.4272" lon="-3.84159">
        <ele>384.230041504</ele>
        <time>2014-08-13T13:09:16.492Z</time>
      </trkpt>
      <trkpt lat="48.42719" lon="-3.84168">
        <ele>384.259002686</ele>
        <time>2014-08-13T13:09:17.502Z</time>
      </trkpt>
      <trkpt lat="48.42719" lon="-3.84177">
        <ele>384.081726074</ele>
        <time>2014-08-13T13:09:18.494Z</time>
      </trkpt>
      <trkpt lat="48.42719" lon="-3.84185">
        <ele>383.257843018</ele>
        <time>2014-08-13T13:09:19.503Z</time>
      </trkpt>
      <trkpt lat="48.42719" lon="-3.84193">
        <ele>383.180908203</ele>
        <time>2014-08-13T13:09:20.49Z</time>
      </trkpt>
      <trkpt lat="48.42718" lon="-3.842">
        <ele>383.842895508</ele>
        <time>2014-08-13T13:09:21.494Z</time>
      </trkpt>
      <trkpt lat="48.42718" lon="-3.84209">
        <ele>384.139007568</ele>
        <time>2014-08-13T13:09:22.503Z</time>
      </trkpt>
      <trkpt lat="48.42718" lon="-3.84218">
        <ele>383.728668213</ele>
        <time>2014-08-13T13:09:23.504Z</time>
      </trkpt>
      <trkpt lat="48.42718" lon="-3.84226">
        <ele>384.182556152</ele>
        <time>2014-08-13T13:09:24.496Z</time>
      </trkpt>
      <trkpt lat="48.42717" lon="-3.84235">
        <ele>384.411376953</ele>
        <time>2014-08-13T13:09:25.503Z</time>
      </trkpt>
      <trkpt lat="48.42717" lon="-3.84243">
        <ele>383.996063232</ele>
        <time>2014-08-13T13:09:26.493Z</time>
      </trkpt>
      <trkpt lat="48.42716" lon="-3.84252">
        <ele>383.591125488</ele>
        <time>2014-08-13T13:09:27.499Z</time>
      </trkpt>
      <trkpt lat="48.42715" lon="-3.8426">
        <ele>383.254333496</ele>
        <time>2014-08-13T13:09:28.493Z</time>
      </trkpt>
      <trkpt lat="48.42714" lon="-3.84268">
        <ele>382.914398193</ele>
        <time>2014-08-13T13:09:29.505Z</time>
      </trkpt>
      <trkpt lat="48.42712" lon="-3.84276">
        <ele>381.757263184</ele>
        <time>2014-08-13T13:09:30.495Z</time>
      </trkpt>
      <trkpt lat="48.42711" lon="-3.84284">
        <ele>380.949127197</ele>
        <time>2014-08-13T13:09:31.491Z</time>
      </trkpt>
      <trkpt lat="48.4271" lon="-3.84292">
        <ele>380.736297607</ele>
        <time>2014-08-13T13:09:32.489Z</time>
      </trkpt>
      <trkpt lat="48.4271" lon="-3.843">
        <ele>379.829071045</ele>
        <time>2014-08-13T13:09:33.494Z</time>
      </trkpt>
      <trkpt lat="48.42709" lon="-3.84309">
        <ele>379.481994629</ele>
        <time>2014-08-13T13:09:34.494Z</time>
      </trkpt>
      <trkpt lat="48.42709" lon="-3.84317">
        <ele>379.317749023</ele>
        <time>2014-08-13T13:09:35.498Z</time>
      </trkpt>
      <trkpt lat="48.4271" lon="-3.84326">
        <ele>379.611968994</ele>
        <time>2014-08-13T13:09:36.494Z</time>
      </trkpt>
      <trkpt lat="48.4271" lon="-3.84334">
        <ele>379.988006592</ele>
        <time>2014-08-13T13:09:37.5Z</time>
      </trkpt>
      <trkpt lat="48.42711" lon="-3.84342">
        <ele>380.115112305</ele>
        <time>2014-08-13T13:09:38.501Z</time>
      </trkpt>
      <trkpt lat="48.42712" lon="-3.84349">
        <ele>380.32598877</ele>
        <time>2014-08-13T13:09:39.503Z</time>
      </trkpt>
      <trkpt lat="48.42713" lon="-3.84355">
        <ele>380.56161499</ele>
        <time>2014-08-13T13:09:40.495Z</time>
      </trkpt>
      <trkpt lat="48.42714" lon="-3.84363">
        <ele>380.314331055</ele>
        <time>2014-08-13T13:09:41.498Z</time>
      </trkpt>
      <trkpt lat="48.42714" lon="-3.8437">
        <ele>379.681243896</ele>
        <time>2014-08-13T13:09:42.495Z</time>
      </trkpt>
      <trkpt lat="48.42715" lon="-3.84376">
        <ele>379.007049561</ele>
        <time>2014-08-13T13:09:43.498Z</time>
      </trkpt>
      <trkpt lat="48.42718" lon="-3.84389">
        <ele>377.822021484</ele>
        <time>2014-08-13T13:09:45.503Z</time>
      </trkpt>
      <trkpt lat="48.42719" lon="-3.84394">
        <ele>378.237884521</ele>
        <time>2014-08-13T13:09:46.495Z</time>
      </trkpt>
      <trkpt lat="48.42722" lon="-3.84406">
        <ele>378.841461182</ele>
        <time>2014-08-13T13:09:48.493Z</time>
      </trkpt>
      <trkpt lat="48.42725" lon="-3.84412">
        <ele>378.867095947</ele>
        <time>2014-08-13T13:09:49.496Z</time>
      </trkpt>
      <trkpt lat="48.42728" lon="-3.84424">
        <ele>378.585357666</ele>
        <time>2014-08-13T13:09:52.498Z</time>
      </trkpt>
      <trkpt lat="48.42728" lon="-3.84427">
        <ele>378.49206543</ele>
        <time>2014-08-13T13:09:53.504Z</time>
      </trkpt>
      <trkpt lat="48.42735" lon="-3.84437">
        <ele>378.3777771</ele>
        <time>2014-08-13T13:10:08.498Z</time>
      </trkpt>
      <trkpt lat="48.42735" lon="-3.84437">
        <ele>378.358734131</ele>
        <time>2014-08-13T13:10:09.502Z</time>
      </trkpt>
      <trkpt lat="48.42739" lon="-3.84447">
        <ele>377.975738525</ele>
        <time>2014-08-13T13:10:17.494Z</time>
      </trkpt>
      <trkpt lat="48.4274" lon="-3.84451">
        <ele>377.902740479</ele>
        <time>2014-08-13T13:10:18.498Z</time>
      </trkpt>
      <trkpt lat="48.42743" lon="-3.84459">
        <ele>377.759796143</ele>
        <time>2014-08-13T13:10:20.499Z</time>
      </trkpt>
      <trkpt lat="48.42744" lon="-3.84463">
        <ele>377.711608887</ele>
        <time>2014-08-13T13:10:21.494Z</time>
      </trkpt>
      <trkpt lat="48.42748" lon="-3.84474">
        <ele>377.599029541</ele>
        <time>2014-08-13T13:10:39.515Z</time>
      </trkpt>
      <trkpt lat="48.42749" lon="-3.84475">
        <ele>377.652313232</ele>
        <time>2014-08-13T13:10:40.512Z</time>
      </trkpt>
      <trkpt lat="48.42748" lon="-3.84489">
        <ele>375.807891846</ele>
        <time>2014-08-13T13:11:47.008Z</time>
      </trkpt>
      <trkpt lat="48.42748" lon="-3.84489">
        <ele>375.810333252</ele>
        <time>2014-08-13T13:11:47.998Z</time>
      </trkpt>
      <trkpt lat="48.42748" lon="-3.84476">
        <ele>373.173065186</ele>
        <time>2014-08-13T13:14:35.762Z</time>
      </trkpt>
      <trkpt lat="48.42747" lon="-3.84475">
        <ele>373.221374512</ele>
        <time>2014-08-13T13:14:36.758Z</time>
      </trkpt>
      <trkpt lat="48.42752" lon="-3.84482">
        <ele>378.801605225</ele>
        <time>2014-08-13T13:16:23.756Z</time>
      </trkpt>
      <trkpt lat="48.42753" lon="-3.84486">
        <ele>378.722106934</ele>
        <time>2014-08-13T13:16:24.776Z</time>
      </trkpt>
      <trkpt lat="48.42756" lon="-3.84496">
        <ele>378.312011719</ele>
        <time>2014-08-13T13:16:27.753Z</time>
      </trkpt>
      <trkpt lat="48.42757" lon="-3.845">
        <ele>378.114501953</ele>
        <time>2014-08-13T13:16:28.761Z</time>
      </trkpt>
      <trkpt lat="48.42761" lon="-3.84512">
        <ele>377.590515137</ele>
        <time>2014-08-13T13:16:32.753Z</time>
      </trkpt>
      <trkpt lat="48.42761" lon="-3.84514">
        <ele>377.469146729</ele>
        <time>2014-08-13T13:16:33.749Z</time>
      </trkpt>
      <trkpt lat="48.42765" lon="-3.84526">
        <ele>376.681488037</ele>
        <time>2014-08-13T13:16:40.761Z</time>
      </trkpt>
      <trkpt lat="48.42767" lon="-3.84528">
        <ele>376.525878906</ele>
        <time>2014-08-13T13:16:41.758Z</time>
      </trkpt>
      <trkpt lat="48.42771" lon="-3.84538">
        <ele>376.261993408</ele>
        <time>2014-08-13T13:16:45.762Z</time>
      </trkpt>
      <trkpt lat="48.42772" lon="-3.84541">
        <ele>376.107208252</ele>
        <time>2014-08-13T13:16:46.761Z</time>
      </trkpt>
      <trkpt lat="48.42775" lon="-3.84553">
        <ele>375.23526001</ele>
        <time>2014-08-13T13:16:52.773Z</time>
      </trkpt>
      <trkpt lat="48.42776" lon="-3.84554">
        <ele>375.070007324</ele>
        <time>2014-08-13T13:16:53.763Z</time>
      </trkpt>
      <trkpt lat="48.42779" lon="-3.84565">
        <ele>374.075256348</ele>
        <time>2014-08-13T13:16:58.761Z</time>
      </trkpt>
      <trkpt lat="48.4278" lon="-3.84568">
        <ele>373.914459229</ele>
        <time>2014-08-13T13:16:59.759Z</time>
      </trkpt>
      <trkpt lat="48.42783" lon="-3.84579">
        <ele>373.253295898</ele>
        <time>2014-08-13T13:17:04.758Z</time>
      </trkpt>
      <trkpt lat="48.42784" lon="-3.84581">
        <ele>373.063812256</ele>
        <time>2014-08-13T13:17:05.76Z</time>
      </trkpt>
      <trkpt lat="48.42789" lon="-3.84592">
        <ele>370.642303467</ele>
        <time>2014-08-13T13:17:35.697Z</time>
      </trkpt>
      <trkpt lat="48.42789" lon="-3.84592">
        <ele>370.631500244</ele>
        <time>2014-08-13T13:17:36.699Z</time>
      </trkpt>
      <trkpt lat="48.42789" lon="-3.84606">
        <ele>371.148132324</ele>
        <time>2014-08-13T13:18:20.75Z</time>
      </trkpt>
      <trkpt lat="48.4279" lon="-3.84609">
        <ele>371.111724854</ele>
        <time>2014-08-13T13:18:21.757Z</time>
      </trkpt>
      <trkpt lat="48.42792" lon="-3.8462">
        <ele>370.939727783</ele>
        <time>2014-08-13T13:18:24.753Z</time>
      </trkpt>
      <trkpt lat="48.42793" lon="-3.84625">
        <ele>370.874176025</ele>
        <time>2014-08-13T13:18:25.779Z</time>
      </trkpt>
      <trkpt lat="48.42794" lon="-3.84637">
        <ele>370.687164307</ele>
        <time>2014-08-13T13:18:28.758Z</time>
      </trkpt>
      <trkpt lat="48.42795" lon="-3.84641">
        <ele>370.6378479</ele>
        <time>2014-08-13T13:18:29.751Z</time>
      </trkpt>
      <trkpt lat="48.42798" lon="-3.84652">
        <ele>370.427764893</ele>
        <time>2014-08-13T13:18:31.749Z</time>
      </trkpt>
      <trkpt lat="48.428" lon="-3.84656">
        <ele>370.28515625</ele>
        <time>2014-08-13T13:18:32.757Z</time>
      </trkpt>
      <trkpt lat="48.42802" lon="-3.84667">
        <ele>369.928619385</ele>
        <time>2014-08-13T13:18:34.764Z</time>
      </trkpt>
      <trkpt lat="48.42804" lon="-3.84672">
        <ele>369.756774902</ele>
        <time>2014-08-13T13:18:35.75Z</time>
      </trkpt>
      <trkpt lat="48.42806" lon="-3.84683">
        <ele>369.515136719</ele>
        <time>2014-08-13T13:18:37.753Z</time>
      </trkpt>
      <trkpt lat="48.42807" lon="-3.84688">
        <ele>368.99395752</ele>
        <time>2014-08-13T13:18:38.753Z</time>
      </trkpt>
      <trkpt lat="48.4281" lon="-3.84698">
        <ele>367.969543457</ele>
        <time>2014-08-13T13:18:40.753Z</time>
      </trkpt>
      <trkpt lat="48.42811" lon="-3.84704">
        <ele>367.513793945</ele>
        <time>2014-08-13T13:18:41.754Z</time>
      </trkpt>
      <trkpt lat="48.42813" lon="-3.84711">
        <ele>367.312438965</ele>
        <time>2014-08-13T13:18:42.766Z</time>
      </trkpt>
      <trkpt lat="48.42815" lon="-3.84718">
        <ele>366.77835083</ele>
        <time>2014-08-13T13:18:43.761Z</time>
      </trkpt>
      <trkpt lat="48.42818" lon="-3.84727">
        <ele>366.562744141</ele>
        <time>2014-08-13T13:18:44.754Z</time>
      </trkpt>
      <trkpt lat="48.42819" lon="-3.84735">
        <ele>366.746368408</ele>
        <time>2014-08-13T13:18:45.759Z</time>
      </trkpt>
      <trkpt lat="48.4282" lon="-3.84748">
        <ele>367.223846436</ele>
        <time>2014-08-13T13:18:47.752Z</time>
      </trkpt>
      <trkpt lat="48.42821" lon="-3.84755">
        <ele>367.064666748</ele>
        <time>2014-08-13T13:18:48.753Z</time>
      </trkpt>
      <trkpt lat="48.42823" lon="-3.84761">
        <ele>367.273651123</ele>
        <time>2014-08-13T13:18:49.752Z</time>
      </trkpt>
      <trkpt lat="48.42826" lon="-3.84767">
        <ele>366.718109131</ele>
        <time>2014-08-13T13:18:50.751Z</time>
      </trkpt>
      <trkpt lat="48.42829" lon="-3.84773">
        <ele>366.022277832</ele>
        <time>2014-08-13T13:18:51.746Z</time>
      </trkpt>
      <trkpt lat="48.42832" lon="-3.84778">
        <ele>365.482086182</ele>
        <time>2014-08-13T13:18:52.756Z</time>
      </trkpt>
      <trkpt lat="48.42835" lon="-3.84784">
        <ele>364.784820557</ele>
        <time>2014-08-13T13:18:53.799Z</time>
      </trkpt>
      <trkpt lat="48.42838" lon="-3.84792">
        <ele>364.36416626</ele>
        <time>2014-08-13T13:18:54.763Z</time>
      </trkpt>
      <trkpt lat="48.4284" lon="-3.848">
        <ele>363.687255859</ele>
        <time>2014-08-13T13:18:55.768Z</time>
      </trkpt>
      <trkpt lat="48.42842" lon="-3.84807">
        <ele>363.809844971</ele>
        <time>2014-08-13T13:18:56.77Z</time>
      </trkpt>
      <trkpt lat="48.42843" lon="-3.84816">
        <ele>363.334991455</ele>
        <time>2014-08-13T13:18:57.767Z</time>
      </trkpt>
      <trkpt lat="48.42845" lon="-3.84823">
        <ele>362.713012695</ele>
        <time>2014-08-13T13:18:58.761Z</time>
      </trkpt>
      <trkpt lat="48.42847" lon="-3.84831">
        <ele>362.750854492</ele>
        <time>2014-08-13T13:18:59.755Z</time>
      </trkpt>
      <trkpt lat="48.4285" lon="-3.8484">
        <ele>362.924835205</ele>
        <time>2014-08-13T13:19:00.751Z</time>
      </trkpt>
      <trkpt lat="48.42852" lon="-3.84847">
        <ele>363.08706665</ele>
        <time>2014-08-13T13:19:01.753Z</time>
      </trkpt>
      <trkpt lat="48.42854" lon="-3.84853">
        <ele>363.770996094</ele>
        <time>2014-08-13T13:19:02.759Z</time>
      </trkpt>
      <trkpt lat="48.42857" lon="-3.84863">
        <ele>363.560058594</ele>
        <time>2014-08-13T13:19:04.753Z</time>
      </trkpt>
      <trkpt lat="48.42858" lon="-3.84869">
        <ele>363.628875732</ele>
        <time>2014-08-13T13:19:05.751Z</time>
      </trkpt>
      <trkpt lat="48.42861" lon="-3.8488">
        <ele>363.83972168</ele>
        <time>2014-08-13T13:19:07.752Z</time>
      </trkpt>
      <trkpt lat="48.42861" lon="-3.84884">
        <ele>363.880096436</ele>
        <time>2014-08-13T13:19:08.757Z</time>
      </trkpt>
      <trkpt lat="48.42863" lon="-3.84896">
        <ele>363.615112305</ele>
        <time>2014-08-13T13:19:10.753Z</time>
      </trkpt>
      <trkpt lat="48.42865" lon="-3.84902">
        <ele>363.569396973</ele>
        <time>2014-08-13T13:19:11.76Z</time>
      </trkpt>
      <trkpt lat="48.42868" lon="-3.84914">
        <ele>363.678833008</ele>
        <time>2014-08-13T13:19:13.769Z</time>
      </trkpt>
      <trkpt lat="48.42869" lon="-3.8492">
        <ele>364.08782959</ele>
        <time>2014-08-13T13:19:14.763Z</time>
      </trkpt>
      <trkpt lat="48.42874" lon="-3.8493">
        <ele>366.033843994</ele>
        <time>2014-08-13T13:19:16.762Z</time>
      </trkpt>
      <trkpt lat="48.42876" lon="-3.84936">
        <ele>367.045379639</ele>
        <time>2014-08-13T13:19:17.761Z</time>
      </trkpt>
      <trkpt lat="48.42879" lon="-3.84942">
        <ele>368.488372803</ele>
        <time>2014-08-13T13:19:18.769Z</time>
      </trkpt>
      <trkpt lat="48.42882" lon="-3.84948">
        <ele>369.394592285</ele>
        <time>2014-08-13T13:19:19.768Z</time>
      </trkpt>
      <trkpt lat="48.42885" lon="-3.84954">
        <ele>370.340026855</ele>
        <time>2014-08-13T13:19:20.765Z</time>
      </trkpt>
      <trkpt lat="48.4289" lon="-3.84961">
        <ele>370.131744385</ele>
        <time>2014-08-13T13:19:21.762Z</time>
      </trkpt>
      <trkpt lat="48.42895" lon="-3.84968">
        <ele>369.120605469</ele>
        <time>2014-08-13T13:19:22.785Z</time>
      </trkpt>
      <trkpt lat="48.429" lon="-3.84976">
        <ele>368.043579102</ele>
        <time>2014-08-13T13:19:23.77Z</time>
      </trkpt>
      <trkpt lat="48.42905" lon="-3.84984">
        <ele>367.446136475</ele>
        <time>2014-08-13T13:19:24.769Z</time>
      </trkpt>
      <trkpt lat="48.42909" lon="-3.8499">
        <ele>366.608337402</ele>
        <time>2014-08-13T13:19:25.776Z</time>
      </trkpt>
      <trkpt lat="48.42914" lon="-3.84996">
        <ele>365.718261719</ele>
        <time>2014-08-13T13:19:26.793Z</time>
      </trkpt>
      <trkpt lat="48.42917" lon="-3.85003">
        <ele>364.500396729</ele>
        <time>2014-08-13T13:19:27.762Z</time>
      </trkpt>
      <trkpt lat="48.42921" lon="-3.85009">
        <ele>363.831695557</ele>
        <time>2014-08-13T13:19:28.761Z</time>
      </trkpt>
      <trkpt lat="48.42924" lon="-3.85015">
        <ele>363.516418457</ele>
        <time>2014-08-13T13:19:29.765Z</time>
      </trkpt>
      <trkpt lat="48.42928" lon="-3.85024">
        <ele>363.000091553</ele>
        <time>2014-08-13T13:19:30.764Z</time>
      </trkpt>
      <trkpt lat="48.42931" lon="-3.85031">
        <ele>362.03302002</ele>
        <time>2014-08-13T13:19:31.765Z</time>
      </trkpt>
      <trkpt lat="48.42934" lon="-3.85037">
        <ele>360.832580566</ele>
        <time>2014-08-13T13:19:32.768Z</time>
      </trkpt>
      <trkpt lat="48.42937" lon="-3.85043">
        <ele>359.531188965</ele>
        <time>2014-08-13T13:19:33.778Z</time>
      </trkpt>
      <trkpt lat="48.4294" lon="-3.85049">
        <ele>358.185302734</ele>
        <time>2014-08-13T13:19:34.76Z</time>
      </trkpt>
      <trkpt lat="48.42942" lon="-3.85056">
        <ele>356.821380615</ele>
        <time>2014-08-13T13:19:35.762Z</time>
      </trkpt>
      <trkpt lat="48.42944" lon="-3.85063">
        <ele>355.841644287</ele>
        <time>2014-08-13T13:19:36.757Z</time>
      </trkpt>
      <trkpt lat="48.42947" lon="-3.85069">
        <ele>355.345214844</ele>
        <time>2014-08-13T13:19:37.753Z</time>
      </trkpt>
      <trkpt lat="48.4295" lon="-3.85077">
        <ele>355.107391357</ele>
        <time>2014-08-13T13:19:38.755Z</time>
      </trkpt>
      <trkpt lat="48.42952" lon="-3.85083">
        <ele>355.060852051</ele>
        <time>2014-08-13T13:19:39.754Z</time>
      </trkpt>
      <trkpt lat="48.42955" lon="-3.85095">
        <ele>354.468811035</ele>
        <time>2014-08-13T13:19:41.758Z</time>
      </trkpt>
      <trkpt lat="48.42956" lon="-3.85102">
        <ele>355.220794678</ele>
        <time>2014-08-13T13:19:42.767Z</time>
      </trkpt>
      <trkpt lat="48.42961" lon="-3.85111">
        <ele>355.871582031</ele>
        <time>2014-08-13T13:19:44.761Z</time>
      </trkpt>
      <trkpt lat="48.42963" lon="-3.85114">
        <ele>356.578857422</ele>
        <time>2014-08-13T13:19:45.758Z</time>
      </trkpt>
      <trkpt lat="48.42967" lon="-3.85119">
        <ele>357.301361084</ele>
        <time>2014-08-13T13:19:46.769Z</time>
      </trkpt>
      <trkpt lat="48.42971" lon="-3.85121">
        <ele>357.626495361</ele>
        <time>2014-08-13T13:19:47.758Z</time>
      </trkpt>
      <trkpt lat="48.42977" lon="-3.85124">
        <ele>356.665557861</ele>
        <time>2014-08-13T13:19:48.76Z</time>
      </trkpt>
      <trkpt lat="48.42984" lon="-3.85127">
        <ele>355.65045166</ele>
        <time>2014-08-13T13:19:49.762Z</time>
      </trkpt>
      <trkpt lat="48.4299" lon="-3.8513">
        <ele>354.741821289</ele>
        <time>2014-08-13T13:19:50.759Z</time>
      </trkpt>
      <trkpt lat="48.42995" lon="-3.85133">
        <ele>353.70425415</ele>
        <time>2014-08-13T13:19:51.747Z</time>
      </trkpt>
      <trkpt lat="48.43001" lon="-3.85136">
        <ele>352.576293945</ele>
        <time>2014-08-13T13:19:52.763Z</time>
      </trkpt>
      <trkpt lat="48.43006" lon="-3.85138">
        <ele>352.242797852</ele>
        <time>2014-08-13T13:19:53.756Z</time>
      </trkpt>
      <trkpt lat="48.43014" lon="-3.85142">
        <ele>351.272186279</ele>
        <time>2014-08-13T13:19:55.552Z</time>
      </trkpt>
      <trkpt lat="48.43018" lon="-3.85143">
        <ele>351.077453613</ele>
        <time>2014-08-13T13:19:56.599Z</time>
      </trkpt>
      <trkpt lat="48.43026" lon="-3.85143">
        <ele>351.026153564</ele>
        <time>2014-08-13T13:19:58.596Z</time>
      </trkpt>
      <trkpt lat="48.43029" lon="-3.85142">
        <ele>351.281890869</ele>
        <time>2014-08-13T13:19:59.594Z</time>
      </trkpt>
      <trkpt lat="48.43036" lon="-3.85137">
        <ele>351.471191406</ele>
        <time>2014-08-13T13:20:01.595Z</time>
      </trkpt>
      <trkpt lat="48.4304" lon="-3.85137">
        <ele>351.365936279</ele>
        <time>2014-08-13T13:20:02.609Z</time>
      </trkpt>
      <trkpt lat="48.43046" lon="-3.85136">
        <ele>350.839263916</ele>
        <time>2014-08-13T13:20:03.609Z</time>
      </trkpt>
      <trkpt lat="48.4305" lon="-3.85136">
        <ele>350.436737061</ele>
        <time>2014-08-13T13:20:04.604Z</time>
      </trkpt>
      <trkpt lat="48.43055" lon="-3.85135">
        <ele>350.341278076</ele>
        <time>2014-08-13T13:20:05.599Z</time>
      </trkpt>
      <trkpt lat="48.4306" lon="-3.85135">
        <ele>350.492431641</ele>
        <time>2014-08-13T13:20:06.609Z</time>
      </trkpt>
      <trkpt lat="48.43068" lon="-3.85135">
        <ele>350.812347412</ele>
        <time>2014-08-13T13:20:08.599Z</time>
      </trkpt>
      <trkpt lat="48.43072" lon="-3.85133">
        <ele>351.702514648</ele>
        <time>2014-08-13T13:20:09.603Z</time>
      </trkpt>
      <trkpt lat="48.43077" lon="-3.85131">
        <ele>352.033905029</ele>
        <time>2014-08-13T13:20:10.6Z</time>
      </trkpt>
      <trkpt lat="48.43081" lon="-3.85128">
        <ele>352.02545166</ele>
        <time>2014-08-13T13:20:11.599Z</time>
      </trkpt>
      <trkpt lat="48.43085" lon="-3.85125">
        <ele>351.479156494</ele>
        <time>2014-08-13T13:20:12.593Z</time>
      </trkpt>
      <trkpt lat="48.43089" lon="-3.8512">
        <ele>351.040649414</ele>
        <time>2014-08-13T13:20:13.59Z</time>
      </trkpt>
      <trkpt lat="48.43093" lon="-3.85116">
        <ele>350.523651123</ele>
        <time>2014-08-13T13:20:14.595Z</time>
      </trkpt>
      <trkpt lat="48.43097" lon="-3.85112">
        <ele>349.736907959</ele>
        <time>2014-08-13T13:20:15.597Z</time>
      </trkpt>
      <trkpt lat="48.43103" lon="-3.85107">
        <ele>348.250091553</ele>
        <time>2014-08-13T13:20:17.595Z</time>
      </trkpt>
      <trkpt lat="48.43106" lon="-3.85106">
        <ele>348.164093018</ele>
        <time>2014-08-13T13:20:18.601Z</time>
      </trkpt>
      <trkpt lat="48.43114" lon="-3.85108">
        <ele>348.037353516</ele>
        <time>2014-08-13T13:20:22.595Z</time>
      </trkpt>
      <trkpt lat="48.43116" lon="-3.85109">
        <ele>347.999969482</ele>
        <time>2014-08-13T13:20:23.59Z</time>
      </trkpt>
      <trkpt lat="48.43124" lon="-3.85111">
        <ele>347.803619385</ele>
        <time>2014-08-13T13:20:27.599Z</time>
      </trkpt>
      <trkpt lat="48.43127" lon="-3.85113">
        <ele>347.786712646</ele>
        <time>2014-08-13T13:20:28.607Z</time>
      </trkpt>
      <trkpt lat="48.43133" lon="-3.85118">
        <ele>347.660461426</ele>
        <time>2014-08-13T13:20:31.597Z</time>
      </trkpt>
      <trkpt lat="48.43135" lon="-3.85121">
        <ele>347.575866699</ele>
        <time>2014-08-13T13:20:32.599Z</time>
      </trkpt>
      <trkpt lat="48.43141" lon="-3.85126">
        <ele>347.348327637</ele>
        <time>2014-08-13T13:20:34.607Z</time>
      </trkpt>
      <trkpt lat="48.43144" lon="-3.85126">
        <ele>347.195037842</ele>
        <time>2014-08-13T13:20:35.596Z</time>
      </trkpt>
      <trkpt lat="48.4315" lon="-3.85127">
        <ele>346.820220947</ele>
        <time>2014-08-13T13:20:37.597Z</time>
      </trkpt>
      <trkpt lat="48.43154" lon="-3.85128">
        <ele>346.629974365</ele>
        <time>2014-08-13T13:20:38.605Z</time>
      </trkpt>
      <trkpt lat="48.43162" lon="-3.8513">
        <ele>343.477203369</ele>
        <time>2014-08-13T13:20:40.595Z</time>
      </trkpt>
      <trkpt lat="48.43166" lon="-3.85132">
        <ele>342.497131348</ele>
        <time>2014-08-13T13:20:41.603Z</time>
      </trkpt>
      <trkpt lat="48.43172" lon="-3.85134">
        <ele>341.453033447</ele>
        <time>2014-08-13T13:20:43.61Z</time>
      </trkpt>
      <trkpt lat="48.43175" lon="-3.85135">
        <ele>341.332336426</ele>
        <time>2014-08-13T13:20:44.594Z</time>
      </trkpt>
      <trkpt lat="48.43182" lon="-3.85138">
        <ele>341.065063477</ele>
        <time>2014-08-13T13:20:46.593Z</time>
      </trkpt>
      <trkpt lat="48.43185" lon="-3.8514">
        <ele>340.916259766</ele>
        <time>2014-08-13T13:20:47.607Z</time>
      </trkpt>
      <trkpt lat="48.43191" lon="-3.85145">
        <ele>339.986663818</ele>
        <time>2014-08-13T13:20:49.603Z</time>
      </trkpt>
      <trkpt lat="48.43194" lon="-3.85148">
        <ele>338.483306885</ele>
        <time>2014-08-13T13:20:50.61Z</time>
      </trkpt>
      <trkpt lat="48.43197" lon="-3.85157">
        <ele>334.360626221</ele>
        <time>2014-08-13T13:20:52.607Z</time>
      </trkpt>
      <trkpt lat="48.43198" lon="-3.85162">
        <ele>332.265899658</ele>
        <time>2014-08-13T13:20:53.594Z</time>
      </trkpt>
      <trkpt lat="48.43199" lon="-3.8517">
        <ele>330.745941162</ele>
        <time>2014-08-13T13:20:54.6Z</time>
      </trkpt>
      <trkpt lat="48.432" lon="-3.85177">
        <ele>328.92791748</ele>
        <time>2014-08-13T13:20:55.599Z</time>
      </trkpt>
      <trkpt lat="48.43201" lon="-3.85184">
        <ele>327.449981689</ele>
        <time>2014-08-13T13:20:56.599Z</time>
      </trkpt>
      <trkpt lat="48.43201" lon="-3.85191">
        <ele>326.455963135</ele>
        <time>2014-08-13T13:20:57.595Z</time>
      </trkpt>
      <trkpt lat="48.43204" lon="-3.85201">
        <ele>326.115386963</ele>
        <time>2014-08-13T13:20:59.612Z</time>
      </trkpt>
      <trkpt lat="48.43206" lon="-3.85205">
        <ele>325.121612549</ele>
        <time>2014-08-13T13:21:00.598Z</time>
      </trkpt>
      <trkpt lat="48.43211" lon="-3.85216">
        <ele>324.389251709</ele>
        <time>2014-08-13T13:21:02.599Z</time>
      </trkpt>
      <trkpt lat="48.43214" lon="-3.8522">
        <ele>324.410247803</ele>
        <time>2014-08-13T13:21:03.607Z</time>
      </trkpt>
      <trkpt lat="48.43219" lon="-3.85231">
        <ele>324.319732666</ele>
        <time>2014-08-13T13:21:05.594Z</time>
      </trkpt>
      <trkpt lat="48.43221" lon="-3.85236">
        <ele>324.339019775</ele>
        <time>2014-08-13T13:21:06.606Z</time>
      </trkpt>
      <trkpt lat="48.43226" lon="-3.85245">
        <ele>324.333679199</ele>
        <time>2014-08-13T13:21:08.613Z</time>
      </trkpt>
      <trkpt lat="48.43228" lon="-3.85248">
        <ele>324.23425293</ele>
        <time>2014-08-13T13:21:09.598Z</time>
      </trkpt>
      <trkpt lat="48.43234" lon="-3.85256">
        <ele>323.28994751</ele>
        <time>2014-08-13T13:21:17.593Z</time>
      </trkpt>
      <trkpt lat="48.43235" lon="-3.85257">
        <ele>323.212188721</ele>
        <time>2014-08-13T13:21:18.595Z</time>
      </trkpt>
      <trkpt lat="48.43242" lon="-3.85262">
        <ele>323.012634277</ele>
        <time>2014-08-13T13:21:28.603Z</time>
      </trkpt>
      <trkpt lat="48.43246" lon="-3.85263">
        <ele>323.018493652</ele>
        <time>2014-08-13T13:21:29.603Z</time>
      </trkpt>
      <trkpt lat="48.43254" lon="-3.85265">
        <ele>323.001159668</ele>
        <time>2014-08-13T13:21:33.605Z</time>
      </trkpt>
      <trkpt lat="48.43256" lon="-3.85267">
        <ele>322.996032715</ele>
        <time>2014-08-13T13:21:34.614Z</time>
      </trkpt>
      <trkpt lat="48.43265" lon="-3.85269">
        <ele>323.127807617</ele>
        <time>2014-08-13T13:21:39.603Z</time>
      </trkpt>
      <trkpt lat="48.43267" lon="-3.8527">
        <ele>323.091918945</ele>
        <time>2014-08-13T13:21:40.602Z</time>
      </trkpt>
      <trkpt lat="48.43273" lon="-3.85277">
        <ele>323.15737915</ele>
        <time>2014-08-13T13:21:45.6Z</time>
      </trkpt>
      <trkpt lat="48.43276" lon="-3.85279">
        <ele>323.109924316</ele>
        <time>2014-08-13T13:21:46.602Z</time>
      </trkpt>
      <trkpt lat="48.43282" lon="-3.85287">
        <ele>323.000579834</ele>
        <time>2014-08-13T13:21:49.615Z</time>
      </trkpt>
      <trkpt lat="48.43284" lon="-3.85289">
        <ele>322.993652344</ele>
        <time>2014-08-13T13:21:50.608Z</time>
      </trkpt>
      <trkpt lat="48.4329" lon="-3.85297">
        <ele>322.949127197</ele>
        <time>2014-08-13T13:21:53.601Z</time>
      </trkpt>
      <trkpt lat="48.43291" lon="-3.85299">
        <ele>322.918731689</ele>
        <time>2014-08-13T13:21:54.604Z</time>
      </trkpt>
      <trkpt lat="48.43298" lon="-3.85308">
        <ele>322.867828369</ele>
        <time>2014-08-13T13:22:00.609Z</time>
      </trkpt>
      <trkpt lat="48.43299" lon="-3.85309">
        <ele>322.906951904</ele>
        <time>2014-08-13T13:22:01.605Z</time>
      </trkpt>
      <trkpt lat="48.43306" lon="-3.85314">
        <ele>323.080780029</ele>
        <time>2014-08-13T13:22:05.603Z</time>
      </trkpt>
      <trkpt lat="48.43308" lon="-3.85315">
        <ele>323.138397217</ele>
        <time>2014-08-13T13:22:06.604Z</time>
      </trkpt>
      <trkpt lat="48.43315" lon="-3.85319">
        <ele>323.21484375</ele>
        <time>2014-08-13T13:22:08.603Z</time>
      </trkpt>
      <trkpt lat="48.43318" lon="-3.8532">
        <ele>323.250183105</ele>
        <time>2014-08-13T13:22:09.593Z</time>
      </trkpt>
      <trkpt lat="48.43326" lon="-3.85322">
        <ele>323.184814453</ele>
        <time>2014-08-13T13:22:13.614Z</time>
      </trkpt>
      <trkpt lat="48.43328" lon="-3.85322">
        <ele>323.143798828</ele>
        <time>2014-08-13T13:22:14.596Z</time>
      </trkpt>
      <trkpt lat="48.43335" lon="-3.85322">
        <ele>323.039611816</ele>
        <time>2014-08-13T13:22:17.593Z</time>
      </trkpt>
      <trkpt lat="48.43337" lon="-3.85321">
        <ele>322.980163574</ele>
        <time>2014-08-13T13:22:18.605Z</time>
      </trkpt>
      <trkpt lat="48.43343" lon="-3.8532">
        <ele>323.018127441</ele>
        <time>2014-08-13T13:22:20.61Z</time>
      </trkpt>
      <trkpt lat="48.43346" lon="-3.8532">
        <ele>322.996429443</ele>
        <time>2014-08-13T13:22:21.603Z</time>
      </trkpt>
      <trkpt lat="48.43354" lon="-3.85319">
        <ele>323.259796143</ele>
        <time>2014-08-13T13:22:23.601Z</time>
      </trkpt>
      <trkpt lat="48.43358" lon="-3.85319">
        <ele>323.279876709</ele>
        <time>2014-08-13T13:22:24.615Z</time>
      </trkpt>
      <trkpt lat="48.43367" lon="-3.85319">
        <ele>323.343109131</ele>
        <time>2014-08-13T13:22:26.629Z</time>
      </trkpt>
      <trkpt lat="48.43371" lon="-3.85319">
        <ele>323.33972168</ele>
        <time>2014-08-13T13:22:27.594Z</time>
      </trkpt>
      <trkpt lat="48.43377" lon="-3.8532">
        <ele>323.304229736</ele>
        <time>2014-08-13T13:22:29.594Z</time>
      </trkpt>
      <trkpt lat="48.43381" lon="-3.85321">
        <ele>323.224121094</ele>
        <time>2014-08-13T13:22:30.601Z</time>
      </trkpt>
      <trkpt lat="48.43389" lon="-3.85321">
        <ele>323.319641113</ele>
        <time>2014-08-13T13:22:32.603Z</time>
      </trkpt>
      <trkpt lat="48.43393" lon="-3.85321">
        <ele>323.246185303</ele>
        <time>2014-08-13T13:22:33.596Z</time>
      </trkpt>
      <trkpt lat="48.43398" lon="-3.85321">
        <ele>322.747406006</ele>
        <time>2014-08-13T13:22:34.604Z</time>
      </trkpt>
      <trkpt lat="48.43402" lon="-3.85321">
        <ele>322.306945801</ele>
        <time>2014-08-13T13:22:35.594Z</time>
      </trkpt>
      <trkpt lat="48.4341" lon="-3.85319">
        <ele>321.983520508</ele>
        <time>2014-08-13T13:22:37.597Z</time>
      </trkpt>
      <trkpt lat="48.43415" lon="-3.85319">
        <ele>321.942260742</ele>
        <time>2014-08-13T13:22:38.606Z</time>
      </trkpt>
      <trkpt lat="48.43419" lon="-3.85319">
        <ele>321.546600342</ele>
        <time>2014-08-13T13:22:39.607Z</time>
      </trkpt>
      <trkpt lat="48.43424" lon="-3.85318">
        <ele>321.399536133</ele>
        <time>2014-08-13T13:22:40.608Z</time>
      </trkpt>
      <trkpt lat="48.4343" lon="-3.85318">
        <ele>321.212127686</ele>
        <time>2014-08-13T13:22:41.605Z</time>
      </trkpt>
      <trkpt lat="48.43435" lon="-3.85319">
        <ele>320.702941895</ele>
        <time>2014-08-13T13:22:42.612Z</time>
      </trkpt>
      <trkpt lat="48.43441" lon="-3.85319">
        <ele>320.256286621</ele>
        <time>2014-08-13T13:22:43.598Z</time>
      </trkpt>
      <trkpt lat="48.43447" lon="-3.85319">
        <ele>319.660644531</ele>
        <time>2014-08-13T13:22:44.595Z</time>
      </trkpt>
      <trkpt lat="48.43452" lon="-3.8532">
        <ele>319.252044678</ele>
        <time>2014-08-13T13:22:45.601Z</time>
      </trkpt>
      <trkpt lat="48.43458" lon="-3.85321">
        <ele>319.009124756</ele>
        <time>2014-08-13T13:22:46.61Z</time>
      </trkpt>
      <trkpt lat="48.43463" lon="-3.85322">
        <ele>318.951873779</ele>
        <time>2014-08-13T13:22:48.278Z</time>
      </trkpt>
      <trkpt lat="48.43467" lon="-3.85323">
        <ele>318.798706055</ele>
        <time>2014-08-13T13:22:49.089Z</time>
      </trkpt>
      <trkpt lat="48.43473" lon="-3.85324">
        <ele>318.974212646</ele>
        <time>2014-08-13T13:22:50.083Z</time>
      </trkpt>
      <trkpt lat="48.43477" lon="-3.85326">
        <ele>318.836486816</ele>
        <time>2014-08-13T13:22:51.097Z</time>
      </trkpt>
      <trkpt lat="48.43482" lon="-3.85327">
        <ele>318.638763428</ele>
        <time>2014-08-13T13:22:52.093Z</time>
      </trkpt>
      <trkpt lat="48.43486" lon="-3.8533">
        <ele>318.65335083</ele>
        <time>2014-08-13T13:22:53.095Z</time>
      </trkpt>
      <trkpt lat="48.43492" lon="-3.85335">
        <ele>318.697540283</ele>
        <time>2014-08-13T13:22:55.095Z</time>
      </trkpt>
      <trkpt lat="48.43494" lon="-3.85339">
        <ele>318.699432373</ele>
        <time>2014-08-13T13:22:56.077Z</time>
      </trkpt>
      <trkpt lat="48.43498" lon="-3.85347">
        <ele>318.508850098</ele>
        <time>2014-08-13T13:24:13.1Z</time>
      </trkpt>
      <trkpt lat="48.43503" lon="-3.85352">
        <ele>318.501068115</ele>
        <time>2014-08-13T13:24:14.098Z</time>
      </trkpt>
      <trkpt lat="48.43509" lon="-3.85356">
        <ele>319.452484131</ele>
        <time>2014-08-13T13:24:37.089Z</time>
      </trkpt>
      <trkpt lat="48.43513" lon="-3.85357">
        <ele>319.45199585</ele>
        <time>2014-08-13T13:24:38.087Z</time>
      </trkpt>
      <trkpt lat="48.4352" lon="-3.85359">
        <ele>319.510253906</ele>
        <time>2014-08-13T13:24:40.091Z</time>
      </trkpt>
      <trkpt lat="48.43525" lon="-3.8536">
        <ele>319.523284912</ele>
        <time>2014-08-13T13:24:41.092Z</time>
      </trkpt>
      <trkpt lat="48.4353" lon="-3.85362">
        <ele>319.285247803</ele>
        <time>2014-08-13T13:24:42.096Z</time>
      </trkpt>
      <trkpt lat="48.43534" lon="-3.85363">
        <ele>318.023040771</ele>
        <time>2014-08-13T13:24:43.095Z</time>
      </trkpt>
      <trkpt lat="48.4354" lon="-3.85366">
        <ele>316.860321045</ele>
        <time>2014-08-13T13:24:44.097Z</time>
      </trkpt>
      <trkpt lat="48.43545" lon="-3.85367">
        <ele>316.43939209</ele>
        <time>2014-08-13T13:24:45.09Z</time>
      </trkpt>
      <trkpt lat="48.43553" lon="-3.85369">
        <ele>316.304962158</ele>
        <time>2014-08-13T13:24:47.092Z</time>
      </trkpt>
      <trkpt lat="48.43557" lon="-3.85369">
        <ele>316.257293701</ele>
        <time>2014-08-13T13:24:48.092Z</time>
      </trkpt>
      <trkpt lat="48.43566" lon="-3.85371">
        <ele>315.175750732</ele>
        <time>2014-08-13T13:24:50.094Z</time>
      </trkpt>
      <trkpt lat="48.43571" lon="-3.85372">
        <ele>315.312316895</ele>
        <time>2014-08-13T13:24:51.092Z</time>
      </trkpt>
      <trkpt lat="48.43575" lon="-3.85372">
        <ele>315.197418213</ele>
        <time>2014-08-13T13:24:52.091Z</time>
      </trkpt>
      <trkpt lat="48.4358" lon="-3.85372">
        <ele>315.112884521</ele>
        <time>2014-08-13T13:24:53.089Z</time>
      </trkpt>
      <trkpt lat="48.43585" lon="-3.85373">
        <ele>314.461120605</ele>
        <time>2014-08-13T13:24:54.093Z</time>
      </trkpt>
      <trkpt lat="48.43591" lon="-3.85373">
        <ele>314.658966064</ele>
        <time>2014-08-13T13:24:55.109Z</time>
      </trkpt>
      <trkpt lat="48.43598" lon="-3.85374">
        <ele>314.509460449</ele>
        <time>2014-08-13T13:24:56.092Z</time>
      </trkpt>
      <trkpt lat="48.43604" lon="-3.85375">
        <ele>314.171630859</ele>
        <time>2014-08-13T13:24:57.084Z</time>
      </trkpt>
      <trkpt lat="48.43611" lon="-3.85376">
        <ele>313.705596924</ele>
        <time>2014-08-13T13:24:58.096Z</time>
      </trkpt>
      <trkpt lat="48.43617" lon="-3.85377">
        <ele>312.675537109</ele>
        <time>2014-08-13T13:24:59.095Z</time>
      </trkpt>
      <trkpt lat="48.43624" lon="-3.85379">
        <ele>311.908294678</ele>
        <time>2014-08-13T13:25:00.177Z</time>
      </trkpt>
      <trkpt lat="48.43631" lon="-3.85381">
        <ele>311.712463379</ele>
        <time>2014-08-13T13:25:01.087Z</time>
      </trkpt>
      <trkpt lat="48.43636" lon="-3.85382">
        <ele>311.077453613</ele>
        <time>2014-08-13T13:25:02.089Z</time>
      </trkpt>
      <trkpt lat="48.43642" lon="-3.85383">
        <ele>310.691009521</ele>
        <time>2014-08-13T13:25:03.083Z</time>
      </trkpt>
      <trkpt lat="48.43648" lon="-3.85384">
        <ele>310.642303467</ele>
        <time>2014-08-13T13:25:04.089Z</time>
      </trkpt>
      <trkpt lat="48.43654" lon="-3.85384">
        <ele>310.868347168</ele>
        <time>2014-08-13T13:25:05.083Z</time>
      </trkpt>
      <trkpt lat="48.4366" lon="-3.85385">
        <ele>311.226806641</ele>
        <time>2014-08-13T13:25:06.083Z</time>
      </trkpt>
      <trkpt lat="48.43666" lon="-3.85385">
        <ele>310.942626953</ele>
        <time>2014-08-13T13:25:07.09Z</time>
      </trkpt>
      <trkpt lat="48.43672" lon="-3.85386">
        <ele>311.730010986</ele>
        <time>2014-08-13T13:25:08.087Z</time>
      </trkpt>
      <trkpt lat="48.43678" lon="-3.85387">
        <ele>312.574249268</ele>
        <time>2014-08-13T13:25:09.087Z</time>
      </trkpt>
      <trkpt lat="48.43684" lon="-3.85388">
        <ele>312.299346924</ele>
        <time>2014-08-13T13:25:10.095Z</time>
      </trkpt>
      <trkpt lat="48.43689" lon="-3.8539">
        <ele>311.866149902</ele>
        <time>2014-08-13T13:25:11.082Z</time>
      </trkpt>
      <trkpt lat="48.43694" lon="-3.85392">
        <ele>311.983062744</ele>
        <time>2014-08-13T13:25:12.084Z</time>
      </trkpt>
      <trkpt lat="48.43698" lon="-3.85394">
        <ele>312.082092285</ele>
        <time>2014-08-13T13:25:13.081Z</time>
      </trkpt>
      <trkpt lat="48.43704" lon="-3.85396">
        <ele>312.240844727</ele>
        <time>2014-08-13T13:25:14.088Z</time>
      </trkpt>
      <trkpt lat="48.4371" lon="-3.85398">
        <ele>313.100372314</ele>
        <time>2014-08-13T13:25:15.087Z</time>
      </trkpt>
      <trkpt lat="48.43716" lon="-3.854">
        <ele>314.157470703</ele>
        <time>2014-08-13T13:25:16.09Z</time>
      </trkpt>
      <trkpt lat="48.43722" lon="-3.85401">
        <ele>314.386627197</ele>
        <time>2014-08-13T13:25:17.084Z</time>
      </trkpt>
      <trkpt lat="48.43728" lon="-3.85403">
        <ele>314.145996094</ele>
        <time>2014-08-13T13:25:18.083Z</time>
      </trkpt>
      <trkpt lat="48.43733" lon="-3.85404">
        <ele>313.364349365</ele>
        <time>2014-08-13T13:25:19.087Z</time>
      </trkpt>
      <trkpt lat="48.43738" lon="-3.85406">
        <ele>313.173553467</ele>
        <time>2014-08-13T13:25:20.089Z</time>
      </trkpt>
      <trkpt lat="48.43744" lon="-3.85408">
        <ele>313.363769531</ele>
        <time>2014-08-13T13:25:21.092Z</time>
      </trkpt>
      <trkpt lat="48.43748" lon="-3.8541">
        <ele>312.938415527</ele>
        <time>2014-08-13T13:25:22.09Z</time>
      </trkpt>
      <trkpt lat="48.43753" lon="-3.85411">
        <ele>313.422821045</ele>
        <time>2014-08-13T13:25:23.095Z</time>
      </trkpt>
      <trkpt lat="48.43758" lon="-3.85411">
        <ele>313.719451904</ele>
        <time>2014-08-13T13:25:24.087Z</time>
      </trkpt>
      <trkpt lat="48.43762" lon="-3.85413">
        <ele>313.244384766</ele>
        <time>2014-08-13T13:25:25.087Z</time>
      </trkpt>
      <trkpt lat="48.43767" lon="-3.85415">
        <ele>313.205810547</ele>
        <time>2014-08-13T13:25:26.09Z</time>
      </trkpt>
      <trkpt lat="48.43773" lon="-3.85418">
        <ele>313.274108887</ele>
        <time>2014-08-13T13:25:27.107Z</time>
      </trkpt>
      <trkpt lat="48.4378" lon="-3.85421">
        <ele>313.257019043</ele>
        <time>2014-08-13T13:25:28.087Z</time>
      </trkpt>
      <trkpt lat="48.43787" lon="-3.85425">
        <ele>313.31072998</ele>
        <time>2014-08-13T13:25:29.09Z</time>
      </trkpt>
      <trkpt lat="48.43793" lon="-3.85428">
        <ele>313.570220947</ele>
        <time>2014-08-13T13:25:30.092Z</time>
      </trkpt>
      <trkpt lat="48.43799" lon="-3.8543">
        <ele>313.826965332</ele>
        <time>2014-08-13T13:25:31.085Z</time>
      </trkpt>
      <trkpt lat="48.43806" lon="-3.85433">
        <ele>313.725921631</ele>
        <time>2014-08-13T13:25:32.093Z</time>
      </trkpt>
      <trkpt lat="48.43812" lon="-3.85435">
        <ele>313.476074219</ele>
        <time>2014-08-13T13:25:33.09Z</time>
      </trkpt>
      <trkpt lat="48.43819" lon="-3.85439">
        <ele>313.088989258</ele>
        <time>2014-08-13T13:25:34.094Z</time>
      </trkpt>
      <trkpt lat="48.43826" lon="-3.85443">
        <ele>312.431091309</ele>
        <time>2014-08-13T13:25:35.093Z</time>
      </trkpt>
      <trkpt lat="48.43834" lon="-3.85446">
        <ele>311.806488037</ele>
        <time>2014-08-13T13:25:36.095Z</time>
      </trkpt>
      <trkpt lat="48.4384" lon="-3.85448">
        <ele>311.628875732</ele>
        <time>2014-08-13T13:25:37.096Z</time>
      </trkpt>
      <trkpt lat="48.43847" lon="-3.8545">
        <ele>310.785949707</ele>
        <time>2014-08-13T13:25:38.096Z</time>
      </trkpt>
      <trkpt lat="48.43852" lon="-3.85451">
        <ele>309.702484131</ele>
        <time>2014-08-13T13:25:39.103Z</time>
      </trkpt>
      <trkpt lat="48.43858" lon="-3.85452">
        <ele>308.744934082</ele>
        <time>2014-08-13T13:25:40.105Z</time>
      </trkpt>
      <trkpt lat="48.43865" lon="-3.85454">
        <ele>308.008087158</ele>
        <time>2014-08-13T13:25:41.091Z</time>
      </trkpt>
      <trkpt lat="48.43871" lon="-3.85455">
        <ele>307.995544434</ele>
        <time>2014-08-13T13:25:42.097Z</time>
      </trkpt>
      <trkpt lat="48.43877" lon="-3.85456">
        <ele>306.852081299</ele>
        <time>2014-08-13T13:25:43.084Z</time>
      </trkpt>
      <trkpt lat="48.43883" lon="-3.85457">
        <ele>306.283905029</ele>
        <time>2014-08-13T13:25:44.101Z</time>
      </trkpt>
      <trkpt lat="48.4389" lon="-3.85458">
        <ele>305.647674561</ele>
        <time>2014-08-13T13:25:45.097Z</time>
      </trkpt>
      <trkpt lat="48.43897" lon="-3.85459">
        <ele>304.896942139</ele>
        <time>2014-08-13T13:25:46.096Z</time>
      </trkpt>
      <trkpt lat="48.43905" lon="-3.8546">
        <ele>304.711090088</ele>
        <time>2014-08-13T13:25:47.089Z</time>
      </trkpt>
      <trkpt lat="48.43912" lon="-3.85462">
        <ele>303.870605469</ele>
        <time>2014-08-13T13:25:48.135Z</time>
      </trkpt>
      <trkpt lat="48.43919" lon="-3.85463">
        <ele>302.818023682</ele>
        <time>2014-08-13T13:25:49.081Z</time>
      </trkpt>
      <trkpt lat="48.43927" lon="-3.85464">
        <ele>302.050323486</ele>
        <time>2014-08-13T13:25:50.092Z</time>
      </trkpt>
      <trkpt lat="48.43934" lon="-3.85465">
        <ele>300.647918701</ele>
        <time>2014-08-13T13:25:51.094Z</time>
      </trkpt>
      <trkpt lat="48.43941" lon="-3.85466">
        <ele>299.516998291</ele>
        <time>2014-08-13T13:25:52.093Z</time>
      </trkpt>
      <trkpt lat="48.43947" lon="-3.85466">
        <ele>298.800354004</ele>
        <time>2014-08-13T13:25:53.09Z</time>
      </trkpt>
      <trkpt lat="48.43953" lon="-3.85467">
        <ele>297.561248779</ele>
        <time>2014-08-13T13:25:54.116Z</time>
      </trkpt>
      <trkpt lat="48.43961" lon="-3.85468">
        <ele>296.211273193</ele>
        <time>2014-08-13T13:25:55.095Z</time>
      </trkpt>
      <trkpt lat="48.43969" lon="-3.85467">
        <ele>295.296844482</ele>
        <time>2014-08-13T13:25:56.094Z</time>
      </trkpt>
      <trkpt lat="48.43977" lon="-3.85467">
        <ele>293.622894287</ele>
        <time>2014-08-13T13:25:57.09Z</time>
      </trkpt>
      <trkpt lat="48.43984" lon="-3.85468">
        <ele>292.922363281</ele>
        <time>2014-08-13T13:25:58.097Z</time>
      </trkpt>
      <trkpt lat="48.4399" lon="-3.85465">
        <ele>291.535095215</ele>
        <time>2014-08-13T13:25:59.094Z</time>
      </trkpt>
      <trkpt lat="48.43997" lon="-3.85462">
        <ele>290.940032959</ele>
        <time>2014-08-13T13:26:00.152Z</time>
      </trkpt>
      <trkpt lat="48.44003" lon="-3.8546">
        <ele>290.566619873</ele>
        <time>2014-08-13T13:26:01.09Z</time>
      </trkpt>
      <trkpt lat="48.44009" lon="-3.85458">
        <ele>289.964385986</ele>
        <time>2014-08-13T13:26:02.092Z</time>
      </trkpt>
      <trkpt lat="48.44015" lon="-3.85454">
        <ele>289.07434082</ele>
        <time>2014-08-13T13:26:03.093Z</time>
      </trkpt>
      <trkpt lat="48.44021" lon="-3.85452">
        <ele>287.915679932</ele>
        <time>2014-08-13T13:26:04.092Z</time>
      </trkpt>
      <trkpt lat="48.44026" lon="-3.8545">
        <ele>287.378692627</ele>
        <time>2014-08-13T13:26:05.097Z</time>
      </trkpt>
      <trkpt lat="48.4403" lon="-3.85446">
        <ele>286.910186768</ele>
        <time>2014-08-13T13:26:06.099Z</time>
      </trkpt>
      <trkpt lat="48.44035" lon="-3.85443">
        <ele>286.566741943</ele>
        <time>2014-08-13T13:26:07.087Z</time>
      </trkpt>
      <trkpt lat="48.4404" lon="-3.85439">
        <ele>286.874725342</ele>
        <time>2014-08-13T13:26:08.094Z</time>
      </trkpt>
      <trkpt lat="48.44044" lon="-3.85436">
        <ele>286.827331543</ele>
        <time>2014-08-13T13:26:09.093Z</time>
      </trkpt>
      <trkpt lat="48.44049" lon="-3.85434">
        <ele>286.579193115</ele>
        <time>2014-08-13T13:26:10.091Z</time>
      </trkpt>
      <trkpt lat="48.44053" lon="-3.85432">
        <ele>286.55770874</ele>
        <time>2014-08-13T13:26:11.088Z</time>
      </trkpt>
      <trkpt lat="48.44059" lon="-3.85432">
        <ele>286.84777832</ele>
        <time>2014-08-13T13:26:12.091Z</time>
      </trkpt>
      <trkpt lat="48.44065" lon="-3.85432">
        <ele>287.25189209</ele>
        <time>2014-08-13T13:26:13.082Z</time>
      </trkpt>
      <trkpt lat="48.44071" lon="-3.85432">
        <ele>287.333007812</ele>
        <time>2014-08-13T13:26:14.083Z</time>
      </trkpt>
      <trkpt lat="48.44078" lon="-3.85433">
        <ele>286.513916016</ele>
        <time>2014-08-13T13:26:15.078Z</time>
      </trkpt>
      <trkpt lat="48.44086" lon="-3.85433">
        <ele>286.258789062</ele>
        <time>2014-08-13T13:26:16.087Z</time>
      </trkpt>
      <trkpt lat="48.44092" lon="-3.85434">
        <ele>286.091522217</ele>
        <time>2014-08-13T13:26:17.074Z</time>
      </trkpt>
      <trkpt lat="48.44097" lon="-3.85436">
        <ele>286.05078125</ele>
        <time>2014-08-13T13:26:18.09Z</time>
      </trkpt>
      <trkpt lat="48.44103" lon="-3.85437">
        <ele>286.546142578</ele>
        <time>2014-08-13T13:26:19.087Z</time>
      </trkpt>
      <trkpt lat="48.44109" lon="-3.85438">
        <ele>287.11328125</ele>
        <time>2014-08-13T13:26:20.081Z</time>
      </trkpt>
      <trkpt lat="48.44114" lon="-3.8544">
        <ele>287.149871826</ele>
        <time>2014-08-13T13:26:21.084Z</time>
      </trkpt>
      <trkpt lat="48.4412" lon="-3.85442">
        <ele>286.91494751</ele>
        <time>2014-08-13T13:26:22.087Z</time>
      </trkpt>
      <trkpt lat="48.44126" lon="-3.85443">
        <ele>286.385345459</ele>
        <time>2014-08-13T13:26:23.087Z</time>
      </trkpt>
      <trkpt lat="48.44133" lon="-3.85444">
        <ele>286.104797363</ele>
        <time>2014-08-13T13:26:24.09Z</time>
      </trkpt>
      <trkpt lat="48.44141" lon="-3.85442">
        <ele>285.237792969</ele>
        <time>2014-08-13T13:26:25.077Z</time>
      </trkpt>
      <trkpt lat="48.44148" lon="-3.85441">
        <ele>284.323425293</ele>
        <time>2014-08-13T13:26:26.103Z</time>
      </trkpt>
      <trkpt lat="48.44154" lon="-3.85444">
        <ele>283.670379639</ele>
        <time>2014-08-13T13:26:27.084Z</time>
      </trkpt>
      <trkpt lat="48.4416" lon="-3.85448">
        <ele>283.333648682</ele>
        <time>2014-08-13T13:26:28.087Z</time>
      </trkpt>
      <trkpt lat="48.44165" lon="-3.85452">
        <ele>282.708526611</ele>
        <time>2014-08-13T13:26:29.093Z</time>
      </trkpt>
      <trkpt lat="48.44171" lon="-3.85457">
        <ele>282.320587158</ele>
        <time>2014-08-13T13:26:30.099Z</time>
      </trkpt>
      <trkpt lat="48.44177" lon="-3.8546">
        <ele>281.300048828</ele>
        <time>2014-08-13T13:26:31.09Z</time>
      </trkpt>
      <trkpt lat="48.44183" lon="-3.85463">
        <ele>281.11807251</ele>
        <time>2014-08-13T13:26:32.081Z</time>
      </trkpt>
      <trkpt lat="48.44189" lon="-3.85466">
        <ele>281.208404541</ele>
        <time>2014-08-13T13:26:33.086Z</time>
      </trkpt>
      <trkpt lat="48.44195" lon="-3.85469">
        <ele>281.441345215</ele>
        <time>2014-08-13T13:26:34.097Z</time>
      </trkpt>
      <trkpt lat="48.442" lon="-3.85472">
        <ele>281.231109619</ele>
        <time>2014-08-13T13:26:35.085Z</time>
      </trkpt>
      <trkpt lat="48.44206" lon="-3.85472">
        <ele>281.811065674</ele>
        <time>2014-08-13T13:26:36.088Z</time>
      </trkpt>
      <trkpt lat="48.44213" lon="-3.85473">
        <ele>281.942138672</ele>
        <time>2014-08-13T13:26:37.084Z</time>
      </trkpt>
      <trkpt lat="48.44218" lon="-3.85477">
        <ele>281.998352051</ele>
        <time>2014-08-13T13:26:38.079Z</time>
      </trkpt>
      <trkpt lat="48.44223" lon="-3.85483">
        <ele>281.996612549</ele>
        <time>2014-08-13T13:26:39.091Z</time>
      </trkpt>
      <trkpt lat="48.44228" lon="-3.85488">
        <ele>282.323669434</ele>
        <time>2014-08-13T13:26:40.084Z</time>
      </trkpt>
      <trkpt lat="48.44233" lon="-3.85491">
        <ele>282.751434326</ele>
        <time>2014-08-13T13:26:41.09Z</time>
      </trkpt>
      <trkpt lat="48.44238" lon="-3.8549">
        <ele>283.009216309</ele>
        <time>2014-08-13T13:26:42.091Z</time>
      </trkpt>
      <trkpt lat="48.44244" lon="-3.85487">
        <ele>283.435089111</ele>
        <time>2014-08-13T13:26:43.098Z</time>
      </trkpt>
      <trkpt lat="48.44251" lon="-3.85483">
        <ele>284.007507324</ele>
        <time>2014-08-13T13:26:44.075Z</time>
      </trkpt>
      <trkpt lat="48.44256" lon="-3.85479">
        <ele>283.74130249</ele>
        <time>2014-08-13T13:26:45.092Z</time>
      </trkpt>
      <trkpt lat="48.4426" lon="-3.85476">
        <ele>284.294403076</ele>
        <time>2014-08-13T13:26:46.1Z</time>
      </trkpt>
      <trkpt lat="48.44264" lon="-3.85474">
        <ele>284.167877197</ele>
        <time>2014-08-13T13:26:47.09Z</time>
      </trkpt>
      <trkpt lat="48.44269" lon="-3.85472">
        <ele>283.909667969</ele>
        <time>2014-08-13T13:26:48.1Z</time>
      </trkpt>
      <trkpt lat="48.44275" lon="-3.85471">
        <ele>284.14364624</ele>
        <time>2014-08-13T13:26:49.092Z</time>
      </trkpt>
      <trkpt lat="48.44281" lon="-3.85469">
        <ele>283.504882812</ele>
        <time>2014-08-13T13:26:50.098Z</time>
      </trkpt>
      <trkpt lat="48.44287" lon="-3.85465">
        <ele>282.574493408</ele>
        <time>2014-08-13T13:26:51.091Z</time>
      </trkpt>
      <trkpt lat="48.44292" lon="-3.85461">
        <ele>282.445648193</ele>
        <time>2014-08-13T13:26:52.098Z</time>
      </trkpt>
      <trkpt lat="48.44298" lon="-3.85458">
        <ele>282.566955566</ele>
        <time>2014-08-13T13:26:53.116Z</time>
      </trkpt>
      <trkpt lat="48.44304" lon="-3.85455">
        <ele>282.526519775</ele>
        <time>2014-08-13T13:26:55.09Z</time>
      </trkpt>
      <trkpt lat="48.44307" lon="-3.85452">
        <ele>282.479675293</ele>
        <time>2014-08-13T13:26:56.091Z</time>
      </trkpt>
      <trkpt lat="48.44311" lon="-3.85447">
        <ele>282.267883301</ele>
        <time>2014-08-13T13:26:57.089Z</time>
      </trkpt>
      <trkpt lat="48.44313" lon="-3.8544">
        <ele>282.249816895</ele>
        <time>2014-08-13T13:26:58.093Z</time>
      </trkpt>
      <trkpt lat="48.44314" lon="-3.85427">
        <ele>282.346038818</ele>
        <time>2014-08-13T13:27:00.136Z</time>
      </trkpt>
      <trkpt lat="48.44315" lon="-3.85423">
        <ele>282.314178467</ele>
        <time>2014-08-13T13:27:01.085Z</time>
      </trkpt>
      <trkpt lat="48.44317" lon="-3.85416">
        <ele>282.324707031</ele>
        <time>2014-08-13T13:27:02.092Z</time>
      </trkpt>
      <trkpt lat="48.44319" lon="-3.8541">
        <ele>282.328643799</ele>
        <time>2014-08-13T13:27:03.091Z</time>
      </trkpt>
      <trkpt lat="48.44321" lon="-3.85398">
        <ele>282.332611084</ele>
        <time>2014-08-13T13:27:05.092Z</time>
      </trkpt>
      <trkpt lat="48.44322" lon="-3.85393">
        <ele>282.45993042</ele>
        <time>2014-08-13T13:27:06.092Z</time>
      </trkpt>
      <trkpt lat="48.44325" lon="-3.85385">
        <ele>283.405670166</ele>
        <time>2014-08-13T13:27:07.083Z</time>
      </trkpt>
      <trkpt lat="48.44328" lon="-3.85377">
        <ele>283.883026123</ele>
        <time>2014-08-13T13:27:08.088Z</time>
      </trkpt>
      <trkpt lat="48.44331" lon="-3.85369">
        <ele>284.659667969</ele>
        <time>2014-08-13T13:27:09.091Z</time>
      </trkpt>
      <trkpt lat="48.44334" lon="-3.85363">
        <ele>284.723083496</ele>
        <time>2014-08-13T13:27:10.094Z</time>
      </trkpt>
      <trkpt lat="48.44337" lon="-3.85355">
        <ele>285.004669189</ele>
        <time>2014-08-13T13:27:11.09Z</time>
      </trkpt>
      <trkpt lat="48.44341" lon="-3.8535">
        <ele>285.414031982</ele>
        <time>2014-08-13T13:27:12.086Z</time>
      </trkpt>
      <trkpt lat="48.44345" lon="-3.85344">
        <ele>285.685974121</ele>
        <time>2014-08-13T13:27:13.086Z</time>
      </trkpt>
      <trkpt lat="48.44347" lon="-3.85338">
        <ele>285.636047363</ele>
        <time>2014-08-13T13:27:14.084Z</time>
      </trkpt>
      <trkpt lat="48.44353" lon="-3.85329">
        <ele>284.932403564</ele>
        <time>2014-08-13T13:27:16.098Z</time>
      </trkpt>
      <trkpt lat="48.44355" lon="-3.85325">
        <ele>284.982879639</ele>
        <time>2014-08-13T13:27:17.088Z</time>
      </trkpt>
      <trkpt lat="48.44361" lon="-3.85316">
        <ele>285.380950928</ele>
        <time>2014-08-13T13:27:19.092Z</time>
      </trkpt>
      <trkpt lat="48.44364" lon="-3.85311">
        <ele>285.690734863</ele>
        <time>2014-08-13T13:27:20.092Z</time>
      </trkpt>
      <trkpt lat="48.4437" lon="-3.85304">
        <ele>285.776153564</ele>
        <time>2014-08-13T13:27:22.091Z</time>
      </trkpt>
      <trkpt lat="48.44372" lon="-3.853">
        <ele>285.695495605</ele>
        <time>2014-08-13T13:27:23.087Z</time>
      </trkpt>
      <trkpt lat="48.44378" lon="-3.85293">
        <ele>285.823638916</ele>
        <time>2014-08-13T13:27:25.14Z</time>
      </trkpt>
      <trkpt lat="48.4438" lon="-3.85289">
        <ele>285.889923096</ele>
        <time>2014-08-13T13:27:26.09Z</time>
      </trkpt>
      <trkpt lat="48.44384" lon="-3.85283">
        <ele>286.518890381</ele>
        <time>2014-08-13T13:27:27.09Z</time>
      </trkpt>
      <trkpt lat="48.44386" lon="-3.85279">
        <ele>286.539489746</ele>
        <time>2014-08-13T13:27:28.089Z</time>
      </trkpt>
      <trkpt lat="48.44392" lon="-3.85269">
        <ele>286.277526855</ele>
        <time>2014-08-13T13:27:30.094Z</time>
      </trkpt>
      <trkpt lat="48.44394" lon="-3.85265">
        <ele>286.243377686</ele>
        <time>2014-08-13T13:27:31.093Z</time>
      </trkpt>
      <trkpt lat="48.444" lon="-3.85254">
        <ele>285.325469971</ele>
        <time>2014-08-13T13:27:33.092Z</time>
      </trkpt>
      <trkpt lat="48.44402" lon="-3.8525">
        <ele>285.350799561</ele>
        <time>2014-08-13T13:27:34.089Z</time>
      </trkpt>
      <trkpt lat="48.44407" lon="-3.8524">
        <ele>285.371307373</ele>
        <time>2014-08-13T13:27:36.09Z</time>
      </trkpt>
      <trkpt lat="48.44409" lon="-3.85236">
        <ele>285.343658447</ele>
        <time>2014-08-13T13:27:37.09Z</time>
      </trkpt>
      <trkpt lat="48.44415" lon="-3.85229">
        <ele>285.163909912</ele>
        <time>2014-08-13T13:27:39.084Z</time>
      </trkpt>
      <trkpt lat="48.44418" lon="-3.85224">
        <ele>285.079559326</ele>
        <time>2014-08-13T13:27:40.09Z</time>
      </trkpt>
      <trkpt lat="48.44423" lon="-3.85216">
        <ele>285.096984863</ele>
        <time>2014-08-13T13:27:42.085Z</time>
      </trkpt>
      <trkpt lat="48.44426" lon="-3.85213">
        <ele>285.119812012</ele>
        <time>2014-08-13T13:27:43.087Z</time>
      </trkpt>
      <trkpt lat="48.44431" lon="-3.85207">
        <ele>285.062774658</ele>
        <time>2014-08-13T13:27:45.09Z</time>
      </trkpt>
      <trkpt lat="48.44434" lon="-3.85204">
        <ele>285.096343994</ele>
        <time>2014-08-13T13:27:46.091Z</time>
      </trkpt>
      <trkpt lat="48.4444" lon="-3.85196">
        <ele>285.115509033</ele>
        <time>2014-08-13T13:27:49.083Z</time>
      </trkpt>
      <trkpt lat="48.44441" lon="-3.85193">
        <ele>285.122039795</ele>
        <time>2014-08-13T13:27:50.086Z</time>
      </trkpt>
      <trkpt lat="48.44447" lon="-3.85184">
        <ele>285.317687988</ele>
        <time>2014-08-13T13:27:53.087Z</time>
      </trkpt>
      <trkpt lat="48.44449" lon="-3.85181">
        <ele>285.462341309</ele>
        <time>2014-08-13T13:27:54.092Z</time>
      </trkpt>
      <trkpt lat="48.44455" lon="-3.85173">
        <ele>285.875427246</ele>
        <time>2014-08-13T13:27:57.084Z</time>
      </trkpt>
      <trkpt lat="48.44456" lon="-3.85171">
        <ele>285.92376709</ele>
        <time>2014-08-13T13:27:58.082Z</time>
      </trkpt>
      <trkpt lat="48.44462" lon="-3.85162">
        <ele>286.561004639</ele>
        <time>2014-08-13T13:28:03.135Z</time>
      </trkpt>
      <trkpt lat="48.44462" lon="-3.8516">
        <ele>286.747528076</ele>
        <time>2014-08-13T13:28:04.104Z</time>
      </trkpt>
      <trkpt lat="48.44468" lon="-3.85151">
        <ele>287.820465088</ele>
        <time>2014-08-13T13:28:09.092Z</time>
      </trkpt>
      <trkpt lat="48.44469" lon="-3.8515">
        <ele>288.019775391</ele>
        <time>2014-08-13T13:28:10.097Z</time>
      </trkpt>
      <trkpt lat="48.44475" lon="-3.8514">
        <ele>289.10647583</ele>
        <time>2014-08-13T13:28:16.086Z</time>
      </trkpt>
      <trkpt lat="48.44477" lon="-3.85139">
        <ele>289.194671631</ele>
        <time>2014-08-13T13:28:17.091Z</time>
      </trkpt>
      <trkpt lat="48.44483" lon="-3.8513">
        <ele>289.70904541</ele>
        <time>2014-08-13T13:28:21.067Z</time>
      </trkpt>
      <trkpt lat="48.44484" lon="-3.85129">
        <ele>289.820617676</ele>
        <time>2014-08-13T13:28:22.074Z</time>
      </trkpt>
      <trkpt lat="48.44492" lon="-3.85123">
        <ele>290.019042969</ele>
        <time>2014-08-13T13:28:26.065Z</time>
      </trkpt>
      <trkpt lat="48.44494" lon="-3.85123">
        <ele>290.032409668</ele>
        <time>2014-08-13T13:28:27.07Z</time>
      </trkpt>
      <trkpt lat="48.44502" lon="-3.85123">
        <ele>289.155456543</ele>
        <time>2014-08-13T13:31:44.061Z</time>
      </trkpt>
      <trkpt lat="48.44504" lon="-3.8512">
        <ele>289.156219482</ele>
        <time>2014-08-13T13:31:45.08Z</time>
      </trkpt>
      <trkpt lat="48.44508" lon="-3.85108">
        <ele>288.502044678</ele>
        <time>2014-08-13T13:32:44.088Z</time>
      </trkpt>
      <trkpt lat="48.44508" lon="-3.85108">
        <ele>288.472717285</ele>
        <time>2014-08-13T13:32:45.092Z</time>
      </trkpt>
      <trkpt lat="48.44515" lon="-3.85111">
        <ele>288.279388428</ele>
        <time>2014-08-13T13:37:35.091Z</time>
      </trkpt>
      <trkpt lat="48.44516" lon="-3.85111">
        <ele>288.238708496</ele>
        <time>2014-08-13T13:37:36.115Z</time>
      </trkpt>
      <trkpt lat="48.44525" lon="-3.85112">
        <ele>287.904327393</ele>
        <time>2014-08-13T13:37:41.095Z</time>
      </trkpt>
      <trkpt lat="48.44526" lon="-3.85111">
        <ele>287.771148682</ele>
        <time>2014-08-13T13:37:42.088Z</time>
      </trkpt>
      <trkpt lat="48.44534" lon="-3.85107">
        <ele>287.679229736</ele>
        <time>2014-08-13T13:37:46.095Z</time>
      </trkpt>
      <trkpt lat="48.44536" lon="-3.85107">
        <ele>287.664916992</ele>
        <time>2014-08-13T13:37:47.102Z</time>
      </trkpt>
      <trkpt lat="48.44543" lon="-3.85105">
        <ele>287.777160645</ele>
        <time>2014-08-13T13:37:51.099Z</time>
      </trkpt>
      <trkpt lat="48.44546" lon="-3.85104">
        <ele>287.846496582</ele>
        <time>2014-08-13T13:37:52.091Z</time>
      </trkpt>
      <trkpt lat="48.44553" lon="-3.85099">
        <ele>288.262207031</ele>
        <time>2014-08-13T13:37:57.098Z</time>
      </trkpt>
      <trkpt lat="48.44554" lon="-3.85097">
        <ele>288.433074951</ele>
        <time>2014-08-13T13:37:58.092Z</time>
      </trkpt>
      <trkpt lat="48.44562" lon="-3.85093">
        <ele>288.975036621</ele>
        <time>2014-08-13T13:38:02.103Z</time>
      </trkpt>
      <trkpt lat="48.44563" lon="-3.85091">
        <ele>289.058868408</ele>
        <time>2014-08-13T13:38:03.109Z</time>
      </trkpt>
      <trkpt lat="48.44571" lon="-3.85085">
        <ele>289.520904541</ele>
        <time>2014-08-13T13:38:08.102Z</time>
      </trkpt>
      <trkpt lat="48.44573" lon="-3.85084">
        <ele>289.644744873</ele>
        <time>2014-08-13T13:38:09.108Z</time>
      </trkpt>
      <trkpt lat="48.44578" lon="-3.85078">
        <ele>289.917572021</ele>
        <time>2014-08-13T13:38:12.106Z</time>
      </trkpt>
      <trkpt lat="48.44581" lon="-3.85077">
        <ele>290.032562256</ele>
        <time>2014-08-13T13:38:13.108Z</time>
      </trkpt>
      <trkpt lat="48.44588" lon="-3.8507">
        <ele>290.866485596</ele>
        <time>2014-08-13T13:38:17.103Z</time>
      </trkpt>
      <trkpt lat="48.44589" lon="-3.85069">
        <ele>291.066101074</ele>
        <time>2014-08-13T13:38:18.094Z</time>
      </trkpt>
      <trkpt lat="48.44596" lon="-3.85062">
        <ele>291.72265625</ele>
        <time>2014-08-13T13:38:22.095Z</time>
      </trkpt>
      <trkpt lat="48.44598" lon="-3.8506">
        <ele>291.99017334</ele>
        <time>2014-08-13T13:38:23.098Z</time>
      </trkpt>
      <trkpt lat="48.44604" lon="-3.85053">
        <ele>293.224578857</ele>
        <time>2014-08-13T13:38:27.126Z</time>
      </trkpt>
      <trkpt lat="48.44605" lon="-3.8505">
        <ele>293.556671143</ele>
        <time>2014-08-13T13:38:28.101Z</time>
      </trkpt>
      <trkpt lat="48.44609" lon="-3.8504">
        <ele>295.472320557</ele>
        <time>2014-08-13T13:38:37.109Z</time>
      </trkpt>
      <trkpt lat="48.4461" lon="-3.85039">
        <ele>295.751342773</ele>
        <time>2014-08-13T13:38:38.091Z</time>
      </trkpt>
      <trkpt lat="48.44618" lon="-3.85038">
        <ele>296.884033203</ele>
        <time>2014-08-13T13:38:42.097Z</time>
      </trkpt>
      <trkpt lat="48.44621" lon="-3.85035">
        <ele>297.173034668</ele>
        <time>2014-08-13T13:38:43.112Z</time>
      </trkpt>
      <trkpt lat="48.44629" lon="-3.8503">
        <ele>298.270019531</ele>
        <time>2014-08-13T13:38:47.108Z</time>
      </trkpt>
      <trkpt lat="48.4463" lon="-3.85027">
        <ele>298.608947754</ele>
        <time>2014-08-13T13:38:48.1Z</time>
      </trkpt>
      <trkpt lat="48.44636" lon="-3.85019">
        <ele>299.288360596</ele>
        <time>2014-08-13T13:38:53.11Z</time>
      </trkpt>
      <trkpt lat="48.44636" lon="-3.85018">
        <ele>299.380432129</ele>
        <time>2014-08-13T13:38:54.102Z</time>
      </trkpt>
      <trkpt lat="48.44642" lon="-3.85011">
        <ele>299.933258057</ele>
        <time>2014-08-13T13:38:58.094Z</time>
      </trkpt>
      <trkpt lat="48.44645" lon="-3.8501">
        <ele>300.056365967</ele>
        <time>2014-08-13T13:38:59.099Z</time>
      </trkpt>
      <trkpt lat="48.44652" lon="-3.85007">
        <ele>300.238586426</ele>
        <time>2014-08-13T13:39:01.102Z</time>
      </trkpt>
      <trkpt lat="48.44655" lon="-3.85006">
        <ele>300.366638184</ele>
        <time>2014-08-13T13:39:02.101Z</time>
      </trkpt>
      <trkpt lat="48.44663" lon="-3.85003">
        <ele>300.555480957</ele>
        <time>2014-08-13T13:39:04.1Z</time>
      </trkpt>
      <trkpt lat="48.44665" lon="-3.85001">
        <ele>300.641448975</ele>
        <time>2014-08-13T13:39:05.091Z</time>
      </trkpt>
      <trkpt lat="48.44674" lon="-3.84999">
        <ele>300.07019043</ele>
        <time>2014-08-13T13:39:07.091Z</time>
      </trkpt>
      <trkpt lat="48.44679" lon="-3.84998">
        <ele>300.123718262</ele>
        <time>2014-08-13T13:39:08.091Z</time>
      </trkpt>
      <trkpt lat="48.44686" lon="-3.84998">
        <ele>300.123382568</ele>
        <time>2014-08-13T13:39:10.1Z</time>
      </trkpt>
      <trkpt lat="48.4469" lon="-3.84997">
        <ele>299.504211426</ele>
        <time>2014-08-13T13:39:11.11Z</time>
      </trkpt>
      <trkpt lat="48.44696" lon="-3.84995">
        <ele>298.899475098</ele>
        <time>2014-08-13T13:39:13.1Z</time>
      </trkpt>
      <trkpt lat="48.44699" lon="-3.84995">
        <ele>298.907287598</ele>
        <time>2014-08-13T13:39:14.095Z</time>
      </trkpt>
      <trkpt lat="48.44706" lon="-3.84995">
        <ele>298.922119141</ele>
        <time>2014-08-13T13:39:16.093Z</time>
      </trkpt>
      <trkpt lat="48.44711" lon="-3.84995">
        <ele>299.306396484</ele>
        <time>2014-08-13T13:39:17.101Z</time>
      </trkpt>
      <trkpt lat="48.44719" lon="-3.84996">
        <ele>299.476776123</ele>
        <time>2014-08-13T13:39:19.103Z</time>
      </trkpt>
      <trkpt lat="48.44724" lon="-3.84996">
        <ele>299.604003906</ele>
        <time>2014-08-13T13:39:20.101Z</time>
      </trkpt>
      <trkpt lat="48.44733" lon="-3.84995">
        <ele>299.728851318</ele>
        <time>2014-08-13T13:39:23.097Z</time>
      </trkpt>
      <trkpt lat="48.44735" lon="-3.84995">
        <ele>299.741363525</ele>
        <time>2014-08-13T13:39:24.095Z</time>
      </trkpt>
      <trkpt lat="48.44741" lon="-3.84993">
        <ele>300.009643555</ele>
        <time>2014-08-13T13:39:27.098Z</time>
      </trkpt>
      <trkpt lat="48.44745" lon="-3.84992">
        <ele>300.11630249</ele>
        <time>2014-08-13T13:39:28.098Z</time>
      </trkpt>
      <trkpt lat="48.44749" lon="-3.84991">
        <ele>300.227783203</ele>
        <time>2014-08-13T13:39:29.102Z</time>
      </trkpt>
      <trkpt lat="48.44754" lon="-3.8499">
        <ele>301.260742188</ele>
        <time>2014-08-13T13:39:30.109Z</time>
      </trkpt>
      <trkpt lat="48.4476" lon="-3.84989">
        <ele>301.875152588</ele>
        <time>2014-08-13T13:39:31.108Z</time>
      </trkpt>
      <trkpt lat="48.44767" lon="-3.84988">
        <ele>302.265533447</ele>
        <time>2014-08-13T13:39:32.099Z</time>
      </trkpt>
      <trkpt lat="48.44773" lon="-3.84987">
        <ele>302.836395264</ele>
        <time>2014-08-13T13:39:33.108Z</time>
      </trkpt>
      <trkpt lat="48.44779" lon="-3.84986">
        <ele>303.455932617</ele>
        <time>2014-08-13T13:39:34.107Z</time>
      </trkpt>
      <trkpt lat="48.44785" lon="-3.84986">
        <ele>303.974853516</ele>
        <time>2014-08-13T13:39:35.101Z</time>
      </trkpt>
      <trkpt lat="48.44791" lon="-3.84985">
        <ele>304.72088623</ele>
        <time>2014-08-13T13:39:36.101Z</time>
      </trkpt>
      <trkpt lat="48.44796" lon="-3.84984">
        <ele>305.147369385</ele>
        <time>2014-08-13T13:39:37.096Z</time>
      </trkpt>
      <trkpt lat="48.448" lon="-3.84984">
        <ele>305.135528564</ele>
        <time>2014-08-13T13:39:38.085Z</time>
      </trkpt>
      <trkpt lat="48.44805" lon="-3.84984">
        <ele>306.251098633</ele>
        <time>2014-08-13T13:39:39.102Z</time>
      </trkpt>
      <trkpt lat="48.4481" lon="-3.84984">
        <ele>306.581634521</ele>
        <time>2014-08-13T13:39:40.1Z</time>
      </trkpt>
      <trkpt lat="48.44819" lon="-3.84983">
        <ele>306.830566406</ele>
        <time>2014-08-13T13:39:42.12Z</time>
      </trkpt>
      <trkpt lat="48.44824" lon="-3.84982">
        <ele>306.740203857</ele>
        <time>2014-08-13T13:39:43.103Z</time>
      </trkpt>
      <trkpt lat="48.44831" lon="-3.84981">
        <ele>306.548980713</ele>
        <time>2014-08-13T13:39:45.1Z</time>
      </trkpt>
      <trkpt lat="48.44833" lon="-3.84981">
        <ele>306.478027344</ele>
        <time>2014-08-13T13:39:46.092Z</time>
      </trkpt>
      <trkpt lat="48.44841" lon="-3.84981">
        <ele>306.258514404</ele>
        <time>2014-08-13T13:39:49.099Z</time>
      </trkpt>
      <trkpt lat="48.44843" lon="-3.84981">
        <ele>306.112182617</ele>
        <time>2014-08-13T13:39:50.101Z</time>
      </trkpt>
      <trkpt lat="48.4485" lon="-3.84981">
        <ele>305.803222656</ele>
        <time>2014-08-13T13:39:53.099Z</time>
      </trkpt>
      <trkpt lat="48.44853" lon="-3.84981">
        <ele>305.781555176</ele>
        <time>2014-08-13T13:39:54.101Z</time>
      </trkpt>
      <trkpt lat="48.44861" lon="-3.84982">
        <ele>305.865447998</ele>
        <time>2014-08-13T13:39:58.097Z</time>
      </trkpt>
      <trkpt lat="48.44864" lon="-3.84982">
        <ele>305.954345703</ele>
        <time>2014-08-13T13:39:59.104Z</time>
      </trkpt>
      <trkpt lat="48.44873" lon="-3.84979">
        <ele>306.668273926</ele>
        <time>2014-08-13T13:40:10.108Z</time>
      </trkpt>
      <trkpt lat="48.44873" lon="-3.84979">
        <ele>306.66897583</ele>
        <time>2014-08-13T13:40:11.1Z</time>
      </trkpt>
      <trkpt lat="48.4488" lon="-3.84979">
        <ele>306.947692871</ele>
        <time>2014-08-13T13:40:33.099Z</time>
      </trkpt>
      <trkpt lat="48.44884" lon="-3.84979">
        <ele>306.998901367</ele>
        <time>2014-08-13T13:40:34.097Z</time>
      </trkpt>
      <trkpt lat="48.44892" lon="-3.84977">
        <ele>307.171508789</ele>
        <time>2014-08-13T13:40:37.101Z</time>
      </trkpt>
      <trkpt lat="48.44893" lon="-3.84976">
        <ele>307.258575439</ele>
        <time>2014-08-13T13:40:38.095Z</time>
      </trkpt>
      <trkpt lat="48.44899" lon="-3.84975">
        <ele>307.377380371</ele>
        <time>2014-08-13T13:40:40.099Z</time>
      </trkpt>
      <trkpt lat="48.44902" lon="-3.84975">
        <ele>307.369781494</ele>
        <time>2014-08-13T13:40:41.092Z</time>
      </trkpt>
      <trkpt lat="48.44909" lon="-3.84972">
        <ele>307.237365723</ele>
        <time>2014-08-13T13:40:43.094Z</time>
      </trkpt>
      <trkpt lat="48.44913" lon="-3.84971">
        <ele>307.211608887</ele>
        <time>2014-08-13T13:40:44.089Z</time>
      </trkpt>
      <trkpt lat="48.44918" lon="-3.8497">
        <ele>306.894439697</ele>
        <time>2014-08-13T13:40:45.089Z</time>
      </trkpt>
      <trkpt lat="48.44924" lon="-3.84968">
        <ele>306.497711182</ele>
        <time>2014-08-13T13:40:46.098Z</time>
      </trkpt>
      <trkpt lat="48.4493" lon="-3.84964">
        <ele>305.604003906</ele>
        <time>2014-08-13T13:40:47.091Z</time>
      </trkpt>
      <trkpt lat="48.44935" lon="-3.84962">
        <ele>305.485595703</ele>
        <time>2014-08-13T13:40:48.092Z</time>
      </trkpt>
      <trkpt lat="48.4494" lon="-3.84961">
        <ele>304.132629395</ele>
        <time>2014-08-13T13:40:49.093Z</time>
      </trkpt>
      <trkpt lat="48.44945" lon="-3.84958">
        <ele>302.770690918</ele>
        <time>2014-08-13T13:40:50.095Z</time>
      </trkpt>
      <trkpt lat="48.44953" lon="-3.84957">
        <ele>300.768493652</ele>
        <time>2014-08-13T13:40:51.101Z</time>
      </trkpt>
      <trkpt lat="48.44959" lon="-3.84956">
        <ele>299.970428467</ele>
        <time>2014-08-13T13:40:52.093Z</time>
      </trkpt>
      <trkpt lat="48.44965" lon="-3.84954">
        <ele>300.104675293</ele>
        <time>2014-08-13T13:40:53.093Z</time>
      </trkpt>
      <trkpt lat="48.4497" lon="-3.84952">
        <ele>300.542388916</ele>
        <time>2014-08-13T13:40:54.097Z</time>
      </trkpt>
      <trkpt lat="48.44977" lon="-3.84948">
        <ele>300.364593506</ele>
        <time>2014-08-13T13:40:55.1Z</time>
      </trkpt>
      <trkpt lat="48.44981" lon="-3.84943">
        <ele>299.980438232</ele>
        <time>2014-08-13T13:40:56.101Z</time>
      </trkpt>
      <trkpt lat="48.44987" lon="-3.84941">
        <ele>300.739349365</ele>
        <time>2014-08-13T13:40:57.1Z</time>
      </trkpt>
      <trkpt lat="48.44993" lon="-3.8494">
        <ele>301.166992188</ele>
        <time>2014-08-13T13:40:58.099Z</time>
      </trkpt>
      <trkpt lat="48.45" lon="-3.84938">
        <ele>302.090240479</ele>
        <time>2014-08-13T13:40:59.091Z</time>
      </trkpt>
      <trkpt lat="48.45005" lon="-3.84937">
        <ele>301.156066895</ele>
        <time>2014-08-13T13:41:00.2Z</time>
      </trkpt>
      <trkpt lat="48.4501" lon="-3.84935">
        <ele>300.110198975</ele>
        <time>2014-08-13T13:41:01.091Z</time>
      </trkpt>
      <trkpt lat="48.45016" lon="-3.84934">
        <ele>299.366546631</ele>
        <time>2014-08-13T13:41:02.092Z</time>
      </trkpt>
      <trkpt lat="48.45021" lon="-3.84932">
        <ele>298.636566162</ele>
        <time>2014-08-13T13:41:03.093Z</time>
      </trkpt>
      <trkpt lat="48.45025" lon="-3.84928">
        <ele>298.136230469</ele>
        <time>2014-08-13T13:41:04.104Z</time>
      </trkpt>
      <trkpt lat="48.45027" lon="-3.84921">
        <ele>297.511047363</ele>
        <time>2014-08-13T13:41:05.098Z</time>
      </trkpt>
      <trkpt lat="48.45029" lon="-3.84915">
        <ele>297.27444458</ele>
        <time>2014-08-13T13:41:06.103Z</time>
      </trkpt>
      <trkpt lat="48.45031" lon="-3.84909">
        <ele>297.180664062</ele>
        <time>2014-08-13T13:41:07.104Z</time>
      </trkpt>
      <trkpt lat="48.45033" lon="-3.84902">
        <ele>297.107330322</ele>
        <time>2014-08-13T13:41:08.096Z</time>
      </trkpt>
      <trkpt lat="48.45036" lon="-3.84891">
        <ele>296.996246338</ele>
        <time>2014-08-13T13:41:10.106Z</time>
      </trkpt>
      <trkpt lat="48.45038" lon="-3.84886">
        <ele>296.919464111</ele>
        <time>2014-08-13T13:41:11.105Z</time>
      </trkpt>
      <trkpt lat="48.45044" lon="-3.84878">
        <ele>296.781188965</ele>
        <time>2014-08-13T13:41:13.108Z</time>
      </trkpt>
      <trkpt lat="48.45046" lon="-3.84874">
        <ele>296.705688477</ele>
        <time>2014-08-13T13:41:14.087Z</time>
      </trkpt>
      <trkpt lat="48.45051" lon="-3.84868">
        <ele>296.765075684</ele>
        <time>2014-08-13T13:41:16.097Z</time>
      </trkpt>
      <trkpt lat="48.45055" lon="-3.84865">
        <ele>298.295410156</ele>
        <time>2014-08-13T13:41:17.125Z</time>
      </trkpt>
      <trkpt lat="48.45062" lon="-3.84858">
        <ele>298.792236328</ele>
        <time>2014-08-13T13:41:21.105Z</time>
      </trkpt>
      <trkpt lat="48.45064" lon="-3.84855">
        <ele>298.844390869</ele>
        <time>2014-08-13T13:41:22.099Z</time>
      </trkpt>
      <trkpt lat="48.45069" lon="-3.84847">
        <ele>299.16583252</ele>
        <time>2014-08-13T13:41:25.102Z</time>
      </trkpt>
      <trkpt lat="48.4507" lon="-3.84845">
        <ele>299.240509033</ele>
        <time>2014-08-13T13:41:26.095Z</time>
      </trkpt>
      <trkpt lat="48.45075" lon="-3.84834">
        <ele>299.826477051</ele>
        <time>2014-08-13T13:41:30.961Z</time>
      </trkpt>
      <trkpt lat="48.45076" lon="-3.84831">
        <ele>299.913116455</ele>
        <time>2014-08-13T13:41:31.953Z</time>
      </trkpt>
      <trkpt lat="48.4508" lon="-3.84822">
        <ele>299.935882568</ele>
        <time>2014-08-13T13:41:34.965Z</time>
      </trkpt>
      <trkpt lat="48.45082" lon="-3.8482">
        <ele>300.051147461</ele>
        <time>2014-08-13T13:41:35.964Z</time>
      </trkpt>
      <trkpt lat="48.45085" lon="-3.84808">
        <ele>300.401885986</ele>
        <time>2014-08-13T13:41:39.959Z</time>
      </trkpt>
      <trkpt lat="48.45086" lon="-3.84805">
        <ele>300.518920898</ele>
        <time>2014-08-13T13:41:40.966Z</time>
      </trkpt>
      <trkpt lat="48.4509" lon="-3.84793">
        <ele>301.505371094</ele>
        <time>2014-08-13T13:41:46.958Z</time>
      </trkpt>
      <trkpt lat="48.45091" lon="-3.84792">
        <ele>301.74105835</ele>
        <time>2014-08-13T13:41:47.959Z</time>
      </trkpt>
      <trkpt lat="48.45094" lon="-3.84783">
        <ele>302.85333252</ele>
        <time>2014-08-13T13:41:52.962Z</time>
      </trkpt>
      <trkpt lat="48.45095" lon="-3.84779">
        <ele>302.905639648</ele>
        <time>2014-08-13T13:41:53.953Z</time>
      </trkpt>
      <trkpt lat="48.45098" lon="-3.84769">
        <ele>304.245574951</ele>
        <time>2014-08-13T13:41:59.42Z</time>
      </trkpt>
      <trkpt lat="48.45099" lon="-3.84767">
        <ele>304.631530762</ele>
        <time>2014-08-13T13:42:00.394Z</time>
      </trkpt>
      <trkpt lat="48.45099" lon="-3.84754">
        <ele>306.824066162</ele>
        <time>2014-08-13T13:42:07.389Z</time>
      </trkpt>
      <trkpt lat="48.45099" lon="-3.84753">
        <ele>306.951049805</ele>
        <time>2014-08-13T13:42:08.396Z</time>
      </trkpt>
      <trkpt lat="48.45095" lon="-3.84742">
        <ele>307.348175049</ele>
        <time>2014-08-13T13:42:18.396Z</time>
      </trkpt>
      <trkpt lat="48.45093" lon="-3.84739">
        <ele>307.244659424</ele>
        <time>2014-08-13T13:42:19.396Z</time>
      </trkpt>
      <trkpt lat="48.45087" lon="-3.8473">
        <ele>305.499755859</ele>
        <time>2014-08-13T13:42:31.388Z</time>
      </trkpt>
      <trkpt lat="48.45083" lon="-3.84729">
        <ele>305.208465576</ele>
        <time>2014-08-13T13:42:32.397Z</time>
      </trkpt>
      <trkpt lat="48.45076" lon="-3.84724">
        <ele>304.036468506</ele>
        <time>2014-08-13T13:42:36.399Z</time>
      </trkpt>
      <trkpt lat="48.45072" lon="-3.84724">
        <ele>302.406616211</ele>
        <time>2014-08-13T13:42:37.389Z</time>
      </trkpt>
      <trkpt lat="48.45065" lon="-3.8472">
        <ele>301.031860352</ele>
        <time>2014-08-13T13:42:38.389Z</time>
      </trkpt>
      <trkpt lat="48.45059" lon="-3.84713">
        <ele>299.555938721</ele>
        <time>2014-08-13T13:42:39.396Z</time>
      </trkpt>
      <trkpt lat="48.45053" lon="-3.84707">
        <ele>297.773620605</ele>
        <time>2014-08-13T13:42:40.403Z</time>
      </trkpt>
      <trkpt lat="48.45047" lon="-3.84702">
        <ele>297.452911377</ele>
        <time>2014-08-13T13:42:41.403Z</time>
      </trkpt>
      <trkpt lat="48.45043" lon="-3.84697">
        <ele>297.436309814</ele>
        <time>2014-08-13T13:42:42.408Z</time>
      </trkpt>
      <trkpt lat="48.45038" lon="-3.84692">
        <ele>297.506134033</ele>
        <time>2014-08-13T13:42:43.39Z</time>
      </trkpt>
      <trkpt lat="48.45032" lon="-3.84687">
        <ele>298.636138916</ele>
        <time>2014-08-13T13:42:44.399Z</time>
      </trkpt>
      <trkpt lat="48.45026" lon="-3.84682">
        <ele>298.72253418</ele>
        <time>2014-08-13T13:42:45.395Z</time>
      </trkpt>
      <trkpt lat="48.45021" lon="-3.84678">
        <ele>298.795928955</ele>
        <time>2014-08-13T13:42:46.395Z</time>
      </trkpt>
      <trkpt lat="48.45016" lon="-3.84674">
        <ele>298.827087402</ele>
        <time>2014-08-13T13:42:47.394Z</time>
      </trkpt>
      <trkpt lat="48.45011" lon="-3.8467">
        <ele>298.803009033</ele>
        <time>2014-08-13T13:42:48.393Z</time>
      </trkpt>
      <trkpt lat="48.45006" lon="-3.84665">
        <ele>299.068267822</ele>
        <time>2014-08-13T13:42:49.397Z</time>
      </trkpt>
      <trkpt lat="48.45001" lon="-3.8466">
        <ele>300.191070557</ele>
        <time>2014-08-13T13:42:50.403Z</time>
      </trkpt>
      <trkpt lat="48.44996" lon="-3.84656">
        <ele>300.680419922</ele>
        <time>2014-08-13T13:42:51.4Z</time>
      </trkpt>
      <trkpt lat="48.44989" lon="-3.84647">
        <ele>300.73348999</ele>
        <time>2014-08-13T13:42:53.397Z</time>
      </trkpt>
      <trkpt lat="48.44985" lon="-3.84642">
        <ele>300.838989258</ele>
        <time>2014-08-13T13:42:54.401Z</time>
      </trkpt>
      <trkpt lat="48.44981" lon="-3.84636">
        <ele>301.094696045</ele>
        <time>2014-08-13T13:42:55.393Z</time>
      </trkpt>
      <trkpt lat="48.44978" lon="-3.84631">
        <ele>301.17098999</ele>
        <time>2014-08-13T13:42:56.398Z</time>
      </trkpt>
      <trkpt lat="48.44974" lon="-3.84624">
        <ele>301.277587891</ele>
        <time>2014-08-13T13:42:57.395Z</time>
      </trkpt>
      <trkpt lat="48.4497" lon="-3.84621">
        <ele>301.363525391</ele>
        <time>2014-08-13T13:42:58.4Z</time>
      </trkpt>
      <trkpt lat="48.44966" lon="-3.84618">
        <ele>301.387512207</ele>
        <time>2014-08-13T13:42:59.422Z</time>
      </trkpt>
      <trkpt lat="48.4496" lon="-3.84614">
        <ele>302.076843262</ele>
        <time>2014-08-13T13:43:00.398Z</time>
      </trkpt>
      <trkpt lat="48.44954" lon="-3.84607">
        <ele>301.886230469</ele>
        <time>2014-08-13T13:43:01.394Z</time>
      </trkpt>
      <trkpt lat="48.44952" lon="-3.84602">
        <ele>301.909454346</ele>
        <time>2014-08-13T13:43:02.397Z</time>
      </trkpt>
      <trkpt lat="48.44947" lon="-3.84593">
        <ele>302.05267334</ele>
        <time>2014-08-13T13:43:05.395Z</time>
      </trkpt>
      <trkpt lat="48.44946" lon="-3.84589">
        <ele>302.075012207</ele>
        <time>2014-08-13T13:43:06.395Z</time>
      </trkpt>
      <trkpt lat="48.44942" lon="-3.84579">
        <ele>301.803161621</ele>
        <time>2014-08-13T13:43:09.396Z</time>
      </trkpt>
      <trkpt lat="48.44941" lon="-3.84576">
        <ele>301.762878418</ele>
        <time>2014-08-13T13:43:10.39Z</time>
      </trkpt>
      <trkpt lat="48.44936" lon="-3.84571">
        <ele>301.534606934</ele>
        <time>2014-08-13T13:43:12.397Z</time>
      </trkpt>
      <trkpt lat="48.44933" lon="-3.84569">
        <ele>301.349975586</ele>
        <time>2014-08-13T13:43:13.39Z</time>
      </trkpt>
      <trkpt lat="48.44926" lon="-3.84563">
        <ele>300.847320557</ele>
        <time>2014-08-13T13:43:16.404Z</time>
      </trkpt>
      <trkpt lat="48.44925" lon="-3.84561">
        <ele>300.733215332</ele>
        <time>2014-08-13T13:43:17.399Z</time>
      </trkpt>
      <trkpt lat="48.44918" lon="-3.84554">
        <ele>300.39553833</ele>
        <time>2014-08-13T13:43:19.397Z</time>
      </trkpt>
      <trkpt lat="48.44915" lon="-3.84551">
        <ele>300.197814941</ele>
        <time>2014-08-13T13:43:20.397Z</time>
      </trkpt>
      <trkpt lat="48.44909" lon="-3.84545">
        <ele>299.76550293</ele>
        <time>2014-08-13T13:43:22.395Z</time>
      </trkpt>
      <trkpt lat="48.44905" lon="-3.84542">
        <ele>299.655670166</ele>
        <time>2014-08-13T13:43:23.395Z</time>
      </trkpt>
      <trkpt lat="48.44899" lon="-3.84535">
        <ele>299.309112549</ele>
        <time>2014-08-13T13:43:25.387Z</time>
      </trkpt>
      <trkpt lat="48.44897" lon="-3.84532">
        <ele>299.178039551</ele>
        <time>2014-08-13T13:43:26.402Z</time>
      </trkpt>
      <trkpt lat="48.44891" lon="-3.84522">
        <ele>298.746612549</ele>
        <time>2014-08-13T13:43:29.401Z</time>
      </trkpt>
      <trkpt lat="48.44888" lon="-3.84519">
        <ele>298.558135986</ele>
        <time>2014-08-13T13:43:30.398Z</time>
      </trkpt>
      <trkpt lat="48.44883" lon="-3.84509">
        <ele>297.944671631</ele>
        <time>2014-08-13T13:43:33.399Z</time>
      </trkpt>
      <trkpt lat="48.44882" lon="-3.84505">
        <ele>297.776611328</ele>
        <time>2014-08-13T13:43:34.393Z</time>
      </trkpt>
      <trkpt lat="48.44881" lon="-3.84491">
        <ele>296.912719727</ele>
        <time>2014-08-13T13:43:42.39Z</time>
      </trkpt>
      <trkpt lat="48.4488" lon="-3.8449">
        <ele>296.742706299</ele>
        <time>2014-08-13T13:43:43.395Z</time>
      </trkpt>
      <trkpt lat="48.44875" lon="-3.84481">
        <ele>296.063934326</ele>
        <time>2014-08-13T13:43:50.407Z</time>
      </trkpt>
      <trkpt lat="48.44873" lon="-3.84481">
        <ele>295.870880127</ele>
        <time>2014-08-13T13:43:51.397Z</time>
      </trkpt>
      <trkpt lat="48.44865" lon="-3.84476">
        <ele>294.101867676</ele>
        <time>2014-08-13T13:43:57.386Z</time>
      </trkpt>
      <trkpt lat="48.44864" lon="-3.84475">
        <ele>293.894866943</ele>
        <time>2014-08-13T13:43:58.397Z</time>
      </trkpt>
      <trkpt lat="48.44859" lon="-3.84472">
        <ele>293.467712402</ele>
        <time>2014-08-13T13:44:00.39Z</time>
      </trkpt>
      <trkpt lat="48.44854" lon="-3.8447">
        <ele>293.300811768</ele>
        <time>2014-08-13T13:44:01.398Z</time>
      </trkpt>
      <trkpt lat="48.44847" lon="-3.84465">
        <ele>292.894500732</ele>
        <time>2014-08-13T13:44:03.406Z</time>
      </trkpt>
      <trkpt lat="48.44842" lon="-3.84461">
        <ele>292.68359375</ele>
        <time>2014-08-13T13:44:04.406Z</time>
      </trkpt>
      <trkpt lat="48.44834" lon="-3.84455">
        <ele>292.314788818</ele>
        <time>2014-08-13T13:44:06.376Z</time>
      </trkpt>
      <trkpt lat="48.44831" lon="-3.84451">
        <ele>292.10546875</ele>
        <time>2014-08-13T13:44:07.398Z</time>
      </trkpt>
      <trkpt lat="48.44825" lon="-3.84444">
        <ele>291.352264404</ele>
        <time>2014-08-13T13:44:10.394Z</time>
      </trkpt>
      <trkpt lat="48.44824" lon="-3.84442">
        <ele>291.071533203</ele>
        <time>2014-08-13T13:44:11.4Z</time>
      </trkpt>
      <trkpt lat="48.44819" lon="-3.84434">
        <ele>289.743652344</ele>
        <time>2014-08-13T13:44:15.394Z</time>
      </trkpt>
      <trkpt lat="48.44818" lon="-3.84431">
        <ele>289.469146729</ele>
        <time>2014-08-13T13:44:16.395Z</time>
      </trkpt>
      <trkpt lat="48.44814" lon="-3.84422">
        <ele>288.985443115</ele>
        <time>2014-08-13T13:44:18.398Z</time>
      </trkpt>
      <trkpt lat="48.44811" lon="-3.84414">
        <ele>288.687835693</ele>
        <time>2014-08-13T13:44:19.404Z</time>
      </trkpt>
      <trkpt lat="48.44806" lon="-3.84403">
        <ele>288.038482666</ele>
        <time>2014-08-13T13:44:21.403Z</time>
      </trkpt>
      <trkpt lat="48.44805" lon="-3.84397">
        <ele>287.704071045</ele>
        <time>2014-08-13T13:44:22.397Z</time>
      </trkpt>
      <trkpt lat="48.448" lon="-3.84387">
        <ele>286.999298096</ele>
        <time>2014-08-13T13:44:24.402Z</time>
      </trkpt>
      <trkpt lat="48.44799" lon="-3.84382">
        <ele>286.651885986</ele>
        <time>2014-08-13T13:44:25.399Z</time>
      </trkpt>
      <trkpt lat="48.44794" lon="-3.84372">
        <ele>282.911468506</ele>
        <time>2014-08-13T13:44:27.395Z</time>
      </trkpt>
      <trkpt lat="48.44789" lon="-3.84367">
        <ele>279.821868896</ele>
        <time>2014-08-13T13:44:28.406Z</time>
      </trkpt>
      <trkpt lat="48.44783" lon="-3.84362">
        <ele>279.307403564</ele>
        <time>2014-08-13T13:44:30.405Z</time>
      </trkpt>
      <trkpt lat="48.4478" lon="-3.84357">
        <ele>279.067169189</ele>
        <time>2014-08-13T13:44:31.773Z</time>
      </trkpt>
      <trkpt lat="48.44775" lon="-3.84349">
        <ele>278.821044922</ele>
        <time>2014-08-13T13:44:32.78Z</time>
      </trkpt>
      <trkpt lat="48.4477" lon="-3.84343">
        <ele>275.759857178</ele>
        <time>2014-08-13T13:44:33.78Z</time>
      </trkpt>
      <trkpt lat="48.44763" lon="-3.8434">
        <ele>272.920684814</ele>
        <time>2014-08-13T13:44:34.788Z</time>
      </trkpt>
      <trkpt lat="48.44757" lon="-3.84338">
        <ele>269.885253906</ele>
        <time>2014-08-13T13:44:35.786Z</time>
      </trkpt>
      <trkpt lat="48.4475" lon="-3.84334">
        <ele>269.490112305</ele>
        <time>2014-08-13T13:44:37.776Z</time>
      </trkpt>
      <trkpt lat="48.44745" lon="-3.84332">
        <ele>266.410522461</ele>
        <time>2014-08-13T13:44:38.783Z</time>
      </trkpt>
      <trkpt lat="48.4474" lon="-3.8433">
        <ele>264.409088135</ele>
        <time>2014-08-13T13:44:39.787Z</time>
      </trkpt>
      <trkpt lat="48.44735" lon="-3.84329">
        <ele>264.33303833</ele>
        <time>2014-08-13T13:44:40.786Z</time>
      </trkpt>
      <trkpt lat="48.44727" lon="-3.84324">
        <ele>263.474334717</ele>
        <time>2014-08-13T13:44:42.78Z</time>
      </trkpt>
      <trkpt lat="48.44725" lon="-3.84322">
        <ele>263.4402771</ele>
        <time>2014-08-13T13:44:43.772Z</time>
      </trkpt>
      <trkpt lat="48.44721" lon="-3.84315">
        <ele>263.170928955</ele>
        <time>2014-08-13T13:44:45.777Z</time>
      </trkpt>
      <trkpt lat="48.44717" lon="-3.84311">
        <ele>263.130554199</ele>
        <time>2014-08-13T13:44:46.774Z</time>
      </trkpt>
      <trkpt lat="48.44713" lon="-3.84306">
        <ele>263.160552979</ele>
        <time>2014-08-13T13:44:47.777Z</time>
      </trkpt>
      <trkpt lat="48.44708" lon="-3.84301">
        <ele>263.105285645</ele>
        <time>2014-08-13T13:44:48.772Z</time>
      </trkpt>
      <trkpt lat="48.44705" lon="-3.84297">
        <ele>263.066589355</ele>
        <time>2014-08-13T13:44:49.807Z</time>
      </trkpt>
      <trkpt lat="48.44701" lon="-3.8429">
        <ele>262.548797607</ele>
        <time>2014-08-13T13:44:50.779Z</time>
      </trkpt>
      <trkpt lat="48.44696" lon="-3.84283">
        <ele>262.09765625</ele>
        <time>2014-08-13T13:44:51.774Z</time>
      </trkpt>
      <trkpt lat="48.44694" lon="-3.84278">
        <ele>262.049865723</ele>
        <time>2014-08-13T13:44:52.776Z</time>
      </trkpt>
      <trkpt lat="48.44696" lon="-3.84269">
        <ele>261.859313965</ele>
        <time>2014-08-13T13:44:54.777Z</time>
      </trkpt>
      <trkpt lat="48.44699" lon="-3.84266">
        <ele>261.293243408</ele>
        <time>2014-08-13T13:44:55.777Z</time>
      </trkpt>
      <trkpt lat="48.44701" lon="-3.84253">
        <ele>260.712249756</ele>
        <time>2014-08-13T13:44:57.782Z</time>
      </trkpt>
      <trkpt lat="48.44699" lon="-3.84245">
        <ele>260.689483643</ele>
        <time>2014-08-13T13:44:58.786Z</time>
      </trkpt>
      <trkpt lat="48.44696" lon="-3.84236">
        <ele>260.724243164</ele>
        <time>2014-08-13T13:44:59.814Z</time>
      </trkpt>
      <trkpt lat="48.44691" lon="-3.84227">
        <ele>260.563140869</ele>
        <time>2014-08-13T13:45:00.778Z</time>
      </trkpt>
      <trkpt lat="48.44685" lon="-3.84218">
        <ele>260.006225586</ele>
        <time>2014-08-13T13:45:01.78Z</time>
      </trkpt>
      <trkpt lat="48.44679" lon="-3.84209">
        <ele>259.696380615</ele>
        <time>2014-08-13T13:45:02.762Z</time>
      </trkpt>
      <trkpt lat="48.44674" lon="-3.84201">
        <ele>259.334991455</ele>
        <time>2014-08-13T13:45:03.779Z</time>
      </trkpt>
      <trkpt lat="48.44671" lon="-3.84193">
        <ele>258.898406982</ele>
        <time>2014-08-13T13:45:04.784Z</time>
      </trkpt>
      <trkpt lat="48.44668" lon="-3.84185">
        <ele>258.967773438</ele>
        <time>2014-08-13T13:45:05.789Z</time>
      </trkpt>
      <trkpt lat="48.44664" lon="-3.84177">
        <ele>258.451782227</ele>
        <time>2014-08-13T13:45:06.79Z</time>
      </trkpt>
      <trkpt lat="48.4466" lon="-3.84169">
        <ele>258.231903076</ele>
        <time>2014-08-13T13:45:07.782Z</time>
      </trkpt>
      <trkpt lat="48.44657" lon="-3.84161">
        <ele>258.175872803</ele>
        <time>2014-08-13T13:45:08.779Z</time>
      </trkpt>
      <trkpt lat="48.44654" lon="-3.84153">
        <ele>258.215881348</ele>
        <time>2014-08-13T13:45:09.788Z</time>
      </trkpt>
      <trkpt lat="48.4465" lon="-3.84145">
        <ele>258.417999268</ele>
        <time>2014-08-13T13:45:10.776Z</time>
      </trkpt>
      <trkpt lat="48.44645" lon="-3.84138">
        <ele>258.499328613</ele>
        <time>2014-08-13T13:45:11.774Z</time>
      </trkpt>
      <trkpt lat="48.4464" lon="-3.84131">
        <ele>257.978179932</ele>
        <time>2014-08-13T13:45:12.773Z</time>
      </trkpt>
      <trkpt lat="48.44636" lon="-3.84126">
        <ele>257.724761963</ele>
        <time>2014-08-13T13:45:13.778Z</time>
      </trkpt>
      <trkpt lat="48.44631" lon="-3.8412">
        <ele>257.319000244</ele>
        <time>2014-08-13T13:45:14.786Z</time>
      </trkpt>
      <trkpt lat="48.44627" lon="-3.84115">
        <ele>256.471923828</ele>
        <time>2014-08-13T13:45:15.78Z</time>
      </trkpt>
      <trkpt lat="48.44624" lon="-3.84109">
        <ele>256.417419434</ele>
        <time>2014-08-13T13:45:16.777Z</time>
      </trkpt>
      <trkpt lat="48.4462" lon="-3.84105">
        <ele>256.394470215</ele>
        <time>2014-08-13T13:45:17.781Z</time>
      </trkpt>
      <trkpt lat="48.44616" lon="-3.84101">
        <ele>255.444213867</ele>
        <time>2014-08-13T13:45:18.777Z</time>
      </trkpt>
      <trkpt lat="48.44611" lon="-3.84097">
        <ele>254.599212646</ele>
        <time>2014-08-13T13:45:19.796Z</time>
      </trkpt>
      <trkpt lat="48.44608" lon="-3.84093">
        <ele>254.54498291</ele>
        <time>2014-08-13T13:45:20.784Z</time>
      </trkpt>
      <trkpt lat="48.44602" lon="-3.84086">
        <ele>254.410018921</ele>
        <time>2014-08-13T13:45:22.78Z</time>
      </trkpt>
      <trkpt lat="48.446" lon="-3.84082">
        <ele>254.258880615</ele>
        <time>2014-08-13T13:45:23.771Z</time>
      </trkpt>
      <trkpt lat="48.44595" lon="-3.84072">
        <ele>253.338729858</ele>
        <time>2014-08-13T13:45:25.77Z</time>
      </trkpt>
      <trkpt lat="48.44592" lon="-3.84066">
        <ele>252.442947388</ele>
        <time>2014-08-13T13:45:26.777Z</time>
      </trkpt>
      <trkpt lat="48.44586" lon="-3.84056">
        <ele>251.083557129</ele>
        <time>2014-08-13T13:45:28.798Z</time>
      </trkpt>
      <trkpt lat="48.44583" lon="-3.84052">
        <ele>250.95703125</ele>
        <time>2014-08-13T13:45:29.78Z</time>
      </trkpt>
      <trkpt lat="48.44588" lon="-3.8404">
        <ele>250.521789551</ele>
        <time>2014-08-13T13:45:44.71Z</time>
      </trkpt>
      <trkpt lat="48.44588" lon="-3.8404">
        <ele>250.518386841</ele>
        <time>2014-08-13T13:45:45.711Z</time>
      </trkpt>
      <trkpt lat="48.44592" lon="-3.84028">
        <ele>248.663619995</ele>
        <time>2014-08-13T13:46:43.902Z</time>
      </trkpt>
      <trkpt lat="48.44592" lon="-3.84028">
        <ele>248.720504761</ele>
        <time>2014-08-13T13:46:44.894Z</time>
      </trkpt>
      <trkpt lat="48.44596" lon="-3.84019">
        <ele>249.049560547</ele>
        <time>2014-08-13T13:46:49.901Z</time>
      </trkpt>
      <trkpt lat="48.44598" lon="-3.84016">
        <ele>249.095428467</ele>
        <time>2014-08-13T13:46:50.894Z</time>
      </trkpt>
      <trkpt lat="48.44604" lon="-3.84007">
        <ele>249.204574585</ele>
        <time>2014-08-13T13:46:53.906Z</time>
      </trkpt>
      <trkpt lat="48.44606" lon="-3.84004">
        <ele>249.213607788</ele>
        <time>2014-08-13T13:46:54.903Z</time>
      </trkpt>
      <trkpt lat="48.44613" lon="-3.83998">
        <ele>249.328887939</ele>
        <time>2014-08-13T13:46:57.906Z</time>
      </trkpt>
      <trkpt lat="48.44615" lon="-3.83996">
        <ele>249.363220215</ele>
        <time>2014-08-13T13:46:58.902Z</time>
      </trkpt>
      <trkpt lat="48.44621" lon="-3.83989">
        <ele>249.496276855</ele>
        <time>2014-08-13T13:47:02.893Z</time>
      </trkpt>
      <trkpt lat="48.44623" lon="-3.83986">
        <ele>249.523529053</ele>
        <time>2014-08-13T13:47:03.899Z</time>
      </trkpt>
      <trkpt lat="48.44625" lon="-3.83978">
        <ele>249.563262939</ele>
        <time>2014-08-13T13:47:05.904Z</time>
      </trkpt>
      <trkpt lat="48.44625" lon="-3.83972">
        <ele>249.765655518</ele>
        <time>2014-08-13T13:47:06.905Z</time>
      </trkpt>
      <trkpt lat="48.44631" lon="-3.83962">
        <ele>250.715072632</ele>
        <time>2014-08-13T13:47:08.898Z</time>
      </trkpt>
      <trkpt lat="48.44634" lon="-3.83958">
        <ele>251.007339478</ele>
        <time>2014-08-13T13:47:09.905Z</time>
      </trkpt>
      <trkpt lat="48.44641" lon="-3.83951">
        <ele>251.092849731</ele>
        <time>2014-08-13T13:47:11.907Z</time>
      </trkpt>
      <trkpt lat="48.44644" lon="-3.83948">
        <ele>251.124725342</ele>
        <time>2014-08-13T13:47:12.908Z</time>
      </trkpt>
      <trkpt lat="48.4465" lon="-3.8394">
        <ele>251.118057251</ele>
        <time>2014-08-13T13:47:14.915Z</time>
      </trkpt>
      <trkpt lat="48.44653" lon="-3.83936">
        <ele>250.990753174</ele>
        <time>2014-08-13T13:47:15.905Z</time>
      </trkpt>
      <trkpt lat="48.44657" lon="-3.83931">
        <ele>251.068099976</ele>
        <time>2014-08-13T13:47:16.899Z</time>
      </trkpt>
      <trkpt lat="48.44662" lon="-3.83927">
        <ele>250.769073486</ele>
        <time>2014-08-13T13:47:17.906Z</time>
      </trkpt>
      <trkpt lat="48.44669" lon="-3.83918">
        <ele>251.299514771</ele>
        <time>2014-08-13T13:47:19.914Z</time>
      </trkpt>
      <trkpt lat="48.44671" lon="-3.83913">
        <ele>251.295547485</ele>
        <time>2014-08-13T13:47:20.908Z</time>
      </trkpt>
      <trkpt lat="48.44675" lon="-3.83908">
        <ele>251.152282715</ele>
        <time>2014-08-13T13:47:21.906Z</time>
      </trkpt>
      <trkpt lat="48.44678" lon="-3.83903">
        <ele>251.272018433</ele>
        <time>2014-08-13T13:47:22.9Z</time>
      </trkpt>
      <trkpt lat="48.44681" lon="-3.83898">
        <ele>251.376663208</ele>
        <time>2014-08-13T13:47:23.906Z</time>
      </trkpt>
      <trkpt lat="48.44683" lon="-3.83891">
        <ele>251.453308105</ele>
        <time>2014-08-13T13:47:24.905Z</time>
      </trkpt>
      <trkpt lat="48.44686" lon="-3.83885">
        <ele>252.127151489</ele>
        <time>2014-08-13T13:47:25.907Z</time>
      </trkpt>
      <trkpt lat="48.44691" lon="-3.83881">
        <ele>252.637405396</ele>
        <time>2014-08-13T13:47:26.908Z</time>
      </trkpt>
      <trkpt lat="48.44696" lon="-3.83876">
        <ele>252.575042725</ele>
        <time>2014-08-13T13:47:27.903Z</time>
      </trkpt>
      <trkpt lat="48.44701" lon="-3.83872">
        <ele>252.472396851</ele>
        <time>2014-08-13T13:47:28.916Z</time>
      </trkpt>
      <trkpt lat="48.44706" lon="-3.83867">
        <ele>252.837356567</ele>
        <time>2014-08-13T13:47:29.904Z</time>
      </trkpt>
      <trkpt lat="48.44712" lon="-3.83863">
        <ele>252.715454102</ele>
        <time>2014-08-13T13:47:30.909Z</time>
      </trkpt>
      <trkpt lat="48.44716" lon="-3.83851">
        <ele>253.408355713</ele>
        <time>2014-08-13T13:47:32.905Z</time>
      </trkpt>
      <trkpt lat="48.4472" lon="-3.83845">
        <ele>252.700393677</ele>
        <time>2014-08-13T13:47:33.904Z</time>
      </trkpt>
      <trkpt lat="48.44724" lon="-3.83838">
        <ele>251.899932861</ele>
        <time>2014-08-13T13:47:34.904Z</time>
      </trkpt>
      <trkpt lat="48.44728" lon="-3.83832">
        <ele>251.799591064</ele>
        <time>2014-08-13T13:47:35.91Z</time>
      </trkpt>
      <trkpt lat="48.44732" lon="-3.83821">
        <ele>250.490066528</ele>
        <time>2014-08-13T13:47:37.908Z</time>
      </trkpt>
      <trkpt lat="48.44737" lon="-3.83816">
        <ele>249.825241089</ele>
        <time>2014-08-13T13:47:38.908Z</time>
      </trkpt>
      <trkpt lat="48.44741" lon="-3.8381">
        <ele>250.326171875</ele>
        <time>2014-08-13T13:47:39.905Z</time>
      </trkpt>
      <trkpt lat="48.44745" lon="-3.83804">
        <ele>250.955245972</ele>
        <time>2014-08-13T13:47:40.908Z</time>
      </trkpt>
      <trkpt lat="48.44749" lon="-3.83797">
        <ele>251.119949341</ele>
        <time>2014-08-13T13:47:41.906Z</time>
      </trkpt>
      <trkpt lat="48.44749" lon="-3.83789">
        <ele>251.620635986</ele>
        <time>2014-08-13T13:47:42.907Z</time>
      </trkpt>
      <trkpt lat="48.44749" lon="-3.83782">
        <ele>251.699081421</ele>
        <time>2014-08-13T13:47:43.902Z</time>
      </trkpt>
      <trkpt lat="48.4475" lon="-3.83773">
        <ele>251.68888855</ele>
        <time>2014-08-13T13:47:44.903Z</time>
      </trkpt>
      <trkpt lat="48.4475" lon="-3.83763">
        <ele>251.656326294</ele>
        <time>2014-08-13T13:47:45.899Z</time>
      </trkpt>
      <trkpt lat="48.44749" lon="-3.83756">
        <ele>251.648727417</ele>
        <time>2014-08-13T13:47:46.904Z</time>
      </trkpt>
      <trkpt lat="48.44745" lon="-3.83746">
        <ele>251.331100464</ele>
        <time>2014-08-13T13:47:48.897Z</time>
      </trkpt>
      <trkpt lat="48.44742" lon="-3.83742">
        <ele>250.855285645</ele>
        <time>2014-08-13T13:47:49.903Z</time>
      </trkpt>
      <trkpt lat="48.44738" lon="-3.83737">
        <ele>251.046203613</ele>
        <time>2014-08-13T13:47:50.907Z</time>
      </trkpt>
      <trkpt lat="48.44733" lon="-3.83732">
        <ele>250.622894287</ele>
        <time>2014-08-13T13:47:51.904Z</time>
      </trkpt>
      <trkpt lat="48.44732" lon="-3.83721">
        <ele>250.541885376</ele>
        <time>2014-08-13T13:47:53.902Z</time>
      </trkpt>
      <trkpt lat="48.4473" lon="-3.83717">
        <ele>250.43536377</ele>
        <time>2014-08-13T13:47:54.9Z</time>
      </trkpt>
      <trkpt lat="48.44726" lon="-3.83708">
        <ele>246.945053101</ele>
        <time>2014-08-13T13:47:56.9Z</time>
      </trkpt>
      <trkpt lat="48.44724" lon="-3.83703">
        <ele>246.891159058</ele>
        <time>2014-08-13T13:47:57.905Z</time>
      </trkpt>
      <trkpt lat="48.44722" lon="-3.83698">
        <ele>246.502746582</ele>
        <time>2014-08-13T13:47:58.905Z</time>
      </trkpt>
      <trkpt lat="48.44719" lon="-3.83692">
        <ele>246.962905884</ele>
        <time>2014-08-13T13:47:59.931Z</time>
      </trkpt>
      <trkpt lat="48.44715" lon="-3.83686">
        <ele>246.746856689</ele>
        <time>2014-08-13T13:48:00.907Z</time>
      </trkpt>
      <trkpt lat="48.44712" lon="-3.8368">
        <ele>245.706253052</ele>
        <time>2014-08-13T13:48:01.861Z</time>
      </trkpt>
      <trkpt lat="48.44708" lon="-3.83674">
        <ele>244.776199341</ele>
        <time>2014-08-13T13:48:02.912Z</time>
      </trkpt>
      <trkpt lat="48.44704" lon="-3.83669">
        <ele>244.271209717</ele>
        <time>2014-08-13T13:48:03.9Z</time>
      </trkpt>
      <trkpt lat="48.44698" lon="-3.83661">
        <ele>244.272964478</ele>
        <time>2014-08-13T13:48:05.9Z</time>
      </trkpt>
      <trkpt lat="48.44694" lon="-3.83656">
        <ele>244.217178345</ele>
        <time>2014-08-13T13:48:06.898Z</time>
      </trkpt>
      <trkpt lat="48.4469" lon="-3.8365">
        <ele>243.644515991</ele>
        <time>2014-08-13T13:48:07.894Z</time>
      </trkpt>
      <trkpt lat="48.44686" lon="-3.83645">
        <ele>242.363082886</ele>
        <time>2014-08-13T13:48:08.898Z</time>
      </trkpt>
      <trkpt lat="48.44682" lon="-3.8364">
        <ele>241.145675659</ele>
        <time>2014-08-13T13:48:09.897Z</time>
      </trkpt>
      <trkpt lat="48.44678" lon="-3.83635">
        <ele>240.678649902</ele>
        <time>2014-08-13T13:48:10.898Z</time>
      </trkpt>
      <trkpt lat="48.44673" lon="-3.83629">
        <ele>240.513656616</ele>
        <time>2014-08-13T13:48:11.902Z</time>
      </trkpt>
      <trkpt lat="48.44669" lon="-3.83625">
        <ele>240.497451782</ele>
        <time>2014-08-13T13:48:12.898Z</time>
      </trkpt>
      <trkpt lat="48.44663" lon="-3.83617">
        <ele>240.472549438</ele>
        <time>2014-08-13T13:48:14.893Z</time>
      </trkpt>
      <trkpt lat="48.4466" lon="-3.83615">
        <ele>240.453369141</ele>
        <time>2014-08-13T13:48:15.89Z</time>
      </trkpt>
      <trkpt lat="48.44656" lon="-3.83608">
        <ele>240.560791016</ele>
        <time>2014-08-13T13:48:17.889Z</time>
      </trkpt>
      <trkpt lat="48.44654" lon="-3.83605">
        <ele>240.650054932</ele>
        <time>2014-08-13T13:48:18.902Z</time>
      </trkpt>
      <trkpt lat="48.44651" lon="-3.83596">
        <ele>240.925201416</ele>
        <time>2014-08-13T13:48:20.907Z</time>
      </trkpt>
      <trkpt lat="48.44647" lon="-3.83592">
        <ele>241.011703491</ele>
        <time>2014-08-13T13:48:21.904Z</time>
      </trkpt>
      <trkpt lat="48.44641" lon="-3.83588">
        <ele>241.076034546</ele>
        <time>2014-08-13T13:48:23.904Z</time>
      </trkpt>
      <trkpt lat="48.44638" lon="-3.83587">
        <ele>241.123077393</ele>
        <time>2014-08-13T13:48:24.904Z</time>
      </trkpt>
      <trkpt lat="48.44631" lon="-3.83583">
        <ele>241.295455933</ele>
        <time>2014-08-13T13:48:29.896Z</time>
      </trkpt>
      <trkpt lat="48.4463" lon="-3.8358">
        <ele>241.315597534</ele>
        <time>2014-08-13T13:48:30.896Z</time>
      </trkpt>
      <trkpt lat="48.44625" lon="-3.83569">
        <ele>241.303787231</ele>
        <time>2014-08-13T13:48:34.895Z</time>
      </trkpt>
      <trkpt lat="48.44624" lon="-3.83567">
        <ele>241.329360962</ele>
        <time>2014-08-13T13:48:35.893Z</time>
      </trkpt>
      <trkpt lat="48.44618" lon="-3.83557">
        <ele>241.23109436</ele>
        <time>2014-08-13T13:48:40.907Z</time>
      </trkpt>
      <trkpt lat="48.44617" lon="-3.83555">
        <ele>241.252685547</ele>
        <time>2014-08-13T13:48:41.904Z</time>
      </trkpt>
      <trkpt lat="48.4461" lon="-3.83547">
        <ele>241.234207153</ele>
        <time>2014-08-13T13:48:51.908Z</time>
      </trkpt>
      <trkpt lat="48.44609" lon="-3.83546">
        <ele>241.232177734</ele>
        <time>2014-08-13T13:48:52.905Z</time>
      </trkpt>
      <trkpt lat="48.44601" lon="-3.8354">
        <ele>241.441009521</ele>
        <time>2014-08-13T13:49:00.902Z</time>
      </trkpt>
      <trkpt lat="48.446" lon="-3.83539">
        <ele>241.461959839</ele>
        <time>2014-08-13T13:49:01.905Z</time>
      </trkpt>
      <trkpt lat="48.44592" lon="-3.83545">
        <ele>241.07421875</ele>
        <time>2014-08-13T13:49:44.545Z</time>
      </trkpt>
      <trkpt lat="48.44592" lon="-3.83544">
        <ele>241.084762573</ele>
        <time>2014-08-13T13:49:45.54Z</time>
      </trkpt>
      <trkpt lat="48.44591" lon="-3.83531">
        <ele>241.339080811</ele>
        <time>2014-08-13T13:51:46.55Z</time>
      </trkpt>
      <trkpt lat="48.44592" lon="-3.83526">
        <ele>241.289764404</ele>
        <time>2014-08-13T13:51:47.545Z</time>
      </trkpt>
      <trkpt lat="48.44597" lon="-3.83515">
        <ele>241.048812866</ele>
        <time>2014-08-13T13:51:50.549Z</time>
      </trkpt>
      <trkpt lat="48.446" lon="-3.83512">
        <ele>241.092727661</ele>
        <time>2014-08-13T13:51:51.543Z</time>
      </trkpt>
      <trkpt lat="48.44605" lon="-3.83509">
        <ele>241.245178223</ele>
        <time>2014-08-13T13:51:53.542Z</time>
      </trkpt>
      <trkpt lat="48.44609" lon="-3.8351">
        <ele>241.390670776</ele>
        <time>2014-08-13T13:51:54.535Z</time>
      </trkpt>
      <trkpt lat="48.44615" lon="-3.8351">
        <ele>243.159332275</ele>
        <time>2014-08-13T13:51:56.543Z</time>
      </trkpt>
      <trkpt lat="48.44619" lon="-3.8351">
        <ele>245.308700562</ele>
        <time>2014-08-13T13:51:57.543Z</time>
      </trkpt>
      <trkpt lat="48.44628" lon="-3.83509">
        <ele>246.366409302</ele>
        <time>2014-08-13T13:52:02.544Z</time>
      </trkpt>
      <trkpt lat="48.44629" lon="-3.83509">
        <ele>246.536514282</ele>
        <time>2014-08-13T13:52:03.81Z</time>
      </trkpt>
      <trkpt lat="48.44637" lon="-3.83504">
        <ele>247.264465332</ele>
        <time>2014-08-13T13:52:31.551Z</time>
      </trkpt>
      <trkpt lat="48.44637" lon="-3.83501">
        <ele>247.210678101</ele>
        <time>2014-08-13T13:52:32.543Z</time>
      </trkpt>
      <trkpt lat="48.44636" lon="-3.83489">
        <ele>247.440048218</ele>
        <time>2014-08-13T13:52:40.573Z</time>
      </trkpt>
      <trkpt lat="48.44636" lon="-3.83486">
        <ele>247.363632202</ele>
        <time>2014-08-13T13:52:41.543Z</time>
      </trkpt>
      <trkpt lat="48.44636" lon="-3.83478">
        <ele>247.296478271</ele>
        <time>2014-08-13T13:53:22.579Z</time>
      </trkpt>
      <trkpt lat="48.44642" lon="-3.83426">
        <ele>243.502853394</ele>
        <time>2014-08-13T13:55:10.38Z</time>
      </trkpt>
      <trkpt lat="48.44642" lon="-3.83438">
        <ele>243.540679932</ele>
        <time>2014-08-13T13:55:25.174Z</time>
      </trkpt>
      <trkpt lat="48.44641" lon="-3.83444">
        <ele>243.702682495</ele>
        <time>2014-08-13T13:55:26.183Z</time>
      </trkpt>
      <trkpt lat="48.44643" lon="-3.83453">
        <ele>244.05859375</ele>
        <time>2014-08-13T13:55:28.184Z</time>
      </trkpt>
      <trkpt lat="48.44644" lon="-3.83457">
        <ele>244.264343262</ele>
        <time>2014-08-13T13:55:29.178Z</time>
      </trkpt>
      <trkpt lat="48.4464" lon="-3.83468">
        <ele>243.13470459</ele>
        <time>2014-08-13T13:57:26.191Z</time>
      </trkpt>
      <trkpt lat="48.4464" lon="-3.8347">
        <ele>243.227661133</ele>
        <time>2014-08-13T13:57:27.15Z</time>
      </trkpt>
      <trkpt lat="48.44644" lon="-3.83482">
        <ele>243.593109131</ele>
        <time>2014-08-13T13:57:34.167Z</time>
      </trkpt>
      <trkpt lat="48.44647" lon="-3.83481">
        <ele>243.551452637</ele>
        <time>2014-08-13T13:57:35.17Z</time>
      </trkpt>
      <trkpt lat="48.44654" lon="-3.83475">
        <ele>243.331253052</ele>
        <time>2014-08-13T13:57:39.179Z</time>
      </trkpt>
      <trkpt lat="48.44657" lon="-3.83473">
        <ele>243.256225586</ele>
        <time>2014-08-13T13:57:40.171Z</time>
      </trkpt>
      <trkpt lat="48.44665" lon="-3.83469">
        <ele>243.253036499</ele>
        <time>2014-08-13T13:57:46.173Z</time>
      </trkpt>
      <trkpt lat="48.44666" lon="-3.83469">
        <ele>243.260452271</ele>
        <time>2014-08-13T13:57:47.171Z</time>
      </trkpt>
      <trkpt lat="48.44669" lon="-3.83462">
        <ele>243.62387085</ele>
        <time>2014-08-13T13:57:53.196Z</time>
      </trkpt>
      <trkpt lat="48.4467" lon="-3.83456">
        <ele>243.621109009</ele>
        <time>2014-08-13T13:57:54.177Z</time>
      </trkpt>
      <trkpt lat="48.44671" lon="-3.83443">
        <ele>243.521408081</ele>
        <time>2014-08-13T13:57:59.184Z</time>
      </trkpt>
      <trkpt lat="48.44671" lon="-3.83442">
        <ele>243.528060913</ele>
        <time>2014-08-13T13:58:00.196Z</time>
      </trkpt>
      <trkpt lat="48.4467" lon="-3.83431">
        <ele>243.787231445</ele>
        <time>2014-08-13T13:58:04.176Z</time>
      </trkpt>
      <trkpt lat="48.4467" lon="-3.83427">
        <ele>243.859893799</ele>
        <time>2014-08-13T13:58:05.171Z</time>
      </trkpt>
      <trkpt lat="48.44667" lon="-3.83417">
        <ele>244.021713257</ele>
        <time>2014-08-13T13:58:07.173Z</time>
      </trkpt>
      <trkpt lat="48.44665" lon="-3.83414">
        <ele>244.141525269</ele>
        <time>2014-08-13T13:58:08.171Z</time>
      </trkpt>
      <trkpt lat="48.44665" lon="-3.83401">
        <ele>244.445159912</ele>
        <time>2014-08-13T13:58:11.187Z</time>
      </trkpt>
      <trkpt lat="48.44666" lon="-3.83396">
        <ele>244.529129028</ele>
        <time>2014-08-13T13:58:12.168Z</time>
      </trkpt>
      <trkpt lat="48.44672" lon="-3.83386">
        <ele>244.936843872</ele>
        <time>2014-08-13T13:58:15.168Z</time>
      </trkpt>
      <trkpt lat="48.44674" lon="-3.83386">
        <ele>245.000473022</ele>
        <time>2014-08-13T13:58:16.173Z</time>
      </trkpt>
      <trkpt lat="48.44682" lon="-3.83383">
        <ele>244.83152771</ele>
        <time>2014-08-13T13:58:20.825Z</time>
      </trkpt>
      <trkpt lat="48.44683" lon="-3.83383">
        <ele>244.877212524</ele>
        <time>2014-08-13T13:58:21.822Z</time>
      </trkpt>
      <trkpt lat="48.44692" lon="-3.83384">
        <ele>244.897445679</ele>
        <time>2014-08-13T13:58:27.82Z</time>
      </trkpt>
      <trkpt lat="48.44692" lon="-3.83384">
        <ele>244.863967896</ele>
        <time>2014-08-13T13:58:28.822Z</time>
      </trkpt>
      <trkpt lat="48.44687" lon="-3.83374">
        <ele>241.611419678</ele>
        <time>2014-08-13T14:00:17.819Z</time>
      </trkpt>
      <trkpt lat="48.44685" lon="-3.83372">
        <ele>241.542419434</ele>
        <time>2014-08-13T14:00:18.818Z</time>
      </trkpt>
      <trkpt lat="48.44678" lon="-3.83371">
        <ele>241.338806152</ele>
        <time>2014-08-13T14:00:21.823Z</time>
      </trkpt>
      <trkpt lat="48.44675" lon="-3.83371">
        <ele>241.338546753</ele>
        <time>2014-08-13T14:00:22.821Z</time>
      </trkpt>
      <trkpt lat="48.44667" lon="-3.83377">
        <ele>241.332489014</ele>
        <time>2014-08-13T14:00:25.821Z</time>
      </trkpt>
      <trkpt lat="48.44666" lon="-3.83381">
        <ele>241.289077759</ele>
        <time>2014-08-13T14:00:26.827Z</time>
      </trkpt>
      <trkpt lat="48.44663" lon="-3.83392">
        <ele>241.144439697</ele>
        <time>2014-08-13T14:00:29.828Z</time>
      </trkpt>
      <trkpt lat="48.44663" lon="-3.83396">
        <ele>241.140197754</ele>
        <time>2014-08-13T14:00:30.822Z</time>
      </trkpt>
      <trkpt lat="48.44663" lon="-3.83407">
        <ele>241.25793457</ele>
        <time>2014-08-13T14:00:33.826Z</time>
      </trkpt>
      <trkpt lat="48.44664" lon="-3.8341">
        <ele>241.353851318</ele>
        <time>2014-08-13T14:00:34.829Z</time>
      </trkpt>
      <trkpt lat="48.44665" lon="-3.83422">
        <ele>242.144088745</ele>
        <time>2014-08-13T14:00:50.822Z</time>
      </trkpt>
      <trkpt lat="48.44665" lon="-3.83425">
        <ele>242.196517944</ele>
        <time>2014-08-13T14:00:51.828Z</time>
      </trkpt>
      <trkpt lat="48.44666" lon="-3.83435">
        <ele>242.158676147</ele>
        <time>2014-08-13T14:00:54.825Z</time>
      </trkpt>
      <trkpt lat="48.44666" lon="-3.8344">
        <ele>242.162948608</ele>
        <time>2014-08-13T14:00:55.821Z</time>
      </trkpt>
      <trkpt lat="48.44663" lon="-3.83451">
        <ele>242.341430664</ele>
        <time>2014-08-13T14:00:58.833Z</time>
      </trkpt>
      <trkpt lat="48.44661" lon="-3.83454">
        <ele>242.333755493</ele>
        <time>2014-08-13T14:00:59.836Z</time>
      </trkpt>
      <trkpt lat="48.44656" lon="-3.83461">
        <ele>242.541061401</ele>
        <time>2014-08-13T14:01:01.825Z</time>
      </trkpt>
      <trkpt lat="48.44654" lon="-3.83464">
        <ele>242.620941162</ele>
        <time>2014-08-13T14:01:02.822Z</time>
      </trkpt>
      <trkpt lat="48.44649" lon="-3.8347">
        <ele>242.846801758</ele>
        <time>2014-08-13T14:01:05.829Z</time>
      </trkpt>
      <trkpt lat="48.44647" lon="-3.83472">
        <ele>243.015365601</ele>
        <time>2014-08-13T14:01:06.83Z</time>
      </trkpt>
      <trkpt lat="48.44641" lon="-3.8348">
        <ele>243.069534302</ele>
        <time>2014-08-13T14:01:09.832Z</time>
      </trkpt>
      <trkpt lat="48.44639" lon="-3.83482">
        <ele>243.119720459</ele>
        <time>2014-08-13T14:01:10.829Z</time>
      </trkpt>
      <trkpt lat="48.44633" lon="-3.83491">
        <ele>243.27571106</ele>
        <time>2014-08-13T14:01:13.817Z</time>
      </trkpt>
      <trkpt lat="48.44632" lon="-3.83495">
        <ele>243.396911621</ele>
        <time>2014-08-13T14:01:14.818Z</time>
      </trkpt>
      <trkpt lat="48.44627" lon="-3.83503">
        <ele>243.167648315</ele>
        <time>2014-08-13T14:01:17.824Z</time>
      </trkpt>
      <trkpt lat="48.44626" lon="-3.83506">
        <ele>243.093856812</ele>
        <time>2014-08-13T14:01:18.823Z</time>
      </trkpt>
      <trkpt lat="48.44624" lon="-3.83517">
        <ele>242.538742065</ele>
        <time>2014-08-13T14:01:21.82Z</time>
      </trkpt>
      <trkpt lat="48.44623" lon="-3.83519">
        <ele>242.382644653</ele>
        <time>2014-08-13T14:01:22.822Z</time>
      </trkpt>
      <trkpt lat="48.44619" lon="-3.8353">
        <ele>242.265640259</ele>
        <time>2014-08-13T14:01:25.813Z</time>
      </trkpt>
      <trkpt lat="48.44618" lon="-3.83535">
        <ele>242.115966797</ele>
        <time>2014-08-13T14:01:26.824Z</time>
      </trkpt>
      <trkpt lat="48.44618" lon="-3.83546">
        <ele>241.886947632</ele>
        <time>2014-08-13T14:01:28.875Z</time>
      </trkpt>
      <trkpt lat="48.44618" lon="-3.83552">
        <ele>241.817504883</ele>
        <time>2014-08-13T14:01:29.821Z</time>
      </trkpt>
      <trkpt lat="48.44622" lon="-3.83563">
        <ele>241.538818359</ele>
        <time>2014-08-13T14:01:31.819Z</time>
      </trkpt>
      <trkpt lat="48.44625" lon="-3.83568">
        <ele>241.520858765</ele>
        <time>2014-08-13T14:01:32.82Z</time>
      </trkpt>
      <trkpt lat="48.44631" lon="-3.83578">
        <ele>242.257492065</ele>
        <time>2014-08-13T14:01:34.828Z</time>
      </trkpt>
      <trkpt lat="48.44634" lon="-3.83582">
        <ele>242.46812439</ele>
        <time>2014-08-13T14:01:35.816Z</time>
      </trkpt>
      <trkpt lat="48.4464" lon="-3.8359">
        <ele>242.967376709</ele>
        <time>2014-08-13T14:01:37.821Z</time>
      </trkpt>
      <trkpt lat="48.44642" lon="-3.83593">
        <ele>242.955917358</ele>
        <time>2014-08-13T14:01:38.821Z</time>
      </trkpt>
      <trkpt lat="48.44648" lon="-3.83601">
        <ele>242.783432007</ele>
        <time>2014-08-13T14:01:41.827Z</time>
      </trkpt>
      <trkpt lat="48.44649" lon="-3.83603">
        <ele>242.677627563</ele>
        <time>2014-08-13T14:01:42.821Z</time>
      </trkpt>
      <trkpt lat="48.44654" lon="-3.8361">
        <ele>242.519302368</ele>
        <time>2014-08-13T14:01:44.818Z</time>
      </trkpt>
      <trkpt lat="48.44656" lon="-3.83615">
        <ele>242.480743408</ele>
        <time>2014-08-13T14:01:45.819Z</time>
      </trkpt>
      <trkpt lat="48.4466" lon="-3.83624">
        <ele>242.381378174</ele>
        <time>2014-08-13T14:01:48.816Z</time>
      </trkpt>
      <trkpt lat="48.44662" lon="-3.83628">
        <ele>242.445022583</ele>
        <time>2014-08-13T14:01:49.813Z</time>
      </trkpt>
      <trkpt lat="48.44667" lon="-3.83636">
        <ele>242.389801025</ele>
        <time>2014-08-13T14:01:51.822Z</time>
      </trkpt>
      <trkpt lat="48.4467" lon="-3.83639">
        <ele>242.44644165</ele>
        <time>2014-08-13T14:01:52.828Z</time>
      </trkpt>
      <trkpt lat="48.44675" lon="-3.83645">
        <ele>242.504653931</ele>
        <time>2014-08-13T14:01:54.834Z</time>
      </trkpt>
      <trkpt lat="48.44678" lon="-3.83649">
        <ele>242.497512817</ele>
        <time>2014-08-13T14:01:55.823Z</time>
      </trkpt>
      <trkpt lat="48.44682" lon="-3.83658">
        <ele>242.470443726</ele>
        <time>2014-08-13T14:01:58.973Z</time>
      </trkpt>
      <trkpt lat="48.44682" lon="-3.83661">
        <ele>242.467483521</ele>
        <time>2014-08-13T14:01:59.98Z</time>
      </trkpt>
      <trkpt lat="48.44688" lon="-3.8367">
        <ele>242.609085083</ele>
        <time>2014-08-13T14:02:03Z</time>
      </trkpt>
      <trkpt lat="48.4469" lon="-3.83672">
        <ele>242.652679443</ele>
        <time>2014-08-13T14:02:03.975Z</time>
      </trkpt>
      <trkpt lat="48.44695" lon="-3.83679">
        <ele>242.814422607</ele>
        <time>2014-08-13T14:02:06.97Z</time>
      </trkpt>
      <trkpt lat="48.44697" lon="-3.83682">
        <ele>242.837966919</ele>
        <time>2014-08-13T14:02:07.979Z</time>
      </trkpt>
      <trkpt lat="48.44702" lon="-3.83689">
        <ele>242.874526978</ele>
        <time>2014-08-13T14:02:10.981Z</time>
      </trkpt>
      <trkpt lat="48.44704" lon="-3.83691">
        <ele>242.846221924</ele>
        <time>2014-08-13T14:02:11.978Z</time>
      </trkpt>
      <trkpt lat="48.44709" lon="-3.83698">
        <ele>242.811355591</ele>
        <time>2014-08-13T14:02:14.97Z</time>
      </trkpt>
      <trkpt lat="48.44711" lon="-3.83702">
        <ele>242.756164551</ele>
        <time>2014-08-13T14:02:15.974Z</time>
      </trkpt>
      <trkpt lat="48.44715" lon="-3.83709">
        <ele>242.683227539</ele>
        <time>2014-08-13T14:02:18.977Z</time>
      </trkpt>
      <trkpt lat="48.44717" lon="-3.83712">
        <ele>242.720016479</ele>
        <time>2014-08-13T14:02:19.985Z</time>
      </trkpt>
      <trkpt lat="48.44722" lon="-3.83723">
        <ele>243.094985962</ele>
        <time>2014-08-13T14:02:22.972Z</time>
      </trkpt>
      <trkpt lat="48.44724" lon="-3.83725">
        <ele>243.167556763</ele>
        <time>2014-08-13T14:02:23.968Z</time>
      </trkpt>
      <trkpt lat="48.44732" lon="-3.83732">
        <ele>243.215072632</ele>
        <time>2014-08-13T14:02:27.98Z</time>
      </trkpt>
      <trkpt lat="48.44734" lon="-3.83735">
        <ele>243.168457031</ele>
        <time>2014-08-13T14:02:28.971Z</time>
      </trkpt>
      <trkpt lat="48.44739" lon="-3.83743">
        <ele>243.237335205</ele>
        <time>2014-08-13T14:02:30.977Z</time>
      </trkpt>
      <trkpt lat="48.44741" lon="-3.83745">
        <ele>243.276931763</ele>
        <time>2014-08-13T14:02:31.976Z</time>
      </trkpt>
      <trkpt lat="48.44746" lon="-3.83751">
        <ele>243.24041748</ele>
        <time>2014-08-13T14:02:34.97Z</time>
      </trkpt>
      <trkpt lat="48.44749" lon="-3.83753">
        <ele>243.265411377</ele>
        <time>2014-08-13T14:02:35.972Z</time>
      </trkpt>
      <trkpt lat="48.44753" lon="-3.83756">
        <ele>242.86289978</ele>
        <time>2014-08-13T14:02:53.972Z</time>
      </trkpt>
      <trkpt lat="48.44757" lon="-3.83758">
        <ele>242.879180908</ele>
        <time>2014-08-13T14:02:54.97Z</time>
      </trkpt>
      <trkpt lat="48.44765" lon="-3.83756">
        <ele>242.761856079</ele>
        <time>2014-08-13T14:02:57.979Z</time>
      </trkpt>
      <trkpt lat="48.44767" lon="-3.83754">
        <ele>242.742034912</ele>
        <time>2014-08-13T14:02:58.981Z</time>
      </trkpt>
      <trkpt lat="48.44774" lon="-3.83747">
        <ele>242.451858521</ele>
        <time>2014-08-13T14:03:03.978Z</time>
      </trkpt>
      <trkpt lat="48.44776" lon="-3.83745">
        <ele>242.406356812</ele>
        <time>2014-08-13T14:03:04.971Z</time>
      </trkpt>
      <trkpt lat="48.44783" lon="-3.83738">
        <ele>242.649429321</ele>
        <time>2014-08-13T14:03:10.972Z</time>
      </trkpt>
      <trkpt lat="48.44784" lon="-3.83737">
        <ele>242.767791748</ele>
        <time>2014-08-13T14:03:11.97Z</time>
      </trkpt>
      <trkpt lat="48.4479" lon="-3.83727">
        <ele>243.747268677</ele>
        <time>2014-08-13T14:03:16.971Z</time>
      </trkpt>
      <trkpt lat="48.44791" lon="-3.83724">
        <ele>243.982254028</ele>
        <time>2014-08-13T14:03:17.973Z</time>
      </trkpt>
      <trkpt lat="48.44796" lon="-3.83713">
        <ele>244.667205811</ele>
        <time>2014-08-13T14:03:20.975Z</time>
      </trkpt>
      <trkpt lat="48.44799" lon="-3.8371">
        <ele>244.999267578</ele>
        <time>2014-08-13T14:03:21.974Z</time>
      </trkpt>
      <trkpt lat="48.44802" lon="-3.83701">
        <ele>246.056549072</ele>
        <time>2014-08-13T14:03:25.006Z</time>
      </trkpt>
      <trkpt lat="48.44805" lon="-3.83695">
        <ele>246.427963257</ele>
        <time>2014-08-13T14:03:25.972Z</time>
      </trkpt>
      <trkpt lat="48.44809" lon="-3.83688">
        <ele>246.775268555</ele>
        <time>2014-08-13T14:03:26.982Z</time>
      </trkpt>
      <trkpt lat="48.44811" lon="-3.83685">
        <ele>247.182220459</ele>
        <time>2014-08-13T14:03:27.976Z</time>
      </trkpt>
      <trkpt lat="48.44815" lon="-3.83675">
        <ele>247.955612183</ele>
        <time>2014-08-13T14:03:29.98Z</time>
      </trkpt>
      <trkpt lat="48.44817" lon="-3.83669">
        <ele>248.350875854</ele>
        <time>2014-08-13T14:03:30.979Z</time>
      </trkpt>
      <trkpt lat="48.44821" lon="-3.8366">
        <ele>249.263946533</ele>
        <time>2014-08-13T14:03:32.975Z</time>
      </trkpt>
      <trkpt lat="48.44822" lon="-3.83656">
        <ele>249.62600708</ele>
        <time>2014-08-13T14:03:34.005Z</time>
      </trkpt>
      <trkpt lat="48.44825" lon="-3.83644">
        <ele>252.441772461</ele>
        <time>2014-08-13T14:03:35.974Z</time>
      </trkpt>
      <trkpt lat="48.44827" lon="-3.83637">
        <ele>255.153579712</ele>
        <time>2014-08-13T14:03:36.966Z</time>
      </trkpt>
      <trkpt lat="48.44831" lon="-3.83628">
        <ele>257.805603027</ele>
        <time>2014-08-13T14:03:37.968Z</time>
      </trkpt>
      <trkpt lat="48.44835" lon="-3.8362">
        <ele>260.09677124</ele>
        <time>2014-08-13T14:03:38.974Z</time>
      </trkpt>
      <trkpt lat="48.44838" lon="-3.83613">
        <ele>261.075042725</ele>
        <time>2014-08-13T14:03:39.975Z</time>
      </trkpt>
      <trkpt lat="48.44842" lon="-3.83606">
        <ele>262.143859863</ele>
        <time>2014-08-13T14:03:40.972Z</time>
      </trkpt>
      <trkpt lat="48.44847" lon="-3.83599">
        <ele>262.180786133</ele>
        <time>2014-08-13T14:03:41.975Z</time>
      </trkpt>
      <trkpt lat="48.44851" lon="-3.83592">
        <ele>262.924285889</ele>
        <time>2014-08-13T14:03:42.971Z</time>
      </trkpt>
      <trkpt lat="48.44855" lon="-3.83582">
        <ele>262.926574707</ele>
        <time>2014-08-13T14:03:43.963Z</time>
      </trkpt>
      <trkpt lat="48.44858" lon="-3.83575">
        <ele>263.765441895</ele>
        <time>2014-08-13T14:03:44.974Z</time>
      </trkpt>
      <trkpt lat="48.44862" lon="-3.83568">
        <ele>263.990600586</ele>
        <time>2014-08-13T14:03:45.98Z</time>
      </trkpt>
      <trkpt lat="48.44864" lon="-3.83561">
        <ele>263.940765381</ele>
        <time>2014-08-13T14:03:46.979Z</time>
      </trkpt>
      <trkpt lat="48.44871" lon="-3.83552">
        <ele>264.070770264</ele>
        <time>2014-08-13T14:03:48.978Z</time>
      </trkpt>
      <trkpt lat="48.44875" lon="-3.83548">
        <ele>264.035217285</ele>
        <time>2014-08-13T14:03:49.982Z</time>
      </trkpt>
      <trkpt lat="48.44882" lon="-3.83541">
        <ele>263.381469727</ele>
        <time>2014-08-13T14:03:53.977Z</time>
      </trkpt>
      <trkpt lat="48.44883" lon="-3.83539">
        <ele>263.142089844</ele>
        <time>2014-08-13T14:03:54.977Z</time>
      </trkpt>
      <trkpt lat="48.44889" lon="-3.83534">
        <ele>262.47946167</ele>
        <time>2014-08-13T14:04:00.977Z</time>
      </trkpt>
      <trkpt lat="48.4489" lon="-3.83532">
        <ele>262.281555176</ele>
        <time>2014-08-13T14:04:01.971Z</time>
      </trkpt>
      <trkpt lat="48.44897" lon="-3.83525">
        <ele>262.259643555</ele>
        <time>2014-08-13T14:04:07.972Z</time>
      </trkpt>
      <trkpt lat="48.44898" lon="-3.83525">
        <ele>262.319213867</ele>
        <time>2014-08-13T14:04:08.976Z</time>
      </trkpt>
      <trkpt lat="48.44897" lon="-3.83514">
        <ele>263.839294434</ele>
        <time>2014-08-13T14:04:39.99Z</time>
      </trkpt>
      <trkpt lat="48.44897" lon="-3.83511">
        <ele>264.043060303</ele>
        <time>2014-08-13T14:04:40.979Z</time>
      </trkpt>
      <trkpt lat="48.44899" lon="-3.835">
        <ele>264.669555664</ele>
        <time>2014-08-13T14:04:45.984Z</time>
      </trkpt>
      <trkpt lat="48.44899" lon="-3.83496">
        <ele>264.770629883</ele>
        <time>2014-08-13T14:04:46.975Z</time>
      </trkpt>
      <trkpt lat="48.44899" lon="-3.83483">
        <ele>265.235473633</ele>
        <time>2014-08-13T14:04:50.984Z</time>
      </trkpt>
      <trkpt lat="48.449" lon="-3.8348">
        <ele>265.319213867</ele>
        <time>2014-08-13T14:04:51.989Z</time>
      </trkpt>
      <trkpt lat="48.44904" lon="-3.8347">
        <ele>265.957122803</ele>
        <time>2014-08-13T14:04:55.984Z</time>
      </trkpt>
      <trkpt lat="48.44905" lon="-3.83467">
        <ele>266.178985596</ele>
        <time>2014-08-13T14:04:56.979Z</time>
      </trkpt>
      <trkpt lat="48.44909" lon="-3.83456">
        <ele>266.635406494</ele>
        <time>2014-08-13T14:05:00.975Z</time>
      </trkpt>
      <trkpt lat="48.4491" lon="-3.83454">
        <ele>266.560943604</ele>
        <time>2014-08-13T14:05:01.979Z</time>
      </trkpt>
      <trkpt lat="48.44916" lon="-3.83448">
        <ele>265.761291504</ele>
        <time>2014-08-13T14:05:05.981Z</time>
      </trkpt>
      <trkpt lat="48.44918" lon="-3.83447">
        <ele>265.486907959</ele>
        <time>2014-08-13T14:05:06.984Z</time>
      </trkpt>
      <trkpt lat="48.44925" lon="-3.8344">
        <ele>264.803405762</ele>
        <time>2014-08-13T14:05:11.983Z</time>
      </trkpt>
      <trkpt lat="48.44926" lon="-3.83439">
        <ele>264.747283936</ele>
        <time>2014-08-13T14:05:12.976Z</time>
      </trkpt>
      <trkpt lat="48.44934" lon="-3.83434">
        <ele>264.482635498</ele>
        <time>2014-08-13T14:05:20.974Z</time>
      </trkpt>
      <trkpt lat="48.44936" lon="-3.83432">
        <ele>264.481811523</ele>
        <time>2014-08-13T14:05:21.983Z</time>
      </trkpt>
      <trkpt lat="48.44941" lon="-3.83424">
        <ele>264.53805542</ele>
        <time>2014-08-13T14:05:26.971Z</time>
      </trkpt>
      <trkpt lat="48.44942" lon="-3.83421">
        <ele>264.673736572</ele>
        <time>2014-08-13T14:05:27.978Z</time>
      </trkpt>
      <trkpt lat="48.44948" lon="-3.83412">
        <ele>265.107055664</ele>
        <time>2014-08-13T14:05:31.985Z</time>
      </trkpt>
      <trkpt lat="48.44949" lon="-3.8341">
        <ele>265.078216553</ele>
        <time>2014-08-13T14:05:32.975Z</time>
      </trkpt>
      <trkpt lat="48.44956" lon="-3.83402">
        <ele>264.947418213</ele>
        <time>2014-08-13T14:05:36.976Z</time>
      </trkpt>
      <trkpt lat="48.44957" lon="-3.83401">
        <ele>264.843933105</ele>
        <time>2014-08-13T14:05:37.978Z</time>
      </trkpt>
      <trkpt lat="48.44961" lon="-3.83391">
        <ele>264.75390625</ele>
        <time>2014-08-13T14:05:42.98Z</time>
      </trkpt>
      <trkpt lat="48.44963" lon="-3.83387">
        <ele>264.718566895</ele>
        <time>2014-08-13T14:05:43.98Z</time>
      </trkpt>
      <trkpt lat="48.44969" lon="-3.83379">
        <ele>265.022216797</ele>
        <time>2014-08-13T14:05:46.973Z</time>
      </trkpt>
      <trkpt lat="48.4497" lon="-3.83377">
        <ele>265.18057251</ele>
        <time>2014-08-13T14:05:47.978Z</time>
      </trkpt>
      <trkpt lat="48.44973" lon="-3.83366">
        <ele>265.94833374</ele>
        <time>2014-08-13T14:05:53.981Z</time>
      </trkpt>
      <trkpt lat="48.44973" lon="-3.83363">
        <ele>266.117218018</ele>
        <time>2014-08-13T14:05:54.982Z</time>
      </trkpt>
      <trkpt lat="48.44975" lon="-3.83352">
        <ele>266.612091064</ele>
        <time>2014-08-13T14:05:57.982Z</time>
      </trkpt>
      <trkpt lat="48.44977" lon="-3.83349">
        <ele>266.785217285</ele>
        <time>2014-08-13T14:05:58.972Z</time>
      </trkpt>
      <trkpt lat="48.44979" lon="-3.83337">
        <ele>267.404144287</ele>
        <time>2014-08-13T14:06:02.974Z</time>
      </trkpt>
      <trkpt lat="48.4498" lon="-3.83334">
        <ele>267.446838379</ele>
        <time>2014-08-13T14:06:03.979Z</time>
      </trkpt>
      <trkpt lat="48.44986" lon="-3.83325">
        <ele>267.661804199</ele>
        <time>2014-08-13T14:06:08.974Z</time>
      </trkpt>
      <trkpt lat="48.44986" lon="-3.83325">
        <ele>267.69241333</ele>
        <time>2014-08-13T14:06:09.986Z</time>
      </trkpt>
      <trkpt lat="48.44995" lon="-3.83324">
        <ele>267.918701172</ele>
        <time>2014-08-13T14:06:15.978Z</time>
      </trkpt>
      <trkpt lat="48.44996" lon="-3.83323">
        <ele>267.966278076</ele>
        <time>2014-08-13T14:06:16.969Z</time>
      </trkpt>
      <trkpt lat="48.45004" lon="-3.83321">
        <ele>268.262908936</ele>
        <time>2014-08-13T14:06:21.974Z</time>
      </trkpt>
      <trkpt lat="48.45006" lon="-3.8332">
        <ele>268.299285889</ele>
        <time>2014-08-13T14:06:22.977Z</time>
      </trkpt>
      <trkpt lat="48.45014" lon="-3.83316">
        <ele>268.960174561</ele>
        <time>2014-08-13T14:06:29.992Z</time>
      </trkpt>
      <trkpt lat="48.45015" lon="-3.83315">
        <ele>269.030029297</ele>
        <time>2014-08-13T14:06:30.98Z</time>
      </trkpt>
      <trkpt lat="48.45023" lon="-3.8331">
        <ele>269.484832764</ele>
        <time>2014-08-13T14:06:36.998Z</time>
      </trkpt>
      <trkpt lat="48.45024" lon="-3.83309">
        <ele>269.438903809</ele>
        <time>2014-08-13T14:06:37.98Z</time>
      </trkpt>
      <trkpt lat="48.45032" lon="-3.83304">
        <ele>269.649841309</ele>
        <time>2014-08-13T14:06:45.986Z</time>
      </trkpt>
      <trkpt lat="48.45033" lon="-3.83304">
        <ele>269.648345947</ele>
        <time>2014-08-13T14:06:46.972Z</time>
      </trkpt>
      <trkpt lat="48.45042" lon="-3.83306">
        <ele>269.887237549</ele>
        <time>2014-08-13T14:06:58.98Z</time>
      </trkpt>
      <trkpt lat="48.45043" lon="-3.83306">
        <ele>270.031677246</ele>
        <time>2014-08-13T14:06:59.99Z</time>
      </trkpt>
      <trkpt lat="48.4505" lon="-3.833">
        <ele>270.725738525</ele>
        <time>2014-08-13T14:07:05.961Z</time>
      </trkpt>
      <trkpt lat="48.45051" lon="-3.833">
        <ele>270.809051514</ele>
        <time>2014-08-13T14:07:06.973Z</time>
      </trkpt>
      <trkpt lat="48.45057" lon="-3.83296">
        <ele>271.455047607</ele>
        <time>2014-08-13T14:07:13.089Z</time>
      </trkpt>
      <trkpt lat="48.45061" lon="-3.83294">
        <ele>271.49987793</ele>
        <time>2014-08-13T14:07:14.073Z</time>
      </trkpt>
      <trkpt lat="48.45069" lon="-3.8329">
        <ele>271.807891846</ele>
        <time>2014-08-13T14:07:15.98Z</time>
      </trkpt>
      <trkpt lat="48.45072" lon="-3.83287">
        <ele>272.059783936</ele>
        <time>2014-08-13T14:07:17.011Z</time>
      </trkpt>
      <trkpt lat="48.45077" lon="-3.83283">
        <ele>272.494354248</ele>
        <time>2014-08-13T14:07:18.97Z</time>
      </trkpt>
      <trkpt lat="48.45081" lon="-3.83281">
        <ele>272.652893066</ele>
        <time>2014-08-13T14:07:19.984Z</time>
      </trkpt>
      <trkpt lat="48.45086" lon="-3.83272">
        <ele>272.796844482</ele>
        <time>2014-08-13T14:07:23.982Z</time>
      </trkpt>
      <trkpt lat="48.45087" lon="-3.83269">
        <ele>272.839538574</ele>
        <time>2014-08-13T14:07:24.972Z</time>
      </trkpt>
      <trkpt lat="48.45091" lon="-3.83257">
        <ele>273.080841064</ele>
        <time>2014-08-13T14:07:28.968Z</time>
      </trkpt>
      <trkpt lat="48.45093" lon="-3.83255">
        <ele>273.186035156</ele>
        <time>2014-08-13T14:07:29.986Z</time>
      </trkpt>
      <trkpt lat="48.45099" lon="-3.83247">
        <ele>273.422973633</ele>
        <time>2014-08-13T14:07:33.981Z</time>
      </trkpt>
      <trkpt lat="48.45101" lon="-3.83244">
        <ele>273.540100098</ele>
        <time>2014-08-13T14:07:34.973Z</time>
      </trkpt>
      <trkpt lat="48.45107" lon="-3.8324">
        <ele>273.857147217</ele>
        <time>2014-08-13T14:07:36.986Z</time>
      </trkpt>
      <trkpt lat="48.45111" lon="-3.83237">
        <ele>273.994293213</ele>
        <time>2014-08-13T14:07:37.99Z</time>
      </trkpt>
      <trkpt lat="48.45116" lon="-3.83233">
        <ele>274.191955566</ele>
        <time>2014-08-13T14:07:39.991Z</time>
      </trkpt>
      <trkpt lat="48.45118" lon="-3.8323">
        <ele>274.30267334</ele>
        <time>2014-08-13T14:07:41.004Z</time>
      </trkpt>
      <trkpt lat="48.45125" lon="-3.83223">
        <ele>274.465637207</ele>
        <time>2014-08-13T14:07:43.988Z</time>
      </trkpt>
      <trkpt lat="48.45126" lon="-3.83221">
        <ele>274.550018311</ele>
        <time>2014-08-13T14:07:44.982Z</time>
      </trkpt>
      <trkpt lat="48.4513" lon="-3.83213">
        <ele>274.717468262</ele>
        <time>2014-08-13T14:07:48.984Z</time>
      </trkpt>
      <trkpt lat="48.45133" lon="-3.83212">
        <ele>274.727172852</ele>
        <time>2014-08-13T14:07:49.994Z</time>
      </trkpt>
      <trkpt lat="48.45141" lon="-3.83208">
        <ele>274.958404541</ele>
        <time>2014-08-13T14:07:54.977Z</time>
      </trkpt>
      <trkpt lat="48.45142" lon="-3.83209">
        <ele>274.958465576</ele>
        <time>2014-08-13T14:07:55.981Z</time>
      </trkpt>
      <trkpt lat="48.45147" lon="-3.83219">
        <ele>276.757843018</ele>
        <time>2014-08-13T14:08:10.982Z</time>
      </trkpt>
      <trkpt lat="48.45148" lon="-3.8322">
        <ele>276.935058594</ele>
        <time>2014-08-13T14:08:11.984Z</time>
      </trkpt>
      <trkpt lat="48.45155" lon="-3.83224">
        <ele>277.338439941</ele>
        <time>2014-08-13T14:08:14.972Z</time>
      </trkpt>
      <trkpt lat="48.45157" lon="-3.83226">
        <ele>277.636260986</ele>
        <time>2014-08-13T14:08:15.98Z</time>
      </trkpt>
      <trkpt lat="48.45161" lon="-3.83229">
        <ele>278.304138184</ele>
        <time>2014-08-13T14:08:18.989Z</time>
      </trkpt>
      <trkpt lat="48.45165" lon="-3.83231">
        <ele>278.683776855</ele>
        <time>2014-08-13T14:08:19.982Z</time>
      </trkpt>
      <trkpt lat="48.45169" lon="-3.83239">
        <ele>280.659851074</ele>
        <time>2014-08-13T14:08:25.979Z</time>
      </trkpt>
      <trkpt lat="48.45171" lon="-3.83241">
        <ele>280.994873047</ele>
        <time>2014-08-13T14:08:26.98Z</time>
      </trkpt>
      <trkpt lat="48.45176" lon="-3.83246">
        <ele>282.9559021</ele>
        <time>2014-08-13T14:08:32.979Z</time>
      </trkpt>
      <trkpt lat="48.4518" lon="-3.83247">
        <ele>283.239746094</ele>
        <time>2014-08-13T14:08:33.982Z</time>
      </trkpt>
      <trkpt lat="48.45187" lon="-3.83252">
        <ele>283.806640625</ele>
        <time>2014-08-13T14:08:35.982Z</time>
      </trkpt>
      <trkpt lat="48.45191" lon="-3.83255">
        <ele>284.117767334</ele>
        <time>2014-08-13T14:08:36.982Z</time>
      </trkpt>
      <trkpt lat="48.45197" lon="-3.83259">
        <ele>284.34664917</ele>
        <time>2014-08-13T14:08:37.979Z</time>
      </trkpt>
      <trkpt lat="48.45204" lon="-3.83264">
        <ele>284.628173828</ele>
        <time>2014-08-13T14:08:38.975Z</time>
      </trkpt>
      <trkpt lat="48.4521" lon="-3.83269">
        <ele>284.945037842</ele>
        <time>2014-08-13T14:08:39.989Z</time>
      </trkpt>
      <trkpt lat="48.45216" lon="-3.83274">
        <ele>285.211151123</ele>
        <time>2014-08-13T14:08:40.983Z</time>
      </trkpt>
      <trkpt lat="48.45224" lon="-3.83278">
        <ele>285.652893066</ele>
        <time>2014-08-13T14:08:42.98Z</time>
      </trkpt>
      <trkpt lat="48.45228" lon="-3.83279">
        <ele>285.845947266</ele>
        <time>2014-08-13T14:08:43.983Z</time>
      </trkpt>
      <trkpt lat="48.45235" lon="-3.83281">
        <ele>286.377593994</ele>
        <time>2014-08-13T14:08:45.985Z</time>
      </trkpt>
      <trkpt lat="48.45239" lon="-3.83283">
        <ele>286.70904541</ele>
        <time>2014-08-13T14:08:46.983Z</time>
      </trkpt>
      <trkpt lat="48.45246" lon="-3.83286">
        <ele>287.296417236</ele>
        <time>2014-08-13T14:08:48.988Z</time>
      </trkpt>
      <trkpt lat="48.45249" lon="-3.83287">
        <ele>287.597564697</ele>
        <time>2014-08-13T14:08:49.989Z</time>
      </trkpt>
      <trkpt lat="48.45257" lon="-3.83292">
        <ele>288.21585083</ele>
        <time>2014-08-13T14:08:52.988Z</time>
      </trkpt>
      <trkpt lat="48.45258" lon="-3.83294">
        <ele>288.411315918</ele>
        <time>2014-08-13T14:08:53.982Z</time>
      </trkpt>
      <trkpt lat="48.45263" lon="-3.83303">
        <ele>290.649383545</ele>
        <time>2014-08-13T14:09:37.979Z</time>
      </trkpt>
      <trkpt lat="48.45264" lon="-3.83304">
        <ele>290.641998291</ele>
        <time>2014-08-13T14:09:38.989Z</time>
      </trkpt>
      <trkpt lat="48.45271" lon="-3.83312">
        <ele>289.506439209</ele>
        <time>2014-08-13T14:10:42.979Z</time>
      </trkpt>
      <trkpt lat="48.45271" lon="-3.83312">
        <ele>289.516235352</ele>
        <time>2014-08-13T14:10:43.976Z</time>
      </trkpt>
      <trkpt lat="48.45276" lon="-3.83323">
        <ele>290.387268066</ele>
        <time>2014-08-13T14:11:05.982Z</time>
      </trkpt>
      <trkpt lat="48.45277" lon="-3.83328">
        <ele>290.32510376</ele>
        <time>2014-08-13T14:11:06.98Z</time>
      </trkpt>
      <trkpt lat="48.4528" lon="-3.83337">
        <ele>289.876495361</ele>
        <time>2014-08-13T14:11:08.95Z</time>
      </trkpt>
      <trkpt lat="48.45283" lon="-3.83343">
        <ele>289.651397705</ele>
        <time>2014-08-13T14:11:09.961Z</time>
      </trkpt>
      <trkpt lat="48.45287" lon="-3.83351">
        <ele>289.392730713</ele>
        <time>2014-08-13T14:11:11.965Z</time>
      </trkpt>
      <trkpt lat="48.4529" lon="-3.83356">
        <ele>289.274810791</ele>
        <time>2014-08-13T14:11:12.96Z</time>
      </trkpt>
      <trkpt lat="48.45294" lon="-3.83362">
        <ele>289.0753479</ele>
        <time>2014-08-13T14:11:13.957Z</time>
      </trkpt>
      <trkpt lat="48.45299" lon="-3.83367">
        <ele>288.857299805</ele>
        <time>2014-08-13T14:11:14.972Z</time>
      </trkpt>
      <trkpt lat="48.45305" lon="-3.83371">
        <ele>288.648040771</ele>
        <time>2014-08-13T14:11:15.973Z</time>
      </trkpt>
      <trkpt lat="48.45309" lon="-3.83375">
        <ele>288.377502441</ele>
        <time>2014-08-13T14:11:16.962Z</time>
      </trkpt>
      <trkpt lat="48.45317" lon="-3.8338">
        <ele>287.394866943</ele>
        <time>2014-08-13T14:11:21.965Z</time>
      </trkpt>
      <trkpt lat="48.45318" lon="-3.83383">
        <ele>287.106231689</ele>
        <time>2014-08-13T14:11:22.969Z</time>
      </trkpt>
      <trkpt lat="48.45322" lon="-3.83393">
        <ele>286.46862793</ele>
        <time>2014-08-13T14:11:25.964Z</time>
      </trkpt>
      <trkpt lat="48.45322" lon="-3.83395">
        <ele>286.246948242</ele>
        <time>2014-08-13T14:11:26.968Z</time>
      </trkpt>
      <trkpt lat="48.45324" lon="-3.83406">
        <ele>285.732177734</ele>
        <time>2014-08-13T14:11:29.976Z</time>
      </trkpt>
      <trkpt lat="48.45325" lon="-3.8341">
        <ele>285.600463867</ele>
        <time>2014-08-13T14:11:30.962Z</time>
      </trkpt>
      <trkpt lat="48.45328" lon="-3.8342">
        <ele>285.257171631</ele>
        <time>2014-08-13T14:11:32.969Z</time>
      </trkpt>
      <trkpt lat="48.4533" lon="-3.83424">
        <ele>285.096130371</ele>
        <time>2014-08-13T14:11:33.97Z</time>
      </trkpt>
      <trkpt lat="48.45333" lon="-3.8343">
        <ele>284.951293945</ele>
        <time>2014-08-13T14:11:34.962Z</time>
      </trkpt>
      <trkpt lat="48.45336" lon="-3.83436">
        <ele>284.863830566</ele>
        <time>2014-08-13T14:11:35.967Z</time>
      </trkpt>
      <trkpt lat="48.45339" lon="-3.83442">
        <ele>284.745422363</ele>
        <time>2014-08-13T14:11:36.969Z</time>
      </trkpt>
      <trkpt lat="48.45341" lon="-3.83448">
        <ele>284.634338379</ele>
        <time>2014-08-13T14:11:37.965Z</time>
      </trkpt>
      <trkpt lat="48.45344" lon="-3.83453">
        <ele>284.543426514</ele>
        <time>2014-08-13T14:11:39.049Z</time>
      </trkpt>
      <trkpt lat="48.45348" lon="-3.83459">
        <ele>284.526794434</ele>
        <time>2014-08-13T14:11:39.965Z</time>
      </trkpt>
      <trkpt lat="48.45353" lon="-3.83468">
        <ele>284.254669189</ele>
        <time>2014-08-13T14:11:42.956Z</time>
      </trkpt>
      <trkpt lat="48.45353" lon="-3.83471">
        <ele>284.195831299</ele>
        <time>2014-08-13T14:11:41.586Z</time>
      </trkpt>
      <trkpt lat="48.45355" lon="-3.83483">
        <ele>283.799530029</ele>
        <time>2014-08-13T14:11:46.603Z</time>
      </trkpt>
      <trkpt lat="48.45356" lon="-3.83486">
        <ele>283.606506348</ele>
        <time>2014-08-13T14:11:47.533Z</time>
      </trkpt>
      <trkpt lat="48.45358" lon="-3.83497">
        <ele>282.898986816</ele>
        <time>2014-08-13T14:11:50.551Z</time>
      </trkpt>
      <trkpt lat="48.45359" lon="-3.83502">
        <ele>282.737762451</ele>
        <time>2014-08-13T14:11:51.545Z</time>
      </trkpt>
      <trkpt lat="48.45363" lon="-3.83512">
        <ele>282.053741455</ele>
        <time>2014-08-13T14:11:55.547Z</time>
      </trkpt>
      <trkpt lat="48.45363" lon="-3.83514">
        <ele>281.908081055</ele>
        <time>2014-08-13T14:11:56.547Z</time>
      </trkpt>
      <trkpt lat="48.45364" lon="-3.83525">
        <ele>281.964202881</ele>
        <time>2014-08-13T14:12:03.564Z</time>
      </trkpt>
      <trkpt lat="48.45364" lon="-3.83528">
        <ele>281.993164062</ele>
        <time>2014-08-13T14:12:04.561Z</time>
      </trkpt>
      <trkpt lat="48.45366" lon="-3.8354">
        <ele>282.360565186</ele>
        <time>2014-08-13T14:12:08.547Z</time>
      </trkpt>
      <trkpt lat="48.45366" lon="-3.83542">
        <ele>282.519683838</ele>
        <time>2014-08-13T14:12:09.56Z</time>
      </trkpt>
      <trkpt lat="48.45366" lon="-3.83555">
        <ele>283.450714111</ele>
        <time>2014-08-13T14:12:18.552Z</time>
      </trkpt>
      <trkpt lat="48.45367" lon="-3.83558">
        <ele>283.412963867</ele>
        <time>2014-08-13T14:12:19.554Z</time>
      </trkpt>
      <trkpt lat="48.45369" lon="-3.8357">
        <ele>283.371398926</ele>
        <time>2014-08-13T14:12:23.555Z</time>
      </trkpt>
      <trkpt lat="48.45369" lon="-3.83574">
        <ele>283.423095703</ele>
        <time>2014-08-13T14:12:24.534Z</time>
      </trkpt>
      <trkpt lat="48.45372" lon="-3.83586">
        <ele>283.552246094</ele>
        <time>2014-08-13T14:12:27.555Z</time>
      </trkpt>
      <trkpt lat="48.45373" lon="-3.83588">
        <ele>283.580596924</ele>
        <time>2014-08-13T14:12:28.556Z</time>
      </trkpt>
      <trkpt lat="48.45374" lon="-3.83599">
        <ele>283.303894043</ele>
        <time>2014-08-13T14:12:33.556Z</time>
      </trkpt>
      <trkpt lat="48.45374" lon="-3.83602">
        <ele>283.218994141</ele>
        <time>2014-08-13T14:12:34.55Z</time>
      </trkpt>
      <trkpt lat="48.45374" lon="-3.83615">
        <ele>283.010223389</ele>
        <time>2014-08-13T14:12:38.55Z</time>
      </trkpt>
      <trkpt lat="48.45374" lon="-3.83617">
        <ele>282.960144043</ele>
        <time>2014-08-13T14:12:39.555Z</time>
      </trkpt>
      <trkpt lat="48.45373" lon="-3.83628">
        <ele>282.626190186</ele>
        <time>2014-08-13T14:12:43.554Z</time>
      </trkpt>
      <trkpt lat="48.45373" lon="-3.83631">
        <ele>282.534790039</ele>
        <time>2014-08-13T14:12:44.546Z</time>
      </trkpt>
      <trkpt lat="48.45372" lon="-3.83642">
        <ele>282.413726807</ele>
        <time>2014-08-13T14:12:47.553Z</time>
      </trkpt>
      <trkpt lat="48.45373" lon="-3.83645">
        <ele>282.419403076</ele>
        <time>2014-08-13T14:12:48.571Z</time>
      </trkpt>
      <trkpt lat="48.45377" lon="-3.83657">
        <ele>282.33706665</ele>
        <time>2014-08-13T14:12:51.562Z</time>
      </trkpt>
      <trkpt lat="48.45378" lon="-3.83662">
        <ele>282.351959229</ele>
        <time>2014-08-13T14:12:52.549Z</time>
      </trkpt>
      <trkpt lat="48.4538" lon="-3.83671">
        <ele>282.597229004</ele>
        <time>2014-08-13T14:12:54.551Z</time>
      </trkpt>
      <trkpt lat="48.45381" lon="-3.83676">
        <ele>282.679199219</ele>
        <time>2014-08-13T14:12:55.551Z</time>
      </trkpt>
      <trkpt lat="48.45383" lon="-3.83687">
        <ele>282.884399414</ele>
        <time>2014-08-13T14:12:57.553Z</time>
      </trkpt>
      <trkpt lat="48.45383" lon="-3.83692">
        <ele>282.86340332</ele>
        <time>2014-08-13T14:12:58.545Z</time>
      </trkpt>
      <trkpt lat="48.45384" lon="-3.83702">
        <ele>282.853729248</ele>
        <time>2014-08-13T14:13:00.544Z</time>
      </trkpt>
      <trkpt lat="48.45385" lon="-3.83709">
        <ele>282.926208496</ele>
        <time>2014-08-13T14:13:01.569Z</time>
      </trkpt>
      <trkpt lat="48.45387" lon="-3.83719">
        <ele>283.045257568</ele>
        <time>2014-08-13T14:13:03.552Z</time>
      </trkpt>
      <trkpt lat="48.45387" lon="-3.83722">
        <ele>283.093566895</ele>
        <time>2014-08-13T14:13:04.539Z</time>
      </trkpt>
      <trkpt lat="48.45389" lon="-3.83731">
        <ele>283.327667236</ele>
        <time>2014-08-13T14:13:06.544Z</time>
      </trkpt>
      <trkpt lat="48.45389" lon="-3.83736">
        <ele>283.481414795</ele>
        <time>2014-08-13T14:13:07.557Z</time>
      </trkpt>
      <trkpt lat="48.45391" lon="-3.83749">
        <ele>283.931091309</ele>
        <time>2014-08-13T14:13:10.553Z</time>
      </trkpt>
      <trkpt lat="48.45393" lon="-3.83754">
        <ele>284.057891846</ele>
        <time>2014-08-13T14:13:11.562Z</time>
      </trkpt>
      <trkpt lat="48.45395" lon="-3.83764">
        <ele>284.207855225</ele>
        <time>2014-08-13T14:13:13.561Z</time>
      </trkpt>
      <trkpt lat="48.45395" lon="-3.83767">
        <ele>284.330749512</ele>
        <time>2014-08-13T14:13:14.552Z</time>
      </trkpt>
      <trkpt lat="48.45399" lon="-3.83778">
        <ele>285.115936279</ele>
        <time>2014-08-13T14:13:17.561Z</time>
      </trkpt>
      <trkpt lat="48.45401" lon="-3.83783">
        <ele>285.391235352</ele>
        <time>2014-08-13T14:13:18.547Z</time>
      </trkpt>
      <trkpt lat="48.45405" lon="-3.83792">
        <ele>285.865539551</ele>
        <time>2014-08-13T14:13:20.556Z</time>
      </trkpt>
      <trkpt lat="48.45406" lon="-3.83797">
        <ele>286.107818604</ele>
        <time>2014-08-13T14:13:21.56Z</time>
      </trkpt>
      <trkpt lat="48.45409" lon="-3.83806">
        <ele>286.462768555</ele>
        <time>2014-08-13T14:13:23.553Z</time>
      </trkpt>
      <trkpt lat="48.45409" lon="-3.8381">
        <ele>286.682189941</ele>
        <time>2014-08-13T14:13:24.549Z</time>
      </trkpt>
      <trkpt lat="48.45411" lon="-3.83821">
        <ele>287.331573486</ele>
        <time>2014-08-13T14:13:27.56Z</time>
      </trkpt>
      <trkpt lat="48.45412" lon="-3.83824">
        <ele>287.593383789</ele>
        <time>2014-08-13T14:13:28.545Z</time>
      </trkpt>
      <trkpt lat="48.45416" lon="-3.83833">
        <ele>288.222106934</ele>
        <time>2014-08-13T14:13:31.55Z</time>
      </trkpt>
      <trkpt lat="48.45416" lon="-3.83837">
        <ele>288.395996094</ele>
        <time>2014-08-13T14:13:32.543Z</time>
      </trkpt>
      <trkpt lat="48.45418" lon="-3.83848">
        <ele>289.464172363</ele>
        <time>2014-08-13T14:13:38.551Z</time>
      </trkpt>
      <trkpt lat="48.45419" lon="-3.8385">
        <ele>289.745819092</ele>
        <time>2014-08-13T14:13:39.551Z</time>
      </trkpt>
      <trkpt lat="48.45417" lon="-3.83863">
        <ele>291.485443115</ele>
        <time>2014-08-13T14:13:46.551Z</time>
      </trkpt>
      <trkpt lat="48.45417" lon="-3.83865">
        <ele>291.739135742</ele>
        <time>2014-08-13T14:13:47.549Z</time>
      </trkpt>
      <trkpt lat="48.45418" lon="-3.83876">
        <ele>293.231628418</ele>
        <time>2014-08-13T14:13:51.569Z</time>
      </trkpt>
      <trkpt lat="48.45417" lon="-3.83878">
        <ele>293.519256592</ele>
        <time>2014-08-13T14:13:52.562Z</time>
      </trkpt>
      <trkpt lat="48.45415" lon="-3.83891">
        <ele>295.613739014</ele>
        <time>2014-08-13T14:14:02.185Z</time>
      </trkpt>
      <trkpt lat="48.45415" lon="-3.83894">
        <ele>296.02331543</ele>
        <time>2014-08-13T14:14:03.179Z</time>
      </trkpt>
      <trkpt lat="48.45415" lon="-3.83905">
        <ele>297.703643799</ele>
        <time>2014-08-13T14:14:07.163Z</time>
      </trkpt>
      <trkpt lat="48.45415" lon="-3.83908">
        <ele>298.074279785</ele>
        <time>2014-08-13T14:14:08.145Z</time>
      </trkpt>
      <trkpt lat="48.45413" lon="-3.8392">
        <ele>298.921264648</ele>
        <time>2014-08-13T14:14:12.146Z</time>
      </trkpt>
      <trkpt lat="48.45414" lon="-3.83924">
        <ele>299.01776123</ele>
        <time>2014-08-13T14:14:13.15Z</time>
      </trkpt>
      <trkpt lat="48.45418" lon="-3.83933">
        <ele>299.079193115</ele>
        <time>2014-08-13T14:14:16.149Z</time>
      </trkpt>
      <trkpt lat="48.45419" lon="-3.83937">
        <ele>299.142883301</ele>
        <time>2014-08-13T14:14:17.152Z</time>
      </trkpt>
      <trkpt lat="48.45418" lon="-3.83948">
        <ele>299.375457764</ele>
        <time>2014-08-13T14:14:20.208Z</time>
      </trkpt>
      <trkpt lat="48.45418" lon="-3.83952">
        <ele>299.391784668</ele>
        <time>2014-08-13T14:14:21.168Z</time>
      </trkpt>
      <trkpt lat="48.45416" lon="-3.83964">
        <ele>299.763824463</ele>
        <time>2014-08-13T14:14:26.167Z</time>
      </trkpt>
      <trkpt lat="48.45416" lon="-3.83966">
        <ele>299.848907471</ele>
        <time>2014-08-13T14:14:27.164Z</time>
      </trkpt>
      <trkpt lat="48.45416" lon="-3.83978">
        <ele>300.093170166</ele>
        <time>2014-08-13T14:14:32.176Z</time>
      </trkpt>
      <trkpt lat="48.45416" lon="-3.8398">
        <ele>300.103149414</ele>
        <time>2014-08-13T14:14:33.175Z</time>
      </trkpt>
      <trkpt lat="48.45416" lon="-3.8399">
        <ele>300.363250732</ele>
        <time>2014-08-13T14:14:36.162Z</time>
      </trkpt>
      <trkpt lat="48.45416" lon="-3.83994">
        <ele>300.493469238</ele>
        <time>2014-08-13T14:14:37.161Z</time>
      </trkpt>
      <trkpt lat="48.45416" lon="-3.84007">
        <ele>300.960083008</ele>
        <time>2014-08-13T14:14:40.174Z</time>
      </trkpt>
      <trkpt lat="48.45416" lon="-3.84011">
        <ele>301.128601074</ele>
        <time>2014-08-13T14:14:41.175Z</time>
      </trkpt>
      <trkpt lat="48.45413" lon="-3.84024">
        <ele>301.235565186</ele>
        <time>2014-08-13T14:14:46.181Z</time>
      </trkpt>
      <trkpt lat="48.45413" lon="-3.84025">
        <ele>301.151275635</ele>
        <time>2014-08-13T14:14:47.171Z</time>
      </trkpt>
      <trkpt lat="48.45404" lon="-3.84026">
        <ele>298.295684814</ele>
        <time>2014-08-13T14:15:16.173Z</time>
      </trkpt>
      <trkpt lat="48.45403" lon="-3.84026">
        <ele>298.303100586</ele>
        <time>2014-08-13T14:15:17.172Z</time>
      </trkpt>
      <trkpt lat="48.45394" lon="-3.84026">
        <ele>298.167419434</ele>
        <time>2014-08-13T14:15:29.175Z</time>
      </trkpt>
      <trkpt lat="48.45393" lon="-3.84026">
        <ele>298.123260498</ele>
        <time>2014-08-13T14:15:30.175Z</time>
      </trkpt>
      <trkpt lat="48.45387" lon="-3.84023">
        <ele>297.886016846</ele>
        <time>2014-08-13T14:15:32.183Z</time>
      </trkpt>
      <trkpt lat="48.45383" lon="-3.84022">
        <ele>297.787200928</ele>
        <time>2014-08-13T14:15:33.167Z</time>
      </trkpt>
      <trkpt lat="48.45375" lon="-3.84019">
        <ele>297.552276611</ele>
        <time>2014-08-13T14:15:36.174Z</time>
      </trkpt>
      <trkpt lat="48.45371" lon="-3.84017">
        <ele>297.559112549</ele>
        <time>2014-08-13T14:15:37.173Z</time>
      </trkpt>
      <trkpt lat="48.45365" lon="-3.84013">
        <ele>297.660491943</ele>
        <time>2014-08-13T14:15:39.166Z</time>
      </trkpt>
      <trkpt lat="48.45361" lon="-3.84011">
        <ele>297.649047852</ele>
        <time>2014-08-13T14:15:40.199Z</time>
      </trkpt>
      <trkpt lat="48.45354" lon="-3.84007">
        <ele>297.529449463</ele>
        <time>2014-08-13T14:15:42.174Z</time>
      </trkpt>
      <trkpt lat="48.45351" lon="-3.84006">
        <ele>297.49899292</ele>
        <time>2014-08-13T14:15:43.164Z</time>
      </trkpt>
      <trkpt lat="48.45344" lon="-3.84005">
        <ele>297.45022583</ele>
        <time>2014-08-13T14:15:45.171Z</time>
      </trkpt>
      <trkpt lat="48.45342" lon="-3.84005">
        <ele>297.424407959</ele>
        <time>2014-08-13T14:15:46.167Z</time>
      </trkpt>
      <trkpt lat="48.45334" lon="-3.8401">
        <ele>297.76473999</ele>
        <time>2014-08-13T14:15:59.172Z</time>
      </trkpt>
      <trkpt lat="48.45332" lon="-3.84014">
        <ele>297.682678223</ele>
        <time>2014-08-13T14:16:00.197Z</time>
      </trkpt>
      <trkpt lat="48.45329" lon="-3.84023">
        <ele>297.612579346</ele>
        <time>2014-08-13T14:16:02.169Z</time>
      </trkpt>
      <trkpt lat="48.45327" lon="-3.84027">
        <ele>297.634643555</ele>
        <time>2014-08-13T14:16:03.173Z</time>
      </trkpt>
      <trkpt lat="48.45324" lon="-3.84035">
        <ele>297.639587402</ele>
        <time>2014-08-13T14:16:05.165Z</time>
      </trkpt>
      <trkpt lat="48.45323" lon="-3.84039">
        <ele>297.65826416</ele>
        <time>2014-08-13T14:16:06.165Z</time>
      </trkpt>
      <trkpt lat="48.45319" lon="-3.84049">
        <ele>297.683288574</ele>
        <time>2014-08-13T14:16:08.17Z</time>
      </trkpt>
      <trkpt lat="48.45318" lon="-3.84055">
        <ele>297.686340332</ele>
        <time>2014-08-13T14:16:09.173Z</time>
      </trkpt>
      <trkpt lat="48.45314" lon="-3.84064">
        <ele>297.65234375</ele>
        <time>2014-08-13T14:16:11.167Z</time>
      </trkpt>
      <trkpt lat="48.45311" lon="-3.84068">
        <ele>297.612518311</ele>
        <time>2014-08-13T14:16:12.165Z</time>
      </trkpt>
      <trkpt lat="48.45305" lon="-3.84078">
        <ele>297.54800415</ele>
        <time>2014-08-13T14:16:14.165Z</time>
      </trkpt>
      <trkpt lat="48.45301" lon="-3.84083">
        <ele>297.571105957</ele>
        <time>2014-08-13T14:16:15.173Z</time>
      </trkpt>
      <trkpt lat="48.45298" lon="-3.84088">
        <ele>297.607910156</ele>
        <time>2014-08-13T14:16:16.173Z</time>
      </trkpt>
      <trkpt lat="48.45295" lon="-3.84093">
        <ele>297.630523682</ele>
        <time>2014-08-13T14:16:17.173Z</time>
      </trkpt>
      <trkpt lat="48.4529" lon="-3.84103">
        <ele>297.597473145</ele>
        <time>2014-08-13T14:16:19.183Z</time>
      </trkpt>
      <trkpt lat="48.45286" lon="-3.84107">
        <ele>297.362121582</ele>
        <time>2014-08-13T14:16:20.176Z</time>
      </trkpt>
      <trkpt lat="48.45281" lon="-3.84116">
        <ele>297.398010254</ele>
        <time>2014-08-13T14:16:22.168Z</time>
      </trkpt>
      <trkpt lat="48.45277" lon="-3.84121">
        <ele>297.344390869</ele>
        <time>2014-08-13T14:16:23.168Z</time>
      </trkpt>
      <trkpt lat="48.45272" lon="-3.84129">
        <ele>297.237335205</ele>
        <time>2014-08-13T14:16:25.168Z</time>
      </trkpt>
      <trkpt lat="48.45269" lon="-3.84134">
        <ele>297.252166748</ele>
        <time>2014-08-13T14:16:26.164Z</time>
      </trkpt>
      <trkpt lat="48.45264" lon="-3.84143">
        <ele>297.402862549</ele>
        <time>2014-08-13T14:16:28.16Z</time>
      </trkpt>
      <trkpt lat="48.45262" lon="-3.84147">
        <ele>298.600341797</ele>
        <time>2014-08-13T14:16:29.163Z</time>
      </trkpt>
      <trkpt lat="48.45257" lon="-3.84156">
        <ele>298.856658936</ele>
        <time>2014-08-13T14:16:31.163Z</time>
      </trkpt>
      <trkpt lat="48.45255" lon="-3.84159">
        <ele>298.967102051</ele>
        <time>2014-08-13T14:16:32.165Z</time>
      </trkpt>
      <trkpt lat="48.4525" lon="-3.84168">
        <ele>299.291290283</ele>
        <time>2014-08-13T14:16:34.159Z</time>
      </trkpt>
      <trkpt lat="48.45247" lon="-3.84173">
        <ele>299.445739746</ele>
        <time>2014-08-13T14:16:35.176Z</time>
      </trkpt>
      <trkpt lat="48.45244" lon="-3.84182">
        <ele>299.698028564</ele>
        <time>2014-08-13T14:16:37.17Z</time>
      </trkpt>
      <trkpt lat="48.45241" lon="-3.84184">
        <ele>299.824493408</ele>
        <time>2014-08-13T14:16:38.169Z</time>
      </trkpt>
      <trkpt lat="48.45233" lon="-3.8419">
        <ele>300.067260742</ele>
        <time>2014-08-13T14:16:41.176Z</time>
      </trkpt>
      <trkpt lat="48.45231" lon="-3.84191">
        <ele>300.137664795</ele>
        <time>2014-08-13T14:16:42.172Z</time>
      </trkpt>
      <trkpt lat="48.45226" lon="-3.84198">
        <ele>300.549530029</ele>
        <time>2014-08-13T14:16:44.173Z</time>
      </trkpt>
      <trkpt lat="48.45223" lon="-3.84204">
        <ele>300.600372314</ele>
        <time>2014-08-13T14:16:45.172Z</time>
      </trkpt>
      <trkpt lat="48.4522" lon="-3.84216">
        <ele>300.093536377</ele>
        <time>2014-08-13T14:16:47.174Z</time>
      </trkpt>
      <trkpt lat="48.45219" lon="-3.84221">
        <ele>299.989257812</ele>
        <time>2014-08-13T14:16:48.172Z</time>
      </trkpt>
      <trkpt lat="48.45218" lon="-3.84231">
        <ele>299.841644287</ele>
        <time>2014-08-13T14:16:50.176Z</time>
      </trkpt>
      <trkpt lat="48.45217" lon="-3.84235">
        <ele>299.759552002</ele>
        <time>2014-08-13T14:16:51.179Z</time>
      </trkpt>
      <trkpt lat="48.45216" lon="-3.84248">
        <ele>299.166992188</ele>
        <time>2014-08-13T14:16:55.175Z</time>
      </trkpt>
      <trkpt lat="48.45215" lon="-3.84252">
        <ele>298.91229248</ele>
        <time>2014-08-13T14:16:56.171Z</time>
      </trkpt>
      <trkpt lat="48.45213" lon="-3.84264">
        <ele>297.873840332</ele>
        <time>2014-08-13T14:17:00.375Z</time>
      </trkpt>
      <trkpt lat="48.45212" lon="-3.84268">
        <ele>297.688262939</ele>
        <time>2014-08-13T14:17:01.166Z</time>
      </trkpt>
      <trkpt lat="48.45211" lon="-3.84275">
        <ele>297.279876709</ele>
        <time>2014-08-13T14:17:03.185Z</time>
      </trkpt>
      <trkpt lat="48.4521" lon="-3.84281">
        <ele>297.155975342</ele>
        <time>2014-08-13T14:17:04.173Z</time>
      </trkpt>
      <trkpt lat="48.45208" lon="-3.84293">
        <ele>296.884185791</ele>
        <time>2014-08-13T14:17:06.179Z</time>
      </trkpt>
      <trkpt lat="48.45207" lon="-3.84299">
        <ele>296.776916504</ele>
        <time>2014-08-13T14:17:07.18Z</time>
      </trkpt>
      <trkpt lat="48.45205" lon="-3.84312">
        <ele>296.617431641</ele>
        <time>2014-08-13T14:17:09.171Z</time>
      </trkpt>
      <trkpt lat="48.45205" lon="-3.84317">
        <ele>296.463684082</ele>
        <time>2014-08-13T14:17:10.181Z</time>
      </trkpt>
      <trkpt lat="48.45202" lon="-3.84327">
        <ele>296.286682129</ele>
        <time>2014-08-13T14:17:12.172Z</time>
      </trkpt>
      <trkpt lat="48.45201" lon="-3.84331">
        <ele>296.309631348</ele>
        <time>2014-08-13T14:17:13.166Z</time>
      </trkpt>
      <trkpt lat="48.45198" lon="-3.84343">
        <ele>296.677764893</ele>
        <time>2014-08-13T14:17:15.165Z</time>
      </trkpt>
      <trkpt lat="48.45197" lon="-3.8435">
        <ele>296.733642578</ele>
        <time>2014-08-13T14:17:16.162Z</time>
      </trkpt>
      <trkpt lat="48.45195" lon="-3.84357">
        <ele>296.842712402</ele>
        <time>2014-08-13T14:17:17.171Z</time>
      </trkpt>
      <trkpt lat="48.45193" lon="-3.84363">
        <ele>296.916778564</ele>
        <time>2014-08-13T14:17:18.169Z</time>
      </trkpt>
      <trkpt lat="48.45191" lon="-3.84374">
        <ele>297.076477051</ele>
        <time>2014-08-13T14:17:20.17Z</time>
      </trkpt>
      <trkpt lat="48.45189" lon="-3.84379">
        <ele>297.142272949</ele>
        <time>2014-08-13T14:17:21.165Z</time>
      </trkpt>
      <trkpt lat="48.45186" lon="-3.84388">
        <ele>297.232421875</ele>
        <time>2014-08-13T14:17:23.173Z</time>
      </trkpt>
      <trkpt lat="48.45185" lon="-3.84393">
        <ele>297.217437744</ele>
        <time>2014-08-13T14:17:24.169Z</time>
      </trkpt>
      <trkpt lat="48.45181" lon="-3.84404">
        <ele>297.197784424</ele>
        <time>2014-08-13T14:17:26.166Z</time>
      </trkpt>
      <trkpt lat="48.4518" lon="-3.8441">
        <ele>297.110778809</ele>
        <time>2014-08-13T14:17:27.162Z</time>
      </trkpt>
      <trkpt lat="48.45176" lon="-3.8442">
        <ele>297.0050354</ele>
        <time>2014-08-13T14:17:29.168Z</time>
      </trkpt>
      <trkpt lat="48.45175" lon="-3.84423">
        <ele>296.930847168</ele>
        <time>2014-08-13T14:17:30.174Z</time>
      </trkpt>
      <trkpt lat="48.45173" lon="-3.84431">
        <ele>296.667297363</ele>
        <time>2014-08-13T14:17:32.163Z</time>
      </trkpt>
      <trkpt lat="48.45171" lon="-3.84436">
        <ele>296.556030273</ele>
        <time>2014-08-13T14:17:33.162Z</time>
      </trkpt>
      <trkpt lat="48.45169" lon="-3.84448">
        <ele>296.285980225</ele>
        <time>2014-08-13T14:17:36.173Z</time>
      </trkpt>
      <trkpt lat="48.45168" lon="-3.84451">
        <ele>296.2449646</ele>
        <time>2014-08-13T14:17:37.167Z</time>
      </trkpt>
      <trkpt lat="48.45166" lon="-3.84459">
        <ele>296.11227417</ele>
        <time>2014-08-13T14:17:39.169Z</time>
      </trkpt>
      <trkpt lat="48.45164" lon="-3.84466">
        <ele>296.111053467</ele>
        <time>2014-08-13T14:17:40.175Z</time>
      </trkpt>
      <trkpt lat="48.45161" lon="-3.84476">
        <ele>296.152832031</ele>
        <time>2014-08-13T14:17:42.17Z</time>
      </trkpt>
      <trkpt lat="48.45158" lon="-3.84484">
        <ele>296.144958496</ele>
        <time>2014-08-13T14:17:43.162Z</time>
      </trkpt>
      <trkpt lat="48.45156" lon="-3.84491">
        <ele>297.214874268</ele>
        <time>2014-08-13T14:17:44.165Z</time>
      </trkpt>
      <trkpt lat="48.45155" lon="-3.84497">
        <ele>297.697265625</ele>
        <time>2014-08-13T14:17:45.164Z</time>
      </trkpt>
      <trkpt lat="48.45153" lon="-3.84504">
        <ele>297.986022949</ele>
        <time>2014-08-13T14:17:46.199Z</time>
      </trkpt>
      <trkpt lat="48.45151" lon="-3.84511">
        <ele>297.826080322</ele>
        <time>2014-08-13T14:17:47.171Z</time>
      </trkpt>
      <trkpt lat="48.45148" lon="-3.84519">
        <ele>298.115997314</ele>
        <time>2014-08-13T14:17:48.173Z</time>
      </trkpt>
      <trkpt lat="48.45146" lon="-3.84526">
        <ele>298.162200928</ele>
        <time>2014-08-13T14:17:49.164Z</time>
      </trkpt>
      <trkpt lat="48.45145" lon="-3.84532">
        <ele>298.302032471</ele>
        <time>2014-08-13T14:17:50.17Z</time>
      </trkpt>
      <trkpt lat="48.45144" lon="-3.84541">
        <ele>299.207336426</ele>
        <time>2014-08-13T14:17:51.169Z</time>
      </trkpt>
      <trkpt lat="48.45142" lon="-3.84548">
        <ele>299.800384521</ele>
        <time>2014-08-13T14:17:52.172Z</time>
      </trkpt>
      <trkpt lat="48.45141" lon="-3.84556">
        <ele>300.584014893</ele>
        <time>2014-08-13T14:17:53.176Z</time>
      </trkpt>
      <trkpt lat="48.45139" lon="-3.84565">
        <ele>301.420288086</ele>
        <time>2014-08-13T14:17:54.175Z</time>
      </trkpt>
      <trkpt lat="48.45139" lon="-3.84572">
        <ele>301.514709473</ele>
        <time>2014-08-13T14:17:55.174Z</time>
      </trkpt>
      <trkpt lat="48.45137" lon="-3.84579">
        <ele>301.729888916</ele>
        <time>2014-08-13T14:17:56.165Z</time>
      </trkpt>
      <trkpt lat="48.45136" lon="-3.84586">
        <ele>301.656982422</ele>
        <time>2014-08-13T14:17:57.166Z</time>
      </trkpt>
      <trkpt lat="48.45135" lon="-3.84593">
        <ele>300.886016846</ele>
        <time>2014-08-13T14:17:58.165Z</time>
      </trkpt>
      <trkpt lat="48.45134" lon="-3.846">
        <ele>299.699401855</ele>
        <time>2014-08-13T14:17:59.166Z</time>
      </trkpt>
      <trkpt lat="48.45134" lon="-3.84612">
        <ele>298.224700928</ele>
        <time>2014-08-13T14:18:01.176Z</time>
      </trkpt>
      <trkpt lat="48.45134" lon="-3.84617">
        <ele>298.095306396</ele>
        <time>2014-08-13T14:18:02.169Z</time>
      </trkpt>
      <trkpt lat="48.45133" lon="-3.84631">
        <ele>296.754486084</ele>
        <time>2014-08-13T14:18:04.17Z</time>
      </trkpt>
      <trkpt lat="48.45133" lon="-3.84636">
        <ele>296.62713623</ele>
        <time>2014-08-13T14:18:05.169Z</time>
      </trkpt>
      <trkpt lat="48.45133" lon="-3.84643">
        <ele>296.570526123</ele>
        <time>2014-08-13T14:18:06.17Z</time>
      </trkpt>
      <trkpt lat="48.45134" lon="-3.8465">
        <ele>296.528381348</ele>
        <time>2014-08-13T14:18:07.175Z</time>
      </trkpt>
      <trkpt lat="48.45134" lon="-3.84658">
        <ele>296.002655029</ele>
        <time>2014-08-13T14:18:08.166Z</time>
      </trkpt>
      <trkpt lat="48.45133" lon="-3.84667">
        <ele>295.152313232</ele>
        <time>2014-08-13T14:18:09.174Z</time>
      </trkpt>
      <trkpt lat="48.45132" lon="-3.84675">
        <ele>295.117828369</ele>
        <time>2014-08-13T14:18:10.182Z</time>
      </trkpt>
      <trkpt lat="48.45132" lon="-3.84683">
        <ele>294.509765625</ele>
        <time>2014-08-13T14:18:11.185Z</time>
      </trkpt>
      <trkpt lat="48.45132" lon="-3.8469">
        <ele>293.606719971</ele>
        <time>2014-08-13T14:18:12.171Z</time>
      </trkpt>
      <trkpt lat="48.45131" lon="-3.84697">
        <ele>292.819000244</ele>
        <time>2014-08-13T14:18:13.173Z</time>
      </trkpt>
      <trkpt lat="48.45129" lon="-3.84708">
        <ele>291.052368164</ele>
        <time>2014-08-13T14:18:15.172Z</time>
      </trkpt>
      <trkpt lat="48.45127" lon="-3.84712">
        <ele>291.081756592</ele>
        <time>2014-08-13T14:18:16.164Z</time>
      </trkpt>
      <trkpt lat="48.45123" lon="-3.8472">
        <ele>291.009613037</ele>
        <time>2014-08-13T14:18:18.165Z</time>
      </trkpt>
      <trkpt lat="48.45122" lon="-3.84725">
        <ele>290.911621094</ele>
        <time>2014-08-13T14:18:19.17Z</time>
      </trkpt>
      <trkpt lat="48.45121" lon="-3.84736">
        <ele>290.690368652</ele>
        <time>2014-08-13T14:18:21.175Z</time>
      </trkpt>
      <trkpt lat="48.4512" lon="-3.84743">
        <ele>290.551330566</ele>
        <time>2014-08-13T14:18:22.171Z</time>
      </trkpt>
      <trkpt lat="48.45116" lon="-3.84753">
        <ele>290.263946533</ele>
        <time>2014-08-13T14:18:24.176Z</time>
      </trkpt>
      <trkpt lat="48.45114" lon="-3.84757">
        <ele>290.152038574</ele>
        <time>2014-08-13T14:18:25.173Z</time>
      </trkpt>
      <trkpt lat="48.45109" lon="-3.84767">
        <ele>289.809539795</ele>
        <time>2014-08-13T14:18:28.169Z</time>
      </trkpt>
      <trkpt lat="48.45107" lon="-3.84771">
        <ele>289.654632568</ele>
        <time>2014-08-13T14:18:29.172Z</time>
      </trkpt>
      <trkpt lat="48.45103" lon="-3.84779">
        <ele>289.353210449</ele>
        <time>2014-08-13T14:18:31.174Z</time>
      </trkpt>
      <trkpt lat="48.45101" lon="-3.84783">
        <ele>289.292358398</ele>
        <time>2014-08-13T14:18:32.173Z</time>
      </trkpt>
      <trkpt lat="48.45097" lon="-3.84792">
        <ele>289.237426758</ele>
        <time>2014-08-13T14:18:34.18Z</time>
      </trkpt>
      <trkpt lat="48.45095" lon="-3.84797">
        <ele>289.257568359</ele>
        <time>2014-08-13T14:18:35.17Z</time>
      </trkpt>
      <trkpt lat="48.45091" lon="-3.84805">
        <ele>289.195556641</ele>
        <time>2014-08-13T14:18:37.167Z</time>
      </trkpt>
      <trkpt lat="48.4509" lon="-3.84808">
        <ele>289.132171631</ele>
        <time>2014-08-13T14:18:38.172Z</time>
      </trkpt>
      <trkpt lat="48.45087" lon="-3.84816">
        <ele>288.989105225</ele>
        <time>2014-08-13T14:18:40.182Z</time>
      </trkpt>
      <trkpt lat="48.45084" lon="-3.84822">
        <ele>289.012573242</ele>
        <time>2014-08-13T14:18:41.169Z</time>
      </trkpt>
      <trkpt lat="48.45081" lon="-3.84829">
        <ele>289.438354492</ele>
        <time>2014-08-13T14:18:42.175Z</time>
      </trkpt>
      <trkpt lat="48.45077" lon="-3.84835">
        <ele>289.86138916</ele>
        <time>2014-08-13T14:18:43.171Z</time>
      </trkpt>
      <trkpt lat="48.45074" lon="-3.8484">
        <ele>290.171966553</ele>
        <time>2014-08-13T14:18:44.169Z</time>
      </trkpt>
      <trkpt lat="48.45071" lon="-3.84844">
        <ele>290.222686768</ele>
        <time>2014-08-13T14:18:45.17Z</time>
      </trkpt>
      <trkpt lat="48.45065" lon="-3.84854">
        <ele>290.118865967</ele>
        <time>2014-08-13T14:18:47.171Z</time>
      </trkpt>
      <trkpt lat="48.45062" lon="-3.84861">
        <ele>289.166320801</ele>
        <time>2014-08-13T14:18:48.179Z</time>
      </trkpt>
      <trkpt lat="48.45059" lon="-3.84868">
        <ele>288.984405518</ele>
        <time>2014-08-13T14:18:49.199Z</time>
      </trkpt>
      <trkpt lat="48.45057" lon="-3.84875">
        <ele>287.611022949</ele>
        <time>2014-08-13T14:18:50.179Z</time>
      </trkpt>
      <trkpt lat="48.45055" lon="-3.84882">
        <ele>286.564666748</ele>
        <time>2014-08-13T14:18:51.173Z</time>
      </trkpt>
      <trkpt lat="48.45053" lon="-3.84889">
        <ele>286.260284424</ele>
        <time>2014-08-13T14:18:52.186Z</time>
      </trkpt>
      <trkpt lat="48.45052" lon="-3.84898">
        <ele>285.335754395</ele>
        <time>2014-08-13T14:18:53.177Z</time>
      </trkpt>
      <trkpt lat="48.45051" lon="-3.84906">
        <ele>284.679016113</ele>
        <time>2014-08-13T14:18:54.182Z</time>
      </trkpt>
      <trkpt lat="48.45049" lon="-3.84915">
        <ele>283.348632812</ele>
        <time>2014-08-13T14:18:54.878Z</time>
      </trkpt>
      <trkpt lat="48.45048" lon="-3.84922">
        <ele>283.349975586</ele>
        <time>2014-08-13T14:18:55.834Z</time>
      </trkpt>
      <trkpt lat="48.45047" lon="-3.84933">
        <ele>282.961669922</ele>
        <time>2014-08-13T14:18:57.83Z</time>
      </trkpt>
      <trkpt lat="48.45045" lon="-3.84939">
        <ele>283.15725708</ele>
        <time>2014-08-13T14:18:58.832Z</time>
      </trkpt>
      <trkpt lat="48.4505" lon="-3.8495">
        <ele>283.453552246</ele>
        <time>2014-08-13T14:19:00.829Z</time>
      </trkpt>
      <trkpt lat="48.45051" lon="-3.84956">
        <ele>283.941802979</ele>
        <time>2014-08-13T14:19:01.822Z</time>
      </trkpt>
      <trkpt lat="48.45053" lon="-3.84962">
        <ele>284.177764893</ele>
        <time>2014-08-13T14:19:02.826Z</time>
      </trkpt>
      <trkpt lat="48.45055" lon="-3.84969">
        <ele>284.72769165</ele>
        <time>2014-08-13T14:19:03.839Z</time>
      </trkpt>
      <trkpt lat="48.45059" lon="-3.84981">
        <ele>284.751434326</ele>
        <time>2014-08-13T14:19:05.828Z</time>
      </trkpt>
      <trkpt lat="48.4506" lon="-3.84988">
        <ele>284.682159424</ele>
        <time>2014-08-13T14:19:06.824Z</time>
      </trkpt>
      <trkpt lat="48.45062" lon="-3.84999">
        <ele>283.679321289</ele>
        <time>2014-08-13T14:19:08.828Z</time>
      </trkpt>
      <trkpt lat="48.45064" lon="-3.85004">
        <ele>283.616638184</ele>
        <time>2014-08-13T14:19:09.841Z</time>
      </trkpt>
      <trkpt lat="48.45068" lon="-3.85015">
        <ele>283.499908447</ele>
        <time>2014-08-13T14:19:11.829Z</time>
      </trkpt>
      <trkpt lat="48.4507" lon="-3.85018">
        <ele>283.429443359</ele>
        <time>2014-08-13T14:19:12.823Z</time>
      </trkpt>
      <trkpt lat="48.45074" lon="-3.85028">
        <ele>283.167236328</ele>
        <time>2014-08-13T14:19:15.827Z</time>
      </trkpt>
      <trkpt lat="48.45075" lon="-3.85032">
        <ele>283.143066406</ele>
        <time>2014-08-13T14:19:16.829Z</time>
      </trkpt>
      <trkpt lat="48.45079" lon="-3.85043">
        <ele>283.334472656</ele>
        <time>2014-08-13T14:19:20.824Z</time>
      </trkpt>
      <trkpt lat="48.4508" lon="-3.85045">
        <ele>283.53427124</ele>
        <time>2014-08-13T14:19:21.83Z</time>
      </trkpt>
      <trkpt lat="48.45087" lon="-3.85051">
        <ele>284.297515869</ele>
        <time>2014-08-13T14:19:26.827Z</time>
      </trkpt>
      <trkpt lat="48.45089" lon="-3.85053">
        <ele>284.450836182</ele>
        <time>2014-08-13T14:19:27.833Z</time>
      </trkpt>
      <trkpt lat="48.45095" lon="-3.85049">
        <ele>284.645904541</ele>
        <time>2014-08-13T14:19:31.83Z</time>
      </trkpt>
      <trkpt lat="48.45098" lon="-3.85048">
        <ele>284.649078369</ele>
        <time>2014-08-13T14:19:32.831Z</time>
      </trkpt>
      <trkpt lat="48.45104" lon="-3.85047">
        <ele>284.67755127</ele>
        <time>2014-08-13T14:19:35.828Z</time>
      </trkpt>
      <trkpt lat="48.45107" lon="-3.85047">
        <ele>284.660369873</ele>
        <time>2014-08-13T14:19:36.831Z</time>
      </trkpt>
      <trkpt lat="48.45113" lon="-3.85047">
        <ele>284.566894531</ele>
        <time>2014-08-13T14:19:39.838Z</time>
      </trkpt>
      <trkpt lat="48.45116" lon="-3.85047">
        <ele>284.468292236</ele>
        <time>2014-08-13T14:19:40.831Z</time>
      </trkpt>
      <trkpt lat="48.45122" lon="-3.85052">
        <ele>285.24786377</ele>
        <time>2014-08-13T14:19:46.83Z</time>
      </trkpt>
      <trkpt lat="48.45125" lon="-3.85056">
        <ele>285.445648193</ele>
        <time>2014-08-13T14:19:47.829Z</time>
      </trkpt>
      <trkpt lat="48.45131" lon="-3.85062">
        <ele>285.823516846</ele>
        <time>2014-08-13T14:19:50.658Z</time>
      </trkpt>
      <trkpt lat="48.45134" lon="-3.85064">
        <ele>286.024963379</ele>
        <time>2014-08-13T14:19:51.128Z</time>
      </trkpt>
      <trkpt lat="48.45139" lon="-3.85073">
        <ele>288.085418701</ele>
        <time>2014-08-13T14:20:00.188Z</time>
      </trkpt>
      <trkpt lat="48.45141" lon="-3.85074">
        <ele>288.380249023</ele>
        <time>2014-08-13T14:20:01.155Z</time>
      </trkpt>
      <trkpt lat="48.45145" lon="-3.85085">
        <ele>290.014404297</ele>
        <time>2014-08-13T14:20:06.161Z</time>
      </trkpt>
      <trkpt lat="48.45147" lon="-3.85088">
        <ele>290.408996582</ele>
        <time>2014-08-13T14:20:07.155Z</time>
      </trkpt>
      <trkpt lat="48.45153" lon="-3.85095">
        <ele>291.567047119</ele>
        <time>2014-08-13T14:20:10.156Z</time>
      </trkpt>
      <trkpt lat="48.45158" lon="-3.85101">
        <ele>292.017578125</ele>
        <time>2014-08-13T14:20:11.159Z</time>
      </trkpt>
      <trkpt lat="48.45164" lon="-3.8511">
        <ele>293.311645508</ele>
        <time>2014-08-13T14:20:14.154Z</time>
      </trkpt>
      <trkpt lat="48.45166" lon="-3.85113">
        <ele>293.668212891</ele>
        <time>2014-08-13T14:20:15.158Z</time>
      </trkpt>
      <trkpt lat="48.45171" lon="-3.85123">
        <ele>294.77230835</ele>
        <time>2014-08-13T14:20:18.147Z</time>
      </trkpt>
      <trkpt lat="48.45172" lon="-3.85126">
        <ele>295.09362793</ele>
        <time>2014-08-13T14:20:19.149Z</time>
      </trkpt>
      <trkpt lat="48.45176" lon="-3.85134">
        <ele>296.046966553</ele>
        <time>2014-08-13T14:20:22.149Z</time>
      </trkpt>
      <trkpt lat="48.45178" lon="-3.85137">
        <ele>296.373046875</ele>
        <time>2014-08-13T14:20:23.156Z</time>
      </trkpt>
      <trkpt lat="48.45184" lon="-3.85144">
        <ele>297.237121582</ele>
        <time>2014-08-13T14:20:26.156Z</time>
      </trkpt>
      <trkpt lat="48.45186" lon="-3.85147">
        <ele>297.551544189</ele>
        <time>2014-08-13T14:20:27.16Z</time>
      </trkpt>
      <trkpt lat="48.4519" lon="-3.85158">
        <ele>298.378295898</ele>
        <time>2014-08-13T14:20:31.154Z</time>
      </trkpt>
      <trkpt lat="48.45192" lon="-3.8516">
        <ele>298.379119873</ele>
        <time>2014-08-13T14:20:32.157Z</time>
      </trkpt>
      <trkpt lat="48.45195" lon="-3.85172">
        <ele>298.343353271</ele>
        <time>2014-08-13T14:20:37.152Z</time>
      </trkpt>
      <trkpt lat="48.45196" lon="-3.85173">
        <ele>298.357299805</ele>
        <time>2014-08-13T14:20:38.159Z</time>
      </trkpt>
      <trkpt lat="48.45199" lon="-3.85185">
        <ele>298.125854492</ele>
        <time>2014-08-13T14:20:43.16Z</time>
      </trkpt>
      <trkpt lat="48.452" lon="-3.85187">
        <ele>298.128326416</ele>
        <time>2014-08-13T14:20:44.15Z</time>
      </trkpt>
      <trkpt lat="48.45201" lon="-3.85199">
        <ele>298.157653809</ele>
        <time>2014-08-13T14:20:48.161Z</time>
      </trkpt>
      <trkpt lat="48.45202" lon="-3.85202">
        <ele>298.162658691</ele>
        <time>2014-08-13T14:20:49.162Z</time>
      </trkpt>
      <trkpt lat="48.45204" lon="-3.85215">
        <ele>298.015625</ele>
        <time>2014-08-13T14:20:54.158Z</time>
      </trkpt>
      <trkpt lat="48.45205" lon="-3.85217">
        <ele>297.940979004</ele>
        <time>2014-08-13T14:20:55.177Z</time>
      </trkpt>
      <trkpt lat="48.45209" lon="-3.85227">
        <ele>297.840301514</ele>
        <time>2014-08-13T14:20:59.157Z</time>
      </trkpt>
      <trkpt lat="48.45211" lon="-3.8523">
        <ele>297.778015137</ele>
        <time>2014-08-13T14:21:00.185Z</time>
      </trkpt>
      <trkpt lat="48.45215" lon="-3.85239">
        <ele>297.658538818</ele>
        <time>2014-08-13T14:21:03.157Z</time>
      </trkpt>
      <trkpt lat="48.45216" lon="-3.85242">
        <ele>297.598114014</ele>
        <time>2014-08-13T14:21:04.156Z</time>
      </trkpt>
      <trkpt lat="48.45221" lon="-3.85253">
        <ele>297.460479736</ele>
        <time>2014-08-13T14:21:08.188Z</time>
      </trkpt>
      <trkpt lat="48.45223" lon="-3.85256">
        <ele>297.52545166</ele>
        <time>2014-08-13T14:21:09.152Z</time>
      </trkpt>
      <trkpt lat="48.45228" lon="-3.85263">
        <ele>297.701049805</ele>
        <time>2014-08-13T14:21:12.156Z</time>
      </trkpt>
      <trkpt lat="48.4523" lon="-3.85264">
        <ele>297.766662598</ele>
        <time>2014-08-13T14:21:13.156Z</time>
      </trkpt>
      <trkpt lat="48.45235" lon="-3.85269">
        <ele>298.061004639</ele>
        <time>2014-08-13T14:21:15.161Z</time>
      </trkpt>
      <trkpt lat="48.45238" lon="-3.85271">
        <ele>298.316558838</ele>
        <time>2014-08-13T14:21:16.159Z</time>
      </trkpt>
      <trkpt lat="48.45246" lon="-3.85277">
        <ele>300.826843262</ele>
        <time>2014-08-13T14:21:19.168Z</time>
      </trkpt>
      <trkpt lat="48.45248" lon="-3.8528">
        <ele>300.896453857</ele>
        <time>2014-08-13T14:21:20.164Z</time>
      </trkpt>
      <trkpt lat="48.45253" lon="-3.85287">
        <ele>301.032501221</ele>
        <time>2014-08-13T14:21:22.162Z</time>
      </trkpt>
      <trkpt lat="48.45256" lon="-3.8529">
        <ele>301.01965332</ele>
        <time>2014-08-13T14:21:23.169Z</time>
      </trkpt>
      <trkpt lat="48.45262" lon="-3.85296">
        <ele>300.997070312</ele>
        <time>2014-08-13T14:21:25.168Z</time>
      </trkpt>
      <trkpt lat="48.45264" lon="-3.85299">
        <ele>301.007080078</ele>
        <time>2014-08-13T14:21:26.159Z</time>
      </trkpt>
      <trkpt lat="48.45269" lon="-3.85303">
        <ele>301.061065674</ele>
        <time>2014-08-13T14:21:28.16Z</time>
      </trkpt>
      <trkpt lat="48.45272" lon="-3.85306">
        <ele>301.054016113</ele>
        <time>2014-08-13T14:21:29.16Z</time>
      </trkpt>
      <trkpt lat="48.45279" lon="-3.85313">
        <ele>301.077545166</ele>
        <time>2014-08-13T14:21:32.16Z</time>
      </trkpt>
      <trkpt lat="48.45281" lon="-3.85316">
        <ele>301.098968506</ele>
        <time>2014-08-13T14:21:33.17Z</time>
      </trkpt>
      <trkpt lat="48.45287" lon="-3.85324">
        <ele>301.321899414</ele>
        <time>2014-08-13T14:21:36.16Z</time>
      </trkpt>
      <trkpt lat="48.45289" lon="-3.85326">
        <ele>301.429290771</ele>
        <time>2014-08-13T14:21:37.167Z</time>
      </trkpt>
      <trkpt lat="48.45295" lon="-3.85335">
        <ele>301.862915039</ele>
        <time>2014-08-13T14:21:40.17Z</time>
      </trkpt>
      <trkpt lat="48.45297" lon="-3.85337">
        <ele>302.027893066</ele>
        <time>2014-08-13T14:21:41.167Z</time>
      </trkpt>
      <trkpt lat="48.45304" lon="-3.85344">
        <ele>302.827545166</ele>
        <time>2014-08-13T14:21:46.169Z</time>
      </trkpt>
      <trkpt lat="48.45305" lon="-3.85345">
        <ele>303.019775391</ele>
        <time>2014-08-13T14:21:47.168Z</time>
      </trkpt>
      <trkpt lat="48.45312" lon="-3.85352">
        <ele>303.842529297</ele>
        <time>2014-08-13T14:22:07.156Z</time>
      </trkpt>
      <trkpt lat="48.45313" lon="-3.85352">
        <ele>303.64263916</ele>
        <time>2014-08-13T14:22:08.181Z</time>
      </trkpt>
      <trkpt lat="48.45319" lon="-3.8536">
        <ele>302.880310059</ele>
        <time>2014-08-13T14:22:13.159Z</time>
      </trkpt>
      <trkpt lat="48.45321" lon="-3.85363">
        <ele>302.798217773</ele>
        <time>2014-08-13T14:22:14.164Z</time>
      </trkpt>
      <trkpt lat="48.45326" lon="-3.85371">
        <ele>302.605224609</ele>
        <time>2014-08-13T14:22:17.164Z</time>
      </trkpt>
      <trkpt lat="48.45327" lon="-3.85374">
        <ele>302.606658936</ele>
        <time>2014-08-13T14:22:18.165Z</time>
      </trkpt>
      <trkpt lat="48.45332" lon="-3.8538">
        <ele>302.456481934</ele>
        <time>2014-08-13T14:22:21.162Z</time>
      </trkpt>
      <trkpt lat="48.45334" lon="-3.85384">
        <ele>302.4480896</ele>
        <time>2014-08-13T14:22:22.149Z</time>
      </trkpt>
      <trkpt lat="48.45339" lon="-3.85395">
        <ele>302.491119385</ele>
        <time>2014-08-13T14:22:24.162Z</time>
      </trkpt>
      <trkpt lat="48.45341" lon="-3.854">
        <ele>302.527038574</ele>
        <time>2014-08-13T14:22:25.159Z</time>
      </trkpt>
      <trkpt lat="48.45347" lon="-3.85409">
        <ele>302.54888916</ele>
        <time>2014-08-13T14:22:27.196Z</time>
      </trkpt>
      <trkpt lat="48.4535" lon="-3.85412">
        <ele>302.551147461</ele>
        <time>2014-08-13T14:22:28.171Z</time>
      </trkpt>
      <trkpt lat="48.45357" lon="-3.8542">
        <ele>301.049346924</ele>
        <time>2014-08-13T14:22:30.163Z</time>
      </trkpt>
      <trkpt lat="48.4536" lon="-3.85424">
        <ele>300.451782227</ele>
        <time>2014-08-13T14:22:31.158Z</time>
      </trkpt>
      <trkpt lat="48.45366" lon="-3.85433">
        <ele>300.339447021</ele>
        <time>2014-08-13T14:22:33.16Z</time>
      </trkpt>
      <trkpt lat="48.4537" lon="-3.85437">
        <ele>300.363067627</ele>
        <time>2014-08-13T14:22:34.161Z</time>
      </trkpt>
      <trkpt lat="48.45376" lon="-3.85443">
        <ele>300.358093262</ele>
        <time>2014-08-13T14:22:36.159Z</time>
      </trkpt>
      <trkpt lat="48.4538" lon="-3.85446">
        <ele>300.352630615</ele>
        <time>2014-08-13T14:22:37.161Z</time>
      </trkpt>
      <trkpt lat="48.45385" lon="-3.85448">
        <ele>300.379333496</ele>
        <time>2014-08-13T14:22:38.161Z</time>
      </trkpt>
      <trkpt lat="48.45389" lon="-3.85451">
        <ele>300.4324646</ele>
        <time>2014-08-13T14:22:39.158Z</time>
      </trkpt>
      <trkpt lat="48.45394" lon="-3.85454">
        <ele>301.431854248</ele>
        <time>2014-08-13T14:22:40.165Z</time>
      </trkpt>
      <trkpt lat="48.45398" lon="-3.85457">
        <ele>302.46685791</ele>
        <time>2014-08-13T14:22:41.151Z</time>
      </trkpt>
      <trkpt lat="48.45405" lon="-3.85461">
        <ele>304.263061523</ele>
        <time>2014-08-13T14:22:43.169Z</time>
      </trkpt>
      <trkpt lat="48.45408" lon="-3.85463">
        <ele>304.318572998</ele>
        <time>2014-08-13T14:22:44.152Z</time>
      </trkpt>
      <trkpt lat="48.45415" lon="-3.85466">
        <ele>304.343444824</ele>
        <time>2014-08-13T14:22:46.169Z</time>
      </trkpt>
      <trkpt lat="48.45418" lon="-3.85468">
        <ele>304.325592041</ele>
        <time>2014-08-13T14:22:47.157Z</time>
      </trkpt>
      <trkpt lat="48.45426" lon="-3.85471">
        <ele>304.258911133</ele>
        <time>2014-08-13T14:22:49.16Z</time>
      </trkpt>
      <trkpt lat="48.4543" lon="-3.85472">
        <ele>304.324188232</ele>
        <time>2014-08-13T14:22:50.167Z</time>
      </trkpt>
      <trkpt lat="48.45438" lon="-3.85478">
        <ele>304.322357178</ele>
        <time>2014-08-13T14:22:52.164Z</time>
      </trkpt>
      <trkpt lat="48.45442" lon="-3.85481">
        <ele>304.355224609</ele>
        <time>2014-08-13T14:22:53.163Z</time>
      </trkpt>
      <trkpt lat="48.45446" lon="-3.85487">
        <ele>304.438018799</ele>
        <time>2014-08-13T14:22:55.159Z</time>
      </trkpt>
      <trkpt lat="48.45448" lon="-3.85491">
        <ele>304.392364502</ele>
        <time>2014-08-13T14:22:56.159Z</time>
      </trkpt>
      <trkpt lat="48.45448" lon="-3.855">
        <ele>303.7137146</ele>
        <time>2014-08-13T14:22:58.164Z</time>
      </trkpt>
      <trkpt lat="48.45446" lon="-3.85505">
        <ele>302.626434326</ele>
        <time>2014-08-13T14:22:59.162Z</time>
      </trkpt>
      <trkpt lat="48.45444" lon="-3.8551">
        <ele>301.480224609</ele>
        <time>2014-08-13T14:23:00.208Z</time>
      </trkpt>
      <trkpt lat="48.45441" lon="-3.85518">
        <ele>302.001647949</ele>
        <time>2014-08-13T14:23:01.156Z</time>
      </trkpt>
      <trkpt lat="48.45439" lon="-3.85524">
        <ele>301.848205566</ele>
        <time>2014-08-13T14:23:02.158Z</time>
      </trkpt>
      <trkpt lat="48.45436" lon="-3.8553">
        <ele>301.14352417</ele>
        <time>2014-08-13T14:23:03.164Z</time>
      </trkpt>
      <trkpt lat="48.45434" lon="-3.85536">
        <ele>301.383178711</ele>
        <time>2014-08-13T14:23:04.17Z</time>
      </trkpt>
      <trkpt lat="48.45431" lon="-3.85542">
        <ele>301.575469971</ele>
        <time>2014-08-13T14:23:05.17Z</time>
      </trkpt>
      <trkpt lat="48.4543" lon="-3.85549">
        <ele>301.727111816</ele>
        <time>2014-08-13T14:23:06.163Z</time>
      </trkpt>
      <trkpt lat="48.45431" lon="-3.85557">
        <ele>301.727966309</ele>
        <time>2014-08-13T14:23:07.162Z</time>
      </trkpt>
      <trkpt lat="48.45434" lon="-3.85564">
        <ele>302.265533447</ele>
        <time>2014-08-13T14:23:08.162Z</time>
      </trkpt>
      <trkpt lat="48.45436" lon="-3.85569">
        <ele>302.073242188</ele>
        <time>2014-08-13T14:23:09.159Z</time>
      </trkpt>
      <trkpt lat="48.45438" lon="-3.85575">
        <ele>302.498565674</ele>
        <time>2014-08-13T14:23:10.172Z</time>
      </trkpt>
      <trkpt lat="48.45441" lon="-3.85582">
        <ele>303.253997803</ele>
        <time>2014-08-13T14:23:11.19Z</time>
      </trkpt>
      <trkpt lat="48.45444" lon="-3.85588">
        <ele>303.447662354</ele>
        <time>2014-08-13T14:23:12.167Z</time>
      </trkpt>
      <trkpt lat="48.45446" lon="-3.85592">
        <ele>303.355438232</ele>
        <time>2014-08-13T14:23:13.168Z</time>
      </trkpt>
      <trkpt lat="48.45451" lon="-3.856">
        <ele>303.300506592</ele>
        <time>2014-08-13T14:23:15.172Z</time>
      </trkpt>
      <trkpt lat="48.45453" lon="-3.85602">
        <ele>303.285522461</ele>
        <time>2014-08-13T14:23:16.165Z</time>
      </trkpt>
      <trkpt lat="48.45459" lon="-3.85607">
        <ele>303.319488525</ele>
        <time>2014-08-13T14:23:18.165Z</time>
      </trkpt>
      <trkpt lat="48.45463" lon="-3.85608">
        <ele>303.299377441</ele>
        <time>2014-08-13T14:23:19.161Z</time>
      </trkpt>
      <trkpt lat="48.45469" lon="-3.85608">
        <ele>303.245300293</ele>
        <time>2014-08-13T14:23:21.161Z</time>
      </trkpt>
      <trkpt lat="48.45472" lon="-3.85608">
        <ele>303.194091797</ele>
        <time>2014-08-13T14:23:22.162Z</time>
      </trkpt>
      <trkpt lat="48.4548" lon="-3.8561">
        <ele>303.269378662</ele>
        <time>2014-08-13T14:23:24.169Z</time>
      </trkpt>
      <trkpt lat="48.45483" lon="-3.85611">
        <ele>303.31842041</ele>
        <time>2014-08-13T14:23:25.164Z</time>
      </trkpt>
      <trkpt lat="48.45491" lon="-3.85613">
        <ele>303.603149414</ele>
        <time>2014-08-13T14:23:28.17Z</time>
      </trkpt>
      <trkpt lat="48.45494" lon="-3.85613">
        <ele>303.689819336</ele>
        <time>2014-08-13T14:23:29.168Z</time>
      </trkpt>
      <trkpt lat="48.45502" lon="-3.85615">
        <ele>303.696807861</ele>
        <time>2014-08-13T14:23:32.155Z</time>
      </trkpt>
      <trkpt lat="48.45503" lon="-3.85615">
        <ele>303.719207764</ele>
        <time>2014-08-13T14:23:33.161Z</time>
      </trkpt>
      <trkpt lat="48.45508" lon="-3.85625">
        <ele>303.867004395</ele>
        <time>2014-08-13T14:23:42.171Z</time>
      </trkpt>
      <trkpt lat="48.45509" lon="-3.85629">
        <ele>303.769256592</ele>
        <time>2014-08-13T14:23:43.165Z</time>
      </trkpt>
      <trkpt lat="48.45512" lon="-3.85641">
        <ele>303.607910156</ele>
        <time>2014-08-13T14:23:46.153Z</time>
      </trkpt>
      <trkpt lat="48.45513" lon="-3.85644">
        <ele>303.528900146</ele>
        <time>2014-08-13T14:23:47.165Z</time>
      </trkpt>
      <trkpt lat="48.45518" lon="-3.85655">
        <ele>303.136962891</ele>
        <time>2014-08-13T14:23:51.163Z</time>
      </trkpt>
      <trkpt lat="48.45519" lon="-3.85657">
        <ele>303.059631348</ele>
        <time>2014-08-13T14:23:52.16Z</time>
      </trkpt>
      <trkpt lat="48.45523" lon="-3.85665">
        <ele>302.896484375</ele>
        <time>2014-08-13T14:23:54.158Z</time>
      </trkpt>
      <trkpt lat="48.45525" lon="-3.85668">
        <ele>302.852264404</ele>
        <time>2014-08-13T14:23:55.165Z</time>
      </trkpt>
      <trkpt lat="48.4553" lon="-3.85678">
        <ele>302.522644043</ele>
        <time>2014-08-13T14:23:58.159Z</time>
      </trkpt>
      <trkpt lat="48.45532" lon="-3.85683">
        <ele>301.748168945</ele>
        <time>2014-08-13T14:23:59.164Z</time>
      </trkpt>
      <trkpt lat="48.45535" lon="-3.85693">
        <ele>301.884216309</ele>
        <time>2014-08-13T14:24:01.156Z</time>
      </trkpt>
      <trkpt lat="48.45537" lon="-3.85699">
        <ele>301.884277344</ele>
        <time>2014-08-13T14:24:02.162Z</time>
      </trkpt>
      <trkpt lat="48.4554" lon="-3.85709">
        <ele>301.997009277</ele>
        <time>2014-08-13T14:24:04.164Z</time>
      </trkpt>
      <trkpt lat="48.45541" lon="-3.85714">
        <ele>302.046020508</ele>
        <time>2014-08-13T14:24:05.162Z</time>
      </trkpt>
      <trkpt lat="48.45543" lon="-3.85726">
        <ele>302.128356934</ele>
        <time>2014-08-13T14:24:08.159Z</time>
      </trkpt>
      <trkpt lat="48.45543" lon="-3.85731">
        <ele>302.107299805</ele>
        <time>2014-08-13T14:24:09.16Z</time>
      </trkpt>
      <trkpt lat="48.45542" lon="-3.85744">
        <ele>302.142425537</ele>
        <time>2014-08-13T14:24:12.16Z</time>
      </trkpt>
      <trkpt lat="48.45542" lon="-3.85748">
        <ele>302.129150391</ele>
        <time>2014-08-13T14:24:13.165Z</time>
      </trkpt>
      <trkpt lat="48.45542" lon="-3.85758">
        <ele>302.15612793</ele>
        <time>2014-08-13T14:24:15.153Z</time>
      </trkpt>
      <trkpt lat="48.45542" lon="-3.85763">
        <ele>302.107055664</ele>
        <time>2014-08-13T14:24:16.152Z</time>
      </trkpt>
      <trkpt lat="48.45541" lon="-3.85776">
        <ele>301.975616455</ele>
        <time>2014-08-13T14:24:18.158Z</time>
      </trkpt>
      <trkpt lat="48.45542" lon="-3.85781">
        <ele>301.930389404</ele>
        <time>2014-08-13T14:24:19.166Z</time>
      </trkpt>
      <trkpt lat="48.45544" lon="-3.85793">
        <ele>301.989593506</ele>
        <time>2014-08-13T14:24:21.153Z</time>
      </trkpt>
      <trkpt lat="48.45545" lon="-3.85798">
        <ele>301.934539795</ele>
        <time>2014-08-13T14:24:22.154Z</time>
      </trkpt>
      <trkpt lat="48.45547" lon="-3.8581">
        <ele>301.890106201</ele>
        <time>2014-08-13T14:24:25.156Z</time>
      </trkpt>
      <trkpt lat="48.45546" lon="-3.85814">
        <ele>301.876678467</ele>
        <time>2014-08-13T14:24:26.152Z</time>
      </trkpt>
      <trkpt lat="48.45543" lon="-3.85823">
        <ele>301.843414307</ele>
        <time>2014-08-13T14:24:30.16Z</time>
      </trkpt>
      <trkpt lat="48.45541" lon="-3.85827">
        <ele>301.860931396</ele>
        <time>2014-08-13T14:24:31.155Z</time>
      </trkpt>
      <trkpt lat="48.45539" lon="-3.85836">
        <ele>301.939971924</ele>
        <time>2014-08-13T14:24:33.157Z</time>
      </trkpt>
      <trkpt lat="48.45538" lon="-3.8584">
        <ele>301.910705566</ele>
        <time>2014-08-13T14:24:34.165Z</time>
      </trkpt>
      <trkpt lat="48.45537" lon="-3.85851">
        <ele>302.03225708</ele>
        <time>2014-08-13T14:24:37.163Z</time>
      </trkpt>
      <trkpt lat="48.45535" lon="-3.85854">
        <ele>302.101135254</ele>
        <time>2014-08-13T14:24:38.161Z</time>
      </trkpt>
      <trkpt lat="48.4553" lon="-3.85862">
        <ele>302.120483398</ele>
        <time>2014-08-13T14:24:41.188Z</time>
      </trkpt>
      <trkpt lat="48.45528" lon="-3.85864">
        <ele>302.060913086</ele>
        <time>2014-08-13T14:24:42.157Z</time>
      </trkpt>
      <trkpt lat="48.45521" lon="-3.85866">
        <ele>301.979522705</ele>
        <time>2014-08-13T14:24:44.173Z</time>
      </trkpt>
      <trkpt lat="48.45518" lon="-3.85868">
        <ele>301.962127686</ele>
        <time>2014-08-13T14:24:45.158Z</time>
      </trkpt>
      <trkpt lat="48.45511" lon="-3.85871">
        <ele>302.040008545</ele>
        <time>2014-08-13T14:24:47.196Z</time>
      </trkpt>
      <trkpt lat="48.45506" lon="-3.85872">
        <ele>301.494873047</ele>
        <time>2014-08-13T14:24:48.165Z</time>
      </trkpt>
      <trkpt lat="48.45502" lon="-3.85873">
        <ele>300.153137207</ele>
        <time>2014-08-13T14:24:49.157Z</time>
      </trkpt>
      <trkpt lat="48.45496" lon="-3.85875">
        <ele>299.530151367</ele>
        <time>2014-08-13T14:24:50.164Z</time>
      </trkpt>
      <trkpt lat="48.45491" lon="-3.85879">
        <ele>298.125976562</ele>
        <time>2014-08-13T14:24:51.162Z</time>
      </trkpt>
      <trkpt lat="48.45486" lon="-3.85883">
        <ele>296.989898682</ele>
        <time>2014-08-13T14:24:52.153Z</time>
      </trkpt>
      <trkpt lat="48.45479" lon="-3.85888">
        <ele>296.538604736</ele>
        <time>2014-08-13T14:24:53.159Z</time>
      </trkpt>
      <trkpt lat="48.45471" lon="-3.85894">
        <ele>295.697021484</ele>
        <time>2014-08-13T14:24:54.162Z</time>
      </trkpt>
      <trkpt lat="48.45464" lon="-3.85899">
        <ele>294.692169189</ele>
        <time>2014-08-13T14:24:55.163Z</time>
      </trkpt>
      <trkpt lat="48.45457" lon="-3.85904">
        <ele>293.741882324</ele>
        <time>2014-08-13T14:24:56.158Z</time>
      </trkpt>
      <trkpt lat="48.45451" lon="-3.8591">
        <ele>292.878967285</ele>
        <time>2014-08-13T14:24:57.165Z</time>
      </trkpt>
      <trkpt lat="48.45445" lon="-3.85916">
        <ele>292.305023193</ele>
        <time>2014-08-13T14:24:58.162Z</time>
      </trkpt>
      <trkpt lat="48.45438" lon="-3.85921">
        <ele>291.407409668</ele>
        <time>2014-08-13T14:24:59.162Z</time>
      </trkpt>
      <trkpt lat="48.45433" lon="-3.85926">
        <ele>290.826019287</ele>
        <time>2014-08-13T14:25:00.19Z</time>
      </trkpt>
      <trkpt lat="48.45428" lon="-3.8593">
        <ele>290.710601807</ele>
        <time>2014-08-13T14:25:01.159Z</time>
      </trkpt>
      <trkpt lat="48.45423" lon="-3.85934">
        <ele>290.649810791</ele>
        <time>2014-08-13T14:25:02.163Z</time>
      </trkpt>
      <trkpt lat="48.45419" lon="-3.85936">
        <ele>290.10144043</ele>
        <time>2014-08-13T14:25:03.163Z</time>
      </trkpt>
      <trkpt lat="48.45416" lon="-3.85942">
        <ele>290.064849854</ele>
        <time>2014-08-13T14:25:04.163Z</time>
      </trkpt>
      <trkpt lat="48.45415" lon="-3.85948">
        <ele>290.0284729</ele>
        <time>2014-08-13T14:25:05.159Z</time>
      </trkpt>
      <trkpt lat="48.45416" lon="-3.85957">
        <ele>289.36340332</ele>
        <time>2014-08-13T14:25:06.16Z</time>
      </trkpt>
      <trkpt lat="48.45418" lon="-3.85964">
        <ele>289.308319092</ele>
        <time>2014-08-13T14:25:07.164Z</time>
      </trkpt>
      <trkpt lat="48.45419" lon="-3.85971">
        <ele>289.24609375</ele>
        <time>2014-08-13T14:25:08.166Z</time>
      </trkpt>
      <trkpt lat="48.45421" lon="-3.8598">
        <ele>288.179931641</ele>
        <time>2014-08-13T14:25:09.16Z</time>
      </trkpt>
      <trkpt lat="48.45422" lon="-3.85989">
        <ele>287.978088379</ele>
        <time>2014-08-13T14:25:10.17Z</time>
      </trkpt>
      <trkpt lat="48.45422" lon="-3.85999">
        <ele>287.582733154</ele>
        <time>2014-08-13T14:25:11.161Z</time>
      </trkpt>
      <trkpt lat="48.45422" lon="-3.86008">
        <ele>286.40713501</ele>
        <time>2014-08-13T14:25:12.164Z</time>
      </trkpt>
      <trkpt lat="48.45425" lon="-3.86018">
        <ele>286.089172363</ele>
        <time>2014-08-13T14:25:14.184Z</time>
      </trkpt>
      <trkpt lat="48.45427" lon="-3.86022">
        <ele>285.920196533</ele>
        <time>2014-08-13T14:25:15.188Z</time>
      </trkpt>
      <trkpt lat="48.45429" lon="-3.86032">
        <ele>285.161529541</ele>
        <time>2014-08-13T14:25:19.174Z</time>
      </trkpt>
      <trkpt lat="48.45431" lon="-3.86035">
        <ele>284.942565918</ele>
        <time>2014-08-13T14:25:20.17Z</time>
      </trkpt>
      <trkpt lat="48.45432" lon="-3.86048">
        <ele>284.489501953</ele>
        <time>2014-08-13T14:25:25.156Z</time>
      </trkpt>
      <trkpt lat="48.45431" lon="-3.86051">
        <ele>284.511688232</ele>
        <time>2014-08-13T14:25:26.162Z</time>
      </trkpt>
      <trkpt lat="48.45435" lon="-3.86062">
        <ele>284.581634521</ele>
        <time>2014-08-13T14:25:30.161Z</time>
      </trkpt>
      <trkpt lat="48.45436" lon="-3.86066">
        <ele>284.713104248</ele>
        <time>2014-08-13T14:25:31.161Z</time>
      </trkpt>
      <trkpt lat="48.4544" lon="-3.86074">
        <ele>285.102325439</ele>
        <time>2014-08-13T14:25:34.159Z</time>
      </trkpt>
      <trkpt lat="48.45442" lon="-3.86077">
        <ele>285.16708374</ele>
        <time>2014-08-13T14:25:35.158Z</time>
      </trkpt>
      <trkpt lat="48.45448" lon="-3.86085">
        <ele>285.479553223</ele>
        <time>2014-08-13T14:25:39.157Z</time>
      </trkpt>
      <trkpt lat="48.45449" lon="-3.86089">
        <ele>285.490112305</ele>
        <time>2014-08-13T14:25:40.165Z</time>
      </trkpt>
      <trkpt lat="48.45453" lon="-3.86101">
        <ele>285.756774902</ele>
        <time>2014-08-13T14:25:43.165Z</time>
      </trkpt>
      <trkpt lat="48.45455" lon="-3.86104">
        <ele>285.866210938</ele>
        <time>2014-08-13T14:25:44.209Z</time>
      </trkpt>
      <trkpt lat="48.4546" lon="-3.86112">
        <ele>285.92098999</ele>
        <time>2014-08-13T14:25:46.161Z</time>
      </trkpt>
      <trkpt lat="48.45462" lon="-3.86115">
        <ele>285.892730713</ele>
        <time>2014-08-13T14:25:47.162Z</time>
      </trkpt>
      <trkpt lat="48.45467" lon="-3.86123">
        <ele>285.86328125</ele>
        <time>2014-08-13T14:25:49.17Z</time>
      </trkpt>
      <trkpt lat="48.45468" lon="-3.86126">
        <ele>285.974700928</ele>
        <time>2014-08-13T14:25:50.165Z</time>
      </trkpt>
      <trkpt lat="48.45472" lon="-3.86137">
        <ele>286.320770264</ele>
        <time>2014-08-13T14:25:53.161Z</time>
      </trkpt>
      <trkpt lat="48.45474" lon="-3.8614">
        <ele>286.466308594</ele>
        <time>2014-08-13T14:25:54.164Z</time>
      </trkpt>
      <trkpt lat="48.45478" lon="-3.86148">
        <ele>286.421234131</ele>
        <time>2014-08-13T14:25:56.162Z</time>
      </trkpt>
      <trkpt lat="48.4548" lon="-3.86151">
        <ele>286.374664307</ele>
        <time>2014-08-13T14:25:57.16Z</time>
      </trkpt>
      <trkpt lat="48.45486" lon="-3.86158">
        <ele>286.180877686</ele>
        <time>2014-08-13T14:26:00.372Z</time>
      </trkpt>
      <trkpt lat="48.45487" lon="-3.86161">
        <ele>286.148651123</ele>
        <time>2014-08-13T14:26:01.162Z</time>
      </trkpt>
      <trkpt lat="48.45494" lon="-3.86169">
        <ele>286.206848145</ele>
        <time>2014-08-13T14:26:04.158Z</time>
      </trkpt>
      <trkpt lat="48.45495" lon="-3.86173">
        <ele>286.232513428</ele>
        <time>2014-08-13T14:26:05.165Z</time>
      </trkpt>
      <trkpt lat="48.45498" lon="-3.86183">
        <ele>286.145446777</ele>
        <time>2014-08-13T14:26:07.162Z</time>
      </trkpt>
      <trkpt lat="48.45498" lon="-3.86187">
        <ele>286.19140625</ele>
        <time>2014-08-13T14:26:08.163Z</time>
      </trkpt>
      <trkpt lat="48.45495" lon="-3.86197">
        <ele>286.69140625</ele>
        <time>2014-08-13T14:26:12.168Z</time>
      </trkpt>
      <trkpt lat="48.45494" lon="-3.862">
        <ele>286.773773193</ele>
        <time>2014-08-13T14:26:13.16Z</time>
      </trkpt>
      <trkpt lat="48.45488" lon="-3.8621">
        <ele>287.254760742</ele>
        <time>2014-08-13T14:26:16.159Z</time>
      </trkpt>
      <trkpt lat="48.45485" lon="-3.86212">
        <ele>287.407043457</ele>
        <time>2014-08-13T14:26:17.157Z</time>
      </trkpt>
      <trkpt lat="48.45481" lon="-3.86219">
        <ele>287.576141357</ele>
        <time>2014-08-13T14:26:19.163Z</time>
      </trkpt>
      <trkpt lat="48.45478" lon="-3.86224">
        <ele>288.685974121</ele>
        <time>2014-08-13T14:26:19.416Z</time>
      </trkpt>
      <trkpt lat="48.45474" lon="-3.8623">
        <ele>289.555297852</ele>
        <time>2014-08-13T14:26:20.2Z</time>
      </trkpt>
      <trkpt lat="48.4547" lon="-3.86234">
        <ele>289.635986328</ele>
        <time>2014-08-13T14:26:21.189Z</time>
      </trkpt>
      <trkpt lat="48.45464" lon="-3.86243">
        <ele>289.776428223</ele>
        <time>2014-08-13T14:26:23.192Z</time>
      </trkpt>
      <trkpt lat="48.45461" lon="-3.86246">
        <ele>289.782958984</ele>
        <time>2014-08-13T14:26:24.194Z</time>
      </trkpt>
      <trkpt lat="48.45456" lon="-3.86253">
        <ele>289.683410645</ele>
        <time>2014-08-13T14:26:26.199Z</time>
      </trkpt>
      <trkpt lat="48.45452" lon="-3.86257">
        <ele>289.688323975</ele>
        <time>2014-08-13T14:26:27.2Z</time>
      </trkpt>
      <trkpt lat="48.45445" lon="-3.86264">
        <ele>289.706695557</ele>
        <time>2014-08-13T14:26:29.196Z</time>
      </trkpt>
      <trkpt lat="48.45441" lon="-3.86269">
        <ele>289.662902832</ele>
        <time>2014-08-13T14:26:30.192Z</time>
      </trkpt>
      <trkpt lat="48.45436" lon="-3.86275">
        <ele>289.542663574</ele>
        <time>2014-08-13T14:26:32.197Z</time>
      </trkpt>
      <trkpt lat="48.45433" lon="-3.86278">
        <ele>289.46395874</ele>
        <time>2014-08-13T14:26:33.187Z</time>
      </trkpt>
      <trkpt lat="48.45428" lon="-3.86288">
        <ele>288.766662598</ele>
        <time>2014-08-13T14:26:35.187Z</time>
      </trkpt>
      <trkpt lat="48.45424" lon="-3.86295">
        <ele>287.977722168</ele>
        <time>2014-08-13T14:26:36.191Z</time>
      </trkpt>
      <trkpt lat="48.45421" lon="-3.86301">
        <ele>287.892364502</ele>
        <time>2014-08-13T14:26:37.184Z</time>
      </trkpt>
      <trkpt lat="48.45418" lon="-3.86307">
        <ele>287.878479004</ele>
        <time>2014-08-13T14:26:38.192Z</time>
      </trkpt>
      <trkpt lat="48.45415" lon="-3.86312">
        <ele>287.848388672</ele>
        <time>2014-08-13T14:26:39.194Z</time>
      </trkpt>
      <trkpt lat="48.45411" lon="-3.86317">
        <ele>287.892272949</ele>
        <time>2014-08-13T14:26:40.191Z</time>
      </trkpt>
      <trkpt lat="48.45405" lon="-3.86325">
        <ele>288.008483887</ele>
        <time>2014-08-13T14:26:42.193Z</time>
      </trkpt>
      <trkpt lat="48.45402" lon="-3.8633">
        <ele>288.071746826</ele>
        <time>2014-08-13T14:26:43.185Z</time>
      </trkpt>
      <trkpt lat="48.45398" lon="-3.86337">
        <ele>288.233154297</ele>
        <time>2014-08-13T14:26:45.19Z</time>
      </trkpt>
      <trkpt lat="48.45396" lon="-3.8634">
        <ele>288.285766602</ele>
        <time>2014-08-13T14:26:46.193Z</time>
      </trkpt>
      <trkpt lat="48.45391" lon="-3.86348">
        <ele>288.333221436</ele>
        <time>2014-08-13T14:26:48.2Z</time>
      </trkpt>
      <trkpt lat="48.45388" lon="-3.86352">
        <ele>288.367401123</ele>
        <time>2014-08-13T14:26:49.205Z</time>
      </trkpt>
      <trkpt lat="48.45382" lon="-3.86361">
        <ele>288.280426025</ele>
        <time>2014-08-13T14:26:51.19Z</time>
      </trkpt>
      <trkpt lat="48.4538" lon="-3.86366">
        <ele>288.272827148</ele>
        <time>2014-08-13T14:26:52.199Z</time>
      </trkpt>
      <trkpt lat="48.45375" lon="-3.86374">
        <ele>288.180023193</ele>
        <time>2014-08-13T14:26:54.195Z</time>
      </trkpt>
      <trkpt lat="48.45372" lon="-3.86381">
        <ele>287.31640625</ele>
        <time>2014-08-13T14:26:55.187Z</time>
      </trkpt>
      <trkpt lat="48.45369" lon="-3.8639">
        <ele>286.91973877</ele>
        <time>2014-08-13T14:26:57.19Z</time>
      </trkpt>
      <trkpt lat="48.45367" lon="-3.86395">
        <ele>286.817077637</ele>
        <time>2014-08-13T14:26:58.204Z</time>
      </trkpt>
      <trkpt lat="48.45364" lon="-3.86405">
        <ele>286.693267822</ele>
        <time>2014-08-13T14:27:00.382Z</time>
      </trkpt>
      <trkpt lat="48.45363" lon="-3.86409">
        <ele>286.687683105</ele>
        <time>2014-08-13T14:27:01.187Z</time>
      </trkpt>
      <trkpt lat="48.45359" lon="-3.86417">
        <ele>286.616912842</ele>
        <time>2014-08-13T14:27:03.187Z</time>
      </trkpt>
      <trkpt lat="48.45357" lon="-3.8642">
        <ele>286.566223145</ele>
        <time>2014-08-13T14:27:04.201Z</time>
      </trkpt>
      <trkpt lat="48.45352" lon="-3.86425">
        <ele>286.556854248</ele>
        <time>2014-08-13T14:27:08.19Z</time>
      </trkpt>
      <trkpt lat="48.4535" lon="-3.86429">
        <ele>286.583709717</ele>
        <time>2014-08-13T14:27:09.192Z</time>
      </trkpt>
      <trkpt lat="48.45347" lon="-3.86436">
        <ele>286.021697998</ele>
        <time>2014-08-13T14:27:15.184Z</time>
      </trkpt>
      <trkpt lat="48.45342" lon="-3.86444">
        <ele>285.956756592</ele>
        <time>2014-08-13T14:27:16.191Z</time>
      </trkpt>
      <trkpt lat="48.45336" lon="-3.86452">
        <ele>285.981414795</ele>
        <time>2014-08-13T14:27:22.195Z</time>
      </trkpt>
      <trkpt lat="48.45335" lon="-3.86453">
        <ele>285.963470459</ele>
        <time>2014-08-13T14:27:23.185Z</time>
      </trkpt>
      <trkpt lat="48.45327" lon="-3.86456">
        <ele>286.022949219</ele>
        <time>2014-08-13T14:27:28.19Z</time>
      </trkpt>
      <trkpt lat="48.45323" lon="-3.86458">
        <ele>286.094787598</ele>
        <time>2014-08-13T14:27:29.192Z</time>
      </trkpt>
      <trkpt lat="48.45317" lon="-3.86461">
        <ele>286.497283936</ele>
        <time>2014-08-13T14:27:32.189Z</time>
      </trkpt>
      <trkpt lat="48.45314" lon="-3.86461">
        <ele>286.675537109</ele>
        <time>2014-08-13T14:27:33.184Z</time>
      </trkpt>
      <trkpt lat="48.45307" lon="-3.86464">
        <ele>287.525299072</ele>
        <time>2014-08-13T14:27:37.18Z</time>
      </trkpt>
      <trkpt lat="48.45305" lon="-3.86464">
        <ele>287.694641113</ele>
        <time>2014-08-13T14:27:38.189Z</time>
      </trkpt>
      <trkpt lat="48.45297" lon="-3.86467">
        <ele>288.407226562</ele>
        <time>2014-08-13T14:27:43.183Z</time>
      </trkpt>
      <trkpt lat="48.45295" lon="-3.86466">
        <ele>288.55557251</ele>
        <time>2014-08-13T14:27:44.185Z</time>
      </trkpt>
      <trkpt lat="48.45287" lon="-3.86467">
        <ele>289.005493164</ele>
        <time>2014-08-13T14:27:47.21Z</time>
      </trkpt>
      <trkpt lat="48.45284" lon="-3.86467">
        <ele>289.214874268</ele>
        <time>2014-08-13T14:27:48.196Z</time>
      </trkpt>
      <trkpt lat="48.45277" lon="-3.86473">
        <ele>289.808319092</ele>
        <time>2014-08-13T14:27:55.188Z</time>
      </trkpt>
      <trkpt lat="48.45271" lon="-3.86477">
        <ele>289.934326172</ele>
        <time>2014-08-13T14:27:56.19Z</time>
      </trkpt>
      <trkpt lat="48.45263" lon="-3.86481">
        <ele>289.919830322</ele>
        <time>2014-08-13T14:27:58.194Z</time>
      </trkpt>
      <trkpt lat="48.45259" lon="-3.86483">
        <ele>289.795379639</ele>
        <time>2014-08-13T14:27:59.19Z</time>
      </trkpt>
      <trkpt lat="48.45252" lon="-3.86486">
        <ele>289.442871094</ele>
        <time>2014-08-13T14:28:01.183Z</time>
      </trkpt>
      <trkpt lat="48.45247" lon="-3.86488">
        <ele>289.277130127</ele>
        <time>2014-08-13T14:28:02.197Z</time>
      </trkpt>
      <trkpt lat="48.45242" lon="-3.86491">
        <ele>289.122436523</ele>
        <time>2014-08-13T14:28:03.194Z</time>
      </trkpt>
      <trkpt lat="48.45237" lon="-3.86493">
        <ele>289.02053833</ele>
        <time>2014-08-13T14:28:04.187Z</time>
      </trkpt>
      <trkpt lat="48.45232" lon="-3.86495">
        <ele>288.910003662</ele>
        <time>2014-08-13T14:28:05.185Z</time>
      </trkpt>
      <trkpt lat="48.45227" lon="-3.86495">
        <ele>288.771789551</ele>
        <time>2014-08-13T14:28:06.19Z</time>
      </trkpt>
      <trkpt lat="48.45219" lon="-3.86497">
        <ele>288.671173096</ele>
        <time>2014-08-13T14:28:08.205Z</time>
      </trkpt>
      <trkpt lat="48.45215" lon="-3.86498">
        <ele>288.766265869</ele>
        <time>2014-08-13T14:28:09.196Z</time>
      </trkpt>
      <trkpt lat="48.45208" lon="-3.865">
        <ele>288.93762207</ele>
        <time>2014-08-13T14:28:11.188Z</time>
      </trkpt>
      <trkpt lat="48.45204" lon="-3.86501">
        <ele>289.119689941</ele>
        <time>2014-08-13T14:28:12.19Z</time>
      </trkpt>
      <trkpt lat="48.45198" lon="-3.86502">
        <ele>289.500091553</ele>
        <time>2014-08-13T14:28:14.188Z</time>
      </trkpt>
      <trkpt lat="48.45195" lon="-3.86502">
        <ele>289.810760498</ele>
        <time>2014-08-13T14:28:15.191Z</time>
      </trkpt>
      <trkpt lat="48.45187" lon="-3.86504">
        <ele>290.553253174</ele>
        <time>2014-08-13T14:28:17.198Z</time>
      </trkpt>
      <trkpt lat="48.45185" lon="-3.86505">
        <ele>290.985076904</ele>
        <time>2014-08-13T14:28:18.578Z</time>
      </trkpt>
      <trkpt lat="48.45181" lon="-3.86508">
        <ele>292.289306641</ele>
        <time>2014-08-13T14:28:21.36Z</time>
      </trkpt>
      <trkpt lat="48.45176" lon="-3.86512">
        <ele>292.648590088</ele>
        <time>2014-08-13T14:28:22.355Z</time>
      </trkpt>
      <trkpt lat="48.45169" lon="-3.86514">
        <ele>293.4609375</ele>
        <time>2014-08-13T14:28:26.354Z</time>
      </trkpt>
      <trkpt lat="48.45167" lon="-3.86515">
        <ele>293.818572998</ele>
        <time>2014-08-13T14:28:27.351Z</time>
      </trkpt>
      <trkpt lat="48.4516" lon="-3.86518">
        <ele>294.412780762</ele>
        <time>2014-08-13T14:28:31.355Z</time>
      </trkpt>
      <trkpt lat="48.45157" lon="-3.86519">
        <ele>294.429321289</ele>
        <time>2014-08-13T14:28:32.354Z</time>
      </trkpt>
      <trkpt lat="48.4515" lon="-3.86523">
        <ele>294.324188232</ele>
        <time>2014-08-13T14:28:36.355Z</time>
      </trkpt>
      <trkpt lat="48.45143" lon="-3.86526">
        <ele>294.224365234</ele>
        <time>2014-08-13T14:28:37.351Z</time>
      </trkpt>
      <trkpt lat="48.45137" lon="-3.86529">
        <ele>294.042633057</ele>
        <time>2014-08-13T14:28:38.364Z</time>
      </trkpt>
      <trkpt lat="48.45132" lon="-3.86531">
        <ele>293.890045166</ele>
        <time>2014-08-13T14:28:39.366Z</time>
      </trkpt>
      <trkpt lat="48.45128" lon="-3.86534">
        <ele>293.702606201</ele>
        <time>2014-08-13T14:28:40.366Z</time>
      </trkpt>
      <trkpt lat="48.45122" lon="-3.86536">
        <ele>293.542633057</ele>
        <time>2014-08-13T14:28:41.359Z</time>
      </trkpt>
      <trkpt lat="48.45117" lon="-3.86538">
        <ele>293.401824951</ele>
        <time>2014-08-13T14:28:42.365Z</time>
      </trkpt>
      <trkpt lat="48.45113" lon="-3.8654">
        <ele>293.251037598</ele>
        <time>2014-08-13T14:28:43.354Z</time>
      </trkpt>
      <trkpt lat="48.45105" lon="-3.86543">
        <ele>293.027404785</ele>
        <time>2014-08-13T14:28:45.354Z</time>
      </trkpt>
      <trkpt lat="48.45102" lon="-3.86545">
        <ele>292.8565979</ele>
        <time>2014-08-13T14:28:46.356Z</time>
      </trkpt>
      <trkpt lat="48.45095" lon="-3.86549">
        <ele>292.588897705</ele>
        <time>2014-08-13T14:28:48.357Z</time>
      </trkpt>
      <trkpt lat="48.45091" lon="-3.86551">
        <ele>292.46105957</ele>
        <time>2014-08-13T14:28:49.356Z</time>
      </trkpt>
      <trkpt lat="48.45084" lon="-3.86552">
        <ele>292.233062744</ele>
        <time>2014-08-13T14:28:51.353Z</time>
      </trkpt>
      <trkpt lat="48.4508" lon="-3.86551">
        <ele>292.081573486</ele>
        <time>2014-08-13T14:28:52.355Z</time>
      </trkpt>
      <trkpt lat="48.45075" lon="-3.8655">
        <ele>290.868164062</ele>
        <time>2014-08-13T14:28:53.358Z</time>
      </trkpt>
      <trkpt lat="48.4507" lon="-3.86549">
        <ele>289.541992188</ele>
        <time>2014-08-13T14:28:54.355Z</time>
      </trkpt>
      <trkpt lat="48.45065" lon="-3.8655">
        <ele>288.815887451</ele>
        <time>2014-08-13T14:28:55.353Z</time>
      </trkpt>
      <trkpt lat="48.45059" lon="-3.86551">
        <ele>288.090332031</ele>
        <time>2014-08-13T14:28:56.356Z</time>
      </trkpt>
      <trkpt lat="48.45054" lon="-3.86552">
        <ele>287.526794434</ele>
        <time>2014-08-13T14:28:57.379Z</time>
      </trkpt>
      <trkpt lat="48.4505" lon="-3.86553">
        <ele>287.674224854</ele>
        <time>2014-08-13T14:28:58.351Z</time>
      </trkpt>
      <trkpt lat="48.45044" lon="-3.86554">
        <ele>287.869689941</ele>
        <time>2014-08-13T14:28:59.356Z</time>
      </trkpt>
      <trkpt lat="48.45039" lon="-3.86556">
        <ele>287.293762207</ele>
        <time>2014-08-13T14:29:00.333Z</time>
      </trkpt>
      <trkpt lat="48.45035" lon="-3.86557">
        <ele>286.833282471</ele>
        <time>2014-08-13T14:29:01.356Z</time>
      </trkpt>
      <trkpt lat="48.45029" lon="-3.86559">
        <ele>286.496063232</ele>
        <time>2014-08-13T14:29:02.353Z</time>
      </trkpt>
      <trkpt lat="48.45023" lon="-3.8656">
        <ele>285.892974854</ele>
        <time>2014-08-13T14:29:03.358Z</time>
      </trkpt>
      <trkpt lat="48.45018" lon="-3.86562">
        <ele>285.13571167</ele>
        <time>2014-08-13T14:29:04.349Z</time>
      </trkpt>
      <trkpt lat="48.45013" lon="-3.86563">
        <ele>284.491485596</ele>
        <time>2014-08-13T14:29:05.361Z</time>
      </trkpt>
      <trkpt lat="48.45009" lon="-3.86564">
        <ele>284.047515869</ele>
        <time>2014-08-13T14:29:06.358Z</time>
      </trkpt>
      <trkpt lat="48.45003" lon="-3.86558">
        <ele>283.227630615</ele>
        <time>2014-08-13T14:29:11.363Z</time>
      </trkpt>
      <trkpt lat="48.45003" lon="-3.86553">
        <ele>283.284454346</ele>
        <time>2014-08-13T14:29:12.349Z</time>
      </trkpt>
      <trkpt lat="48.45" lon="-3.86545">
        <ele>283.800079346</ele>
        <time>2014-08-13T14:29:13.351Z</time>
      </trkpt>
      <trkpt lat="48.44998" lon="-3.86539">
        <ele>284.853424072</ele>
        <time>2014-08-13T14:29:14.349Z</time>
      </trkpt>
      <trkpt lat="48.44996" lon="-3.86534">
        <ele>284.955108643</ele>
        <time>2014-08-13T14:29:15.353Z</time>
      </trkpt>
      <trkpt lat="48.44993" lon="-3.86528">
        <ele>285.055236816</ele>
        <time>2014-08-13T14:29:16.351Z</time>
      </trkpt>
      <trkpt lat="48.44989" lon="-3.86522">
        <ele>285.172027588</ele>
        <time>2014-08-13T14:29:17.357Z</time>
      </trkpt>
      <trkpt lat="48.44985" lon="-3.86517">
        <ele>286.06161499</ele>
        <time>2014-08-13T14:29:18.354Z</time>
      </trkpt>
      <trkpt lat="48.44978" lon="-3.86514">
        <ele>286.235900879</ele>
        <time>2014-08-13T14:29:20.354Z</time>
      </trkpt>
      <trkpt lat="48.44976" lon="-3.86511">
        <ele>286.308624268</ele>
        <time>2014-08-13T14:29:21.35Z</time>
      </trkpt>
      <trkpt lat="48.44973" lon="-3.86502">
        <ele>286.498291016</ele>
        <time>2014-08-13T14:29:23.63Z</time>
      </trkpt>
      <trkpt lat="48.4497" lon="-3.86498">
        <ele>286.562316895</ele>
        <time>2014-08-13T14:29:24.634Z</time>
      </trkpt>
      <trkpt lat="48.44965" lon="-3.86494">
        <ele>287.141876221</ele>
        <time>2014-08-13T14:29:25.618Z</time>
      </trkpt>
      <trkpt lat="48.44961" lon="-3.86494">
        <ele>287.218139648</ele>
        <time>2014-08-13T14:29:26.619Z</time>
      </trkpt>
      <trkpt lat="48.44953" lon="-3.86492">
        <ele>287.281768799</ele>
        <time>2014-08-13T14:29:28.636Z</time>
      </trkpt>
      <trkpt lat="48.44951" lon="-3.86494">
        <ele>287.276092529</ele>
        <time>2014-08-13T14:29:29.635Z</time>
      </trkpt>
      <trkpt lat="48.44944" lon="-3.86498">
        <ele>287.422821045</ele>
        <time>2014-08-13T14:29:33.628Z</time>
      </trkpt>
      <trkpt lat="48.44942" lon="-3.86499">
        <ele>287.515808105</ele>
        <time>2014-08-13T14:29:34.624Z</time>
      </trkpt>
      <trkpt lat="48.44935" lon="-3.86503">
        <ele>287.691619873</ele>
        <time>2014-08-13T14:29:37.627Z</time>
      </trkpt>
      <trkpt lat="48.44932" lon="-3.86505">
        <ele>287.70501709</ele>
        <time>2014-08-13T14:29:38.628Z</time>
      </trkpt>
      <trkpt lat="48.44924" lon="-3.8651">
        <ele>287.749908447</ele>
        <time>2014-08-13T14:29:42.62Z</time>
      </trkpt>
      <trkpt lat="48.44922" lon="-3.86512">
        <ele>287.719696045</ele>
        <time>2014-08-13T14:29:43.619Z</time>
      </trkpt>
      <trkpt lat="48.44917" lon="-3.8652">
        <ele>287.659790039</ele>
        <time>2014-08-13T14:29:48.627Z</time>
      </trkpt>
      <trkpt lat="48.44913" lon="-3.86525">
        <ele>287.766418457</ele>
        <time>2014-08-13T14:29:49.625Z</time>
      </trkpt>
      <trkpt lat="48.44905" lon="-3.86533">
        <ele>288.014221191</ele>
        <time>2014-08-13T14:29:52.629Z</time>
      </trkpt>
      <trkpt lat="48.44903" lon="-3.86534">
        <ele>288.155853271</ele>
        <time>2014-08-13T14:29:53.625Z</time>
      </trkpt>
      <trkpt lat="48.44898" lon="-3.86541">
        <ele>288.582611084</ele>
        <time>2014-08-13T14:29:56.621Z</time>
      </trkpt>
      <trkpt lat="48.44896" lon="-3.86543">
        <ele>288.732269287</ele>
        <time>2014-08-13T14:29:57.632Z</time>
      </trkpt>
      <trkpt lat="48.4489" lon="-3.8655">
        <ele>289.377563477</ele>
        <time>2014-08-13T14:30:01.622Z</time>
      </trkpt>
      <trkpt lat="48.44888" lon="-3.86553">
        <ele>289.524291992</ele>
        <time>2014-08-13T14:30:02.632Z</time>
      </trkpt>
      <trkpt lat="48.44883" lon="-3.8656">
        <ele>289.964904785</ele>
        <time>2014-08-13T14:30:05.624Z</time>
      </trkpt>
      <trkpt lat="48.44881" lon="-3.86563">
        <ele>290.112304688</ele>
        <time>2014-08-13T14:30:06.626Z</time>
      </trkpt>
      <trkpt lat="48.44875" lon="-3.86571">
        <ele>290.587860107</ele>
        <time>2014-08-13T14:30:09.626Z</time>
      </trkpt>
      <trkpt lat="48.44873" lon="-3.86574">
        <ele>290.748168945</ele>
        <time>2014-08-13T14:30:10.631Z</time>
      </trkpt>
      <trkpt lat="48.44867" lon="-3.86583">
        <ele>290.792175293</ele>
        <time>2014-08-13T14:30:13.626Z</time>
      </trkpt>
      <trkpt lat="48.44865" lon="-3.86584">
        <ele>290.869476318</ele>
        <time>2014-08-13T14:30:14.634Z</time>
      </trkpt>
      <trkpt lat="48.44858" lon="-3.86591">
        <ele>291.126281738</ele>
        <time>2014-08-13T14:30:19.623Z</time>
      </trkpt>
      <trkpt lat="48.44856" lon="-3.86593">
        <ele>291.122802734</ele>
        <time>2014-08-13T14:30:20.627Z</time>
      </trkpt>
      <trkpt lat="48.4485" lon="-3.86601">
        <ele>291.43737793</ele>
        <time>2014-08-13T14:30:34.722Z</time>
      </trkpt>
      <trkpt lat="48.44849" lon="-3.86601">
        <ele>291.451873779</ele>
        <time>2014-08-13T14:30:35.627Z</time>
      </trkpt>
      <trkpt lat="48.44843" lon="-3.86611">
        <ele>292.198730469</ele>
        <time>2014-08-13T14:30:50.625Z</time>
      </trkpt>
      <trkpt lat="48.44842" lon="-3.86615">
        <ele>292.29208374</ele>
        <time>2014-08-13T14:30:51.621Z</time>
      </trkpt>
      <trkpt lat="48.4484" lon="-3.86626">
        <ele>292.453521729</ele>
        <time>2014-08-13T14:30:53.621Z</time>
      </trkpt>
      <trkpt lat="48.44839" lon="-3.86631">
        <ele>292.525512695</ele>
        <time>2014-08-13T14:30:54.625Z</time>
      </trkpt>
      <trkpt lat="48.44838" lon="-3.86637">
        <ele>292.561828613</ele>
        <time>2014-08-13T14:30:55.618Z</time>
      </trkpt>
      <trkpt lat="48.44837" lon="-3.86644">
        <ele>292.659973145</ele>
        <time>2014-08-13T14:30:56.629Z</time>
      </trkpt>
      <trkpt lat="48.44837" lon="-3.86652">
        <ele>293.194213867</ele>
        <time>2014-08-13T14:30:57.629Z</time>
      </trkpt>
      <trkpt lat="48.44836" lon="-3.86659">
        <ele>293.191253662</ele>
        <time>2014-08-13T14:30:58.633Z</time>
      </trkpt>
      <trkpt lat="48.44835" lon="-3.86669">
        <ele>293.315246582</ele>
        <time>2014-08-13T14:31:00.626Z</time>
      </trkpt>
      <trkpt lat="48.44835" lon="-3.86673">
        <ele>293.336853027</ele>
        <time>2014-08-13T14:31:01.621Z</time>
      </trkpt>
      <trkpt lat="48.44834" lon="-3.86685">
        <ele>293.280639648</ele>
        <time>2014-08-13T14:31:03.639Z</time>
      </trkpt>
      <trkpt lat="48.44833" lon="-3.86693">
        <ele>293.270690918</ele>
        <time>2014-08-13T14:31:04.63Z</time>
      </trkpt>
      <trkpt lat="48.44832" lon="-3.86706">
        <ele>293.359710693</ele>
        <time>2014-08-13T14:31:06.626Z</time>
      </trkpt>
      <trkpt lat="48.44832" lon="-3.86711">
        <ele>293.416168213</ele>
        <time>2014-08-13T14:31:07.619Z</time>
      </trkpt>
      <trkpt lat="48.4483" lon="-3.86724">
        <ele>293.651611328</ele>
        <time>2014-08-13T14:31:10.624Z</time>
      </trkpt>
      <trkpt lat="48.44827" lon="-3.86728">
        <ele>293.773925781</ele>
        <time>2014-08-13T14:31:11.625Z</time>
      </trkpt>
      <trkpt lat="48.44821" lon="-3.86734">
        <ele>294.186767578</ele>
        <time>2014-08-13T14:31:13.619Z</time>
      </trkpt>
      <trkpt lat="48.44819" lon="-3.86736">
        <ele>294.344085693</ele>
        <time>2014-08-13T14:31:14.629Z</time>
      </trkpt>
      <trkpt lat="48.44812" lon="-3.8674">
        <ele>294.691345215</ele>
        <time>2014-08-13T14:31:17.617Z</time>
      </trkpt>
      <trkpt lat="48.4481" lon="-3.8674">
        <ele>294.81048584</ele>
        <time>2014-08-13T14:31:18.629Z</time>
      </trkpt>
      <trkpt lat="48.44802" lon="-3.86744">
        <ele>295.368103027</ele>
        <time>2014-08-13T14:31:22.636Z</time>
      </trkpt>
      <trkpt lat="48.448" lon="-3.86745">
        <ele>295.471679688</ele>
        <time>2014-08-13T14:31:23.619Z</time>
      </trkpt>
      <trkpt lat="48.44792" lon="-3.86746">
        <ele>296.144989014</ele>
        <time>2014-08-13T14:31:27.625Z</time>
      </trkpt>
      <trkpt lat="48.4479" lon="-3.86746">
        <ele>296.27154541</ele>
        <time>2014-08-13T14:31:28.627Z</time>
      </trkpt>
      <trkpt lat="48.44783" lon="-3.86748">
        <ele>296.709381104</ele>
        <time>2014-08-13T14:31:31.621Z</time>
      </trkpt>
      <trkpt lat="48.44781" lon="-3.86748">
        <ele>296.9034729</ele>
        <time>2014-08-13T14:31:32.626Z</time>
      </trkpt>
      <trkpt lat="48.44775" lon="-3.8675">
        <ele>297.484832764</ele>
        <time>2014-08-13T14:31:35.627Z</time>
      </trkpt>
      <trkpt lat="48.44771" lon="-3.8675">
        <ele>297.660797119</ele>
        <time>2014-08-13T14:31:36.626Z</time>
      </trkpt>
      <trkpt lat="48.44765" lon="-3.8675">
        <ele>297.847198486</ele>
        <time>2014-08-13T14:31:38.418Z</time>
      </trkpt>
      <trkpt lat="48.44761" lon="-3.8675">
        <ele>297.919891357</ele>
        <time>2014-08-13T14:31:39.416Z</time>
      </trkpt>
      <trkpt lat="48.44755" lon="-3.86752">
        <ele>298.134735107</ele>
        <time>2014-08-13T14:31:41.414Z</time>
      </trkpt>
      <trkpt lat="48.44751" lon="-3.86753">
        <ele>298.268188477</ele>
        <time>2014-08-13T14:31:42.418Z</time>
      </trkpt>
      <trkpt lat="48.44744" lon="-3.86755">
        <ele>298.279449463</ele>
        <time>2014-08-13T14:31:44.421Z</time>
      </trkpt>
      <trkpt lat="48.44739" lon="-3.86757">
        <ele>298.259155273</ele>
        <time>2014-08-13T14:31:45.418Z</time>
      </trkpt>
      <trkpt lat="48.44731" lon="-3.8676">
        <ele>298.184356689</ele>
        <time>2014-08-13T14:31:47.414Z</time>
      </trkpt>
      <trkpt lat="48.44726" lon="-3.86761">
        <ele>298.167144775</ele>
        <time>2014-08-13T14:31:48.41Z</time>
      </trkpt>
      <trkpt lat="48.44717" lon="-3.86763">
        <ele>299.034912109</ele>
        <time>2014-08-13T14:31:50.435Z</time>
      </trkpt>
      <trkpt lat="48.44713" lon="-3.86765">
        <ele>299.070220947</ele>
        <time>2014-08-13T14:31:51.417Z</time>
      </trkpt>
      <trkpt lat="48.44705" lon="-3.86768">
        <ele>299.08215332</ele>
        <time>2014-08-13T14:31:53.402Z</time>
      </trkpt>
      <trkpt lat="48.447" lon="-3.86771">
        <ele>299.078369141</ele>
        <time>2014-08-13T14:31:54.376Z</time>
      </trkpt>
      <trkpt lat="48.44693" lon="-3.86778">
        <ele>299.140472412</ele>
        <time>2014-08-13T14:31:56.415Z</time>
      </trkpt>
      <trkpt lat="48.44691" lon="-3.86781">
        <ele>299.114379883</ele>
        <time>2014-08-13T14:31:57.418Z</time>
      </trkpt>
      <trkpt lat="48.44686" lon="-3.86789">
        <ele>299.186096191</ele>
        <time>2014-08-13T14:31:59.435Z</time>
      </trkpt>
      <trkpt lat="48.44684" lon="-3.86792">
        <ele>299.147125244</ele>
        <time>2014-08-13T14:32:00.413Z</time>
      </trkpt>
      <trkpt lat="48.44678" lon="-3.86794">
        <ele>299.144775391</ele>
        <time>2014-08-13T14:32:03.433Z</time>
      </trkpt>
      <trkpt lat="48.44673" lon="-3.86793">
        <ele>299.097839355</ele>
        <time>2014-08-13T14:32:04.413Z</time>
      </trkpt>
      <trkpt lat="48.44668" lon="-3.86792">
        <ele>299.656616211</ele>
        <time>2014-08-13T14:32:05.408Z</time>
      </trkpt>
      <trkpt lat="48.44664" lon="-3.86791">
        <ele>300.242919922</ele>
        <time>2014-08-13T14:32:06.519Z</time>
      </trkpt>
      <trkpt lat="48.44659" lon="-3.86791">
        <ele>300.730194092</ele>
        <time>2014-08-13T14:32:07.41Z</time>
      </trkpt>
      <trkpt lat="48.44654" lon="-3.8679">
        <ele>301.530609131</ele>
        <time>2014-08-13T14:32:08.419Z</time>
      </trkpt>
      <trkpt lat="48.44645" lon="-3.86787">
        <ele>301.799194336</ele>
        <time>2014-08-13T14:32:10.572Z</time>
      </trkpt>
      <trkpt lat="48.4464" lon="-3.86786">
        <ele>301.93762207</ele>
        <time>2014-08-13T14:32:11.569Z</time>
      </trkpt>
      <trkpt lat="48.44636" lon="-3.86784">
        <ele>301.861846924</ele>
        <time>2014-08-13T14:32:12.569Z</time>
      </trkpt>
      <trkpt lat="48.44631" lon="-3.86782">
        <ele>302.144836426</ele>
        <time>2014-08-13T14:32:13.572Z</time>
      </trkpt>
      <trkpt lat="48.44626" lon="-3.86781">
        <ele>302.68057251</ele>
        <time>2014-08-13T14:32:14.557Z</time>
      </trkpt>
      <trkpt lat="48.44621" lon="-3.86779">
        <ele>303.12020874</ele>
        <time>2014-08-13T14:32:15.576Z</time>
      </trkpt>
      <trkpt lat="48.44614" lon="-3.86778">
        <ele>303.369384766</ele>
        <time>2014-08-13T14:32:16.569Z</time>
      </trkpt>
      <trkpt lat="48.44608" lon="-3.86777">
        <ele>303.5965271</ele>
        <time>2014-08-13T14:32:17.569Z</time>
      </trkpt>
      <trkpt lat="48.44601" lon="-3.86775">
        <ele>303.40145874</ele>
        <time>2014-08-13T14:32:18.578Z</time>
      </trkpt>
      <trkpt lat="48.44595" lon="-3.86773">
        <ele>303.394073486</ele>
        <time>2014-08-13T14:32:19.567Z</time>
      </trkpt>
      <trkpt lat="48.4459" lon="-3.86772">
        <ele>303.06072998</ele>
        <time>2014-08-13T14:32:20.571Z</time>
      </trkpt>
      <trkpt lat="48.44585" lon="-3.86772">
        <ele>303.384368896</ele>
        <time>2014-08-13T14:32:21.568Z</time>
      </trkpt>
      <trkpt lat="48.44579" lon="-3.86771">
        <ele>303.49987793</ele>
        <time>2014-08-13T14:32:22.568Z</time>
      </trkpt>
      <trkpt lat="48.44573" lon="-3.8677">
        <ele>303.901855469</ele>
        <time>2014-08-13T14:32:23.564Z</time>
      </trkpt>
      <trkpt lat="48.44566" lon="-3.86769">
        <ele>303.378997803</ele>
        <time>2014-08-13T14:32:24.567Z</time>
      </trkpt>
      <trkpt lat="48.44557" lon="-3.86768">
        <ele>302.609344482</ele>
        <time>2014-08-13T14:32:25.557Z</time>
      </trkpt>
      <trkpt lat="48.44551" lon="-3.86767">
        <ele>301.52557373</ele>
        <time>2014-08-13T14:32:26.563Z</time>
      </trkpt>
      <trkpt lat="48.44544" lon="-3.86767">
        <ele>300.744781494</ele>
        <time>2014-08-13T14:32:27.56Z</time>
      </trkpt>
      <trkpt lat="48.44538" lon="-3.86768">
        <ele>300.573944092</ele>
        <time>2014-08-13T14:32:28.559Z</time>
      </trkpt>
      <trkpt lat="48.44532" lon="-3.86768">
        <ele>299.946624756</ele>
        <time>2014-08-13T14:32:29.58Z</time>
      </trkpt>
      <trkpt lat="48.44526" lon="-3.86771">
        <ele>299.451293945</ele>
        <time>2014-08-13T14:32:30.569Z</time>
      </trkpt>
      <trkpt lat="48.44519" lon="-3.86776">
        <ele>298.786224365</ele>
        <time>2014-08-13T14:32:31.567Z</time>
      </trkpt>
      <trkpt lat="48.44513" lon="-3.86781">
        <ele>296.979064941</ele>
        <time>2014-08-13T14:32:32.563Z</time>
      </trkpt>
      <trkpt lat="48.44507" lon="-3.86787">
        <ele>295.714447021</ele>
        <time>2014-08-13T14:32:33.739Z</time>
      </trkpt>
      <trkpt lat="48.44502" lon="-3.86793">
        <ele>294.076751709</ele>
        <time>2014-08-13T14:32:34.582Z</time>
      </trkpt>
      <trkpt lat="48.44497" lon="-3.86798">
        <ele>292.120819092</ele>
        <time>2014-08-13T14:32:35.569Z</time>
      </trkpt>
      <trkpt lat="48.44491" lon="-3.86805">
        <ele>290.391235352</ele>
        <time>2014-08-13T14:32:36.567Z</time>
      </trkpt>
      <trkpt lat="48.44485" lon="-3.86813">
        <ele>289.504211426</ele>
        <time>2014-08-13T14:32:37.567Z</time>
      </trkpt>
      <trkpt lat="48.44481" lon="-3.86817">
        <ele>289.040924072</ele>
        <time>2014-08-13T14:32:38.562Z</time>
      </trkpt>
      <trkpt lat="48.44476" lon="-3.8682">
        <ele>288.620788574</ele>
        <time>2014-08-13T14:32:39.57Z</time>
      </trkpt>
      <trkpt lat="48.44472" lon="-3.86823">
        <ele>288.433258057</ele>
        <time>2014-08-13T14:32:40.566Z</time>
      </trkpt>
      <trkpt lat="48.44468" lon="-3.86827">
        <ele>288.367584229</ele>
        <time>2014-08-13T14:32:41.565Z</time>
      </trkpt>
      <trkpt lat="48.44464" lon="-3.86832">
        <ele>288.947570801</ele>
        <time>2014-08-13T14:32:42.561Z</time>
      </trkpt>
      <trkpt lat="48.4446" lon="-3.86837">
        <ele>289.467437744</ele>
        <time>2014-08-13T14:32:43.559Z</time>
      </trkpt>
      <trkpt lat="48.44456" lon="-3.86841">
        <ele>288.930053711</ele>
        <time>2014-08-13T14:32:44.568Z</time>
      </trkpt>
      <trkpt lat="48.44453" lon="-3.86845">
        <ele>288.858886719</ele>
        <time>2014-08-13T14:32:45.568Z</time>
      </trkpt>
      <trkpt lat="48.44446" lon="-3.86851">
        <ele>288.754455566</ele>
        <time>2014-08-13T14:32:47.57Z</time>
      </trkpt>
      <trkpt lat="48.44443" lon="-3.86854">
        <ele>288.577026367</ele>
        <time>2014-08-13T14:32:48.562Z</time>
      </trkpt>
      <trkpt lat="48.44437" lon="-3.8686">
        <ele>288.152740479</ele>
        <time>2014-08-13T14:32:50.573Z</time>
      </trkpt>
      <trkpt lat="48.44435" lon="-3.86862">
        <ele>288.002868652</ele>
        <time>2014-08-13T14:32:51.571Z</time>
      </trkpt>
      <trkpt lat="48.44428" lon="-3.86869">
        <ele>287.826721191</ele>
        <time>2014-08-13T14:32:54.562Z</time>
      </trkpt>
      <trkpt lat="48.44426" lon="-3.86872">
        <ele>287.810546875</ele>
        <time>2014-08-13T14:32:55.57Z</time>
      </trkpt>
      <trkpt lat="48.44418" lon="-3.86878">
        <ele>288.051727295</ele>
        <time>2014-08-13T14:32:59.572Z</time>
      </trkpt>
      <trkpt lat="48.44416" lon="-3.86879">
        <ele>288.153625488</ele>
        <time>2014-08-13T14:33:00.56Z</time>
      </trkpt>
      <trkpt lat="48.44409" lon="-3.86884">
        <ele>288.654144287</ele>
        <time>2014-08-13T14:33:04.568Z</time>
      </trkpt>
      <trkpt lat="48.44407" lon="-3.86885">
        <ele>288.814788818</ele>
        <time>2014-08-13T14:33:05.573Z</time>
      </trkpt>
      <trkpt lat="48.44401" lon="-3.86892">
        <ele>289.193756104</ele>
        <time>2014-08-13T14:33:08.569Z</time>
      </trkpt>
      <trkpt lat="48.44399" lon="-3.86894">
        <ele>289.253540039</ele>
        <time>2014-08-13T14:33:09.574Z</time>
      </trkpt>
      <trkpt lat="48.44393" lon="-3.86892">
        <ele>294.06350708</ele>
        <time>2014-08-13T14:35:42.377Z</time>
      </trkpt>
      <trkpt lat="48.4439" lon="-3.86889">
        <ele>294.126678467</ele>
        <time>2014-08-13T14:35:43.395Z</time>
      </trkpt>
      <trkpt lat="48.44383" lon="-3.86881">
        <ele>294.762329102</ele>
        <time>2014-08-13T14:35:45.384Z</time>
      </trkpt>
      <trkpt lat="48.44378" lon="-3.86877">
        <ele>295.272949219</ele>
        <time>2014-08-13T14:35:46.379Z</time>
      </trkpt>
      <trkpt lat="48.44374" lon="-3.86872">
        <ele>295.327331543</ele>
        <time>2014-08-13T14:35:47.37Z</time>
      </trkpt>
      <trkpt lat="48.44367" lon="-3.86868">
        <ele>295.691619873</ele>
        <time>2014-08-13T14:35:48.378Z</time>
      </trkpt>
      <trkpt lat="48.4436" lon="-3.86864">
        <ele>296.293243408</ele>
        <time>2014-08-13T14:35:49.377Z</time>
      </trkpt>
      <trkpt lat="48.4435" lon="-3.8686">
        <ele>296.738555908</ele>
        <time>2014-08-13T14:35:50.372Z</time>
      </trkpt>
      <trkpt lat="48.4434" lon="-3.86856">
        <ele>296.483947754</ele>
        <time>2014-08-13T14:35:51.369Z</time>
      </trkpt>
      <trkpt lat="48.44331" lon="-3.86853">
        <ele>296.046569824</ele>
        <time>2014-08-13T14:35:52.372Z</time>
      </trkpt>
      <trkpt lat="48.44321" lon="-3.86851">
        <ele>295.493225098</ele>
        <time>2014-08-13T14:35:53.372Z</time>
      </trkpt>
      <trkpt lat="48.44313" lon="-3.86849">
        <ele>294.731964111</ele>
        <time>2014-08-13T14:35:54.378Z</time>
      </trkpt>
      <trkpt lat="48.44306" lon="-3.86848">
        <ele>294.165008545</ele>
        <time>2014-08-13T14:35:55.369Z</time>
      </trkpt>
      <trkpt lat="48.443" lon="-3.86847">
        <ele>293.757720947</ele>
        <time>2014-08-13T14:35:56.377Z</time>
      </trkpt>
      <trkpt lat="48.44296" lon="-3.86846">
        <ele>293.191864014</ele>
        <time>2014-08-13T14:35:57.372Z</time>
      </trkpt>
      <trkpt lat="48.44288" lon="-3.86843">
        <ele>291.971343994</ele>
        <time>2014-08-13T14:35:59.381Z</time>
      </trkpt>
      <trkpt lat="48.44284" lon="-3.86841">
        <ele>291.498413086</ele>
        <time>2014-08-13T14:36:00.361Z</time>
      </trkpt>
      <trkpt lat="48.44275" lon="-3.8684">
        <ele>291.281768799</ele>
        <time>2014-08-13T14:36:03.377Z</time>
      </trkpt>
      <trkpt lat="48.44273" lon="-3.86839">
        <ele>291.194061279</ele>
        <time>2014-08-13T14:36:04.38Z</time>
      </trkpt>
      <trkpt lat="48.44268" lon="-3.86836">
        <ele>291.1355896</ele>
        <time>2014-08-13T14:36:06.415Z</time>
      </trkpt>
      <trkpt lat="48.44264" lon="-3.86834">
        <ele>291.16696167</ele>
        <time>2014-08-13T14:36:07.375Z</time>
      </trkpt>
      <trkpt lat="48.44256" lon="-3.86831">
        <ele>291.340881348</ele>
        <time>2014-08-13T14:36:10.379Z</time>
      </trkpt>
      <trkpt lat="48.44253" lon="-3.86831">
        <ele>291.430206299</ele>
        <time>2014-08-13T14:36:11.378Z</time>
      </trkpt>
      <trkpt lat="48.44247" lon="-3.86828">
        <ele>291.656921387</ele>
        <time>2014-08-13T14:36:13.378Z</time>
      </trkpt>
      <trkpt lat="48.44243" lon="-3.86827">
        <ele>291.823760986</ele>
        <time>2014-08-13T14:36:14.382Z</time>
      </trkpt>
      <trkpt lat="48.44237" lon="-3.86826">
        <ele>292.162322998</ele>
        <time>2014-08-13T14:36:16.388Z</time>
      </trkpt>
      <trkpt lat="48.44234" lon="-3.86825">
        <ele>292.238250732</ele>
        <time>2014-08-13T14:36:17.386Z</time>
      </trkpt>
      <trkpt lat="48.44227" lon="-3.86824">
        <ele>292.353942871</ele>
        <time>2014-08-13T14:36:19.4Z</time>
      </trkpt>
      <trkpt lat="48.44224" lon="-3.86824">
        <ele>292.384277344</ele>
        <time>2014-08-13T14:36:20.379Z</time>
      </trkpt>
      <trkpt lat="48.44217" lon="-3.86824">
        <ele>292.444396973</ele>
        <time>2014-08-13T14:36:22.374Z</time>
      </trkpt>
      <trkpt lat="48.44213" lon="-3.86825">
        <ele>292.439056396</ele>
        <time>2014-08-13T14:36:23.38Z</time>
      </trkpt>
      <trkpt lat="48.44206" lon="-3.8683">
        <ele>292.673522949</ele>
        <time>2014-08-13T14:36:26.376Z</time>
      </trkpt>
      <trkpt lat="48.44204" lon="-3.86831">
        <ele>292.795593262</ele>
        <time>2014-08-13T14:36:27.374Z</time>
      </trkpt>
      <trkpt lat="48.44196" lon="-3.86836">
        <ele>293.163879395</ele>
        <time>2014-08-13T14:36:30.397Z</time>
      </trkpt>
      <trkpt lat="48.44194" lon="-3.86837">
        <ele>293.232177734</ele>
        <time>2014-08-13T14:36:31.372Z</time>
      </trkpt>
      <trkpt lat="48.44185" lon="-3.86839">
        <ele>293.716400146</ele>
        <time>2014-08-13T14:36:35.381Z</time>
      </trkpt>
      <trkpt lat="48.44183" lon="-3.86839">
        <ele>293.82611084</ele>
        <time>2014-08-13T14:36:36.384Z</time>
      </trkpt>
      <trkpt lat="48.44176" lon="-3.86838">
        <ele>294.37701416</ele>
        <time>2014-08-13T14:36:39.377Z</time>
      </trkpt>
      <trkpt lat="48.44173" lon="-3.86837">
        <ele>294.616119385</ele>
        <time>2014-08-13T14:36:40.38Z</time>
      </trkpt>
      <trkpt lat="48.44165" lon="-3.86835">
        <ele>295.190704346</ele>
        <time>2014-08-13T14:36:43.369Z</time>
      </trkpt>
      <trkpt lat="48.44162" lon="-3.86833">
        <ele>295.40725708</ele>
        <time>2014-08-13T14:36:44.377Z</time>
      </trkpt>
      <trkpt lat="48.44155" lon="-3.86828">
        <ele>295.959533691</ele>
        <time>2014-08-13T14:36:47.373Z</time>
      </trkpt>
      <trkpt lat="48.44153" lon="-3.86827">
        <ele>296.125427246</ele>
        <time>2014-08-13T14:36:48.375Z</time>
      </trkpt>
      <trkpt lat="48.44148" lon="-3.86823">
        <ele>296.513000488</ele>
        <time>2014-08-13T14:36:50.395Z</time>
      </trkpt>
      <trkpt lat="48.44145" lon="-3.86819">
        <ele>296.772003174</ele>
        <time>2014-08-13T14:36:51.385Z</time>
      </trkpt>
      <trkpt lat="48.4414" lon="-3.86813">
        <ele>300.00604248</ele>
        <time>2014-08-13T14:36:53.376Z</time>
      </trkpt>
      <trkpt lat="48.44137" lon="-3.86811">
        <ele>300.212493896</ele>
        <time>2014-08-13T14:36:54.381Z</time>
      </trkpt>
      <trkpt lat="48.44131" lon="-3.86802">
        <ele>300.766876221</ele>
        <time>2014-08-13T14:36:57.37Z</time>
      </trkpt>
      <trkpt lat="48.44129" lon="-3.868">
        <ele>300.925140381</ele>
        <time>2014-08-13T14:36:58.379Z</time>
      </trkpt>
      <trkpt lat="48.44123" lon="-3.8679">
        <ele>301.847229004</ele>
        <time>2014-08-13T14:37:02.377Z</time>
      </trkpt>
      <trkpt lat="48.4412" lon="-3.86787">
        <ele>302.076965332</ele>
        <time>2014-08-13T14:37:03.409Z</time>
      </trkpt>
      <trkpt lat="48.44115" lon="-3.86781">
        <ele>302.61932373</ele>
        <time>2014-08-13T14:37:05.371Z</time>
      </trkpt>
      <trkpt lat="48.44113" lon="-3.86778">
        <ele>302.875671387</ele>
        <time>2014-08-13T14:37:06.379Z</time>
      </trkpt>
      <trkpt lat="48.44108" lon="-3.86771">
        <ele>303.423675537</ele>
        <time>2014-08-13T14:37:08.371Z</time>
      </trkpt>
      <trkpt lat="48.44106" lon="-3.86768">
        <ele>303.708343506</ele>
        <time>2014-08-13T14:37:09.376Z</time>
      </trkpt>
      <trkpt lat="48.441" lon="-3.86762">
        <ele>304.57333374</ele>
        <time>2014-08-13T14:37:12.372Z</time>
      </trkpt>
      <trkpt lat="48.44098" lon="-3.86759">
        <ele>304.854187012</ele>
        <time>2014-08-13T14:37:13.367Z</time>
      </trkpt>
      <trkpt lat="48.44092" lon="-3.86751">
        <ele>305.946075439</ele>
        <time>2014-08-13T14:37:17.368Z</time>
      </trkpt>
      <trkpt lat="48.4409" lon="-3.86749">
        <ele>306.227539062</ele>
        <time>2014-08-13T14:37:18.371Z</time>
      </trkpt>
      <trkpt lat="48.44083" lon="-3.86742">
        <ele>307.075683594</ele>
        <time>2014-08-13T14:37:21.363Z</time>
      </trkpt>
      <trkpt lat="48.44081" lon="-3.8674">
        <ele>307.37701416</ele>
        <time>2014-08-13T14:37:22.368Z</time>
      </trkpt>
      <trkpt lat="48.44075" lon="-3.86735">
        <ele>308.185058594</ele>
        <time>2014-08-13T14:37:25.369Z</time>
      </trkpt>
      <trkpt lat="48.44073" lon="-3.86733">
        <ele>308.474700928</ele>
        <time>2014-08-13T14:37:26.383Z</time>
      </trkpt>
      <trkpt lat="48.44068" lon="-3.86725">
        <ele>309.067596436</ele>
        <time>2014-08-13T14:37:29.375Z</time>
      </trkpt>
      <trkpt lat="48.44065" lon="-3.86721">
        <ele>309.352386475</ele>
        <time>2014-08-13T14:37:30.373Z</time>
      </trkpt>
      <trkpt lat="48.44059" lon="-3.86713">
        <ele>310.07699585</ele>
        <time>2014-08-13T14:37:33.341Z</time>
      </trkpt>
      <trkpt lat="48.44056" lon="-3.8671">
        <ele>310.315673828</ele>
        <time>2014-08-13T14:37:34.348Z</time>
      </trkpt>
      <trkpt lat="48.4405" lon="-3.86703">
        <ele>310.715270996</ele>
        <time>2014-08-13T14:37:37.347Z</time>
      </trkpt>
      <trkpt lat="48.44048" lon="-3.867">
        <ele>310.774139404</ele>
        <time>2014-08-13T14:37:38.343Z</time>
      </trkpt>
      <trkpt lat="48.44041" lon="-3.86692">
        <ele>311.262390137</ele>
        <time>2014-08-13T14:37:42.341Z</time>
      </trkpt>
      <trkpt lat="48.4404" lon="-3.86691">
        <ele>311.461669922</ele>
        <time>2014-08-13T14:37:43.344Z</time>
      </trkpt>
      <trkpt lat="48.44032" lon="-3.86684">
        <ele>313.36428833</ele>
        <time>2014-08-13T14:37:52.201Z</time>
      </trkpt>
      <trkpt lat="48.44031" lon="-3.86682">
        <ele>313.602783203</ele>
        <time>2014-08-13T14:37:53.01Z</time>
      </trkpt>
      <trkpt lat="48.44025" lon="-3.8669">
        <ele>315.976379395</ele>
        <time>2014-08-13T14:38:54.023Z</time>
      </trkpt>
      <trkpt lat="48.44023" lon="-3.86693">
        <ele>315.990325928</ele>
        <time>2014-08-13T14:38:55.463Z</time>
      </trkpt>
      <trkpt lat="48.44019" lon="-3.86705">
        <ele>316.064666748</ele>
        <time>2014-08-13T14:38:58.122Z</time>
      </trkpt>
      <trkpt lat="48.44018" lon="-3.86708">
        <ele>316.105285645</ele>
        <time>2014-08-13T14:38:59.125Z</time>
      </trkpt>
      <trkpt lat="48.44015" lon="-3.86719">
        <ele>316.169403076</ele>
        <time>2014-08-13T14:39:02.119Z</time>
      </trkpt>
      <trkpt lat="48.44013" lon="-3.86723">
        <ele>316.203277588</ele>
        <time>2014-08-13T14:39:03.119Z</time>
      </trkpt>
      <trkpt lat="48.4401" lon="-3.86733">
        <ele>316.196624756</ele>
        <time>2014-08-13T14:39:06.124Z</time>
      </trkpt>
      <trkpt lat="48.44009" lon="-3.86737">
        <ele>316.267242432</ele>
        <time>2014-08-13T14:39:07.119Z</time>
      </trkpt>
      <trkpt lat="48.44007" lon="-3.86745">
        <ele>316.350921631</ele>
        <time>2014-08-13T14:39:09.121Z</time>
      </trkpt>
      <trkpt lat="48.44006" lon="-3.86749">
        <ele>316.359985352</ele>
        <time>2014-08-13T14:39:10.165Z</time>
      </trkpt>
      <trkpt lat="48.44003" lon="-3.86758">
        <ele>316.330718994</ele>
        <time>2014-08-13T14:39:12.127Z</time>
      </trkpt>
      <trkpt lat="48.44003" lon="-3.86763">
        <ele>316.379852295</ele>
        <time>2014-08-13T14:39:13.124Z</time>
      </trkpt>
      <trkpt lat="48.44" lon="-3.86773">
        <ele>316.460968018</ele>
        <time>2014-08-13T14:39:15.129Z</time>
      </trkpt>
      <trkpt lat="48.43999" lon="-3.86776">
        <ele>316.461517334</ele>
        <time>2014-08-13T14:39:16.127Z</time>
      </trkpt>
      <trkpt lat="48.43997" lon="-3.86785">
        <ele>316.27243042</ele>
        <time>2014-08-13T14:39:18.132Z</time>
      </trkpt>
      <trkpt lat="48.43995" lon="-3.8679">
        <ele>316.193054199</ele>
        <time>2014-08-13T14:39:19.129Z</time>
      </trkpt>
      <trkpt lat="48.43993" lon="-3.86802">
        <ele>316.1640625</ele>
        <time>2014-08-13T14:39:21.124Z</time>
      </trkpt>
      <trkpt lat="48.43991" lon="-3.86808">
        <ele>316.184509277</ele>
        <time>2014-08-13T14:39:22.109Z</time>
      </trkpt>
      <trkpt lat="48.43989" lon="-3.8682">
        <ele>316.391021729</ele>
        <time>2014-08-13T14:39:24.129Z</time>
      </trkpt>
      <trkpt lat="48.43988" lon="-3.86825">
        <ele>316.45489502</ele>
        <time>2014-08-13T14:39:25.127Z</time>
      </trkpt>
      <trkpt lat="48.43986" lon="-3.86835">
        <ele>316.532287598</ele>
        <time>2014-08-13T14:39:27.121Z</time>
      </trkpt>
      <trkpt lat="48.43985" lon="-3.8684">
        <ele>316.643798828</ele>
        <time>2014-08-13T14:39:28.131Z</time>
      </trkpt>
      <trkpt lat="48.43983" lon="-3.86852">
        <ele>316.774017334</ele>
        <time>2014-08-13T14:39:31.118Z</time>
      </trkpt>
      <trkpt lat="48.43983" lon="-3.86855">
        <ele>316.782073975</ele>
        <time>2014-08-13T14:39:32.13Z</time>
      </trkpt>
      <trkpt lat="48.43982" lon="-3.86865">
        <ele>317.044464111</ele>
        <time>2014-08-13T14:39:34.128Z</time>
      </trkpt>
      <trkpt lat="48.43981" lon="-3.86869">
        <ele>317.17855835</ele>
        <time>2014-08-13T14:39:35.123Z</time>
      </trkpt>
      <trkpt lat="48.43979" lon="-3.86882">
        <ele>317.411529541</ele>
        <time>2014-08-13T14:39:38.109Z</time>
      </trkpt>
      <trkpt lat="48.43979" lon="-3.86887">
        <ele>317.507781982</ele>
        <time>2014-08-13T14:39:39.119Z</time>
      </trkpt>
      <trkpt lat="48.43977" lon="-3.86896">
        <ele>317.765075684</ele>
        <time>2014-08-13T14:39:41.128Z</time>
      </trkpt>
      <trkpt lat="48.43977" lon="-3.869">
        <ele>317.854522705</ele>
        <time>2014-08-13T14:39:42.128Z</time>
      </trkpt>
      <trkpt lat="48.43974" lon="-3.86911">
        <ele>317.777954102</ele>
        <time>2014-08-13T14:39:45.119Z</time>
      </trkpt>
      <trkpt lat="48.43973" lon="-3.86917">
        <ele>317.340637207</ele>
        <time>2014-08-13T14:39:46.113Z</time>
      </trkpt>
      <trkpt lat="48.43972" lon="-3.86929">
        <ele>317.197723389</ele>
        <time>2014-08-13T14:39:48.122Z</time>
      </trkpt>
      <trkpt lat="48.43971" lon="-3.86935">
        <ele>317.216461182</ele>
        <time>2014-08-13T14:39:49.123Z</time>
      </trkpt>
      <trkpt lat="48.4397" lon="-3.86945">
        <ele>317.307342529</ele>
        <time>2014-08-13T14:39:51.139Z</time>
      </trkpt>
      <trkpt lat="48.43969" lon="-3.86949">
        <ele>317.373809814</ele>
        <time>2014-08-13T14:39:52.119Z</time>
      </trkpt>
      <trkpt lat="48.43968" lon="-3.86959">
        <ele>317.517608643</ele>
        <time>2014-08-13T14:39:54.111Z</time>
      </trkpt>
      <trkpt lat="48.43967" lon="-3.86964">
        <ele>317.625213623</ele>
        <time>2014-08-13T14:39:55.128Z</time>
      </trkpt>
      <trkpt lat="48.43964" lon="-3.86974">
        <ele>317.884796143</ele>
        <time>2014-08-13T14:39:58.122Z</time>
      </trkpt>
      <trkpt lat="48.43963" lon="-3.86978">
        <ele>317.983825684</ele>
        <time>2014-08-13T14:39:59.121Z</time>
      </trkpt>
      <trkpt lat="48.4396" lon="-3.86987">
        <ele>318.190216064</ele>
        <time>2014-08-13T14:40:01.12Z</time>
      </trkpt>
      <trkpt lat="48.43959" lon="-3.86992">
        <ele>318.318054199</ele>
        <time>2014-08-13T14:40:02.121Z</time>
      </trkpt>
      <trkpt lat="48.43956" lon="-3.87002">
        <ele>318.53326416</ele>
        <time>2014-08-13T14:40:04.123Z</time>
      </trkpt>
      <trkpt lat="48.43955" lon="-3.87007">
        <ele>318.625213623</ele>
        <time>2014-08-13T14:40:05.117Z</time>
      </trkpt>
      <trkpt lat="48.43952" lon="-3.87016">
        <ele>318.901672363</ele>
        <time>2014-08-13T14:40:07.12Z</time>
      </trkpt>
      <trkpt lat="48.43951" lon="-3.87021">
        <ele>319.068572998</ele>
        <time>2014-08-13T14:40:08.122Z</time>
      </trkpt>
      <trkpt lat="48.43949" lon="-3.87031">
        <ele>319.365966797</ele>
        <time>2014-08-13T14:40:10.126Z</time>
      </trkpt>
      <trkpt lat="48.43949" lon="-3.87036">
        <ele>319.481170654</ele>
        <time>2014-08-13T14:40:11.118Z</time>
      </trkpt>
      <trkpt lat="48.43948" lon="-3.87047">
        <ele>319.83505249</ele>
        <time>2014-08-13T14:40:13.787Z</time>
      </trkpt>
      <trkpt lat="48.43948" lon="-3.87051">
        <ele>319.930053711</ele>
        <time>2014-08-13T14:40:14.8Z</time>
      </trkpt>
      <trkpt lat="48.4395" lon="-3.87063">
        <ele>320.195648193</ele>
        <time>2014-08-13T14:40:18.793Z</time>
      </trkpt>
      <trkpt lat="48.43949" lon="-3.87066">
        <ele>320.260009766</ele>
        <time>2014-08-13T14:40:19.796Z</time>
      </trkpt>
      <trkpt lat="48.4395" lon="-3.87077">
        <ele>320.44354248</ele>
        <time>2014-08-13T14:40:22.788Z</time>
      </trkpt>
      <trkpt lat="48.4395" lon="-3.87081">
        <ele>320.499755859</ele>
        <time>2014-08-13T14:40:23.826Z</time>
      </trkpt>
      <trkpt lat="48.43951" lon="-3.87093">
        <ele>320.683898926</ele>
        <time>2014-08-13T14:40:26.798Z</time>
      </trkpt>
      <trkpt lat="48.43952" lon="-3.87097">
        <ele>320.758636475</ele>
        <time>2014-08-13T14:40:27.796Z</time>
      </trkpt>
      <trkpt lat="48.43953" lon="-3.87108">
        <ele>321.228942871</ele>
        <time>2014-08-13T14:40:30.435Z</time>
      </trkpt>
      <trkpt lat="48.43954" lon="-3.87113">
        <ele>321.381896973</ele>
        <time>2014-08-13T14:40:31.438Z</time>
      </trkpt>
      <trkpt lat="48.43956" lon="-3.87125">
        <ele>321.925079346</ele>
        <time>2014-08-13T14:40:34.444Z</time>
      </trkpt>
      <trkpt lat="48.43957" lon="-3.87129">
        <ele>322.148651123</ele>
        <time>2014-08-13T14:40:35.449Z</time>
      </trkpt>
      <trkpt lat="48.4396" lon="-3.87142">
        <ele>322.57220459</ele>
        <time>2014-08-13T14:40:38.435Z</time>
      </trkpt>
      <trkpt lat="48.4396" lon="-3.87145">
        <ele>322.581115723</ele>
        <time>2014-08-13T14:40:39.443Z</time>
      </trkpt>
      <trkpt lat="48.43963" lon="-3.87154">
        <ele>322.744445801</ele>
        <time>2014-08-13T14:40:41.437Z</time>
      </trkpt>
      <trkpt lat="48.43964" lon="-3.87158">
        <ele>322.810272217</ele>
        <time>2014-08-13T14:40:42.469Z</time>
      </trkpt>
      <trkpt lat="48.43966" lon="-3.87169">
        <ele>323.103912354</ele>
        <time>2014-08-13T14:40:45.441Z</time>
      </trkpt>
      <trkpt lat="48.43966" lon="-3.87172">
        <ele>323.216918945</ele>
        <time>2014-08-13T14:40:46.434Z</time>
      </trkpt>
      <trkpt lat="48.43968" lon="-3.87183">
        <ele>323.629547119</ele>
        <time>2014-08-13T14:40:49.446Z</time>
      </trkpt>
      <trkpt lat="48.43969" lon="-3.87186">
        <ele>323.850738525</ele>
        <time>2014-08-13T14:40:50.441Z</time>
      </trkpt>
      <trkpt lat="48.43972" lon="-3.87196">
        <ele>324.387573242</ele>
        <time>2014-08-13T14:40:53.447Z</time>
      </trkpt>
      <trkpt lat="48.43973" lon="-3.87201">
        <ele>324.543609619</ele>
        <time>2014-08-13T14:40:54.442Z</time>
      </trkpt>
      <trkpt lat="48.43976" lon="-3.87211">
        <ele>325.129486084</ele>
        <time>2014-08-13T14:40:57.444Z</time>
      </trkpt>
      <trkpt lat="48.43978" lon="-3.87215">
        <ele>325.400299072</ele>
        <time>2014-08-13T14:40:58.45Z</time>
      </trkpt>
      <trkpt lat="48.43981" lon="-3.87227">
        <ele>326.176574707</ele>
        <time>2014-08-13T14:41:01.433Z</time>
      </trkpt>
      <trkpt lat="48.43982" lon="-3.87231">
        <ele>326.363616943</ele>
        <time>2014-08-13T14:41:02.446Z</time>
      </trkpt>
      <trkpt lat="48.43984" lon="-3.87242">
        <ele>326.812988281</ele>
        <time>2014-08-13T14:41:05.46Z</time>
      </trkpt>
      <trkpt lat="48.43986" lon="-3.87246">
        <ele>326.896850586</ele>
        <time>2014-08-13T14:41:06.446Z</time>
      </trkpt>
      <trkpt lat="48.43988" lon="-3.87257">
        <ele>327.420349121</ele>
        <time>2014-08-13T14:41:09.452Z</time>
      </trkpt>
      <trkpt lat="48.43989" lon="-3.87261">
        <ele>327.649108887</ele>
        <time>2014-08-13T14:41:10.45Z</time>
      </trkpt>
      <trkpt lat="48.43992" lon="-3.87271">
        <ele>328.376190186</ele>
        <time>2014-08-13T14:41:13.442Z</time>
      </trkpt>
      <trkpt lat="48.43993" lon="-3.87275">
        <ele>328.591094971</ele>
        <time>2014-08-13T14:41:14.436Z</time>
      </trkpt>
      <trkpt lat="48.43995" lon="-3.87287">
        <ele>329.2159729</ele>
        <time>2014-08-13T14:41:17.445Z</time>
      </trkpt>
      <trkpt lat="48.43996" lon="-3.87292">
        <ele>329.379669189</ele>
        <time>2014-08-13T14:41:18.447Z</time>
      </trkpt>
      <trkpt lat="48.43998" lon="-3.87302">
        <ele>329.75692749</ele>
        <time>2014-08-13T14:41:20.444Z</time>
      </trkpt>
      <trkpt lat="48.43999" lon="-3.87307">
        <ele>329.982818604</ele>
        <time>2014-08-13T14:41:21.441Z</time>
      </trkpt>
      <trkpt lat="48.44001" lon="-3.87316">
        <ele>330.308807373</ele>
        <time>2014-08-13T14:41:23.441Z</time>
      </trkpt>
      <trkpt lat="48.44002" lon="-3.87321">
        <ele>330.456390381</ele>
        <time>2014-08-13T14:41:24.454Z</time>
      </trkpt>
      <trkpt lat="48.44006" lon="-3.87333">
        <ele>330.906646729</ele>
        <time>2014-08-13T14:41:28.451Z</time>
      </trkpt>
      <trkpt lat="48.44007" lon="-3.87336">
        <ele>330.956390381</ele>
        <time>2014-08-13T14:41:29.448Z</time>
      </trkpt>
      <trkpt lat="48.44011" lon="-3.87343">
        <ele>331.130462646</ele>
        <time>2014-08-13T14:41:31.435Z</time>
      </trkpt>
      <trkpt lat="48.44013" lon="-3.87347">
        <ele>331.215301514</ele>
        <time>2014-08-13T14:41:32.444Z</time>
      </trkpt>
      <trkpt lat="48.44017" lon="-3.87357">
        <ele>331.331420898</ele>
        <time>2014-08-13T14:41:34.448Z</time>
      </trkpt>
      <trkpt lat="48.44019" lon="-3.87362">
        <ele>331.344177246</ele>
        <time>2014-08-13T14:41:35.441Z</time>
      </trkpt>
      <trkpt lat="48.44023" lon="-3.87371">
        <ele>331.249725342</ele>
        <time>2014-08-13T14:41:37.45Z</time>
      </trkpt>
      <trkpt lat="48.44025" lon="-3.87375">
        <ele>331.163787842</ele>
        <time>2014-08-13T14:41:38.446Z</time>
      </trkpt>
      <trkpt lat="48.4403" lon="-3.87385">
        <ele>331.052825928</ele>
        <time>2014-08-13T14:41:40.446Z</time>
      </trkpt>
      <trkpt lat="48.44033" lon="-3.87389">
        <ele>330.996917725</ele>
        <time>2014-08-13T14:41:41.446Z</time>
      </trkpt>
      <trkpt lat="48.44038" lon="-3.87398">
        <ele>329.283721924</ele>
        <time>2014-08-13T14:41:43.443Z</time>
      </trkpt>
      <trkpt lat="48.44041" lon="-3.87404">
        <ele>329.236633301</ele>
        <time>2014-08-13T14:41:44.445Z</time>
      </trkpt>
      <trkpt lat="48.44044" lon="-3.87411">
        <ele>329.512268066</ele>
        <time>2014-08-13T14:41:45.443Z</time>
      </trkpt>
      <trkpt lat="48.44048" lon="-3.87418">
        <ele>330.153564453</ele>
        <time>2014-08-13T14:41:46.445Z</time>
      </trkpt>
      <trkpt lat="48.44052" lon="-3.87425">
        <ele>330.175323486</ele>
        <time>2014-08-13T14:41:47.448Z</time>
      </trkpt>
      <trkpt lat="48.44055" lon="-3.87431">
        <ele>329.986572266</ele>
        <time>2014-08-13T14:41:48.447Z</time>
      </trkpt>
      <trkpt lat="48.44058" lon="-3.87438">
        <ele>329.682861328</ele>
        <time>2014-08-13T14:41:49.446Z</time>
      </trkpt>
      <trkpt lat="48.44061" lon="-3.87444">
        <ele>329.304840088</ele>
        <time>2014-08-13T14:41:50.444Z</time>
      </trkpt>
      <trkpt lat="48.44066" lon="-3.87451">
        <ele>328.272064209</ele>
        <time>2014-08-13T14:41:51.442Z</time>
      </trkpt>
      <trkpt lat="48.44069" lon="-3.87457">
        <ele>327.630493164</ele>
        <time>2014-08-13T14:41:52.441Z</time>
      </trkpt>
      <trkpt lat="48.44073" lon="-3.87465">
        <ele>326.474639893</ele>
        <time>2014-08-13T14:41:53.438Z</time>
      </trkpt>
      <trkpt lat="48.44076" lon="-3.87473">
        <ele>325.487335205</ele>
        <time>2014-08-13T14:41:54.45Z</time>
      </trkpt>
      <trkpt lat="48.4408" lon="-3.87481">
        <ele>324.847290039</ele>
        <time>2014-08-13T14:41:55.439Z</time>
      </trkpt>
      <trkpt lat="48.44082" lon="-3.87487">
        <ele>324.08782959</ele>
        <time>2014-08-13T14:41:56.448Z</time>
      </trkpt>
      <trkpt lat="48.44084" lon="-3.87494">
        <ele>324.216522217</ele>
        <time>2014-08-13T14:41:57.445Z</time>
      </trkpt>
      <trkpt lat="48.44086" lon="-3.87503">
        <ele>324.57598877</ele>
        <time>2014-08-13T14:41:58.441Z</time>
      </trkpt>
      <trkpt lat="48.44089" lon="-3.87511">
        <ele>324.773162842</ele>
        <time>2014-08-13T14:41:59.446Z</time>
      </trkpt>
      <trkpt lat="48.44091" lon="-3.8752">
        <ele>324.661895752</ele>
        <time>2014-08-13T14:42:00.44Z</time>
      </trkpt>
      <trkpt lat="48.44094" lon="-3.87531">
        <ele>323.896881104</ele>
        <time>2014-08-13T14:42:01.451Z</time>
      </trkpt>
      <trkpt lat="48.44096" lon="-3.87543">
        <ele>323.413024902</ele>
        <time>2014-08-13T14:42:02.446Z</time>
      </trkpt>
      <trkpt lat="48.44097" lon="-3.87552">
        <ele>323.608184814</ele>
        <time>2014-08-13T14:42:03.438Z</time>
      </trkpt>
      <trkpt lat="48.44098" lon="-3.87562">
        <ele>323.482452393</ele>
        <time>2014-08-13T14:42:04.446Z</time>
      </trkpt>
      <trkpt lat="48.44099" lon="-3.87569">
        <ele>323.515533447</ele>
        <time>2014-08-13T14:42:05.433Z</time>
      </trkpt>
      <trkpt lat="48.44099" lon="-3.87577">
        <ele>322.940582275</ele>
        <time>2014-08-13T14:42:06.444Z</time>
      </trkpt>
      <trkpt lat="48.441" lon="-3.87586">
        <ele>322.521270752</ele>
        <time>2014-08-13T14:42:07.436Z</time>
      </trkpt>
      <trkpt lat="48.44101" lon="-3.87595">
        <ele>322.485229492</ele>
        <time>2014-08-13T14:42:08.444Z</time>
      </trkpt>
      <trkpt lat="48.44101" lon="-3.87604">
        <ele>322.215576172</ele>
        <time>2014-08-13T14:42:09.451Z</time>
      </trkpt>
      <trkpt lat="48.44102" lon="-3.87613">
        <ele>321.718933105</ele>
        <time>2014-08-13T14:42:10.448Z</time>
      </trkpt>
      <trkpt lat="48.44103" lon="-3.87621">
        <ele>320.872894287</ele>
        <time>2014-08-13T14:42:11.447Z</time>
      </trkpt>
      <trkpt lat="48.44104" lon="-3.87628">
        <ele>320.009033203</ele>
        <time>2014-08-13T14:42:12.439Z</time>
      </trkpt>
      <trkpt lat="48.44105" lon="-3.87636">
        <ele>319.002166748</ele>
        <time>2014-08-13T14:42:13.46Z</time>
      </trkpt>
      <trkpt lat="48.44106" lon="-3.87644">
        <ele>318.235473633</ele>
        <time>2014-08-13T14:42:14.44Z</time>
      </trkpt>
      <trkpt lat="48.44107" lon="-3.87653">
        <ele>317.16897583</ele>
        <time>2014-08-13T14:42:15.436Z</time>
      </trkpt>
      <trkpt lat="48.44108" lon="-3.87662">
        <ele>315.938232422</ele>
        <time>2014-08-13T14:42:16.434Z</time>
      </trkpt>
      <trkpt lat="48.44109" lon="-3.87672">
        <ele>315.569580078</ele>
        <time>2014-08-13T14:42:17.436Z</time>
      </trkpt>
      <trkpt lat="48.4411" lon="-3.87683">
        <ele>315.486541748</ele>
        <time>2014-08-13T14:42:18.446Z</time>
      </trkpt>
      <trkpt lat="48.44111" lon="-3.87694">
        <ele>315.774078369</ele>
        <time>2014-08-13T14:42:19.44Z</time>
      </trkpt>
      <trkpt lat="48.44112" lon="-3.87704">
        <ele>315.76385498</ele>
        <time>2014-08-13T14:42:20.44Z</time>
      </trkpt>
      <trkpt lat="48.44113" lon="-3.87713">
        <ele>315.534240723</ele>
        <time>2014-08-13T14:42:21.437Z</time>
      </trkpt>
      <trkpt lat="48.44114" lon="-3.87723">
        <ele>315.460266113</ele>
        <time>2014-08-13T14:42:22.47Z</time>
      </trkpt>
      <trkpt lat="48.44116" lon="-3.87734">
        <ele>315.676208496</ele>
        <time>2014-08-13T14:42:23.434Z</time>
      </trkpt>
      <trkpt lat="48.44117" lon="-3.87744">
        <ele>315.999481201</ele>
        <time>2014-08-13T14:42:24.439Z</time>
      </trkpt>
      <trkpt lat="48.44118" lon="-3.87754">
        <ele>316.250671387</ele>
        <time>2014-08-13T14:42:25.426Z</time>
      </trkpt>
      <trkpt lat="48.44119" lon="-3.87764">
        <ele>316.601196289</ele>
        <time>2014-08-13T14:42:26.439Z</time>
      </trkpt>
      <trkpt lat="48.4412" lon="-3.87775">
        <ele>316.607299805</ele>
        <time>2014-08-13T14:42:27.441Z</time>
      </trkpt>
      <trkpt lat="48.44122" lon="-3.87786">
        <ele>316.023498535</ele>
        <time>2014-08-13T14:42:28.433Z</time>
      </trkpt>
      <trkpt lat="48.44123" lon="-3.87797">
        <ele>316.21875</ele>
        <time>2014-08-13T14:42:29.447Z</time>
      </trkpt>
      <trkpt lat="48.44124" lon="-3.87808">
        <ele>316.198394775</ele>
        <time>2014-08-13T14:42:30.436Z</time>
      </trkpt>
      <trkpt lat="48.44125" lon="-3.87818">
        <ele>315.837677002</ele>
        <time>2014-08-13T14:42:31.438Z</time>
      </trkpt>
      <trkpt lat="48.44127" lon="-3.87829">
        <ele>315.707305908</ele>
        <time>2014-08-13T14:42:32.434Z</time>
      </trkpt>
      <trkpt lat="48.44129" lon="-3.87839">
        <ele>315.347381592</ele>
        <time>2014-08-13T14:42:33.444Z</time>
      </trkpt>
      <trkpt lat="48.4413" lon="-3.87849">
        <ele>314.973266602</ele>
        <time>2014-08-13T14:42:34.44Z</time>
      </trkpt>
      <trkpt lat="48.44132" lon="-3.87859">
        <ele>314.175933838</ele>
        <time>2014-08-13T14:42:35.439Z</time>
      </trkpt>
      <trkpt lat="48.44133" lon="-3.87869">
        <ele>313.352081299</ele>
        <time>2014-08-13T14:42:36.439Z</time>
      </trkpt>
      <trkpt lat="48.44134" lon="-3.87879">
        <ele>312.679992676</ele>
        <time>2014-08-13T14:42:37.436Z</time>
      </trkpt>
      <trkpt lat="48.44135" lon="-3.87888">
        <ele>311.908233643</ele>
        <time>2014-08-13T14:42:38.445Z</time>
      </trkpt>
      <trkpt lat="48.44136" lon="-3.87896">
        <ele>310.945037842</ele>
        <time>2014-08-13T14:42:39.445Z</time>
      </trkpt>
      <trkpt lat="48.44137" lon="-3.87904">
        <ele>310.36505127</ele>
        <time>2014-08-13T14:42:40.445Z</time>
      </trkpt>
      <trkpt lat="48.44137" lon="-3.87913">
        <ele>309.62512207</ele>
        <time>2014-08-13T14:42:41.448Z</time>
      </trkpt>
      <trkpt lat="48.44138" lon="-3.87922">
        <ele>308.868621826</ele>
        <time>2014-08-13T14:42:42.446Z</time>
      </trkpt>
      <trkpt lat="48.44139" lon="-3.87931">
        <ele>308.235412598</ele>
        <time>2014-08-13T14:42:43.435Z</time>
      </trkpt>
      <trkpt lat="48.44139" lon="-3.8794">
        <ele>307.489532471</ele>
        <time>2014-08-13T14:42:44.437Z</time>
      </trkpt>
      <trkpt lat="48.44139" lon="-3.87948">
        <ele>307.122711182</ele>
        <time>2014-08-13T14:42:45.445Z</time>
      </trkpt>
      <trkpt lat="48.44138" lon="-3.87956">
        <ele>306.275360107</ele>
        <time>2014-08-13T14:42:46.431Z</time>
      </trkpt>
      <trkpt lat="48.44138" lon="-3.87963">
        <ele>305.473327637</ele>
        <time>2014-08-13T14:42:47.44Z</time>
      </trkpt>
      <trkpt lat="48.44137" lon="-3.8797">
        <ele>304.937805176</ele>
        <time>2014-08-13T14:42:48.442Z</time>
      </trkpt>
      <trkpt lat="48.44137" lon="-3.87977">
        <ele>304.326049805</ele>
        <time>2014-08-13T14:42:49.462Z</time>
      </trkpt>
      <trkpt lat="48.44136" lon="-3.87985">
        <ele>304.159667969</ele>
        <time>2014-08-13T14:42:50.442Z</time>
      </trkpt>
      <trkpt lat="48.44135" lon="-3.87976">
        <ele>305.339874268</ele>
        <time>2014-08-13T14:43:05.503Z</time>
      </trkpt>
      <trkpt lat="48.44136" lon="-3.8797">
        <ele>305.645385742</ele>
        <time>2014-08-13T14:43:06.425Z</time>
      </trkpt>
      <trkpt lat="48.44136" lon="-3.87963">
        <ele>308.604675293</ele>
        <time>2014-08-13T14:43:07.437Z</time>
      </trkpt>
      <trkpt lat="48.44137" lon="-3.87955">
        <ele>310.7996521</ele>
        <time>2014-08-13T14:43:08.436Z</time>
      </trkpt>
      <trkpt lat="48.44137" lon="-3.87948">
        <ele>312.3203125</ele>
        <time>2014-08-13T14:43:09.452Z</time>
      </trkpt>
      <trkpt lat="48.44137" lon="-3.87941">
        <ele>313.404327393</ele>
        <time>2014-08-13T14:43:10.442Z</time>
      </trkpt>
      <trkpt lat="48.44137" lon="-3.87934">
        <ele>314.150085449</ele>
        <time>2014-08-13T14:43:11.458Z</time>
      </trkpt>
      <trkpt lat="48.44137" lon="-3.87926">
        <ele>314.934295654</ele>
        <time>2014-08-13T14:43:12.437Z</time>
      </trkpt>
      <trkpt lat="48.44136" lon="-3.87919">
        <ele>315.277252197</ele>
        <time>2014-08-13T14:43:13.439Z</time>
      </trkpt>
      <trkpt lat="48.44135" lon="-3.87911">
        <ele>315.520721436</ele>
        <time>2014-08-13T14:43:14.438Z</time>
      </trkpt>
      <trkpt lat="48.44134" lon="-3.87902">
        <ele>316.189697266</ele>
        <time>2014-08-13T14:43:15.44Z</time>
      </trkpt>
      <trkpt lat="48.44133" lon="-3.87893">
        <ele>316.685058594</ele>
        <time>2014-08-13T14:43:16.436Z</time>
      </trkpt>
      <trkpt lat="48.44132" lon="-3.87885">
        <ele>316.834228516</ele>
        <time>2014-08-13T14:43:17.444Z</time>
      </trkpt>
      <trkpt lat="48.44131" lon="-3.87877">
        <ele>316.569000244</ele>
        <time>2014-08-13T14:43:18.446Z</time>
      </trkpt>
      <trkpt lat="48.4413" lon="-3.87869">
        <ele>316.225006104</ele>
        <time>2014-08-13T14:43:19.437Z</time>
      </trkpt>
      <trkpt lat="48.44129" lon="-3.87861">
        <ele>316.050994873</ele>
        <time>2014-08-13T14:43:20.441Z</time>
      </trkpt>
      <trkpt lat="48.44128" lon="-3.87853">
        <ele>315.828094482</ele>
        <time>2014-08-13T14:43:21.468Z</time>
      </trkpt>
      <trkpt lat="48.44127" lon="-3.87844">
        <ele>315.602874756</ele>
        <time>2014-08-13T14:43:22.442Z</time>
      </trkpt>
      <trkpt lat="48.44126" lon="-3.87835">
        <ele>315.444061279</ele>
        <time>2014-08-13T14:43:23.438Z</time>
      </trkpt>
      <trkpt lat="48.44125" lon="-3.87827">
        <ele>315.451538086</ele>
        <time>2014-08-13T14:43:24.445Z</time>
      </trkpt>
      <trkpt lat="48.44123" lon="-3.87816">
        <ele>315.492950439</ele>
        <time>2014-08-13T14:43:26.443Z</time>
      </trkpt>
      <trkpt lat="48.4412" lon="-3.87814">
        <ele>315.504608154</ele>
        <time>2014-08-13T14:43:27.454Z</time>
      </trkpt>
      <trkpt lat="48.44113" lon="-3.8781">
        <ele>314.472137451</ele>
        <time>2014-08-13T14:43:29.445Z</time>
      </trkpt>
      <trkpt lat="48.44111" lon="-3.8781">
        <ele>314.437835693</ele>
        <time>2014-08-13T14:43:30.452Z</time>
      </trkpt>
      <trkpt lat="48.44104" lon="-3.87807">
        <ele>313.792297363</ele>
        <time>2014-08-13T14:43:32.445Z</time>
      </trkpt>
      <trkpt lat="48.441" lon="-3.87807">
        <ele>313.662811279</ele>
        <time>2014-08-13T14:43:33.44Z</time>
      </trkpt>
      <trkpt lat="48.44093" lon="-3.87809">
        <ele>313.40057373</ele>
        <time>2014-08-13T14:43:35.445Z</time>
      </trkpt>
      <trkpt lat="48.44089" lon="-3.8781">
        <ele>312.937744141</ele>
        <time>2014-08-13T14:43:36.444Z</time>
      </trkpt>
      <trkpt lat="48.44082" lon="-3.87809">
        <ele>312.870452881</ele>
        <time>2014-08-13T14:43:58.441Z</time>
      </trkpt>
      <trkpt lat="48.44078" lon="-3.87804">
        <ele>312.787689209</ele>
        <time>2014-08-13T14:43:59.45Z</time>
      </trkpt>
      <trkpt lat="48.44069" lon="-3.87805">
        <ele>312.5652771</ele>
        <time>2014-08-13T14:44:02.445Z</time>
      </trkpt>
      <trkpt lat="48.44064" lon="-3.87806">
        <ele>311.507781982</ele>
        <time>2014-08-13T14:44:03.446Z</time>
      </trkpt>
      <trkpt lat="48.44058" lon="-3.87804">
        <ele>310.684936523</ele>
        <time>2014-08-13T14:44:04.435Z</time>
      </trkpt>
      <trkpt lat="48.44052" lon="-3.87803">
        <ele>310.409912109</ele>
        <time>2014-08-13T14:44:05.447Z</time>
      </trkpt>
      <trkpt lat="48.44045" lon="-3.87804">
        <ele>310.226806641</ele>
        <time>2014-08-13T14:44:06.476Z</time>
      </trkpt>
      <trkpt lat="48.44038" lon="-3.87806">
        <ele>309.655303955</ele>
        <time>2014-08-13T14:44:07.448Z</time>
      </trkpt>
      <trkpt lat="48.44031" lon="-3.87809">
        <ele>309.237823486</ele>
        <time>2014-08-13T14:44:08.444Z</time>
      </trkpt>
      <trkpt lat="48.44025" lon="-3.87811">
        <ele>308.870147705</ele>
        <time>2014-08-13T14:44:09.45Z</time>
      </trkpt>
      <trkpt lat="48.44019" lon="-3.87814">
        <ele>308.26083374</ele>
        <time>2014-08-13T14:44:10.444Z</time>
      </trkpt>
      <trkpt lat="48.44012" lon="-3.87819">
        <ele>307.899261475</ele>
        <time>2014-08-13T14:44:11.45Z</time>
      </trkpt>
      <trkpt lat="48.44006" lon="-3.87823">
        <ele>307.984191895</ele>
        <time>2014-08-13T14:44:12.447Z</time>
      </trkpt>
      <trkpt lat="48.43999" lon="-3.87825">
        <ele>307.685852051</ele>
        <time>2014-08-13T14:44:13.446Z</time>
      </trkpt>
      <trkpt lat="48.43993" lon="-3.87828">
        <ele>306.800445557</ele>
        <time>2014-08-13T14:44:14.438Z</time>
      </trkpt>
      <trkpt lat="48.43988" lon="-3.87833">
        <ele>307.056488037</ele>
        <time>2014-08-13T14:44:15.446Z</time>
      </trkpt>
      <trkpt lat="48.43981" lon="-3.87839">
        <ele>306.996490479</ele>
        <time>2014-08-13T14:44:16.436Z</time>
      </trkpt>
      <trkpt lat="48.43974" lon="-3.87846">
        <ele>306.364044189</ele>
        <time>2014-08-13T14:44:17.44Z</time>
      </trkpt>
      <trkpt lat="48.43968" lon="-3.87849">
        <ele>305.963134766</ele>
        <time>2014-08-13T14:44:18.443Z</time>
      </trkpt>
      <trkpt lat="48.43961" lon="-3.87853">
        <ele>306.238494873</ele>
        <time>2014-08-13T14:44:19.446Z</time>
      </trkpt>
      <trkpt lat="48.43956" lon="-3.87856">
        <ele>306.744567871</ele>
        <time>2014-08-13T14:44:20.438Z</time>
      </trkpt>
      <trkpt lat="48.43951" lon="-3.87861">
        <ele>307.58795166</ele>
        <time>2014-08-13T14:44:21.44Z</time>
      </trkpt>
      <trkpt lat="48.43945" lon="-3.87867">
        <ele>307.457702637</ele>
        <time>2014-08-13T14:44:22.436Z</time>
      </trkpt>
      <trkpt lat="48.4394" lon="-3.87874">
        <ele>307.345184326</ele>
        <time>2014-08-13T14:44:23.44Z</time>
      </trkpt>
      <trkpt lat="48.43934" lon="-3.8788">
        <ele>306.812194824</ele>
        <time>2014-08-13T14:44:24.437Z</time>
      </trkpt>
      <trkpt lat="48.43926" lon="-3.87883">
        <ele>306.656036377</ele>
        <time>2014-08-13T14:44:25.437Z</time>
      </trkpt>
      <trkpt lat="48.4392" lon="-3.87889">
        <ele>306.584197998</ele>
        <time>2014-08-13T14:44:26.434Z</time>
      </trkpt>
      <trkpt lat="48.43917" lon="-3.87898">
        <ele>305.031005859</ele>
        <time>2014-08-13T14:44:27.436Z</time>
      </trkpt>
      <trkpt lat="48.43914" lon="-3.87907">
        <ele>304.622314453</ele>
        <time>2014-08-13T14:44:28.438Z</time>
      </trkpt>
      <trkpt lat="48.43909" lon="-3.87914">
        <ele>304.864135742</ele>
        <time>2014-08-13T14:44:29.436Z</time>
      </trkpt>
      <trkpt lat="48.43905" lon="-3.87922">
        <ele>305.060241699</ele>
        <time>2014-08-13T14:44:30.442Z</time>
      </trkpt>
      <trkpt lat="48.439" lon="-3.87932">
        <ele>305.204376221</ele>
        <time>2014-08-13T14:44:31.438Z</time>
      </trkpt>
      <trkpt lat="48.43896" lon="-3.87942">
        <ele>304.690826416</ele>
        <time>2014-08-13T14:44:32.442Z</time>
      </trkpt>
      <trkpt lat="48.43892" lon="-3.87952">
        <ele>304.206970215</ele>
        <time>2014-08-13T14:44:33.442Z</time>
      </trkpt>
      <trkpt lat="48.43887" lon="-3.87961">
        <ele>303.609710693</ele>
        <time>2014-08-13T14:44:34.452Z</time>
      </trkpt>
      <trkpt lat="48.43882" lon="-3.87973">
        <ele>302.780731201</ele>
        <time>2014-08-13T14:44:35.436Z</time>
      </trkpt>
      <trkpt lat="48.43878" lon="-3.87982">
        <ele>301.988922119</ele>
        <time>2014-08-13T14:44:36.442Z</time>
      </trkpt>
      <trkpt lat="48.43873" lon="-3.87992">
        <ele>301.289276123</ele>
        <time>2014-08-13T14:44:37.443Z</time>
      </trkpt>
      <trkpt lat="48.43869" lon="-3.88001">
        <ele>300.772369385</ele>
        <time>2014-08-13T14:44:38.442Z</time>
      </trkpt>
      <trkpt lat="48.43866" lon="-3.8801">
        <ele>300.800598145</ele>
        <time>2014-08-13T14:44:39.448Z</time>
      </trkpt>
      <trkpt lat="48.43862" lon="-3.88016">
        <ele>299.815368652</ele>
        <time>2014-08-13T14:44:40.445Z</time>
      </trkpt>
      <trkpt lat="48.43859" lon="-3.88024">
        <ele>298.573394775</ele>
        <time>2014-08-13T14:44:41.442Z</time>
      </trkpt>
      <trkpt lat="48.43855" lon="-3.88032">
        <ele>297.65145874</ele>
        <time>2014-08-13T14:44:42.442Z</time>
      </trkpt>
      <trkpt lat="48.43852" lon="-3.8804">
        <ele>296.777862549</ele>
        <time>2014-08-13T14:44:43.432Z</time>
      </trkpt>
      <trkpt lat="48.43848" lon="-3.88049">
        <ele>296.810394287</ele>
        <time>2014-08-13T14:44:44.433Z</time>
      </trkpt>
      <trkpt lat="48.43844" lon="-3.88059">
        <ele>297.24319458</ele>
        <time>2014-08-13T14:44:45.441Z</time>
      </trkpt>
      <trkpt lat="48.43841" lon="-3.88069">
        <ele>297.700531006</ele>
        <time>2014-08-13T14:44:46.442Z</time>
      </trkpt>
      <trkpt lat="48.4384" lon="-3.88081">
        <ele>298.036590576</ele>
        <time>2014-08-13T14:44:47.444Z</time>
      </trkpt>
      <trkpt lat="48.43839" lon="-3.88093">
        <ele>297.987792969</ele>
        <time>2014-08-13T14:44:48.44Z</time>
      </trkpt>
      <trkpt lat="48.43839" lon="-3.88104">
        <ele>298.136199951</ele>
        <time>2014-08-13T14:44:49.469Z</time>
      </trkpt>
      <trkpt lat="48.4384" lon="-3.88117">
        <ele>298.67300415</ele>
        <time>2014-08-13T14:44:50.443Z</time>
      </trkpt>
      <trkpt lat="48.4384" lon="-3.88127">
        <ele>298.216766357</ele>
        <time>2014-08-13T14:44:51.443Z</time>
      </trkpt>
      <trkpt lat="48.43841" lon="-3.88138">
        <ele>298.07635498</ele>
        <time>2014-08-13T14:44:52.441Z</time>
      </trkpt>
      <trkpt lat="48.43843" lon="-3.88149">
        <ele>298.710906982</ele>
        <time>2014-08-13T14:44:53.438Z</time>
      </trkpt>
      <trkpt lat="48.43843" lon="-3.88159">
        <ele>298.998443604</ele>
        <time>2014-08-13T14:44:54.446Z</time>
      </trkpt>
      <trkpt lat="48.43844" lon="-3.8817">
        <ele>299.527526855</ele>
        <time>2014-08-13T14:44:55.435Z</time>
      </trkpt>
      <trkpt lat="48.43844" lon="-3.8818">
        <ele>300.203582764</ele>
        <time>2014-08-13T14:44:56.445Z</time>
      </trkpt>
      <trkpt lat="48.43844" lon="-3.88189">
        <ele>300.135620117</ele>
        <time>2014-08-13T14:44:57.413Z</time>
      </trkpt>
      <trkpt lat="48.43845" lon="-3.88198">
        <ele>300.472930908</ele>
        <time>2014-08-13T14:44:58.445Z</time>
      </trkpt>
      <trkpt lat="48.43846" lon="-3.88206">
        <ele>301.05947876</ele>
        <time>2014-08-13T14:44:59.441Z</time>
      </trkpt>
      <trkpt lat="48.43846" lon="-3.88215">
        <ele>301.939453125</ele>
        <time>2014-08-13T14:45:00.442Z</time>
      </trkpt>
      <trkpt lat="48.43847" lon="-3.88224">
        <ele>302.446624756</ele>
        <time>2014-08-13T14:45:01.432Z</time>
      </trkpt>
      <trkpt lat="48.43847" lon="-3.88234">
        <ele>302.665130615</ele>
        <time>2014-08-13T14:45:02.47Z</time>
      </trkpt>
      <trkpt lat="48.43848" lon="-3.88245">
        <ele>301.77911377</ele>
        <time>2014-08-13T14:45:03.444Z</time>
      </trkpt>
      <trkpt lat="48.43848" lon="-3.88253">
        <ele>300.589691162</ele>
        <time>2014-08-13T14:45:04.439Z</time>
      </trkpt>
      <trkpt lat="48.43849" lon="-3.88264">
        <ele>300.159576416</ele>
        <time>2014-08-13T14:45:05.439Z</time>
      </trkpt>
      <trkpt lat="48.4385" lon="-3.88274">
        <ele>299.811676025</ele>
        <time>2014-08-13T14:45:06.447Z</time>
      </trkpt>
      <trkpt lat="48.43851" lon="-3.88284">
        <ele>299.343688965</ele>
        <time>2014-08-13T14:45:07.437Z</time>
      </trkpt>
      <trkpt lat="48.43852" lon="-3.88295">
        <ele>299.140167236</ele>
        <time>2014-08-13T14:45:08.441Z</time>
      </trkpt>
      <trkpt lat="48.43854" lon="-3.88305">
        <ele>298.524658203</ele>
        <time>2014-08-13T14:45:09.452Z</time>
      </trkpt>
      <trkpt lat="48.43856" lon="-3.88316">
        <ele>297.752929688</ele>
        <time>2014-08-13T14:45:10.439Z</time>
      </trkpt>
      <trkpt lat="48.4386" lon="-3.88324">
        <ele>297.004852295</ele>
        <time>2014-08-13T14:45:11.44Z</time>
      </trkpt>
      <trkpt lat="48.43864" lon="-3.88332">
        <ele>296.676605225</ele>
        <time>2014-08-13T14:45:12.435Z</time>
      </trkpt>
      <trkpt lat="48.43869" lon="-3.88338">
        <ele>296.276977539</ele>
        <time>2014-08-13T14:45:13.436Z</time>
      </trkpt>
      <trkpt lat="48.43874" lon="-3.88345">
        <ele>296.378234863</ele>
        <time>2014-08-13T14:45:14.447Z</time>
      </trkpt>
      <trkpt lat="48.4388" lon="-3.8835">
        <ele>296.011657715</ele>
        <time>2014-08-13T14:45:15.451Z</time>
      </trkpt>
      <trkpt lat="48.43885" lon="-3.88355">
        <ele>296.404968262</ele>
        <time>2014-08-13T14:45:16.445Z</time>
      </trkpt>
      <trkpt lat="48.43891" lon="-3.88358">
        <ele>296.932037354</ele>
        <time>2014-08-13T14:45:17.445Z</time>
      </trkpt>
      <trkpt lat="48.43897" lon="-3.8836">
        <ele>297.782470703</ele>
        <time>2014-08-13T14:45:18.444Z</time>
      </trkpt>
      <trkpt lat="48.43902" lon="-3.88361">
        <ele>298.540618896</ele>
        <time>2014-08-13T14:45:19.446Z</time>
      </trkpt>
      <trkpt lat="48.43908" lon="-3.88362">
        <ele>298.951385498</ele>
        <time>2014-08-13T14:45:20.443Z</time>
      </trkpt>
      <trkpt lat="48.43913" lon="-3.88363">
        <ele>299.214904785</ele>
        <time>2014-08-13T14:45:21.445Z</time>
      </trkpt>
      <trkpt lat="48.43918" lon="-3.88363">
        <ele>299.782440186</ele>
        <time>2014-08-13T14:45:22.444Z</time>
      </trkpt>
      <trkpt lat="48.43924" lon="-3.88361">
        <ele>299.77331543</ele>
        <time>2014-08-13T14:45:23.442Z</time>
      </trkpt>
      <trkpt lat="48.4393" lon="-3.8836">
        <ele>299.555267334</ele>
        <time>2014-08-13T14:45:24.442Z</time>
      </trkpt>
      <trkpt lat="48.43935" lon="-3.88359">
        <ele>298.476898193</ele>
        <time>2014-08-13T14:45:25.441Z</time>
      </trkpt>
      <trkpt lat="48.43941" lon="-3.88358">
        <ele>298.009368896</ele>
        <time>2014-08-13T14:45:26.445Z</time>
      </trkpt>
      <trkpt lat="48.43946" lon="-3.88358">
        <ele>297.41998291</ele>
        <time>2014-08-13T14:45:27.447Z</time>
      </trkpt>
      <trkpt lat="48.43954" lon="-3.88358">
        <ele>296.977752686</ele>
        <time>2014-08-13T14:45:29.453Z</time>
      </trkpt>
      <trkpt lat="48.43958" lon="-3.88358">
        <ele>296.871032715</ele>
        <time>2014-08-13T14:45:30.444Z</time>
      </trkpt>
      <trkpt lat="48.43966" lon="-3.8836">
        <ele>297.332763672</ele>
        <time>2014-08-13T14:45:32.472Z</time>
      </trkpt>
      <trkpt lat="48.43971" lon="-3.88358">
        <ele>297.043670654</ele>
        <time>2014-08-13T14:45:33.45Z</time>
      </trkpt>
      <trkpt lat="48.43979" lon="-3.88359">
        <ele>297.068359375</ele>
        <time>2014-08-13T14:45:36.463Z</time>
      </trkpt>
      <trkpt lat="48.43983" lon="-3.88359">
        <ele>297.034881592</ele>
        <time>2014-08-13T14:45:37.44Z</time>
      </trkpt>
      <trkpt lat="48.43991" lon="-3.88364">
        <ele>297.221343994</ele>
        <time>2014-08-13T14:45:39.436Z</time>
      </trkpt>
      <trkpt lat="48.43998" lon="-3.88367">
        <ele>298.513702393</ele>
        <time>2014-08-13T14:45:40.445Z</time>
      </trkpt>
      <trkpt lat="48.44004" lon="-3.88369">
        <ele>299.382659912</ele>
        <time>2014-08-13T14:45:41.446Z</time>
      </trkpt>
      <trkpt lat="48.44009" lon="-3.88371">
        <ele>299.976654053</ele>
        <time>2014-08-13T14:45:42.452Z</time>
      </trkpt>
      <trkpt lat="48.44017" lon="-3.88375">
        <ele>300.071533203</ele>
        <time>2014-08-13T14:45:44.448Z</time>
      </trkpt>
      <trkpt lat="48.44022" lon="-3.88376">
        <ele>300.719451904</ele>
        <time>2014-08-13T14:45:45.445Z</time>
      </trkpt>
      <trkpt lat="48.44029" lon="-3.8838">
        <ele>300.922027588</ele>
        <time>2014-08-13T14:45:47.444Z</time>
      </trkpt>
      <trkpt lat="48.44032" lon="-3.88382">
        <ele>301.068725586</ele>
        <time>2014-08-13T14:45:48.447Z</time>
      </trkpt>
      <trkpt lat="48.44039" lon="-3.88387">
        <ele>302.39276123</ele>
        <time>2014-08-13T14:45:50.453Z</time>
      </trkpt>
      <trkpt lat="48.44043" lon="-3.8839">
        <ele>302.794616699</ele>
        <time>2014-08-13T14:45:51.447Z</time>
      </trkpt>
      <trkpt lat="48.44047" lon="-3.88393">
        <ele>303.479888916</ele>
        <time>2014-08-13T14:45:52.445Z</time>
      </trkpt>
      <trkpt lat="48.44051" lon="-3.88397">
        <ele>304.915252686</ele>
        <time>2014-08-13T14:45:53.446Z</time>
      </trkpt>
      <trkpt lat="48.44056" lon="-3.88406">
        <ele>305.593109131</ele>
        <time>2014-08-13T14:45:55.443Z</time>
      </trkpt>
      <trkpt lat="48.4406" lon="-3.88411">
        <ele>305.852081299</ele>
        <time>2014-08-13T14:45:56.447Z</time>
      </trkpt>
      <trkpt lat="48.44064" lon="-3.88414">
        <ele>306.05456543</ele>
        <time>2014-08-13T14:45:57.446Z</time>
      </trkpt>
      <trkpt lat="48.44068" lon="-3.88418">
        <ele>306.33984375</ele>
        <time>2014-08-13T14:45:58.442Z</time>
      </trkpt>
      <trkpt lat="48.44075" lon="-3.88425">
        <ele>306.933807373</ele>
        <time>2014-08-13T14:46:00.446Z</time>
      </trkpt>
      <trkpt lat="48.44078" lon="-3.88428">
        <ele>306.877166748</ele>
        <time>2014-08-13T14:46:01.432Z</time>
      </trkpt>
      <trkpt lat="48.44084" lon="-3.88436">
        <ele>305.95980835</ele>
        <time>2014-08-13T14:46:03.439Z</time>
      </trkpt>
      <trkpt lat="48.44087" lon="-3.88439">
        <ele>305.93963623</ele>
        <time>2014-08-13T14:46:04.454Z</time>
      </trkpt>
      <trkpt lat="48.44093" lon="-3.88444">
        <ele>306.113861084</ele>
        <time>2014-08-13T14:46:06.446Z</time>
      </trkpt>
      <trkpt lat="48.44097" lon="-3.88446">
        <ele>306.248962402</ele>
        <time>2014-08-13T14:46:07.433Z</time>
      </trkpt>
      <trkpt lat="48.44105" lon="-3.88447">
        <ele>306.57699585</ele>
        <time>2014-08-13T14:46:12.439Z</time>
      </trkpt>
      <trkpt lat="48.44106" lon="-3.88448">
        <ele>306.548156738</ele>
        <time>2014-08-13T14:46:13.432Z</time>
      </trkpt>
      <trkpt lat="48.44111" lon="-3.88457">
        <ele>306.162780762</ele>
        <time>2014-08-13T14:46:18.445Z</time>
      </trkpt>
      <trkpt lat="48.44111" lon="-3.88461">
        <ele>306.150909424</ele>
        <time>2014-08-13T14:46:19.433Z</time>
      </trkpt>
      <trkpt lat="48.4411" lon="-3.88474">
        <ele>306.225982666</ele>
        <time>2014-08-13T14:46:23.443Z</time>
      </trkpt>
      <trkpt lat="48.4411" lon="-3.88476">
        <ele>306.227020264</ele>
        <time>2014-08-13T14:46:24.445Z</time>
      </trkpt>
      <trkpt lat="48.44108" lon="-3.88488">
        <ele>306.38067627</ele>
        <time>2014-08-13T14:46:27.446Z</time>
      </trkpt>
      <trkpt lat="48.44108" lon="-3.88491">
        <ele>306.420318604</ele>
        <time>2014-08-13T14:46:28.448Z</time>
      </trkpt>
      <trkpt lat="48.44107" lon="-3.88504">
        <ele>306.269561768</ele>
        <time>2014-08-13T14:46:31.436Z</time>
      </trkpt>
      <trkpt lat="48.44107" lon="-3.88509">
        <ele>306.231750488</ele>
        <time>2014-08-13T14:46:32.443Z</time>
      </trkpt>
      <trkpt lat="48.44107" lon="-3.88516">
        <ele>306.088592529</ele>
        <time>2014-08-13T14:46:33.441Z</time>
      </trkpt>
      <trkpt lat="48.44106" lon="-3.88524">
        <ele>306.186248779</ele>
        <time>2014-08-13T14:46:34.479Z</time>
      </trkpt>
      <trkpt lat="48.44104" lon="-3.88531">
        <ele>306.212432861</ele>
        <time>2014-08-13T14:46:35.441Z</time>
      </trkpt>
      <trkpt lat="48.441" lon="-3.88537">
        <ele>305.83782959</ele>
        <time>2014-08-13T14:46:36.451Z</time>
      </trkpt>
      <trkpt lat="48.44097" lon="-3.88543">
        <ele>305.50567627</ele>
        <time>2014-08-13T14:46:37.44Z</time>
      </trkpt>
      <trkpt lat="48.44094" lon="-3.88551">
        <ele>305.612213135</ele>
        <time>2014-08-13T14:46:38.447Z</time>
      </trkpt>
      <trkpt lat="48.4409" lon="-3.88559">
        <ele>306.145751953</ele>
        <time>2014-08-13T14:46:39.472Z</time>
      </trkpt>
      <trkpt lat="48.44088" lon="-3.88565">
        <ele>306.251617432</ele>
        <time>2014-08-13T14:46:40.451Z</time>
      </trkpt>
      <trkpt lat="48.44086" lon="-3.88571">
        <ele>305.734130859</ele>
        <time>2014-08-13T14:46:41.44Z</time>
      </trkpt>
      <trkpt lat="48.44083" lon="-3.88578">
        <ele>305.35369873</ele>
        <time>2014-08-13T14:46:42.447Z</time>
      </trkpt>
      <trkpt lat="48.44081" lon="-3.88585">
        <ele>304.858703613</ele>
        <time>2014-08-13T14:46:43.442Z</time>
      </trkpt>
      <trkpt lat="48.44078" lon="-3.88592">
        <ele>304.246490479</ele>
        <time>2014-08-13T14:46:44.445Z</time>
      </trkpt>
      <trkpt lat="48.44075" lon="-3.88604">
        <ele>303.872070312</ele>
        <time>2014-08-13T14:46:46.441Z</time>
      </trkpt>
      <trkpt lat="48.44073" lon="-3.88609">
        <ele>303.231689453</ele>
        <time>2014-08-13T14:46:47.443Z</time>
      </trkpt>
      <trkpt lat="48.4407" lon="-3.88616">
        <ele>302.385894775</ele>
        <time>2014-08-13T14:46:48.439Z</time>
      </trkpt>
      <trkpt lat="48.44068" lon="-3.88623">
        <ele>301.220581055</ele>
        <time>2014-08-13T14:46:49.434Z</time>
      </trkpt>
      <trkpt lat="48.44065" lon="-3.88629">
        <ele>300.211334229</ele>
        <time>2014-08-13T14:46:50.453Z</time>
      </trkpt>
      <trkpt lat="48.44062" lon="-3.88635">
        <ele>299.064361572</ele>
        <time>2014-08-13T14:46:51.444Z</time>
      </trkpt>
      <trkpt lat="48.44059" lon="-3.88641">
        <ele>297.28427124</ele>
        <time>2014-08-13T14:46:52.436Z</time>
      </trkpt>
      <trkpt lat="48.44057" lon="-3.88646">
        <ele>295.876220703</ele>
        <time>2014-08-13T14:46:53.444Z</time>
      </trkpt>
      <trkpt lat="48.44054" lon="-3.88653">
        <ele>294.86932373</ele>
        <time>2014-08-13T14:46:54.44Z</time>
      </trkpt>
      <trkpt lat="48.4405" lon="-3.88661">
        <ele>294.171661377</ele>
        <time>2014-08-13T14:46:55.433Z</time>
      </trkpt>
      <trkpt lat="48.44047" lon="-3.88668">
        <ele>293.600799561</ele>
        <time>2014-08-13T14:46:56.441Z</time>
      </trkpt>
      <trkpt lat="48.44045" lon="-3.88674">
        <ele>293.364196777</ele>
        <time>2014-08-13T14:46:57.433Z</time>
      </trkpt>
      <trkpt lat="48.44042" lon="-3.88681">
        <ele>293.351837158</ele>
        <time>2014-08-13T14:46:58.44Z</time>
      </trkpt>
      <trkpt lat="48.44039" lon="-3.88687">
        <ele>293.930877686</ele>
        <time>2014-08-13T14:46:59.446Z</time>
      </trkpt>
      <trkpt lat="48.44036" lon="-3.88694">
        <ele>294.153961182</ele>
        <time>2014-08-13T14:47:00.412Z</time>
      </trkpt>
      <trkpt lat="48.44034" lon="-3.88699">
        <ele>294.501037598</ele>
        <time>2014-08-13T14:47:01.434Z</time>
      </trkpt>
      <trkpt lat="48.44031" lon="-3.88705">
        <ele>295.106811523</ele>
        <time>2014-08-13T14:47:02.437Z</time>
      </trkpt>
      <trkpt lat="48.44028" lon="-3.88711">
        <ele>295.384796143</ele>
        <time>2014-08-13T14:47:03.445Z</time>
      </trkpt>
      <trkpt lat="48.44023" lon="-3.88722">
        <ele>296.419616699</ele>
        <time>2014-08-13T14:47:05.445Z</time>
      </trkpt>
      <trkpt lat="48.44021" lon="-3.88727">
        <ele>296.848266602</ele>
        <time>2014-08-13T14:47:06.446Z</time>
      </trkpt>
      <trkpt lat="48.44018" lon="-3.88733">
        <ele>297.489654541</ele>
        <time>2014-08-13T14:47:07.433Z</time>
      </trkpt>
      <trkpt lat="48.44015" lon="-3.88739">
        <ele>297.603607178</ele>
        <time>2014-08-13T14:47:08.444Z</time>
      </trkpt>
      <trkpt lat="48.4401" lon="-3.8875">
        <ele>298.567657471</ele>
        <time>2014-08-13T14:47:10.438Z</time>
      </trkpt>
      <trkpt lat="48.44008" lon="-3.88755">
        <ele>298.828948975</ele>
        <time>2014-08-13T14:47:11.439Z</time>
      </trkpt>
      <trkpt lat="48.44" lon="-3.8876">
        <ele>299.115264893</ele>
        <time>2014-08-13T14:47:14.475Z</time>
      </trkpt>
      <trkpt lat="48.43997" lon="-3.88759">
        <ele>299.146606445</ele>
        <time>2014-08-13T14:47:15.441Z</time>
      </trkpt>
      <trkpt lat="48.4399" lon="-3.88755">
        <ele>300.831756592</ele>
        <time>2014-08-13T14:47:17.446Z</time>
      </trkpt>
      <trkpt lat="48.43986" lon="-3.8875">
        <ele>301.411193848</ele>
        <time>2014-08-13T14:47:18.447Z</time>
      </trkpt>
      <trkpt lat="48.43981" lon="-3.88744">
        <ele>300.862976074</ele>
        <time>2014-08-13T14:47:19.45Z</time>
      </trkpt>
      <trkpt lat="48.43976" lon="-3.88739">
        <ele>300.102783203</ele>
        <time>2014-08-13T14:47:20.45Z</time>
      </trkpt>
      <trkpt lat="48.43971" lon="-3.88733">
        <ele>299.333251953</ele>
        <time>2014-08-13T14:47:21.443Z</time>
      </trkpt>
      <trkpt lat="48.43966" lon="-3.88728">
        <ele>298.729003906</ele>
        <time>2014-08-13T14:47:22.443Z</time>
      </trkpt>
      <trkpt lat="48.43961" lon="-3.88722">
        <ele>298.461914062</ele>
        <time>2014-08-13T14:47:23.437Z</time>
      </trkpt>
      <trkpt lat="48.43957" lon="-3.88718">
        <ele>298.20904541</ele>
        <time>2014-08-13T14:47:24.442Z</time>
      </trkpt>
      <trkpt lat="48.43952" lon="-3.88713">
        <ele>297.848693848</ele>
        <time>2014-08-13T14:47:25.442Z</time>
      </trkpt>
      <trkpt lat="48.43948" lon="-3.88708">
        <ele>297.449401855</ele>
        <time>2014-08-13T14:47:26.443Z</time>
      </trkpt>
      <trkpt lat="48.43944" lon="-3.88704">
        <ele>297.2918396</ele>
        <time>2014-08-13T14:47:27.444Z</time>
      </trkpt>
      <trkpt lat="48.4394" lon="-3.88699">
        <ele>297.150726318</ele>
        <time>2014-08-13T14:47:28.439Z</time>
      </trkpt>
      <trkpt lat="48.43934" lon="-3.88692">
        <ele>295.596008301</ele>
        <time>2014-08-13T14:47:30.447Z</time>
      </trkpt>
      <trkpt lat="48.4393" lon="-3.8869">
        <ele>295.078704834</ele>
        <time>2014-08-13T14:47:31.443Z</time>
      </trkpt>
      <trkpt lat="48.43926" lon="-3.8868">
        <ele>295.191925049</ele>
        <time>2014-08-13T14:47:35.447Z</time>
      </trkpt>
      <trkpt lat="48.43925" lon="-3.88677">
        <ele>295.241424561</ele>
        <time>2014-08-13T14:47:36.447Z</time>
      </trkpt>
      <trkpt lat="48.43923" lon="-3.88665">
        <ele>295.619354248</ele>
        <time>2014-08-13T14:47:39.45Z</time>
      </trkpt>
      <trkpt lat="48.43923" lon="-3.88661">
        <ele>295.805755615</ele>
        <time>2014-08-13T14:47:40.446Z</time>
      </trkpt>
      <trkpt lat="48.43921" lon="-3.88648">
        <ele>296.497924805</ele>
        <time>2014-08-13T14:47:43.435Z</time>
      </trkpt>
      <trkpt lat="48.43921" lon="-3.88643">
        <ele>296.716156006</ele>
        <time>2014-08-13T14:47:44.44Z</time>
      </trkpt>
      <trkpt lat="48.43921" lon="-3.88637">
        <ele>296.70980835</ele>
        <time>2014-08-13T14:48:54.502Z</time>
      </trkpt>
    </trkseg>
  </trk>
</gpx>